<?xml version='1.0' encoding='UTF-8'?><gpx version="1.1" creator="JPX - https://github.com/jenetics/jpx" xmlns="http://www.topografix.com/GPX/1/1"><trk><trkseg><trkpt lat="43.23633692676985" lon="-2.8036963686846774"><ele>57.0</ele><time>2026-05-01T15:11:40Z</time></trkpt><trkpt lat="43.23634567305949" lon="-2.803593119461955"><ele>57.0</ele><time>2026-05-01T15:11:41Z</time></trkpt><trkpt lat="43.23638570450188" lon="-2.8034614460179546"><ele>57.0</ele><time>2026-05-01T15:11:42Z</time></trkpt><trkpt lat="43.23649244774551" lon="-2.803455184207479"><ele>57.0</ele><time>2026-05-01T15:11:43Z</time></trkpt><trkpt lat="43.23660743753039" lon="-2.8034600845166766"><ele>57.0</ele><time>2026-05-01T15:11:44Z</time></trkpt><trkpt lat="43.236733446365186" lon="-2.803513227255657"><ele>56.75</ele><time>2026-05-01T15:11:45Z</time></trkpt><trkpt lat="43.236859728270254" lon="-2.8035761622744846"><ele>56.5</ele><time>2026-05-01T15:11:46Z</time></trkpt><trkpt lat="43.23700800997824" lon="-2.8035984849868445"><ele>56.25</ele><time>2026-05-01T15:11:47Z</time></trkpt><trkpt lat="43.237150583382046" lon="-2.8035753032063395"><ele>56.0</ele><time>2026-05-01T15:11:48Z</time></trkpt><trkpt lat="43.23730582305927" lon="-2.8035285432740054"><ele>56.75</ele><time>2026-05-01T15:11:49Z</time></trkpt><trkpt lat="43.23745234349292" lon="-2.803488463157961"><ele>57.5</ele><time>2026-05-01T15:11:50Z</time></trkpt><trkpt lat="43.23759514618234" lon="-2.8034458475127946"><ele>58.25</ele><time>2026-05-01T15:11:51Z</time></trkpt><trkpt lat="43.2377416625509" lon="-2.8033963285411336"><ele>59.0</ele><time>2026-05-01T15:11:52Z</time></trkpt><trkpt lat="43.23789931567535" lon="-2.803356120979353"><ele>59.0</ele><time>2026-05-01T15:11:53Z</time></trkpt><trkpt lat="43.23806635500166" lon="-2.8033104536830318"><ele>59.0</ele><time>2026-05-01T15:11:54Z</time></trkpt><trkpt lat="43.238242197648255" lon="-2.8032852252833638"><ele>59.0</ele><time>2026-05-01T15:11:55Z</time></trkpt><trkpt lat="43.238434579609745" lon="-2.8032977147973086"><ele>59.333333333333336</ele><time>2026-05-01T15:11:56Z</time></trkpt><trkpt lat="43.238677600070595" lon="-2.8033011577953477"><ele>59.66666666666667</ele><time>2026-05-01T15:11:57Z</time></trkpt><trkpt lat="43.23887388083965" lon="-2.8033265062529136"><ele>60.0</ele><time>2026-05-01T15:11:58Z</time></trkpt><trkpt lat="43.239064630595365" lon="-2.8033631824368705"><ele>60.0</ele><time>2026-05-01T15:11:59Z</time></trkpt><trkpt lat="43.23926570718784" lon="-2.8033922126883044"><ele>60.0</ele><time>2026-05-01T15:12:00Z</time></trkpt><trkpt lat="43.23945362713784" lon="-2.8034141951407654"><ele>60.0</ele><time>2026-05-01T15:12:01Z</time></trkpt><trkpt lat="43.239645966109016" lon="-2.8034265976348385"><ele>61.0</ele><time>2026-05-01T15:12:02Z</time></trkpt><trkpt lat="43.23983633201007" lon="-2.8033742253179073"><ele>62.0</ele><time>2026-05-01T15:12:03Z</time></trkpt><trkpt lat="43.2400431252797" lon="-2.8032591644574483"><ele>63.0</ele><time>2026-05-01T15:12:04Z</time></trkpt><trkpt lat="43.24025335623839" lon="-2.803156547371087"><ele>63.0</ele><time>2026-05-01T15:12:05Z</time></trkpt><trkpt lat="43.240440538228015" lon="-2.803082029029846"><ele>63.0</ele><time>2026-05-01T15:12:06Z</time></trkpt><trkpt lat="43.24061784558902" lon="-2.802989083217052"><ele>63.0</ele><time>2026-05-01T15:12:07Z</time></trkpt><trkpt lat="43.240797364986214" lon="-2.8029146082637144"><ele>63.0</ele><time>2026-05-01T15:12:08Z</time></trkpt><trkpt lat="43.24098293479229" lon="-2.8028533334777443"><ele>63.0</ele><time>2026-05-01T15:12:09Z</time></trkpt><trkpt lat="43.241196431820214" lon="-2.80284452423297"><ele>63.0</ele><time>2026-05-01T15:12:10Z</time></trkpt><trkpt lat="43.241402607377935" lon="-2.8028343374606544"><ele>65.33333333333333</ele><time>2026-05-01T15:12:11Z</time></trkpt><trkpt lat="43.24161421755911" lon="-2.80287414380075"><ele>67.66666666666666</ele><time>2026-05-01T15:12:12Z</time></trkpt><trkpt lat="43.241826782932655" lon="-2.8029708026966977"><ele>70.0</ele><time>2026-05-01T15:12:12.999Z</time></trkpt><trkpt lat="43.24202516692188" lon="-2.803060250091891"><ele>70.0</ele><time>2026-05-01T15:12:13.999Z</time></trkpt><trkpt lat="43.24221170800598" lon="-2.8032187020658186"><ele>70.0</ele><time>2026-05-01T15:12:14.999Z</time></trkpt><trkpt lat="43.24236823548462" lon="-2.8034374094173673"><ele>70.0</ele><time>2026-05-01T15:12:15.999Z</time></trkpt><trkpt lat="43.24253658721657" lon="-2.8036423932492665"><ele>72.0</ele><time>2026-05-01T15:12:16.999Z</time></trkpt><trkpt lat="43.24265970570438" lon="-2.803858478171554"><ele>74.0</ele><time>2026-05-01T15:12:17.999Z</time></trkpt><trkpt lat="43.24278823285067" lon="-2.804058496245727"><ele>76.0</ele><time>2026-05-01T15:12:18.999Z</time></trkpt><trkpt lat="43.242911599460825" lon="-2.804271341691123"><ele>75.66666666666666</ele><time>2026-05-01T15:12:19.999Z</time></trkpt><trkpt lat="43.24305889106732" lon="-2.804467263615283"><ele>75.33333333333333</ele><time>2026-05-01T15:12:20.999Z</time></trkpt><trkpt lat="43.24323028512416" lon="-2.80461912242808"><ele>75.0</ele><time>2026-05-01T15:12:21.999Z</time></trkpt><trkpt lat="43.24341455672442" lon="-2.8047310864059174"><ele>75.0</ele><time>2026-05-01T15:12:22.999Z</time></trkpt><trkpt lat="43.24360787762091" lon="-2.804818404331794"><ele>75.0</ele><time>2026-05-01T15:12:23.999Z</time></trkpt><trkpt lat="43.243792617255245" lon="-2.804896163124565"><ele>75.0</ele><time>2026-05-01T15:12:24.999Z</time></trkpt><trkpt lat="43.244000907661565" lon="-2.804941799679985"><ele>72.0</ele><time>2026-05-01T15:12:25.999Z</time></trkpt><trkpt lat="43.244205275847484" lon="-2.8050189454032735"><ele>69.0</ele><time>2026-05-01T15:12:26.999Z</time></trkpt><trkpt lat="43.24443042077775" lon="-2.8050866654560123"><ele>66.0</ele><time>2026-05-01T15:12:27.999Z</time></trkpt><trkpt lat="43.2446404486317" lon="-2.805150494117023"><ele>71.0</ele><time>2026-05-01T15:12:28.999Z</time></trkpt><trkpt lat="43.24485424307447" lon="-2.805197788099717"><ele>76.0</ele><time>2026-05-01T15:12:29.999Z</time></trkpt><trkpt lat="43.24507540778196" lon="-2.805224880646352"><ele>81.0</ele><time>2026-05-01T15:12:30.999Z</time></trkpt><trkpt lat="43.245293431639624" lon="-2.8052485345698184"><ele>81.0</ele><time>2026-05-01T15:12:31.999Z</time></trkpt><trkpt lat="43.24550604618704" lon="-2.8052754286969237"><ele>81.0</ele><time>2026-05-01T15:12:32.999Z</time></trkpt><trkpt lat="43.24571887428081" lon="-2.805281486202505"><ele>81.0</ele><time>2026-05-01T15:12:33.999Z</time></trkpt><trkpt lat="43.24593308689338" lon="-2.8052779210679155"><ele>78.66666666666667</ele><time>2026-05-01T15:12:34.999Z</time></trkpt><trkpt lat="43.24614478869685" lon="-2.805266247436451"><ele>76.33333333333334</ele><time>2026-05-01T15:12:35.999Z</time></trkpt><trkpt lat="43.246357002431445" lon="-2.805249666124731"><ele>74.0</ele><time>2026-05-01T15:12:36.999Z</time></trkpt><trkpt lat="43.246562724143644" lon="-2.805212091646137"><ele>70.33333333333334</ele><time>2026-05-01T15:12:37.999Z</time></trkpt><trkpt lat="43.246766639912885" lon="-2.805158937143909"><ele>66.66666666666667</ele><time>2026-05-01T15:12:39Z</time></trkpt><trkpt lat="43.246962665065524" lon="-2.805086447726257"><ele>63.0</ele><time>2026-05-01T15:12:40Z</time></trkpt><trkpt lat="43.24716291969818" lon="-2.8049751590607754"><ele>65.66666666666667</ele><time>2026-05-01T15:12:41Z</time></trkpt><trkpt lat="43.24736612103874" lon="-2.8048481264767138"><ele>68.33333333333334</ele><time>2026-05-01T15:12:42Z</time></trkpt><trkpt lat="43.24755605959686" lon="-2.804694626307814"><ele>71.0</ele><time>2026-05-01T15:12:43Z</time></trkpt><trkpt lat="43.24772904485098" lon="-2.804541152212424"><ele>71.0</ele><time>2026-05-01T15:12:44Z</time></trkpt><trkpt lat="43.24789515339442" lon="-2.804407498474693"><ele>71.0</ele><time>2026-05-01T15:12:45Z</time></trkpt><trkpt lat="43.2480523339214" lon="-2.8042766507576857"><ele>71.0</ele><time>2026-05-01T15:12:46Z</time></trkpt><trkpt lat="43.24818112072005" lon="-2.804174950486654"><ele>71.6</ele><time>2026-05-01T15:12:47Z</time></trkpt><trkpt lat="43.248289082517495" lon="-2.8040580979715894"><ele>72.19999999999999</ele><time>2026-05-01T15:12:48Z</time></trkpt><trkpt lat="43.24837007155939" lon="-2.803973298536903"><ele>72.80000000000001</ele><time>2026-05-01T15:12:49Z</time></trkpt><trkpt lat="43.248436071240526" lon="-2.8038934033671037"><ele>73.4</ele><time>2026-05-01T15:12:50Z</time></trkpt><trkpt lat="43.24851347991575" lon="-2.803816554192491"><ele>74.0</ele><time>2026-05-01T15:12:51Z</time></trkpt><trkpt lat="43.24852963647449" lon="-2.8036689724469195"><ele>74.0</ele><time>2026-05-01T15:12:52Z</time></trkpt><trkpt lat="43.24857605164416" lon="-2.8035192969981853"><ele>74.0</ele><time>2026-05-01T15:12:53Z</time></trkpt><trkpt lat="43.24865432339953" lon="-2.8033837749333363"><ele>74.0</ele><time>2026-05-01T15:12:54Z</time></trkpt><trkpt lat="43.248755425559736" lon="-2.8032125475412926"><ele>74.0</ele><time>2026-05-01T15:12:55Z</time></trkpt><trkpt lat="43.248862501335566" lon="-2.8030414131326458"><ele>74.66666666666667</ele><time>2026-05-01T15:12:56Z</time></trkpt><trkpt lat="43.24896234824789" lon="-2.8028551769527934"><ele>75.33333333333333</ele><time>2026-05-01T15:12:57Z</time></trkpt><trkpt lat="43.249061951577595" lon="-2.8026797572090527"><ele>76.0</ele><time>2026-05-01T15:12:58Z</time></trkpt><trkpt lat="43.249240659901716" lon="-2.8024884687405556"><ele>76.33333333333333</ele><time>2026-05-01T15:12:59Z</time></trkpt><trkpt lat="43.24944330060681" lon="-2.8023741324922304"><ele>76.66666666666667</ele><time>2026-05-01T15:13:00Z</time></trkpt><trkpt lat="43.24960563356" lon="-2.80223896106774"><ele>77.0</ele><time>2026-05-01T15:13:01Z</time></trkpt><trkpt lat="43.24975675127097" lon="-2.802125165199605"><ele>76.66666666666667</ele><time>2026-05-01T15:13:02Z</time></trkpt><trkpt lat="43.249913454021396" lon="-2.8020122264076583"><ele>76.33333333333333</ele><time>2026-05-01T15:13:03Z</time></trkpt><trkpt lat="43.25005613550891" lon="-2.8018999560423534"><ele>76.0</ele><time>2026-05-01T15:13:04Z</time></trkpt><trkpt lat="43.25019793083004" lon="-2.80179312851812"><ele>76.0</ele><time>2026-05-01T15:13:05Z</time></trkpt><trkpt lat="43.25034651383495" lon="-2.8016982335161207"><ele>76.0</ele><time>2026-05-01T15:13:06Z</time></trkpt><trkpt lat="43.25048493128487" lon="-2.8016039142878584"><ele>76.0</ele><time>2026-05-01T15:13:07Z</time></trkpt><trkpt lat="43.250636828728396" lon="-2.801478052901333"><ele>76.0</ele><time>2026-05-01T15:13:08Z</time></trkpt><trkpt lat="43.25077776435228" lon="-2.801305713992642"><ele>76.0</ele><time>2026-05-01T15:13:09Z</time></trkpt><trkpt lat="43.250917561577054" lon="-2.801098511172369"><ele>76.0</ele><time>2026-05-01T15:13:10Z</time></trkpt><trkpt lat="43.25101752465115" lon="-2.8008614519671218"><ele>74.33333333333333</ele><time>2026-05-01T15:13:11Z</time></trkpt><trkpt lat="43.25114798277444" lon="-2.8006329348490464"><ele>72.66666666666667</ele><time>2026-05-01T15:13:12Z</time></trkpt><trkpt lat="43.25128670347028" lon="-2.8003904541790656"><ele>71.0</ele><time>2026-05-01T15:13:13Z</time></trkpt><trkpt lat="43.25142804326581" lon="-2.800136517711645"><ele>69.0</ele><time>2026-05-01T15:13:14Z</time></trkpt><trkpt lat="43.25154807226762" lon="-2.799871567157584"><ele>67.0</ele><time>2026-05-01T15:13:15Z</time></trkpt><trkpt lat="43.25163915641242" lon="-2.7995730825312193"><ele>71.0</ele><time>2026-05-01T15:13:16Z</time></trkpt><trkpt lat="43.25172008216279" lon="-2.7992670244319"><ele>75.0</ele><time>2026-05-01T15:13:17Z</time></trkpt><trkpt lat="43.251807289972774" lon="-2.798903091523866"><ele>75.0</ele><time>2026-05-01T15:13:18Z</time></trkpt><trkpt lat="43.25187839397648" lon="-2.798575292700446"><ele>75.0</ele><time>2026-05-01T15:13:19Z</time></trkpt><trkpt lat="43.251957865898234" lon="-2.7982538236151084"><ele>81.0</ele><time>2026-05-01T15:13:20Z</time></trkpt><trkpt lat="43.2520464975098" lon="-2.7979307269389486"><ele>87.0</ele><time>2026-05-01T15:13:21Z</time></trkpt><trkpt lat="43.252158664325364" lon="-2.7975820514426744"><ele>89.0</ele><time>2026-05-01T15:13:22Z</time></trkpt><trkpt lat="43.25228364758478" lon="-2.797286755114077"><ele>91.0</ele><time>2026-05-01T15:13:23Z</time></trkpt><trkpt lat="43.252419201465486" lon="-2.7969927020562313"><ele>82.0</ele><time>2026-05-01T15:13:24Z</time></trkpt><trkpt lat="43.25256149265819" lon="-2.796702293853584"><ele>73.0</ele><time>2026-05-01T15:13:25Z</time></trkpt><trkpt lat="43.25271671317372" lon="-2.796425734652995"><ele>73.0</ele><time>2026-05-01T15:13:26Z</time></trkpt><trkpt lat="43.25288559563217" lon="-2.7961763175603465"><ele>73.0</ele><time>2026-05-01T15:13:27Z</time></trkpt><trkpt lat="43.25306893829883" lon="-2.795934493671577"><ele>72.0</ele><time>2026-05-01T15:13:28Z</time></trkpt><trkpt lat="43.253263079714" lon="-2.7956981524020232"><ele>71.0</ele><time>2026-05-01T15:13:29Z</time></trkpt><trkpt lat="43.25346586543915" lon="-2.795475055900676"><ele>71.0</ele><time>2026-05-01T15:13:30Z</time></trkpt><trkpt lat="43.25368652405478" lon="-2.7952780704345463"><ele>71.0</ele><time>2026-05-01T15:13:31Z</time></trkpt><trkpt lat="43.25391946812376" lon="-2.79509906350262"><ele>68.0</ele><time>2026-05-01T15:13:32Z</time></trkpt><trkpt lat="43.254168617819325" lon="-2.7949540302043188"><ele>65.0</ele><time>2026-05-01T15:13:33Z</time></trkpt><trkpt lat="43.25442249142284" lon="-2.794817066460435"><ele>65.0</ele><time>2026-05-01T15:13:34Z</time></trkpt><trkpt lat="43.25467698935442" lon="-2.794694045470811"><ele>65.0</ele><time>2026-05-01T15:13:35Z</time></trkpt><trkpt lat="43.25495236796703" lon="-2.7945974780561853"><ele>65.5</ele><time>2026-05-01T15:13:36Z</time></trkpt><trkpt lat="43.255225567501604" lon="-2.7945144210339032"><ele>66.0</ele><time>2026-05-01T15:13:37Z</time></trkpt><trkpt lat="43.255494857658796" lon="-2.7944489729766375"><ele>66.0</ele><time>2026-05-01T15:13:38Z</time></trkpt><trkpt lat="43.25576352945616" lon="-2.7943892927930443"><ele>66.0</ele><time>2026-05-01T15:13:39Z</time></trkpt><trkpt lat="43.25602509691031" lon="-2.7943173135062764"><ele>70.5</ele><time>2026-05-01T15:13:40Z</time></trkpt><trkpt lat="43.25630837893753" lon="-2.79426202808883"><ele>75.0</ele><time>2026-05-01T15:13:41Z</time></trkpt><trkpt lat="43.25658454807242" lon="-2.79420972382249"><ele>75.0</ele><time>2026-05-01T15:13:42Z</time></trkpt><trkpt lat="43.256845567899894" lon="-2.79414454563002"><ele>75.0</ele><time>2026-05-01T15:13:43Z</time></trkpt><trkpt lat="43.25710466774227" lon="-2.7940907457658763"><ele>72.5</ele><time>2026-05-01T15:13:44Z</time></trkpt><trkpt lat="43.257350783407134" lon="-2.794036938997232"><ele>70.0</ele><time>2026-05-01T15:13:45Z</time></trkpt><trkpt lat="43.25758664646408" lon="-2.7939842172102827"><ele>70.0</ele><time>2026-05-01T15:13:46Z</time></trkpt><trkpt lat="43.25781885568617" lon="-2.7939374146633495"><ele>70.0</ele><time>2026-05-01T15:13:47Z</time></trkpt><trkpt lat="43.25805173864317" lon="-2.7938700964813044"><ele>69.5</ele><time>2026-05-01T15:13:48Z</time></trkpt><trkpt lat="43.25829653175074" lon="-2.7937585594932663"><ele>69.0</ele><time>2026-05-01T15:13:49Z</time></trkpt><trkpt lat="43.258543124092874" lon="-2.7936336428112267"><ele>72.0</ele><time>2026-05-01T15:13:50Z</time></trkpt><trkpt lat="43.25875677822179" lon="-2.793411867728586"><ele>75.0</ele><time>2026-05-01T15:13:51Z</time></trkpt><trkpt lat="43.25897273133646" lon="-2.7932167639543044"><ele>75.0</ele><time>2026-05-01T15:13:52Z</time></trkpt><trkpt lat="43.25918131135811" lon="-2.793008656955475"><ele>75.0</ele><time>2026-05-01T15:13:53Z</time></trkpt><trkpt lat="43.259386285377836" lon="-2.792808617503481"><ele>75.0</ele><time>2026-05-01T15:13:54Z</time></trkpt><trkpt lat="43.25961151423179" lon="-2.7926372977603573"><ele>75.0</ele><time>2026-05-01T15:13:55Z</time></trkpt><trkpt lat="43.259847971972334" lon="-2.7924932342925537"><ele>75.0</ele><time>2026-05-01T15:13:56Z</time></trkpt><trkpt lat="43.2600822349608" lon="-2.7923646836919653"><ele>75.0</ele><time>2026-05-01T15:13:57Z</time></trkpt><trkpt lat="43.260318339094624" lon="-2.7922605710743174"><ele>75.0</ele><time>2026-05-01T15:13:58Z</time></trkpt><trkpt lat="43.260571295222704" lon="-2.7921921986208464"><ele>75.0</ele><time>2026-05-01T15:13:59Z</time></trkpt><trkpt lat="43.260837305375155" lon="-2.792147305759084"><ele>76.5</ele><time>2026-05-01T15:14:00Z</time></trkpt><trkpt lat="43.26108913094531" lon="-2.792123564310502"><ele>78.0</ele><time>2026-05-01T15:14:01Z</time></trkpt><trkpt lat="43.26134370279309" lon="-2.792152817836915"><ele>79.5</ele><time>2026-05-01T15:14:02Z</time></trkpt><trkpt lat="43.261626351490825" lon="-2.7922106985832933"><ele>81.0</ele><time>2026-05-01T15:14:03Z</time></trkpt><trkpt lat="43.26192310325143" lon="-2.7922800102747773"><ele>81.0</ele><time>2026-05-01T15:14:04Z</time></trkpt><trkpt lat="43.26217266352384" lon="-2.7923831681004745"><ele>81.0</ele><time>2026-05-01T15:14:05Z</time></trkpt><trkpt lat="43.262420718380675" lon="-2.7925404469550337"><ele>80.0</ele><time>2026-05-01T15:14:06Z</time></trkpt><trkpt lat="43.262673167526685" lon="-2.79269934836857"><ele>79.0</ele><time>2026-05-01T15:14:07Z</time></trkpt><trkpt lat="43.26289867446864" lon="-2.7928994397416296"><ele>79.0</ele><time>2026-05-01T15:14:08Z</time></trkpt><trkpt lat="43.26310558257331" lon="-2.793099060734745"><ele>79.0</ele><time>2026-05-01T15:14:09Z</time></trkpt><trkpt lat="43.26331414916165" lon="-2.793265439857259"><ele>81.0</ele><time>2026-05-01T15:14:10Z</time></trkpt><trkpt lat="43.26354081429142" lon="-2.793373763862762"><ele>83.0</ele><time>2026-05-01T15:14:11Z</time></trkpt><trkpt lat="43.2637693118157" lon="-2.7934523010871355"><ele>80.0</ele><time>2026-05-01T15:14:12Z</time></trkpt><trkpt lat="43.264019593528154" lon="-2.793464230622296"><ele>77.0</ele><time>2026-05-01T15:14:13Z</time></trkpt><trkpt lat="43.264280150471876" lon="-2.793449333250317"><ele>77.0</ele><time>2026-05-01T15:14:14Z</time></trkpt><trkpt lat="43.264512839051655" lon="-2.7933867172943705"><ele>77.0</ele><time>2026-05-01T15:14:15Z</time></trkpt><trkpt lat="43.26475738670008" lon="-2.7932599826958313"><ele>75.5</ele><time>2026-05-01T15:14:16Z</time></trkpt><trkpt lat="43.26496653397089" lon="-2.7931065486742823"><ele>74.0</ele><time>2026-05-01T15:14:17Z</time></trkpt><trkpt lat="43.26515705120199" lon="-2.792952253659338"><ele>74.0</ele><time>2026-05-01T15:14:18Z</time></trkpt><trkpt lat="43.265311923451314" lon="-2.7927486782411104"><ele>74.0</ele><time>2026-05-01T15:14:18.999Z</time></trkpt><trkpt lat="43.26546978274298" lon="-2.792521995875742"><ele>74.0</ele><time>2026-05-01T15:14:19.999Z</time></trkpt><trkpt lat="43.26559075418373" lon="-2.7922501022319435"><ele>74.0</ele><time>2026-05-01T15:14:20.999Z</time></trkpt><trkpt lat="43.26569084910478" lon="-2.791984916442543"><ele>74.0</ele><time>2026-05-01T15:14:21.999Z</time></trkpt><trkpt lat="43.265764352608386" lon="-2.7917051570371454"><ele>74.0</ele><time>2026-05-01T15:14:22.999Z</time></trkpt><trkpt lat="43.26582060550587" lon="-2.7914053685664295"><ele>75.5</ele><time>2026-05-01T15:14:23.999Z</time></trkpt><trkpt lat="43.26585923162786" lon="-2.7911029032663293"><ele>77.0</ele><time>2026-05-01T15:14:24.999Z</time></trkpt><trkpt lat="43.2658907388544" lon="-2.7907920542206552"><ele>77.5</ele><time>2026-05-01T15:14:25.999Z</time></trkpt><trkpt lat="43.26590728836793" lon="-2.7904757440535417"><ele>78.0</ele><time>2026-05-01T15:14:26.999Z</time></trkpt><trkpt lat="43.26593053616984" lon="-2.7901727536219005"><ele>78.0</ele><time>2026-05-01T15:14:27.999Z</time></trkpt><trkpt lat="43.26596040381162" lon="-2.7898652253067286"><ele>78.0</ele><time>2026-05-01T15:14:28.999Z</time></trkpt><trkpt lat="43.26600822334861" lon="-2.7895741085450414"><ele>78.0</ele><time>2026-05-01T15:14:29.999Z</time></trkpt><trkpt lat="43.26606439611331" lon="-2.78930008907659"><ele>78.0</ele><time>2026-05-01T15:14:30.999Z</time></trkpt><trkpt lat="43.266121071413814" lon="-2.7890437040833165"><ele>78.0</ele><time>2026-05-01T15:14:31.999Z</time></trkpt><trkpt lat="43.26617499390845" lon="-2.788802990681217"><ele>78.0</ele><time>2026-05-01T15:14:32.999Z</time></trkpt><trkpt lat="43.26624036936753" lon="-2.7885595853209337"><ele>79.0</ele><time>2026-05-01T15:14:33.999Z</time></trkpt><trkpt lat="43.26629289354303" lon="-2.788314605014326"><ele>80.0</ele><time>2026-05-01T15:14:34.999Z</time></trkpt><trkpt lat="43.26634642864374" lon="-2.7880865425272177"><ele>81.0</ele><time>2026-05-01T15:14:35.999Z</time></trkpt><trkpt lat="43.26639668715741" lon="-2.787868854668114"><ele>82.66666666666667</ele><time>2026-05-01T15:14:36.999Z</time></trkpt><trkpt lat="43.266449180581475" lon="-2.7876512350136795"><ele>84.33333333333334</ele><time>2026-05-01T15:14:37.999Z</time></trkpt><trkpt lat="43.26651364868372" lon="-2.78742522713846"><ele>86.0</ele><time>2026-05-01T15:14:38.999Z</time></trkpt><trkpt lat="43.26657062364476" lon="-2.787201521268555"><ele>86.0</ele><time>2026-05-01T15:14:39.999Z</time></trkpt><trkpt lat="43.26661803756207" lon="-2.7869770060932906"><ele>86.0</ele><time>2026-05-01T15:14:40.999Z</time></trkpt><trkpt lat="43.26666754661299" lon="-2.7867592499592835"><ele>86.0</ele><time>2026-05-01T15:14:41.999Z</time></trkpt><trkpt lat="43.266719644471266" lon="-2.786544909483236"><ele>86.33333333333334</ele><time>2026-05-01T15:14:42.999Z</time></trkpt><trkpt lat="43.26677267529053" lon="-2.7863310392017038"><ele>86.66666666666667</ele><time>2026-05-01T15:14:43.999Z</time></trkpt><trkpt lat="43.266818018178746" lon="-2.7861263705390695"><ele>87.0</ele><time>2026-05-01T15:14:44.999Z</time></trkpt><trkpt lat="43.26686493804279" lon="-2.7859225973136197"><ele>87.0</ele><time>2026-05-01T15:14:45.999Z</time></trkpt><trkpt lat="43.26691995633657" lon="-2.7857059451112467"><ele>87.0</ele><time>2026-05-01T15:14:46.999Z</time></trkpt><trkpt lat="43.26697851093803" lon="-2.785481204812494"><ele>87.0</ele><time>2026-05-01T15:14:48Z</time></trkpt><trkpt lat="43.2670279688738" lon="-2.785259476019204"><ele>87.0</ele><time>2026-05-01T15:14:49Z</time></trkpt><trkpt lat="43.26708836327438" lon="-2.7850369256500374"><ele>87.0</ele><time>2026-05-01T15:14:50Z</time></trkpt><trkpt lat="43.267163809646505" lon="-2.7848177960898433"><ele>87.0</ele><time>2026-05-01T15:14:51Z</time></trkpt><trkpt lat="43.26725197930105" lon="-2.7846153715810007"><ele>89.33333333333333</ele><time>2026-05-01T15:14:52Z</time></trkpt><trkpt lat="43.26734798587009" lon="-2.7844115430168883"><ele>91.66666666666666</ele><time>2026-05-01T15:14:53Z</time></trkpt><trkpt lat="43.267438054892494" lon="-2.784229938458605"><ele>94.0</ele><time>2026-05-01T15:14:54Z</time></trkpt><trkpt lat="43.26751541242912" lon="-2.784064350015424"><ele>94.25</ele><time>2026-05-01T15:14:55Z</time></trkpt><trkpt lat="43.26757622732182" lon="-2.7838831891274536"><ele>94.5</ele><time>2026-05-01T15:14:56Z</time></trkpt><trkpt lat="43.26767047987153" lon="-2.783739430426617"><ele>94.75</ele><time>2026-05-01T15:14:57Z</time></trkpt><trkpt lat="43.26777816024241" lon="-2.7835982196298055"><ele>95.0</ele><time>2026-05-01T15:14:58Z</time></trkpt><trkpt lat="43.26795118743198" lon="-2.7835373948657556"><ele>97.0</ele><time>2026-05-01T15:14:59Z</time></trkpt><trkpt lat="43.26811014218606" lon="-2.7834815937080384"><ele>99.0</ele><time>2026-05-01T15:15:00Z</time></trkpt><trkpt lat="43.26827889967975" lon="-2.7834156565863615"><ele>101.0</ele><time>2026-05-01T15:15:01Z</time></trkpt><trkpt lat="43.26843616961012" lon="-2.783306661514784"><ele>101.0</ele><time>2026-05-01T15:15:02Z</time></trkpt><trkpt lat="43.26859769404364" lon="-2.7831874694630137"><ele>101.0</ele><time>2026-05-01T15:15:03Z</time></trkpt><trkpt lat="43.26875604344712" lon="-2.7830581983364073"><ele>101.0</ele><time>2026-05-01T15:15:04Z</time></trkpt><trkpt lat="43.26890693028771" lon="-2.782947859903502"><ele>104.66666666666666</ele><time>2026-05-01T15:15:05Z</time></trkpt><trkpt lat="43.269054805583124" lon="-2.78287961908191"><ele>108.33333333333334</ele><time>2026-05-01T15:15:06Z</time></trkpt><trkpt lat="43.26922046870369" lon="-2.782858911670866"><ele>112.0</ele><time>2026-05-01T15:15:07Z</time></trkpt><trkpt lat="43.26940265392785" lon="-2.782899708481697"><ele>112.0</ele><time>2026-05-01T15:15:08Z</time></trkpt><trkpt lat="43.269592513128366" lon="-2.7829401818412696"><ele>112.0</ele><time>2026-05-01T15:15:09Z</time></trkpt><trkpt lat="43.269787164482736" lon="-2.7829602338076094"><ele>112.0</ele><time>2026-05-01T15:15:10Z</time></trkpt><trkpt lat="43.26998128319538" lon="-2.782996835575683"><ele>114.0</ele><time>2026-05-01T15:15:11Z</time></trkpt><trkpt lat="43.27017713740963" lon="-2.7830335536216073"><ele>116.0</ele><time>2026-05-01T15:15:12Z</time></trkpt><trkpt lat="43.270357454142484" lon="-2.783071421228997"><ele>118.0</ele><time>2026-05-01T15:15:13Z</time></trkpt><trkpt lat="43.27053223794496" lon="-2.783103129697754"><ele>118.66666666666667</ele><time>2026-05-01T15:15:14Z</time></trkpt><trkpt lat="43.27069672143316" lon="-2.783224306924787"><ele>119.33333333333334</ele><time>2026-05-01T15:15:15Z</time></trkpt><trkpt lat="43.27085597883994" lon="-2.78337474917583"><ele>120.0</ele><time>2026-05-01T15:15:16Z</time></trkpt><trkpt lat="43.27101449037306" lon="-2.7835560551668346"><ele>122.0</ele><time>2026-05-01T15:15:17Z</time></trkpt><trkpt lat="43.271174612620975" lon="-2.7837303046055903"><ele>124.0</ele><time>2026-05-01T15:15:18Z</time></trkpt><trkpt lat="43.271330193570705" lon="-2.783884298086739"><ele>126.0</ele><time>2026-05-01T15:15:19Z</time></trkpt><trkpt lat="43.271490611098244" lon="-2.7840007040923775"><ele>126.0</ele><time>2026-05-01T15:15:20Z</time></trkpt><trkpt lat="43.271649871129874" lon="-2.784046969090474"><ele>126.0</ele><time>2026-05-01T15:15:21Z</time></trkpt><trkpt lat="43.271814107466085" lon="-2.784030977474491"><ele>126.0</ele><time>2026-05-01T15:15:22Z</time></trkpt><trkpt lat="43.271979288416574" lon="-2.7839415087956465"><ele>126.0</ele><time>2026-05-01T15:15:23Z</time></trkpt><trkpt lat="43.27214894021417" lon="-2.783817671014962"><ele>126.0</ele><time>2026-05-01T15:15:24Z</time></trkpt><trkpt lat="43.27233686069177" lon="-2.7837055994710647"><ele>126.0</ele><time>2026-05-01T15:15:25Z</time></trkpt><trkpt lat="43.27253547913128" lon="-2.7835977703101342"><ele>128.5</ele><time>2026-05-01T15:15:26Z</time></trkpt><trkpt lat="43.27274213824016" lon="-2.7834888939606066"><ele>131.0</ele><time>2026-05-01T15:15:27Z</time></trkpt><trkpt lat="43.27295662544749" lon="-2.783371306741682"><ele>138.0</ele><time>2026-05-01T15:15:28Z</time></trkpt><trkpt lat="43.273174360832314" lon="-2.7832453307554426"><ele>145.0</ele><time>2026-05-01T15:15:29Z</time></trkpt><trkpt lat="43.27339027879789" lon="-2.7831242334322823"><ele>145.0</ele><time>2026-05-01T15:15:30Z</time></trkpt><trkpt lat="43.27359703308488" lon="-2.7829882582902195"><ele>145.0</ele><time>2026-05-01T15:15:31Z</time></trkpt><trkpt lat="43.27380382908316" lon="-2.782871432968294"><ele>146.0</ele><time>2026-05-01T15:15:32Z</time></trkpt><trkpt lat="43.27400811534494" lon="-2.7827499225983985"><ele>147.0</ele><time>2026-05-01T15:15:33Z</time></trkpt><trkpt lat="43.27421153408613" lon="-2.782616895828055"><ele>148.0</ele><time>2026-05-01T15:15:34Z</time></trkpt><trkpt lat="43.27441535771683" lon="-2.782467130723232"><ele>145.0</ele><time>2026-05-01T15:15:35Z</time></trkpt><trkpt lat="43.27461229775201" lon="-2.7822948170366457"><ele>142.0</ele><time>2026-05-01T15:15:36Z</time></trkpt><trkpt lat="43.27479382273341" lon="-2.7821043211538967"><ele>151.5</ele><time>2026-05-01T15:15:37Z</time></trkpt><trkpt lat="43.27497137708643" lon="-2.7818949132049497"><ele>161.0</ele><time>2026-05-01T15:15:38Z</time></trkpt><trkpt lat="43.27513507899376" lon="-2.781672045114399"><ele>161.0</ele><time>2026-05-01T15:15:39Z</time></trkpt><trkpt lat="43.27528093046808" lon="-2.7814306594747715"><ele>161.0</ele><time>2026-05-01T15:15:40Z</time></trkpt><trkpt lat="43.27542770624334" lon="-2.7811843583998024"><ele>157.5</ele><time>2026-05-01T15:15:41Z</time></trkpt><trkpt lat="43.27555660150954" lon="-2.780918560168619"><ele>154.0</ele><time>2026-05-01T15:15:42Z</time></trkpt><trkpt lat="43.275651253548745" lon="-2.780622016381293"><ele>158.0</ele><time>2026-05-01T15:15:43Z</time></trkpt><trkpt lat="43.275741456492646" lon="-2.780341764881587"><ele>162.0</ele><time>2026-05-01T15:15:44Z</time></trkpt><trkpt lat="43.27582812577412" lon="-2.780114181686473"><ele>166.0</ele><time>2026-05-01T15:15:45Z</time></trkpt><trkpt lat="43.27587991503587" lon="-2.779924503858288"><ele>166.0</ele><time>2026-05-01T15:15:46Z</time></trkpt><trkpt lat="43.27591014392726" lon="-2.7797637587176127"><ele>166.0</ele><time>2026-05-01T15:15:47Z</time></trkpt><trkpt lat="43.275957890278946" lon="-2.7796095074466183"><ele>166.0</ele><time>2026-05-01T15:15:48Z</time></trkpt><trkpt lat="43.27593688430835" lon="-2.7794555764955438"><ele>166.0</ele><time>2026-05-01T15:15:49Z</time></trkpt><trkpt lat="43.275865907052356" lon="-2.7793050701834656"><ele>165.0</ele><time>2026-05-01T15:15:50Z</time></trkpt><trkpt lat="43.27575506033006" lon="-2.7791809223441932"><ele>164.0</ele><time>2026-05-01T15:15:51Z</time></trkpt><trkpt lat="43.275626396157804" lon="-2.7791063203665947"><ele>163.0</ele><time>2026-05-01T15:15:52Z</time></trkpt><trkpt lat="43.27549922521372" lon="-2.7790516132092207"><ele>162.0</ele><time>2026-05-01T15:15:53Z</time></trkpt><trkpt lat="43.27538093552208" lon="-2.7789842255099715"><ele>161.75</ele><time>2026-05-01T15:15:54Z</time></trkpt><trkpt lat="43.275278157057386" lon="-2.778872543124704"><ele>161.5</ele><time>2026-05-01T15:15:55Z</time></trkpt><trkpt lat="43.275185216426465" lon="-2.7787385609861848"><ele>161.25</ele><time>2026-05-01T15:15:56Z</time></trkpt><trkpt lat="43.27515826766692" lon="-2.778530844570148"><ele>161.0</ele><time>2026-05-01T15:15:57Z</time></trkpt><trkpt lat="43.27516744477173" lon="-2.7782886515023755"><ele>161.0</ele><time>2026-05-01T15:15:58Z</time></trkpt><trkpt lat="43.27519055425201" lon="-2.7780425764947037"><ele>161.0</ele><time>2026-05-01T15:15:59Z</time></trkpt><trkpt lat="43.27523648168635" lon="-2.777783057552716"><ele>161.0</ele><time>2026-05-01T15:16:00Z</time></trkpt><trkpt lat="43.27529123537431" lon="-2.777524031796283"><ele>160.33333333333331</ele><time>2026-05-01T15:16:01Z</time></trkpt><trkpt lat="43.275361448841046" lon="-2.7772577820214113"><ele>159.66666666666666</ele><time>2026-05-01T15:16:02Z</time></trkpt><trkpt lat="43.27543282896341" lon="-2.7769801089786985"><ele>159.0</ele><time>2026-05-01T15:16:03Z</time></trkpt><trkpt lat="43.27550418024504" lon="-2.7767002331032495"><ele>157.66666666666666</ele><time>2026-05-01T15:16:04Z</time></trkpt><trkpt lat="43.275575558289646" lon="-2.7764241068593463"><ele>156.33333333333331</ele><time>2026-05-01T15:16:05Z</time></trkpt><trkpt lat="43.2756406127115" lon="-2.7761665605150694"><ele>155.0</ele><time>2026-05-01T15:16:06Z</time></trkpt><trkpt lat="43.27570189702607" lon="-2.775940133880812"><ele>164.0</ele><time>2026-05-01T15:16:07Z</time></trkpt><trkpt lat="43.27577050698708" lon="-2.775738343643759"><ele>173.0</ele><time>2026-05-01T15:16:08Z</time></trkpt><trkpt lat="43.27586061514901" lon="-2.775560296779136"><ele>182.0</ele><time>2026-05-01T15:16:09Z</time></trkpt><trkpt lat="43.27597406697532" lon="-2.7754057580269422"><ele>182.0</ele><time>2026-05-01T15:16:10Z</time></trkpt><trkpt lat="43.27610361104541" lon="-2.7752788580265126"><ele>182.0</ele><time>2026-05-01T15:16:11Z</time></trkpt><trkpt lat="43.27626198902793" lon="-2.7751910880363453"><ele>182.0</ele><time>2026-05-01T15:16:12Z</time></trkpt><trkpt lat="43.2764237557833" lon="-2.775145735196158"><ele>180.0</ele><time>2026-05-01T15:16:13Z</time></trkpt><trkpt lat="43.27661042815647" lon="-2.7751577747748466"><ele>178.0</ele><time>2026-05-01T15:16:14Z</time></trkpt><trkpt lat="43.27679511051574" lon="-2.7752035265206754"><ele>176.0</ele><time>2026-05-01T15:16:15Z</time></trkpt><trkpt lat="43.27696630297984" lon="-2.775265754794315"><ele>183.0</ele><time>2026-05-01T15:16:16Z</time></trkpt><trkpt lat="43.2771389241686" lon="-2.775307391420665"><ele>190.0</ele><time>2026-05-01T15:16:17Z</time></trkpt><trkpt lat="43.277289150183854" lon="-2.775322564655014"><ele>197.0</ele><time>2026-05-01T15:16:18Z</time></trkpt><trkpt lat="43.277432706154386" lon="-2.7752833199738323"><ele>190.66666666666669</ele><time>2026-05-01T15:16:19Z</time></trkpt><trkpt lat="43.27755322828985" lon="-2.775154598469377"><ele>184.33333333333334</ele><time>2026-05-01T15:16:20Z</time></trkpt><trkpt lat="43.277690259883094" lon="-2.7750085036953185"><ele>178.0</ele><time>2026-05-01T15:16:21Z</time></trkpt><trkpt lat="43.27781824313662" lon="-2.774820989200166"><ele>178.0</ele><time>2026-05-01T15:16:22Z</time></trkpt><trkpt lat="43.27796680343947" lon="-2.7746504795076907"><ele>178.0</ele><time>2026-05-01T15:16:23Z</time></trkpt><trkpt lat="43.27813795686879" lon="-2.7744882959592987"><ele>178.0</ele><time>2026-05-01T15:16:24.001Z</time></trkpt><trkpt lat="43.27831250690695" lon="-2.774349554261233"><ele>179.0</ele><time>2026-05-01T15:16:24.999Z</time></trkpt><trkpt lat="43.27848248785524" lon="-2.774227998449285"><ele>180.0</ele><time>2026-05-01T15:16:25.999Z</time></trkpt><trkpt lat="43.278646006919345" lon="-2.7741075110223377"><ele>181.0</ele><time>2026-05-01T15:16:26.999Z</time></trkpt><trkpt lat="43.278796464565254" lon="-2.7739932660361872"><ele>181.0</ele><time>2026-05-01T15:16:27.999Z</time></trkpt><trkpt lat="43.27891735248122" lon="-2.7738304640823"><ele>181.0</ele><time>2026-05-01T15:16:28.999Z</time></trkpt><trkpt lat="43.27901574356599" lon="-2.773628894046261"><ele>181.0</ele><time>2026-05-01T15:16:29.999Z</time></trkpt><trkpt lat="43.279106605194464" lon="-2.773404872461309"><ele>179.66666666666669</ele><time>2026-05-01T15:16:30.999Z</time></trkpt><trkpt lat="43.279198093877696" lon="-2.7731550283451774"><ele>178.33333333333334</ele><time>2026-05-01T15:16:31.999Z</time></trkpt><trkpt lat="43.27923774240783" lon="-2.772865185409064"><ele>177.0</ele><time>2026-05-01T15:16:32.999Z</time></trkpt><trkpt lat="43.27927998542027" lon="-2.7725734210729316"><ele>179.66666666666666</ele><time>2026-05-01T15:16:33.999Z</time></trkpt><trkpt lat="43.27933701834302" lon="-2.7722771190019944"><ele>182.33333333333331</ele><time>2026-05-01T15:16:34.999Z</time></trkpt><trkpt lat="43.279358689279974" lon="-2.7719693043557565"><ele>185.0</ele><time>2026-05-01T15:16:35.999Z</time></trkpt><trkpt lat="43.27939625861091" lon="-2.771663817981017"><ele>186.5</ele><time>2026-05-01T15:16:36.999Z</time></trkpt><trkpt lat="43.27943344853615" lon="-2.77134927177215"><ele>188.0</ele><time>2026-05-01T15:16:37.999Z</time></trkpt><trkpt lat="43.27946439091784" lon="-2.771045924864668"><ele>188.5</ele><time>2026-05-01T15:16:38.999Z</time></trkpt><trkpt lat="43.27947638480238" lon="-2.7707263197057186"><ele>189.0</ele><time>2026-05-01T15:16:39.999Z</time></trkpt><trkpt lat="43.27947306569727" lon="-2.770391862017342"><ele>191.5</ele><time>2026-05-01T15:16:40.999Z</time></trkpt><trkpt lat="43.279479141873374" lon="-2.7700677866084815"><ele>194.0</ele><time>2026-05-01T15:16:42Z</time></trkpt><trkpt lat="43.27945535555194" lon="-2.7697610377886366"><ele>194.0</ele><time>2026-05-01T15:16:43Z</time></trkpt><trkpt lat="43.279451370868266" lon="-2.769475995018675"><ele>194.0</ele><time>2026-05-01T15:16:44Z</time></trkpt><trkpt lat="43.27947631582419" lon="-2.7692056819264623"><ele>194.0</ele><time>2026-05-01T15:16:45Z</time></trkpt><trkpt lat="43.27953873720774" lon="-2.768927089597267"><ele>197.0</ele><time>2026-05-01T15:16:46Z</time></trkpt><trkpt lat="43.27965105634826" lon="-2.7686586731985754"><ele>200.0</ele><time>2026-05-01T15:16:47Z</time></trkpt><trkpt lat="43.27976958789444" lon="-2.7683820805234873"><ele>203.5</ele><time>2026-05-01T15:16:48Z</time></trkpt><trkpt lat="43.27989490350936" lon="-2.768100336031657"><ele>207.0</ele><time>2026-05-01T15:16:49Z</time></trkpt><trkpt lat="43.280024067882856" lon="-2.7678045333789516"><ele>209.5</ele><time>2026-05-01T15:16:50Z</time></trkpt><trkpt lat="43.28014547531936" lon="-2.7674942989471822"><ele>212.0</ele><time>2026-05-01T15:16:51Z</time></trkpt><trkpt lat="43.280279410171325" lon="-2.7671837909597974"><ele>212.0</ele><time>2026-05-01T15:16:52Z</time></trkpt><trkpt lat="43.28042684531233" lon="-2.7668763321284278"><ele>212.0</ele><time>2026-05-01T15:16:53Z</time></trkpt><trkpt lat="43.28056706833275" lon="-2.7665721065601603"><ele>215.5</ele><time>2026-05-01T15:16:54Z</time></trkpt><trkpt lat="43.28069584996009" lon="-2.766289630174906"><ele>219.0</ele><time>2026-05-01T15:16:55Z</time></trkpt><trkpt lat="43.28080273108394" lon="-2.766014760803457"><ele>220.66666666666669</ele><time>2026-05-01T15:16:56Z</time></trkpt><trkpt lat="43.28089358256051" lon="-2.765758473811206"><ele>222.33333333333334</ele><time>2026-05-01T15:16:57Z</time></trkpt><trkpt lat="43.280922497059485" lon="-2.765463278518588"><ele>224.0</ele><time>2026-05-01T15:16:58Z</time></trkpt><trkpt lat="43.28091824198429" lon="-2.765156750152224"><ele>224.66666666666669</ele><time>2026-05-01T15:16:59Z</time></trkpt><trkpt lat="43.280895643600026" lon="-2.764866739224474"><ele>225.33333333333331</ele><time>2026-05-01T15:17:00Z</time></trkpt><trkpt lat="43.280875449750766" lon="-2.764607692043231"><ele>226.0</ele><time>2026-05-01T15:17:01Z</time></trkpt><trkpt lat="43.28088442514346" lon="-2.76434597590637"><ele>227.66666666666666</ele><time>2026-05-01T15:17:02Z</time></trkpt><trkpt lat="43.2808914412745" lon="-2.7640824648800613"><ele>229.33333333333331</ele><time>2026-05-01T15:17:03Z</time></trkpt><trkpt lat="43.28094315341509" lon="-2.7638273496840764"><ele>231.0</ele><time>2026-05-01T15:17:04Z</time></trkpt><trkpt lat="43.28104643117539" lon="-2.763588263331766"><ele>232.0</ele><time>2026-05-01T15:17:05Z</time></trkpt><trkpt lat="43.281167265693036" lon="-2.763349722852884"><ele>233.0</ele><time>2026-05-01T15:17:06Z</time></trkpt><trkpt lat="43.28129864219992" lon="-2.7631237335284777"><ele>234.0</ele><time>2026-05-01T15:17:07Z</time></trkpt><trkpt lat="43.28142384054537" lon="-2.762899546520147"><ele>242.5</ele><time>2026-05-01T15:17:08Z</time></trkpt><trkpt lat="43.2815608727276" lon="-2.762647449252131"><ele>251.0</ele><time>2026-05-01T15:17:09Z</time></trkpt><trkpt lat="43.2817036927978" lon="-2.762411963514421"><ele>251.0</ele><time>2026-05-01T15:17:10Z</time></trkpt><trkpt lat="43.28184162073767" lon="-2.762182727572204"><ele>251.0</ele><time>2026-05-01T15:17:11Z</time></trkpt><trkpt lat="43.28197164012804" lon="-2.761984011974848"><ele>251.0</ele><time>2026-05-01T15:17:12Z</time></trkpt><trkpt lat="43.28208705689447" lon="-2.7618061668965095"><ele>249.75</ele><time>2026-05-01T15:17:13Z</time></trkpt><trkpt lat="43.28218446002405" lon="-2.761636418219435"><ele>248.5</ele><time>2026-05-01T15:17:14Z</time></trkpt><trkpt lat="43.282264317451265" lon="-2.761473468731668"><ele>247.25</ele><time>2026-05-01T15:17:15Z</time></trkpt><trkpt lat="43.28236381029628" lon="-2.761339024153967"><ele>246.0</ele><time>2026-05-01T15:17:16Z</time></trkpt><trkpt lat="43.282412958184956" lon="-2.7611810943256705"><ele>246.5</ele><time>2026-05-01T15:17:17Z</time></trkpt><trkpt lat="43.282435881072715" lon="-2.7610234095561252"><ele>247.0</ele><time>2026-05-01T15:17:18Z</time></trkpt><trkpt lat="43.282413361807194" lon="-2.760859320887115"><ele>247.5</ele><time>2026-05-01T15:17:19Z</time></trkpt><trkpt lat="43.282329200039385" lon="-2.7607122174324985"><ele>248.0</ele><time>2026-05-01T15:17:20Z</time></trkpt><trkpt lat="43.282222096942775" lon="-2.760607436362715"><ele>248.0</ele><time>2026-05-01T15:17:21Z</time></trkpt><trkpt lat="43.28213447779544" lon="-2.7604830164645744"><ele>248.0</ele><time>2026-05-01T15:17:22Z</time></trkpt><trkpt lat="43.28207461729424" lon="-2.7603207806324725"><ele>248.0</ele><time>2026-05-01T15:17:23Z</time></trkpt><trkpt lat="43.28204800603998" lon="-2.7601271253874016"><ele>248.0</ele><time>2026-05-01T15:17:24Z</time></trkpt><trkpt lat="43.28204254963373" lon="-2.759885684963291"><ele>249.66666666666669</ele><time>2026-05-01T15:17:25Z</time></trkpt><trkpt lat="43.28205064173623" lon="-2.759646392959661"><ele>251.33333333333331</ele><time>2026-05-01T15:17:26Z</time></trkpt><trkpt lat="43.28206840752953" lon="-2.759438590743791"><ele>253.0</ele><time>2026-05-01T15:17:27Z</time></trkpt><trkpt lat="43.28206705801799" lon="-2.759268630052871"><ele>256.25</ele><time>2026-05-01T15:17:28Z</time></trkpt><trkpt lat="43.28204735410952" lon="-2.7591119711330667"><ele>259.5</ele><time>2026-05-01T15:17:29Z</time></trkpt><trkpt lat="43.281968759996865" lon="-2.7589898096481034"><ele>262.75</ele><time>2026-05-01T15:17:30Z</time></trkpt><trkpt lat="43.281837528398135" lon="-2.7589031186477935"><ele>266.0</ele><time>2026-05-01T15:17:31Z</time></trkpt><trkpt lat="43.281676882623884" lon="-2.7588422632605734"><ele>266.0</ele><time>2026-05-01T15:17:32Z</time></trkpt><trkpt lat="43.28151073822738" lon="-2.7587739744568807"><ele>266.0</ele><time>2026-05-01T15:17:33Z</time></trkpt><trkpt lat="43.28135320122944" lon="-2.7586894173089447"><ele>266.0</ele><time>2026-05-01T15:17:34Z</time></trkpt><trkpt lat="43.28121479499608" lon="-2.758583272753289"><ele>268.6666666666667</ele><time>2026-05-01T15:17:35Z</time></trkpt><trkpt lat="43.28109731496144" lon="-2.7584357976731577"><ele>271.3333333333333</ele><time>2026-05-01T15:17:36Z</time></trkpt><trkpt lat="43.28100855088018" lon="-2.7582458161097083"><ele>274.0</ele><time>2026-05-01T15:17:37Z</time></trkpt><trkpt lat="43.28094955570371" lon="-2.758025292786406"><ele>274.0</ele><time>2026-05-01T15:17:38Z</time></trkpt><trkpt lat="43.280924425575265" lon="-2.75777468113801"><ele>274.0</ele><time>2026-05-01T15:17:39Z</time></trkpt><trkpt lat="43.280912100770024" lon="-2.757531192901187"><ele>274.0</ele><time>2026-05-01T15:17:40Z</time></trkpt><trkpt lat="43.28089292590899" lon="-2.7573168347496084"><ele>277.0</ele><time>2026-05-01T15:17:41Z</time></trkpt><trkpt lat="43.280851104183746" lon="-2.757125127208104"><ele>280.0</ele><time>2026-05-01T15:17:42Z</time></trkpt><trkpt lat="43.280770505161925" lon="-2.756943889049665"><ele>283.0</ele><time>2026-05-01T15:17:43Z</time></trkpt><trkpt lat="43.28065016684442" lon="-2.756803245962256"><ele>286.0</ele><time>2026-05-01T15:17:44Z</time></trkpt><trkpt lat="43.2805106134722" lon="-2.7567242769581086"><ele>289.0</ele><time>2026-05-01T15:17:45Z</time></trkpt><trkpt lat="43.28034168076519" lon="-2.756710013776112"><ele>292.0</ele><time>2026-05-01T15:17:46Z</time></trkpt><trkpt lat="43.2801968104647" lon="-2.756706022019691"><ele>292.0</ele><time>2026-05-01T15:17:47Z</time></trkpt><trkpt lat="43.28006134375122" lon="-2.756711188198776"><ele>292.0</ele><time>2026-05-01T15:17:48Z</time></trkpt><trkpt lat="43.279952630591396" lon="-2.7566681607735437"><ele>292.0</ele><time>2026-05-01T15:17:49Z</time></trkpt><trkpt lat="43.279871371415204" lon="-2.7566016179022212"><ele>292.0</ele><time>2026-05-01T15:17:50Z</time></trkpt><trkpt lat="43.279803963151025" lon="-2.756508468283128"><ele>292.0</ele><time>2026-05-01T15:17:51Z</time></trkpt><trkpt lat="43.27978519491683" lon="-2.7563738865487917"><ele>292.0</ele><time>2026-05-01T15:17:52Z</time></trkpt><trkpt lat="43.27981320887279" lon="-2.756252734924246"><ele>292.0</ele><time>2026-05-01T15:17:53Z</time></trkpt><trkpt lat="43.279882271367995" lon="-2.7561460396810937"><ele>292.0</ele><time>2026-05-01T15:17:54Z</time></trkpt><trkpt lat="43.27998309303215" lon="-2.7561045519629506"><ele>292.0</ele><time>2026-05-01T15:17:55Z</time></trkpt><trkpt lat="43.28009142112724" lon="-2.756125937225824"><ele>292.0</ele><time>2026-05-01T15:17:56Z</time></trkpt><trkpt lat="43.28021277702686" lon="-2.75620558917331"><ele>292.0</ele><time>2026-05-01T15:17:57Z</time></trkpt><trkpt lat="43.28035158954462" lon="-2.7562821064895284"><ele>292.0</ele><time>2026-05-01T15:17:58Z</time></trkpt><trkpt lat="43.28048919941526" lon="-2.756288224745943"><ele>292.0</ele><time>2026-05-01T15:17:59.001Z</time></trkpt><trkpt lat="43.28063606304464" lon="-2.7562233589664364"><ele>292.0</ele><time>2026-05-01T15:18:00.001Z</time></trkpt><trkpt lat="43.28078379757856" lon="-2.7561386914070054"><ele>294.0</ele><time>2026-05-01T15:18:01.001Z</time></trkpt><trkpt lat="43.28091610007119" lon="-2.7561104198112463"><ele>296.0</ele><time>2026-05-01T15:18:02.001Z</time></trkpt><trkpt lat="43.28104692641437" lon="-2.7561376908234254"><ele>298.0</ele><time>2026-05-01T15:18:03.001Z</time></trkpt><trkpt lat="43.281169980724314" lon="-2.7562361571805782"><ele>300.0</ele><time>2026-05-01T15:18:04.001Z</time></trkpt><trkpt lat="43.28127950996733" lon="-2.7564056061295266"><ele>300.0</ele><time>2026-05-01T15:18:05.001Z</time></trkpt><trkpt lat="43.28138904855215" lon="-2.7566073355874554"><ele>300.0</ele><time>2026-05-01T15:18:06.001Z</time></trkpt><trkpt lat="43.281506870011825" lon="-2.756816724704603"><ele>300.0</ele><time>2026-05-01T15:18:07.001Z</time></trkpt><trkpt lat="43.281618649210436" lon="-2.7569949150834177"><ele>303.3333333333333</ele><time>2026-05-01T15:18:08.001Z</time></trkpt><trkpt lat="43.28175397592492" lon="-2.7571513256198004"><ele>306.66666666666663</ele><time>2026-05-01T15:18:09.001Z</time></trkpt><trkpt lat="43.28191994461367" lon="-2.757254605580436"><ele>310.0</ele><time>2026-05-01T15:18:10.001Z</time></trkpt><trkpt lat="43.28210257404665" lon="-2.7573169149641257"><ele>314.66666666666663</ele><time>2026-05-01T15:18:11.001Z</time></trkpt><trkpt lat="43.282289739018346" lon="-2.757341341332139"><ele>319.3333333333333</ele><time>2026-05-01T15:18:12.001Z</time></trkpt><trkpt lat="43.28248025159405" lon="-2.757359600377966"><ele>324.0</ele><time>2026-05-01T15:18:13.001Z</time></trkpt><trkpt lat="43.28266120673607" lon="-2.7573821203468674"><ele>324.0</ele><time>2026-05-01T15:18:14.001Z</time></trkpt><trkpt lat="43.28282984787604" lon="-2.7574130230447653"><ele>324.0</ele><time>2026-05-01T15:18:15.001Z</time></trkpt><trkpt lat="43.28299322791607" lon="-2.75743361058334"><ele>324.0</ele><time>2026-05-01T15:18:16.001Z</time></trkpt><trkpt lat="43.28314934815389" lon="-2.75745927917081"><ele>324.0</ele><time>2026-05-01T15:18:17.001Z</time></trkpt><trkpt lat="43.28329351572132" lon="-2.757479311952059"><ele>324.0</ele><time>2026-05-01T15:18:18.001Z</time></trkpt><trkpt lat="43.283436591047064" lon="-2.757508256106549"><ele>324.0</ele><time>2026-05-01T15:18:19.001Z</time></trkpt><trkpt lat="43.283582467531964" lon="-2.7575655477428915"><ele>324.0</ele><time>2026-05-01T15:18:20.001Z</time></trkpt><trkpt lat="43.283734062302095" lon="-2.7576158862474376"><ele>324.0</ele><time>2026-05-01T15:18:21.001Z</time></trkpt><trkpt lat="43.28386810307111" lon="-2.75768315401086"><ele>324.0</ele><time>2026-05-01T15:18:22.001Z</time></trkpt><trkpt lat="43.2840193403314" lon="-2.7577595379540805"><ele>324.0</ele><time>2026-05-01T15:18:23.001Z</time></trkpt><trkpt lat="43.28417285444113" lon="-2.7578350275273538"><ele>325.25</ele><time>2026-05-01T15:18:24.001Z</time></trkpt><trkpt lat="43.28430978753801" lon="-2.7579035938068848"><ele>326.5</ele><time>2026-05-01T15:18:25.001Z</time></trkpt><trkpt lat="43.284438680952405" lon="-2.757979984823734"><ele>327.75</ele><time>2026-05-01T15:18:26.001Z</time></trkpt><trkpt lat="43.28455542690749" lon="-2.7580780504325912"><ele>329.0</ele><time>2026-05-01T15:18:27.001Z</time></trkpt><trkpt lat="43.28466560907123" lon="-2.7582029055248967"><ele>329.0</ele><time>2026-05-01T15:18:28.001Z</time></trkpt><trkpt lat="43.284753901644265" lon="-2.7583835440136135"><ele>329.0</ele><time>2026-05-01T15:18:29.001Z</time></trkpt><trkpt lat="43.28481043943998" lon="-2.7585991893277275"><ele>329.0</ele><time>2026-05-01T15:18:30.001Z</time></trkpt><trkpt lat="43.28485203775788" lon="-2.7588215091969106"><ele>329.75</ele><time>2026-05-01T15:18:31Z</time></trkpt><trkpt lat="43.28490521094055" lon="-2.7590145500900674"><ele>330.5</ele><time>2026-05-01T15:18:32Z</time></trkpt><trkpt lat="43.28495977824399" lon="-2.75917884048235"><ele>331.25</ele><time>2026-05-01T15:18:33Z</time></trkpt><trkpt lat="43.28500675052162" lon="-2.759335087786421"><ele>332.0</ele><time>2026-05-01T15:18:34Z</time></trkpt><trkpt lat="43.2850719948572" lon="-2.759482493836129"><ele>332.0</ele><time>2026-05-01T15:18:35Z</time></trkpt><trkpt lat="43.2851680612887" lon="-2.7596115410166897"><ele>332.0</ele><time>2026-05-01T15:18:36Z</time></trkpt><trkpt lat="43.285302059532604" lon="-2.7597233532853847"><ele>332.0</ele><time>2026-05-01T15:18:37Z</time></trkpt><trkpt lat="43.28545627344302" lon="-2.7597873120322594"><ele>328.6666666666667</ele><time>2026-05-01T15:18:38Z</time></trkpt><trkpt lat="43.28562535216676" lon="-2.7598357609025594"><ele>325.3333333333333</ele><time>2026-05-01T15:18:39Z</time></trkpt><trkpt lat="43.28578586551589" lon="-2.7598905922117387"><ele>322.0</ele><time>2026-05-01T15:18:40Z</time></trkpt><trkpt lat="43.28594369206425" lon="-2.759960809684275"><ele>322.0</ele><time>2026-05-01T15:18:41Z</time></trkpt><trkpt lat="43.28609498015552" lon="-2.760063707186355"><ele>322.0</ele><time>2026-05-01T15:18:42Z</time></trkpt><trkpt lat="43.2862313483255" lon="-2.7601891147940503"><ele>322.0</ele><time>2026-05-01T15:18:43Z</time></trkpt><trkpt lat="43.28635980856753" lon="-2.760305464894636"><ele>320.5</ele><time>2026-05-01T15:18:44Z</time></trkpt><trkpt lat="43.286470880480664" lon="-2.760448162491068"><ele>319.0</ele><time>2026-05-01T15:18:45Z</time></trkpt><trkpt lat="43.28657419488957" lon="-2.7605896756855177"><ele>317.5</ele><time>2026-05-01T15:18:46Z</time></trkpt><trkpt lat="43.28668560182055" lon="-2.760692955147679"><ele>316.0</ele><time>2026-05-01T15:18:47Z</time></trkpt><trkpt lat="43.28683155334366" lon="-2.7607614723953935"><ele>316.0</ele><time>2026-05-01T15:18:48Z</time></trkpt><trkpt lat="43.28698001961054" lon="-2.76078456018231"><ele>316.0</ele><time>2026-05-01T15:18:49Z</time></trkpt><trkpt lat="43.28713029482135" lon="-2.760772029628428"><ele>316.0</ele><time>2026-05-01T15:18:50Z</time></trkpt><trkpt lat="43.28727847533543" lon="-2.7607166177867"><ele>310.66666666666663</ele><time>2026-05-01T15:18:51Z</time></trkpt><trkpt lat="43.287433545252185" lon="-2.7606959594190243"><ele>305.3333333333333</ele><time>2026-05-01T15:18:52Z</time></trkpt><trkpt lat="43.28759817241732" lon="-2.7607329496576933"><ele>300.0</ele><time>2026-05-01T15:18:53Z</time></trkpt><trkpt lat="43.287764839039944" lon="-2.760802360588597"><ele>300.0</ele><time>2026-05-01T15:18:54Z</time></trkpt><trkpt lat="43.28793865609007" lon="-2.7608944767245878"><ele>300.0</ele><time>2026-05-01T15:18:55Z</time></trkpt><trkpt lat="43.28811389709842" lon="-2.761002698201062"><ele>300.0</ele><time>2026-05-01T15:18:56Z</time></trkpt><trkpt lat="43.28828567950408" lon="-2.761136281361717"><ele>298.3333333333333</ele><time>2026-05-01T15:18:57Z</time></trkpt><trkpt lat="43.288451576275634" lon="-2.7612837066901075"><ele>296.66666666666663</ele><time>2026-05-01T15:18:58Z</time></trkpt><trkpt lat="43.28861764313912" lon="-2.761443056385126"><ele>295.0</ele><time>2026-05-01T15:18:59Z</time></trkpt><trkpt lat="43.28877695679372" lon="-2.7616043775331955"><ele>295.0</ele><time>2026-05-01T15:19:00Z</time></trkpt><trkpt lat="43.288920537512645" lon="-2.7617487733355475"><ele>295.0</ele><time>2026-05-01T15:19:01Z</time></trkpt><trkpt lat="43.28905256220567" lon="-2.7618856562859615"><ele>295.0</ele><time>2026-05-01T15:19:02Z</time></trkpt><trkpt lat="43.28917641550906" lon="-2.762018026116031"><ele>291.3333333333333</ele><time>2026-05-01T15:19:03Z</time></trkpt><trkpt lat="43.289299348336776" lon="-2.762156157623561"><ele>287.6666666666667</ele><time>2026-05-01T15:19:04Z</time></trkpt><trkpt lat="43.289418599894994" lon="-2.762289611064541"><ele>284.0</ele><time>2026-05-01T15:19:05Z</time></trkpt><trkpt lat="43.28953460649784" lon="-2.7624333757791137"><ele>284.0</ele><time>2026-05-01T15:19:06Z</time></trkpt><trkpt lat="43.289641579044975" lon="-2.762596744228705"><ele>284.0</ele><time>2026-05-01T15:19:07Z</time></trkpt><trkpt lat="43.28973511051725" lon="-2.7627774137456833"><ele>284.0</ele><time>2026-05-01T15:19:08Z</time></trkpt><trkpt lat="43.28979452418125" lon="-2.762958503606437"><ele>283.75</ele><time>2026-05-01T15:19:09Z</time></trkpt><trkpt lat="43.28983602090809" lon="-2.763152119458542"><ele>283.5</ele><time>2026-05-01T15:19:10Z</time></trkpt><trkpt lat="43.289872697899426" lon="-2.763334892117226"><ele>283.25</ele><time>2026-05-01T15:19:11Z</time></trkpt><trkpt lat="43.289915006622934" lon="-2.7634873902208787"><ele>283.0</ele><time>2026-05-01T15:19:12Z</time></trkpt><trkpt lat="43.28997533701775" lon="-2.7636229317710925"><ele>283.0</ele><time>2026-05-01T15:19:13Z</time></trkpt><trkpt lat="43.29006850794649" lon="-2.7637296204268296"><ele>283.0</ele><time>2026-05-01T15:19:14Z</time></trkpt><trkpt lat="43.29018395785004" lon="-2.763793293591122"><ele>283.0</ele><time>2026-05-01T15:19:15Z</time></trkpt><trkpt lat="43.29031945119108" lon="-2.7638137707276207"><ele>283.0</ele><time>2026-05-01T15:19:16Z</time></trkpt><trkpt lat="43.29045622407437" lon="-2.7637788853545184"><ele>283.0</ele><time>2026-05-01T15:19:17Z</time></trkpt><trkpt lat="43.290573150436515" lon="-2.763691769208943"><ele>283.0</ele><time>2026-05-01T15:19:18Z</time></trkpt><trkpt lat="43.29067149770754" lon="-2.7635502775272935"><ele>283.0</ele><time>2026-05-01T15:19:19Z</time></trkpt><trkpt lat="43.29072680007989" lon="-2.7633617596763584"><ele>283.0</ele><time>2026-05-01T15:19:20Z</time></trkpt><trkpt lat="43.29073624383872" lon="-2.7631592620116585"><ele>273.0</ele><time>2026-05-01T15:19:21Z</time></trkpt><trkpt lat="43.29071043200874" lon="-2.762947557279495"><ele>263.0</ele><time>2026-05-01T15:19:22Z</time></trkpt><trkpt lat="43.29066700370728" lon="-2.7627346196434988"><ele>253.0</ele><time>2026-05-01T15:19:23Z</time></trkpt><trkpt lat="43.29062345956041" lon="-2.7625281428473603"><ele>255.33333333333331</ele><time>2026-05-01T15:19:24Z</time></trkpt><trkpt lat="43.2905826450199" lon="-2.7623208341477756"><ele>257.6666666666667</ele><time>2026-05-01T15:19:25Z</time></trkpt><trkpt lat="43.29053927040048" lon="-2.7621121541220384"><ele>260.0</ele><time>2026-05-01T15:19:26Z</time></trkpt><trkpt lat="43.290494627842364" lon="-2.761912322966842"><ele>258.75</ele><time>2026-05-01T15:19:27Z</time></trkpt><trkpt lat="43.2904532578426" lon="-2.7617239692405247"><ele>257.5</ele><time>2026-05-01T15:19:28Z</time></trkpt><trkpt lat="43.29041848970505" lon="-2.7615376570246215"><ele>256.25</ele><time>2026-05-01T15:19:29Z</time></trkpt><trkpt lat="43.29039108333457" lon="-2.7613556039506735"><ele>255.0</ele><time>2026-05-01T15:19:30Z</time></trkpt><trkpt lat="43.29038981330868" lon="-2.7611597519896574"><ele>254.25</ele><time>2026-05-01T15:19:31Z</time></trkpt><trkpt lat="43.29042434029564" lon="-2.7609798501725806"><ele>253.5</ele><time>2026-05-01T15:19:32Z</time></trkpt><trkpt lat="43.29049873820502" lon="-2.7608107683200034"><ele>252.75</ele><time>2026-05-01T15:19:33Z</time></trkpt><trkpt lat="43.29060344788813" lon="-2.760657218997259"><ele>252.0</ele><time>2026-05-01T15:19:34Z</time></trkpt><trkpt lat="43.29074292189762" lon="-2.7605440507379035"><ele>248.66666666666669</ele><time>2026-05-01T15:19:35Z</time></trkpt><trkpt lat="43.29092227518459" lon="-2.7604688537502846"><ele>245.33333333333334</ele><time>2026-05-01T15:19:36Z</time></trkpt><trkpt lat="43.29111235010308" lon="-2.76045933454846"><ele>242.0</ele><time>2026-05-01T15:19:37Z</time></trkpt><trkpt lat="43.29133511161875" lon="-2.7605231360670164"><ele>240.5</ele><time>2026-05-01T15:19:38Z</time></trkpt><trkpt lat="43.29156518661437" lon="-2.760614229519544"><ele>239.0</ele><time>2026-05-01T15:19:39Z</time></trkpt><trkpt lat="43.29179598466555" lon="-2.7606977625226055"><ele>239.0</ele><time>2026-05-01T15:19:40Z</time></trkpt><trkpt lat="43.29202350873752" lon="-2.7607596276982393"><ele>239.0</ele><time>2026-05-01T15:19:41.001Z</time></trkpt><trkpt lat="43.29222794305892" lon="-2.760817790060084"><ele>239.0</ele><time>2026-05-01T15:19:42.001Z</time></trkpt><trkpt lat="43.292415102540666" lon="-2.7608721436745824"><ele>240.0</ele><time>2026-05-01T15:19:43.001Z</time></trkpt><trkpt lat="43.292602349260584" lon="-2.760923232827539"><ele>241.0</ele><time>2026-05-01T15:19:44.001Z</time></trkpt><trkpt lat="43.29278932635895" lon="-2.760967738630702"><ele>242.0</ele><time>2026-05-01T15:19:45.001Z</time></trkpt><trkpt lat="43.29296724993928" lon="-2.760994336489241"><ele>242.0</ele><time>2026-05-01T15:19:46.001Z</time></trkpt><trkpt lat="43.293134654832365" lon="-2.761016450217997"><ele>242.0</ele><time>2026-05-01T15:19:47.001Z</time></trkpt><trkpt lat="43.293298689725525" lon="-2.7610430707011666"><ele>242.0</ele><time>2026-05-01T15:19:48.001Z</time></trkpt><trkpt lat="43.29345003479608" lon="-2.761066942658294"><ele>239.5</ele><time>2026-05-01T15:19:49.001Z</time></trkpt><trkpt lat="43.293600772818046" lon="-2.7610847126848665"><ele>237.0</ele><time>2026-05-01T15:19:50.001Z</time></trkpt><trkpt lat="43.29374259382602" lon="-2.7610769946099"><ele>234.5</ele><time>2026-05-01T15:19:51.001Z</time></trkpt><trkpt lat="43.29389494368052" lon="-2.7610396218261637"><ele>232.0</ele><time>2026-05-01T15:19:52.001Z</time></trkpt><trkpt lat="43.2940410258091" lon="-2.7609692916701305"><ele>232.0</ele><time>2026-05-01T15:19:53.001Z</time></trkpt><trkpt lat="43.29416695374238" lon="-2.7608276530299256"><ele>232.0</ele><time>2026-05-01T15:19:54.001Z</time></trkpt><trkpt lat="43.29428449745576" lon="-2.7606919138216197"><ele>232.0</ele><time>2026-05-01T15:19:55.001Z</time></trkpt><trkpt lat="43.294371927618116" lon="-2.760498286464335"><ele>232.0</ele><time>2026-05-01T15:19:56.001Z</time></trkpt><trkpt lat="43.29444772669412" lon="-2.760280927395987"><ele>232.0</ele><time>2026-05-01T15:19:57.001Z</time></trkpt><trkpt lat="43.29451221205154" lon="-2.7600384820347306"><ele>232.0</ele><time>2026-05-01T15:19:58.001Z</time></trkpt><trkpt lat="43.294582085155575" lon="-2.759794004175097"><ele>233.33333333333331</ele><time>2026-05-01T15:19:59.001Z</time></trkpt><trkpt lat="43.29464634288613" lon="-2.7595449166160506"><ele>234.66666666666669</ele><time>2026-05-01T15:20:00.001Z</time></trkpt><trkpt lat="43.29471605582903" lon="-2.7593039425920556"><ele>236.0</ele><time>2026-05-01T15:20:01.001Z</time></trkpt><trkpt lat="43.29480508710538" lon="-2.7590521641521546"><ele>233.66666666666669</ele><time>2026-05-01T15:20:02.001Z</time></trkpt><trkpt lat="43.2949269760021" lon="-2.758820679238018"><ele>231.33333333333331</ele><time>2026-05-01T15:20:03.001Z</time></trkpt><trkpt lat="43.295083551054326" lon="-2.7586453478801984"><ele>229.0</ele><time>2026-05-01T15:20:04.001Z</time></trkpt><trkpt lat="43.29525839257716" lon="-2.758523500000855"><ele>229.0</ele><time>2026-05-01T15:20:05.001Z</time></trkpt><trkpt lat="43.29546025412174" lon="-2.7584404947052894"><ele>229.0</ele><time>2026-05-01T15:20:06.001Z</time></trkpt><trkpt lat="43.2956599367502" lon="-2.75840468830078"><ele>229.0</ele><time>2026-05-01T15:20:07.001Z</time></trkpt><trkpt lat="43.295848601909135" lon="-2.758343344209173"><ele>227.66666666666666</ele><time>2026-05-01T15:20:08.001Z</time></trkpt><trkpt lat="43.296030255543535" lon="-2.7582887760007195"><ele>226.33333333333331</ele><time>2026-05-01T15:20:09.001Z</time></trkpt><trkpt lat="43.2962314186175" lon="-2.7582595367539855"><ele>225.0</ele><time>2026-05-01T15:20:10.001Z</time></trkpt><trkpt lat="43.296435718969256" lon="-2.758285109308524"><ele>225.0</ele><time>2026-05-01T15:20:11.001Z</time></trkpt><trkpt lat="43.296648157168214" lon="-2.7583452821544054"><ele>225.0</ele><time>2026-05-01T15:20:12.001Z</time></trkpt><trkpt lat="43.296848297025996" lon="-2.758403633777181"><ele>225.0</ele><time>2026-05-01T15:20:13.001Z</time></trkpt><trkpt lat="43.29703238230745" lon="-2.7584385130006983"><ele>225.0</ele><time>2026-05-01T15:20:14.001Z</time></trkpt><trkpt lat="43.29719842443873" lon="-2.7584438551401633"><ele>225.0</ele><time>2026-05-01T15:20:15.001Z</time></trkpt><trkpt lat="43.297364706297095" lon="-2.758397499061376"><ele>225.0</ele><time>2026-05-01T15:20:16.001Z</time></trkpt><trkpt lat="43.29752087149921" lon="-2.7583059696266328"><ele>224.0</ele><time>2026-05-01T15:20:17.001Z</time></trkpt><trkpt lat="43.29765880179282" lon="-2.758169466985655"><ele>223.0</ele><time>2026-05-01T15:20:18.001Z</time></trkpt><trkpt lat="43.297789352065394" lon="-2.75797680957316"><ele>222.0</ele><time>2026-05-01T15:20:19.001Z</time></trkpt><trkpt lat="43.29790423280742" lon="-2.7577594368369662"><ele>223.66666666666669</ele><time>2026-05-01T15:20:20.001Z</time></trkpt><trkpt lat="43.29799594057818" lon="-2.7575230799654187"><ele>225.33333333333334</ele><time>2026-05-01T15:20:21.001Z</time></trkpt><trkpt lat="43.29804601302431" lon="-2.7572659054609097"><ele>227.0</ele><time>2026-05-01T15:20:22.001Z</time></trkpt><trkpt lat="43.298080272928026" lon="-2.7570243716994414"><ele>226.66666666666669</ele><time>2026-05-01T15:20:23.001Z</time></trkpt><trkpt lat="43.298107437462754" lon="-2.7567862719279477"><ele>226.33333333333331</ele><time>2026-05-01T15:20:24.001Z</time></trkpt><trkpt lat="43.29807558412217" lon="-2.7565383468785463"><ele>226.0</ele><time>2026-05-01T15:20:25.001Z</time></trkpt><trkpt lat="43.29802394042602" lon="-2.7563026807365003"><ele>226.0</ele><time>2026-05-01T15:20:26.001Z</time></trkpt><trkpt lat="43.29797152221207" lon="-2.7560718647548437"><ele>226.0</ele><time>2026-05-01T15:20:27.001Z</time></trkpt><trkpt lat="43.297931108621405" lon="-2.7558535716736814"><ele>226.0</ele><time>2026-05-01T15:20:28.001Z</time></trkpt><trkpt lat="43.297916710135084" lon="-2.755649172182167"><ele>224.25</ele><time>2026-05-01T15:20:29.001Z</time></trkpt><trkpt lat="43.29791715594674" lon="-2.7554445056706847"><ele>222.5</ele><time>2026-05-01T15:20:30.001Z</time></trkpt><trkpt lat="43.297919890200916" lon="-2.7552805682996935"><ele>220.75</ele><time>2026-05-01T15:20:31.001Z</time></trkpt><trkpt lat="43.297922973386825" lon="-2.75513853326673"><ele>219.0</ele><time>2026-05-01T15:20:32.001Z</time></trkpt><trkpt lat="43.29793017669984" lon="-2.75500860877017"><ele>218.0</ele><time>2026-05-01T15:20:33.001Z</time></trkpt><trkpt lat="43.297936467855486" lon="-2.7549066830390134"><ele>216.99999999999997</ele><time>2026-05-01T15:20:34.001Z</time></trkpt><trkpt lat="43.29795332417525" lon="-2.754719626568496"><ele>215.99999999999997</ele><time>2026-05-01T15:20:36.001Z</time></trkpt><trkpt lat="43.29796663693537" lon="-2.7546188068818585"><ele>215.0</ele><time>2026-05-01T15:20:37Z</time></trkpt><trkpt lat="43.29800717690902" lon="-2.7545085510240304"><ele>214.0</ele><time>2026-05-01T15:20:38Z</time></trkpt><trkpt lat="43.29807224318848" lon="-2.754390842183873"><ele>213.2</ele><time>2026-05-01T15:20:39Z</time></trkpt><trkpt lat="43.29815589299909" lon="-2.754288120655375"><ele>212.39999999999998</ele><time>2026-05-01T15:20:40Z</time></trkpt><trkpt lat="43.29824282884103" lon="-2.754194648819017"><ele>211.6</ele><time>2026-05-01T15:20:41Z</time></trkpt><trkpt lat="43.298316680336114" lon="-2.754113753693878"><ele>210.8</ele><time>2026-05-01T15:20:42Z</time></trkpt><trkpt lat="43.29839578437989" lon="-2.754036929620006"><ele>210.0</ele><time>2026-05-01T15:20:43Z</time></trkpt><trkpt lat="43.298477698301035" lon="-2.7539628869823902"><ele>210.0</ele><time>2026-05-01T15:20:44Z</time></trkpt><trkpt lat="43.29854350888702" lon="-2.75389746611123"><ele>210.0</ele><time>2026-05-01T15:20:45Z</time></trkpt><trkpt lat="43.29860777667893" lon="-2.753837637417421"><ele>210.0</ele><time>2026-05-01T15:20:46Z</time></trkpt><trkpt lat="43.298668393134534" lon="-2.7537861546326377"><ele>210.0</ele><time>2026-05-01T15:20:47Z</time></trkpt><trkpt lat="43.29872628664411" lon="-2.7537375210610637"><ele>210.0</ele><time>2026-05-01T15:20:48Z</time></trkpt><trkpt lat="43.2987797167065" lon="-2.7536895780368975"><ele>210.0</ele><time>2026-05-01T15:20:49Z</time></trkpt><trkpt lat="43.29885269577882" lon="-2.7536383789559165"><ele>210.0</ele><time>2026-05-01T15:20:50Z</time></trkpt><trkpt lat="43.29893598953625" lon="-2.7535820644491116"><ele>209.8</ele><time>2026-05-01T15:20:51Z</time></trkpt><trkpt lat="43.299027330739186" lon="-2.7535204058786644"><ele>209.6</ele><time>2026-05-01T15:20:52Z</time></trkpt><trkpt lat="43.299115861630526" lon="-2.7534528038514843"><ele>209.39999999999998</ele><time>2026-05-01T15:20:53Z</time></trkpt><trkpt lat="43.2992129392116" lon="-2.753391078846546"><ele>209.2</ele><time>2026-05-01T15:20:54Z</time></trkpt><trkpt lat="43.299306559882695" lon="-2.753334563882234"><ele>209.0</ele><time>2026-05-01T15:20:55Z</time></trkpt><trkpt lat="43.299400988520894" lon="-2.753270328658855"><ele>209.0</ele><time>2026-05-01T15:20:56Z</time></trkpt><trkpt lat="43.29948455568419" lon="-2.7532154694940947"><ele>209.0</ele><time>2026-05-01T15:20:57Z</time></trkpt><trkpt lat="43.29955780788112" lon="-2.753172082077354"><ele>209.0</ele><time>2026-05-01T15:20:58Z</time></trkpt><trkpt lat="43.2996269121204" lon="-2.753132775384919"><ele>209.0</ele><time>2026-05-01T15:20:59Z</time></trkpt><trkpt lat="43.299744222997724" lon="-2.7530677087095983"><ele>209.0</ele><time>2026-05-01T15:21:01Z</time></trkpt><trkpt lat="43.299824449715416" lon="-2.7530215620029046"><ele>208.66666666666669</ele><time>2026-05-01T15:21:02Z</time></trkpt><trkpt lat="43.29989894425531" lon="-2.7529520315628435"><ele>208.33333333333334</ele><time>2026-05-01T15:21:03Z</time></trkpt><trkpt lat="43.299964900859" lon="-2.7528756990006866"><ele>208.0</ele><time>2026-05-01T15:21:04Z</time></trkpt><trkpt lat="43.30003209197204" lon="-2.752798772437195"><ele>207.66666666666669</ele><time>2026-05-01T15:21:05Z</time></trkpt><trkpt lat="43.30009272986298" lon="-2.75271037705609"><ele>207.33333333333334</ele><time>2026-05-01T15:21:06Z</time></trkpt><trkpt lat="43.30015098286488" lon="-2.752629095387804"><ele>207.0</ele><time>2026-05-01T15:21:07Z</time></trkpt><trkpt lat="43.30021009862033" lon="-2.752552140250317"><ele>207.0</ele><time>2026-05-01T15:21:08Z</time></trkpt><trkpt lat="43.30026230124036" lon="-2.7524895677292287"><ele>207.0</ele><time>2026-05-01T15:21:09Z</time></trkpt><trkpt lat="43.30031202156954" lon="-2.752432854779639"><ele>207.0</ele><time>2026-05-01T15:21:10Z</time></trkpt><trkpt lat="43.30035807434107" lon="-2.7523725736443914"><ele>207.0</ele><time>2026-05-01T15:21:11Z</time></trkpt><trkpt lat="43.30041579603434" lon="-2.7523064063964835"><ele>207.0</ele><time>2026-05-01T15:21:12Z</time></trkpt><trkpt lat="43.300482115827336" lon="-2.752213818663973"><ele>207.0</ele><time>2026-05-01T15:21:13Z</time></trkpt><trkpt lat="43.300547334221186" lon="-2.752132009293219"><ele>205.2</ele><time>2026-05-01T15:21:14Z</time></trkpt><trkpt lat="43.30062115491814" lon="-2.7520500232996414"><ele>203.39999999999998</ele><time>2026-05-01T15:21:15Z</time></trkpt><trkpt lat="43.300690617199756" lon="-2.7519559732177723"><ele>201.60000000000002</ele><time>2026-05-01T15:21:16Z</time></trkpt><trkpt lat="43.30075795077292" lon="-2.7518653787349168"><ele>199.8</ele><time>2026-05-01T15:21:17Z</time></trkpt><trkpt lat="43.300829508675136" lon="-2.751770658973711"><ele>198.0</ele><time>2026-05-01T15:21:18Z</time></trkpt><trkpt lat="43.30089841091049" lon="-2.751670401625372"><ele>198.0</ele><time>2026-05-01T15:21:19Z</time></trkpt><trkpt lat="43.30097885030181" lon="-2.751568053190426"><ele>198.0</ele><time>2026-05-01T15:21:20Z</time></trkpt><trkpt lat="43.30106346270619" lon="-2.7514748990015683"><ele>198.0</ele><time>2026-05-01T15:21:21Z</time></trkpt><trkpt lat="43.30115968933347" lon="-2.7513790184998888"><ele>198.0</ele><time>2026-05-01T15:21:22Z</time></trkpt><trkpt lat="43.30127510255296" lon="-2.7512899609987027"><ele>198.0</ele><time>2026-05-01T15:21:23Z</time></trkpt><trkpt lat="43.301406376413546" lon="-2.7512324113523876"><ele>198.0</ele><time>2026-05-01T15:21:24Z</time></trkpt><trkpt lat="43.30154779266312" lon="-2.751203830554473"><ele>198.0</ele><time>2026-05-01T15:21:25Z</time></trkpt><trkpt lat="43.301691904917895" lon="-2.751179617079277"><ele>198.0</ele><time>2026-05-01T15:21:26Z</time></trkpt><trkpt lat="43.301851592748726" lon="-2.7511521086065778"><ele>194.33333333333334</ele><time>2026-05-01T15:21:27Z</time></trkpt><trkpt lat="43.302017108907336" lon="-2.751126228563509"><ele>190.66666666666669</ele><time>2026-05-01T15:21:28Z</time></trkpt><trkpt lat="43.302189469411594" lon="-2.7511028895571035"><ele>187.0</ele><time>2026-05-01T15:21:29Z</time></trkpt><trkpt lat="43.30235344852791" lon="-2.7510772057503807"><ele>187.5</ele><time>2026-05-01T15:21:30Z</time></trkpt><trkpt lat="43.302488795869635" lon="-2.751049053922958"><ele>188.0</ele><time>2026-05-01T15:21:31Z</time></trkpt><trkpt lat="43.3026066164841" lon="-2.7510092511656055"><ele>188.5</ele><time>2026-05-01T15:21:32Z</time></trkpt><trkpt lat="43.302712517509086" lon="-2.7509253525501185"><ele>189.0</ele><time>2026-05-01T15:21:33Z</time></trkpt><trkpt lat="43.30280837454296" lon="-2.7507773960897204"><ele>189.0</ele><time>2026-05-01T15:21:34Z</time></trkpt><trkpt lat="43.302902681813094" lon="-2.750589751147795"><ele>189.0</ele><time>2026-05-01T15:21:35Z</time></trkpt><trkpt lat="43.30298702260541" lon="-2.7503675421743337"><ele>189.0</ele><time>2026-05-01T15:21:36Z</time></trkpt><trkpt lat="43.303065666569715" lon="-2.7501559071741664"><ele>185.0</ele><time>2026-05-01T15:21:37Z</time></trkpt><trkpt lat="43.30312574280756" lon="-2.749938161500791"><ele>181.0</ele><time>2026-05-01T15:21:38Z</time></trkpt><trkpt lat="43.303159530342626" lon="-2.7497099048482627"><ele>177.0</ele><time>2026-05-01T15:21:39Z</time></trkpt><trkpt lat="43.30316791554925" lon="-2.749485291134144"><ele>176.33333333333334</ele><time>2026-05-01T15:21:40Z</time></trkpt><trkpt lat="43.30316022476516" lon="-2.7492703500188265"><ele>175.66666666666669</ele><time>2026-05-01T15:21:41Z</time></trkpt><trkpt lat="43.30311995828684" lon="-2.7490647414614995"><ele>175.0</ele><time>2026-05-01T15:21:42.001Z</time></trkpt><trkpt lat="43.30303148739601" lon="-2.7488871587805757"><ele>174.0</ele><time>2026-05-01T15:21:43.001Z</time></trkpt><trkpt lat="43.30292934615535" lon="-2.74869401685227"><ele>173.0</ele><time>2026-05-01T15:21:44.001Z</time></trkpt><trkpt lat="43.30282123532807" lon="-2.748502814392304"><ele>172.0</ele><time>2026-05-01T15:21:45.001Z</time></trkpt><trkpt lat="43.302711214163075" lon="-2.748324922695443"><ele>172.0</ele><time>2026-05-01T15:21:46.001Z</time></trkpt><trkpt lat="43.302575341478956" lon="-2.74817335142262"><ele>172.0</ele><time>2026-05-01T15:21:47.001Z</time></trkpt><trkpt lat="43.30242019589526" lon="-2.7480455287611005"><ele>172.0</ele><time>2026-05-01T15:21:48.001Z</time></trkpt><trkpt lat="43.302273832429634" lon="-2.7479532436043645"><ele>171.5</ele><time>2026-05-01T15:21:49.001Z</time></trkpt><trkpt lat="43.302131563864606" lon="-2.7479185467287666"><ele>171.0</ele><time>2026-05-01T15:21:50.001Z</time></trkpt><trkpt lat="43.3019906245341" lon="-2.747946508093837"><ele>170.5</ele><time>2026-05-01T15:21:51.001Z</time></trkpt><trkpt lat="43.30185090298171" lon="-2.748041115489968"><ele>170.0</ele><time>2026-05-01T15:21:52.001Z</time></trkpt><trkpt lat="43.3017242344292" lon="-2.748169402400024"><ele>170.0</ele><time>2026-05-01T15:21:53.001Z</time></trkpt><trkpt lat="43.30159808931982" lon="-2.7483056447416843"><ele>170.0</ele><time>2026-05-01T15:21:54.001Z</time></trkpt><trkpt lat="43.301486561993315" lon="-2.748408796796772"><ele>170.0</ele><time>2026-05-01T15:21:55.001Z</time></trkpt><trkpt lat="43.301362202010104" lon="-2.748456109719103"><ele>170.0</ele><time>2026-05-01T15:21:56.001Z</time></trkpt><trkpt lat="43.30122318629202" lon="-2.748457214288415"><ele>170.25</ele><time>2026-05-01T15:21:57.001Z</time></trkpt><trkpt lat="43.30109217058258" lon="-2.7484003540419684"><ele>170.5</ele><time>2026-05-01T15:21:58.001Z</time></trkpt><trkpt lat="43.30096601294117" lon="-2.7482981072808466"><ele>170.75</ele><time>2026-05-01T15:21:59.001Z</time></trkpt><trkpt lat="43.30089285430884" lon="-2.74819477027024"><ele>171.0</ele><time>2026-05-01T15:22:00.001Z</time></trkpt><trkpt lat="43.300844120754654" lon="-2.748011164883692"><ele>171.0</ele><time>2026-05-01T15:22:01.001Z</time></trkpt><trkpt lat="43.30078704653918" lon="-2.7478184517199535"><ele>171.0</ele><time>2026-05-01T15:22:02.001Z</time></trkpt><trkpt lat="43.300729653111354" lon="-2.747646782929284"><ele>171.0</ele><time>2026-05-01T15:22:03.001Z</time></trkpt><trkpt lat="43.30064588597156" lon="-2.747498880894377"><ele>171.0</ele><time>2026-05-01T15:22:04.001Z</time></trkpt><trkpt lat="43.30051032320517" lon="-2.7474069663442027"><ele>163.66666666666666</ele><time>2026-05-01T15:22:05.001Z</time></trkpt><trkpt lat="43.300354345594336" lon="-2.74737504001712"><ele>156.33333333333331</ele><time>2026-05-01T15:22:06.001Z</time></trkpt><trkpt lat="43.30019683315416" lon="-2.747410475428715"><ele>149.0</ele><time>2026-05-01T15:22:07.001Z</time></trkpt><trkpt lat="43.30003794267967" lon="-2.7474881783928953"><ele>149.0</ele><time>2026-05-01T15:22:08.001Z</time></trkpt><trkpt lat="43.29987632394452" lon="-2.7475910198262934"><ele>149.0</ele><time>2026-05-01T15:22:09.001Z</time></trkpt><trkpt lat="43.29971468968269" lon="-2.7477056685079786"><ele>149.0</ele><time>2026-05-01T15:22:10.001Z</time></trkpt><trkpt lat="43.29953979452596" lon="-2.7478234372372943"><ele>153.0</ele><time>2026-05-01T15:22:11.001Z</time></trkpt><trkpt lat="43.29937188786091" lon="-2.7479287855965953"><ele>157.0</ele><time>2026-05-01T15:22:12.001Z</time></trkpt><trkpt lat="43.29923071026984" lon="-2.7480210119408826"><ele>161.0</ele><time>2026-05-01T15:22:13.001Z</time></trkpt><trkpt lat="43.29911328020943" lon="-2.7480783389063355"><ele>161.0</ele><time>2026-05-01T15:22:14.001Z</time></trkpt><trkpt lat="43.298999600879874" lon="-2.7480960300565487"><ele>161.0</ele><time>2026-05-01T15:22:15.001Z</time></trkpt><trkpt lat="43.29887444625097" lon="-2.7480691406793896"><ele>161.0</ele><time>2026-05-01T15:22:16.001Z</time></trkpt><trkpt lat="43.298757556093506" lon="-2.747974949400755"><ele>161.0</ele><time>2026-05-01T15:22:17.001Z</time></trkpt><trkpt lat="43.29865920958218" lon="-2.7478512474676897"><ele>157.0</ele><time>2026-05-01T15:22:18.001Z</time></trkpt><trkpt lat="43.298600972369286" lon="-2.747678740079939"><ele>153.0</ele><time>2026-05-01T15:22:19.001Z</time></trkpt><trkpt lat="43.298578824086455" lon="-2.74749268420466"><ele>149.0</ele><time>2026-05-01T15:22:20.001Z</time></trkpt><trkpt lat="43.29859651272542" lon="-2.7472959441589047"><ele>145.0</ele><time>2026-05-01T15:22:21.001Z</time></trkpt><trkpt lat="43.29866698286604" lon="-2.747098799104562"><ele>145.0</ele><time>2026-05-01T15:22:22.001Z</time></trkpt><trkpt lat="43.29878134876901" lon="-2.7469123572321816"><ele>145.0</ele><time>2026-05-01T15:22:23.001Z</time></trkpt><trkpt lat="43.29889883017964" lon="-2.7467036394829485"><ele>145.0</ele><time>2026-05-01T15:22:24.001Z</time></trkpt><trkpt lat="43.29897506364573" lon="-2.7464833288643535"><ele>142.0</ele><time>2026-05-01T15:22:25.001Z</time></trkpt><trkpt lat="43.29903178095682" lon="-2.7462395896693095"><ele>139.0</ele><time>2026-05-01T15:22:26.001Z</time></trkpt><trkpt lat="43.299056499058544" lon="-2.7459879031767573"><ele>136.0</ele><time>2026-05-01T15:22:27.001Z</time></trkpt><trkpt lat="43.299043983745115" lon="-2.7457330057893787"><ele>136.33333333333334</ele><time>2026-05-01T15:22:28.001Z</time></trkpt><trkpt lat="43.29899773836345" lon="-2.7454811784613073"><ele>136.66666666666666</ele><time>2026-05-01T15:22:29.001Z</time></trkpt><trkpt lat="43.29892351971445" lon="-2.745238957331167"><ele>137.0</ele><time>2026-05-01T15:22:30.001Z</time></trkpt><trkpt lat="43.29884943285766" lon="-2.745012460296469"><ele>137.0</ele><time>2026-05-01T15:22:31.001Z</time></trkpt><trkpt lat="43.298802249722605" lon="-2.7448156708707034"><ele>137.0</ele><time>2026-05-01T15:22:32.001Z</time></trkpt><trkpt lat="43.29876481712354" lon="-2.7446212343158023"><ele>137.0</ele><time>2026-05-01T15:22:33.001Z</time></trkpt><trkpt lat="43.298742233667305" lon="-2.744436059798105"><ele>137.0</ele><time>2026-05-01T15:22:34.001Z</time></trkpt><trkpt lat="43.298754987291616" lon="-2.7442430044295856"><ele>136.0</ele><time>2026-05-01T15:22:35.001Z</time></trkpt><trkpt lat="43.29881069707664" lon="-2.744068961405642"><ele>135.0</ele><time>2026-05-01T15:22:36.001Z</time></trkpt><trkpt lat="43.298889607428" lon="-2.7439057739604364"><ele>134.0</ele><time>2026-05-01T15:22:37.001Z</time></trkpt><trkpt lat="43.29902156635121" lon="-2.743815571324342"><ele>133.0</ele><time>2026-05-01T15:22:38.001Z</time></trkpt><trkpt lat="43.29916184520642" lon="-2.743764809369033"><ele>133.0</ele><time>2026-05-01T15:22:39.001Z</time></trkpt><trkpt lat="43.2993240348516" lon="-2.7437602348322883"><ele>133.0</ele><time>2026-05-01T15:22:40.001Z</time></trkpt><trkpt lat="43.299487634184445" lon="-2.7438204464114557"><ele>133.0</ele><time>2026-05-01T15:22:41.001Z</time></trkpt><trkpt lat="43.299660707391666" lon="-2.7439196660173866"><ele>132.66666666666669</ele><time>2026-05-01T15:22:42.001Z</time></trkpt><trkpt lat="43.29982956862503" lon="-2.7440659445969207"><ele>132.33333333333334</ele><time>2026-05-01T15:22:43Z</time></trkpt><trkpt lat="43.299983948511205" lon="-2.7442261628264997"><ele>132.0</ele><time>2026-05-01T15:22:44Z</time></trkpt><trkpt lat="43.300129380769796" lon="-2.7443888393318066"><ele>132.0</ele><time>2026-05-01T15:22:45Z</time></trkpt><trkpt lat="43.30026303366379" lon="-2.7445246153021383"><ele>132.0</ele><time>2026-05-01T15:22:46Z</time></trkpt><trkpt lat="43.30038878308837" lon="-2.7446440245933936"><ele>132.0</ele><time>2026-05-01T15:22:47Z</time></trkpt><trkpt lat="43.300487729676114" lon="-2.7447250515072725"><ele>132.0</ele><time>2026-05-01T15:22:48Z</time></trkpt><trkpt lat="43.300578531546975" lon="-2.744760262344139"><ele>134.2</ele><time>2026-05-01T15:22:49Z</time></trkpt><trkpt lat="43.30067044762067" lon="-2.744755354195044"><ele>136.39999999999998</ele><time>2026-05-01T15:22:50Z</time></trkpt><trkpt lat="43.300766328315625" lon="-2.744705848589485"><ele>138.60000000000002</ele><time>2026-05-01T15:22:51Z</time></trkpt><trkpt lat="43.30083641666285" lon="-2.744589402443429"><ele>140.8</ele><time>2026-05-01T15:22:52Z</time></trkpt><trkpt lat="43.30085889083564" lon="-2.744439108271939"><ele>143.0</ele><time>2026-05-01T15:22:53Z</time></trkpt><trkpt lat="43.30081350138678" lon="-2.7442920383266243"><ele>144.66666666666666</ele><time>2026-05-01T15:22:54Z</time></trkpt><trkpt lat="43.300722900848925" lon="-2.7441437328989515"><ele>146.33333333333334</ele><time>2026-05-01T15:22:55Z</time></trkpt><trkpt lat="43.30062443899195" lon="-2.743971469989063"><ele>148.0</ele><time>2026-05-01T15:22:56Z</time></trkpt><trkpt lat="43.300531414431724" lon="-2.7437656057158937"><ele>153.66666666666669</ele><time>2026-05-01T15:22:57Z</time></trkpt><trkpt lat="43.30045108793033" lon="-2.7435431512935624"><ele>159.33333333333334</ele><time>2026-05-01T15:22:58Z</time></trkpt><trkpt lat="43.30037080685162" lon="-2.743287914418023"><ele>165.0</ele><time>2026-05-01T15:22:59Z</time></trkpt><trkpt lat="43.30029478636671" lon="-2.7430227807046164"><ele>165.0</ele><time>2026-05-01T15:23:00Z</time></trkpt><trkpt lat="43.30022147070295" lon="-2.7427534656606096"><ele>165.0</ele><time>2026-05-01T15:23:01Z</time></trkpt><trkpt lat="43.300155909186884" lon="-2.7424641975725366"><ele>165.0</ele><time>2026-05-01T15:23:02Z</time></trkpt><trkpt lat="43.30007252301054" lon="-2.7421716079951906"><ele>167.0</ele><time>2026-05-01T15:23:03Z</time></trkpt><trkpt lat="43.29999888786993" lon="-2.7418654451421682"><ele>169.0</ele><time>2026-05-01T15:23:04Z</time></trkpt><trkpt lat="43.299944781155396" lon="-2.741560771026226"><ele>169.0</ele><time>2026-05-01T15:23:05Z</time></trkpt><trkpt lat="43.29987753816825" lon="-2.7413019498495963"><ele>169.0</ele><time>2026-05-01T15:23:06Z</time></trkpt><trkpt lat="43.29982407646959" lon="-2.7410855505061615"><ele>169.0</ele><time>2026-05-01T15:23:07Z</time></trkpt><trkpt lat="43.299769880541234" lon="-2.7408634779246626"><ele>174.75</ele><time>2026-05-01T15:23:08Z</time></trkpt><trkpt lat="43.29972584671315" lon="-2.740677299475489"><ele>180.5</ele><time>2026-05-01T15:23:09Z</time></trkpt><trkpt lat="43.29967901604252" lon="-2.740515527046675"><ele>186.25</ele><time>2026-05-01T15:23:10Z</time></trkpt><trkpt lat="43.29968235074806" lon="-2.7403385200813593"><ele>192.0</ele><time>2026-05-01T15:23:11Z</time></trkpt><trkpt lat="43.299699276540444" lon="-2.7401729870538163"><ele>188.0</ele><time>2026-05-01T15:23:12Z</time></trkpt><trkpt lat="43.299773437911824" lon="-2.740015201371762"><ele>184.0</ele><time>2026-05-01T15:23:13Z</time></trkpt><trkpt lat="43.29988522479248" lon="-2.7398956319869034"><ele>180.0</ele><time>2026-05-01T15:23:14Z</time></trkpt><trkpt lat="43.30001498585561" lon="-2.739801870805253"><ele>176.0</ele><time>2026-05-01T15:23:15Z</time></trkpt><trkpt lat="43.30015761089506" lon="-2.7397381679962787"><ele>176.0</ele><time>2026-05-01T15:23:16Z</time></trkpt><trkpt lat="43.30030745662994" lon="-2.739711987659942"><ele>176.0</ele><time>2026-05-01T15:23:17Z</time></trkpt><trkpt lat="43.300443467773526" lon="-2.73970406340803"><ele>176.0</ele><time>2026-05-01T15:23:18Z</time></trkpt><trkpt lat="43.30056135980799" lon="-2.7397050872198156"><ele>176.0</ele><time>2026-05-01T15:23:19Z</time></trkpt><trkpt lat="43.30065835603517" lon="-2.739684672928797"><ele>177.8</ele><time>2026-05-01T15:23:20Z</time></trkpt><trkpt lat="43.300754491800696" lon="-2.7396417412784344"><ele>179.60000000000002</ele><time>2026-05-01T15:23:21Z</time></trkpt><trkpt lat="43.300849448702735" lon="-2.7396086760296274"><ele>181.4</ele><time>2026-05-01T15:23:22Z</time></trkpt><trkpt lat="43.300896295028195" lon="-2.7394616558756293"><ele>183.2</ele><time>2026-05-01T15:23:23Z</time></trkpt><trkpt lat="43.30092104914011" lon="-2.7393082091835446"><ele>185.0</ele><time>2026-05-01T15:23:24Z</time></trkpt><trkpt lat="43.3009187406429" lon="-2.739128170814509"><ele>188.33333333333331</ele><time>2026-05-01T15:23:25Z</time></trkpt><trkpt lat="43.30091649576542" lon="-2.738899223032931"><ele>191.66666666666666</ele><time>2026-05-01T15:23:26Z</time></trkpt><trkpt lat="43.30092228813655" lon="-2.7386586178478547"><ele>195.0</ele><time>2026-05-01T15:23:27Z</time></trkpt><trkpt lat="43.30093971570647" lon="-2.7383875289193207"><ele>195.0</ele><time>2026-05-01T15:23:28Z</time></trkpt><trkpt lat="43.300956621663595" lon="-2.738114623336818"><ele>195.0</ele><time>2026-05-01T15:23:29Z</time></trkpt><trkpt lat="43.30097696173325" lon="-2.7378387550967713"><ele>195.0</ele><time>2026-05-01T15:23:30Z</time></trkpt><trkpt lat="43.301012947459945" lon="-2.7375843348824924"><ele>191.0</ele><time>2026-05-01T15:23:31Z</time></trkpt><trkpt lat="43.30107071614976" lon="-2.7373849161298685"><ele>187.0</ele><time>2026-05-01T15:23:32Z</time></trkpt><trkpt lat="43.30112452306807" lon="-2.737175499121598"><ele>183.0</ele><time>2026-05-01T15:23:33Z</time></trkpt><trkpt lat="43.30116890533186" lon="-2.7369813013504634"><ele>179.0</ele><time>2026-05-01T15:23:34Z</time></trkpt><trkpt lat="43.301184337265475" lon="-2.7367783029074193"><ele>175.0</ele><time>2026-05-01T15:23:35Z</time></trkpt><trkpt lat="43.301173438360024" lon="-2.7365959646018143"><ele>171.0</ele><time>2026-05-01T15:23:36Z</time></trkpt><trkpt lat="43.301156624907755" lon="-2.7364194258868624"><ele>167.0</ele><time>2026-05-01T15:23:37Z</time></trkpt><trkpt lat="43.301077469833" lon="-2.7362716404278706"><ele>167.0</ele><time>2026-05-01T15:23:38Z</time></trkpt><trkpt lat="43.30096937830844" lon="-2.736133293488653"><ele>167.0</ele><time>2026-05-01T15:23:39Z</time></trkpt><trkpt lat="43.30085256959535" lon="-2.73599403159134"><ele>167.0</ele><time>2026-05-01T15:23:40Z</time></trkpt><trkpt lat="43.30072989389721" lon="-2.7358649565558806"><ele>170.66666666666666</ele><time>2026-05-01T15:23:41Z</time></trkpt><trkpt lat="43.30060923980434" lon="-2.7357205212866145"><ele>174.33333333333334</ele><time>2026-05-01T15:23:42Z</time></trkpt><trkpt lat="43.3004930148294" lon="-2.7355550212418556"><ele>178.0</ele><time>2026-05-01T15:23:43Z</time></trkpt><trkpt lat="43.30039309389775" lon="-2.735382648338295"><ele>172.0</ele><time>2026-05-01T15:23:44Z</time></trkpt><trkpt lat="43.30030198822017" lon="-2.735210274983736"><ele>166.0</ele><time>2026-05-01T15:23:45Z</time></trkpt><trkpt lat="43.30021094299624" lon="-2.73501606223343"><ele>160.0</ele><time>2026-05-01T15:23:46.001Z</time></trkpt><trkpt lat="43.30012687384811" lon="-2.7348160239432207"><ele>160.0</ele><time>2026-05-01T15:23:47.001Z</time></trkpt><trkpt lat="43.30007010108005" lon="-2.7346223495801554"><ele>160.0</ele><time>2026-05-01T15:23:48.001Z</time></trkpt><trkpt lat="43.300019341062274" lon="-2.734433408387927"><ele>160.0</ele><time>2026-05-01T15:23:49.001Z</time></trkpt><trkpt lat="43.29997951651492" lon="-2.7342579348332623"><ele>160.0</ele><time>2026-05-01T15:23:50.001Z</time></trkpt><trkpt lat="43.2999527179385" lon="-2.734102545766695"><ele>160.25</ele><time>2026-05-01T15:23:51.001Z</time></trkpt><trkpt lat="43.29994023767206" lon="-2.7339519279647906"><ele>160.5</ele><time>2026-05-01T15:23:52.001Z</time></trkpt><trkpt lat="43.29993537011432" lon="-2.73378373368414"><ele>160.75</ele><time>2026-05-01T15:23:53.001Z</time></trkpt><trkpt lat="43.300009153231684" lon="-2.7336103654758395"><ele>161.0</ele><time>2026-05-01T15:23:54.001Z</time></trkpt><trkpt lat="43.3000589190646" lon="-2.733443937893003"><ele>161.0</ele><time>2026-05-01T15:23:55.001Z</time></trkpt><trkpt lat="43.3001045266811" lon="-2.733322561836116"><ele>161.0</ele><time>2026-05-01T15:23:56.001Z</time></trkpt><trkpt lat="43.30014120793242" lon="-2.7331806651116635"><ele>161.0</ele><time>2026-05-01T15:23:57.001Z</time></trkpt><trkpt lat="43.30014394854424" lon="-2.733053516365965"><ele>161.0</ele><time>2026-05-01T15:23:58.001Z</time></trkpt><trkpt lat="43.30011846182899" lon="-2.7329293880316174"><ele>161.0</ele><time>2026-05-01T15:23:59.001Z</time></trkpt><trkpt lat="43.30004169228186" lon="-2.7328266048434977"><ele>161.0</ele><time>2026-05-01T15:24:00.001Z</time></trkpt><trkpt lat="43.29992218571484" lon="-2.7327825859550647"><ele>161.0</ele><time>2026-05-01T15:24:01.001Z</time></trkpt><trkpt lat="43.299782693670494" lon="-2.7327546128449565"><ele>161.0</ele><time>2026-05-01T15:24:02.001Z</time></trkpt><trkpt lat="43.29967228588618" lon="-2.73268054744933"><ele>161.0</ele><time>2026-05-01T15:24:03.001Z</time></trkpt><trkpt lat="43.29955911299884" lon="-2.7325784455924587"><ele>156.0</ele><time>2026-05-01T15:24:04.001Z</time></trkpt><trkpt lat="43.29943511561596" lon="-2.732429428891232"><ele>151.0</ele><time>2026-05-01T15:24:05.001Z</time></trkpt><trkpt lat="43.29932046094888" lon="-2.73223697082609"><ele>146.0</ele><time>2026-05-01T15:24:06.001Z</time></trkpt><trkpt lat="43.29921494531767" lon="-2.7320416460458623"><ele>149.66666666666666</ele><time>2026-05-01T15:24:07.001Z</time></trkpt><trkpt lat="43.29912931578467" lon="-2.7318562790357093"><ele>153.33333333333334</ele><time>2026-05-01T15:24:08.001Z</time></trkpt><trkpt lat="43.29904903446586" lon="-2.7316629587506656"><ele>157.0</ele><time>2026-05-01T15:24:09.001Z</time></trkpt><trkpt lat="43.29899918019871" lon="-2.731459477411357"><ele>157.0</ele><time>2026-05-01T15:24:10.001Z</time></trkpt><trkpt lat="43.298972788325344" lon="-2.7312608972802166"><ele>157.0</ele><time>2026-05-01T15:24:11.001Z</time></trkpt><trkpt lat="43.2989710068793" lon="-2.7310711808486623"><ele>157.0</ele><time>2026-05-01T15:24:12.001Z</time></trkpt><trkpt lat="43.29892155347432" lon="-2.730891820795682"><ele>157.0</ele><time>2026-05-01T15:24:13.001Z</time></trkpt><trkpt lat="43.29884620410116" lon="-2.730715430331002"><ele>152.33333333333334</ele><time>2026-05-01T15:24:14.001Z</time></trkpt><trkpt lat="43.29872136641786" lon="-2.7305430378039124"><ele>147.66666666666666</ele><time>2026-05-01T15:24:15.001Z</time></trkpt><trkpt lat="43.29859247232357" lon="-2.730337786236888"><ele>143.0</ele><time>2026-05-01T15:24:16.001Z</time></trkpt><trkpt lat="43.29846667744861" lon="-2.730134066791383"><ele>143.0</ele><time>2026-05-01T15:24:17.001Z</time></trkpt><trkpt lat="43.29833933008937" lon="-2.72992167520387"><ele>143.0</ele><time>2026-05-01T15:24:18.001Z</time></trkpt><trkpt lat="43.29820353504548" lon="-2.7296989403091083"><ele>143.0</ele><time>2026-05-01T15:24:19.001Z</time></trkpt><trkpt lat="43.29806216494515" lon="-2.7294719929801228"><ele>138.33333333333331</ele><time>2026-05-01T15:24:20.001Z</time></trkpt><trkpt lat="43.29791516861893" lon="-2.7292436390973895"><ele>133.66666666666666</ele><time>2026-05-01T15:24:21.001Z</time></trkpt><trkpt lat="43.29777575668926" lon="-2.7290292710176085"><ele>129.0</ele><time>2026-05-01T15:24:22.001Z</time></trkpt><trkpt lat="43.29765519777036" lon="-2.728843094370053"><ele>129.0</ele><time>2026-05-01T15:24:23.001Z</time></trkpt><trkpt lat="43.29753856540015" lon="-2.72867208631249"><ele>129.0</ele><time>2026-05-01T15:24:24.001Z</time></trkpt><trkpt lat="43.297418875729385" lon="-2.7285185960680662"><ele>129.0</ele><time>2026-05-01T15:24:25.001Z</time></trkpt><trkpt lat="43.297288683658735" lon="-2.7283799625622245"><ele>123.33333333333334</ele><time>2026-05-01T15:24:26.001Z</time></trkpt><trkpt lat="43.2971417558819" lon="-2.7282718924276086"><ele>117.66666666666667</ele><time>2026-05-01T15:24:27.001Z</time></trkpt><trkpt lat="43.297027042686054" lon="-2.728066737553587"><ele>112.0</ele><time>2026-05-01T15:24:28.001Z</time></trkpt><trkpt lat="43.29691342231504" lon="-2.7278361527212454"><ele>116.33333333333334</ele><time>2026-05-01T15:24:29.001Z</time></trkpt><trkpt lat="43.296807918123896" lon="-2.727611762211972"><ele>120.66666666666666</ele><time>2026-05-01T15:24:30.001Z</time></trkpt><trkpt lat="43.29669558706164" lon="-2.7274008342521703"><ele>125.0</ele><time>2026-05-01T15:24:31.001Z</time></trkpt><trkpt lat="43.296624695854355" lon="-2.727142364071784"><ele>125.0</ele><time>2026-05-01T15:24:32.001Z</time></trkpt><trkpt lat="43.29655714863014" lon="-2.7268963162065254"><ele>125.0</ele><time>2026-05-01T15:24:33.001Z</time></trkpt><trkpt lat="43.29649762989458" lon="-2.726660226739122"><ele>125.0</ele><time>2026-05-01T15:24:34.001Z</time></trkpt><trkpt lat="43.2964537390093" lon="-2.7264117516440307"><ele>127.0</ele><time>2026-05-01T15:24:35.001Z</time></trkpt><trkpt lat="43.29642349260288" lon="-2.7261488923799813"><ele>129.0</ele><time>2026-05-01T15:24:36.001Z</time></trkpt><trkpt lat="43.29641181198778" lon="-2.7258850793938656"><ele>131.0</ele><time>2026-05-01T15:24:37.001Z</time></trkpt><trkpt lat="43.29639865235571" lon="-2.725655193832769"><ele>130.75</ele><time>2026-05-01T15:24:38.001Z</time></trkpt><trkpt lat="43.29640715747429" lon="-2.7254455512121876"><ele>130.5</ele><time>2026-05-01T15:24:39.001Z</time></trkpt><trkpt lat="43.296427312521196" lon="-2.7252528363347137"><ele>130.25</ele><time>2026-05-01T15:24:40.001Z</time></trkpt><trkpt lat="43.296494987723115" lon="-2.7250738664497387"><ele>130.0</ele><time>2026-05-01T15:24:41.001Z</time></trkpt><trkpt lat="43.29657504130578" lon="-2.724920848348233"><ele>128.5</ele><time>2026-05-01T15:24:42.001Z</time></trkpt><trkpt lat="43.2966739858093" lon="-2.7247919749225975"><ele>127.0</ele><time>2026-05-01T15:24:43.001Z</time></trkpt><trkpt lat="43.29677741118834" lon="-2.724716143156297"><ele>125.5</ele><time>2026-05-01T15:24:44.001Z</time></trkpt><trkpt lat="43.296900215598264" lon="-2.724683533106333"><ele>124.0</ele><time>2026-05-01T15:24:45.001Z</time></trkpt><trkpt lat="43.29704017524134" lon="-2.7247007665172225"><ele>124.0</ele><time>2026-05-01T15:24:46.001Z</time></trkpt><trkpt lat="43.29716096520334" lon="-2.7247467186428835"><ele>124.0</ele><time>2026-05-01T15:24:47.001Z</time></trkpt><trkpt lat="43.297278321761645" lon="-2.7247874604274256"><ele>124.0</ele><time>2026-05-01T15:24:48.001Z</time></trkpt><trkpt lat="43.29737828132649" lon="-2.7248220952980136"><ele>124.0</ele><time>2026-05-01T15:24:49Z</time></trkpt><trkpt lat="43.29747651579597" lon="-2.7248880711164998"><ele>123.25</ele><time>2026-05-01T15:24:50Z</time></trkpt><trkpt lat="43.297583597078415" lon="-2.7250022841119117"><ele>122.5</ele><time>2026-05-01T15:24:51Z</time></trkpt><trkpt lat="43.297657308986324" lon="-2.725192359458469"><ele>121.75</ele><time>2026-05-01T15:24:52Z</time></trkpt><trkpt lat="43.29775043919627" lon="-2.725362988263548"><ele>121.0</ele><time>2026-05-01T15:24:53Z</time></trkpt><trkpt lat="43.297833308868434" lon="-2.7254958204337387"><ele>123.8</ele><time>2026-05-01T15:24:54Z</time></trkpt><trkpt lat="43.29790315701456" lon="-2.7256147212153565"><ele>126.6</ele><time>2026-05-01T15:24:55Z</time></trkpt><trkpt lat="43.29794711930877" lon="-2.7257421107302604"><ele>129.4</ele><time>2026-05-01T15:24:56Z</time></trkpt><trkpt lat="43.29795933765813" lon="-2.725872006788639"><ele>132.2</ele><time>2026-05-01T15:24:57Z</time></trkpt><trkpt lat="43.29799225470361" lon="-2.7259839328844087"><ele>135.0</ele><time>2026-05-01T15:24:58Z</time></trkpt><trkpt lat="43.29805104290725" lon="-2.7260771074704"><ele>135.0</ele><time>2026-05-01T15:24:59Z</time></trkpt><trkpt lat="43.2981458655012" lon="-2.7261120872088407"><ele>135.0</ele><time>2026-05-01T15:25:00Z</time></trkpt><trkpt lat="43.298274402653135" lon="-2.7261116020566747"><ele>135.0</ele><time>2026-05-01T15:25:01Z</time></trkpt><trkpt lat="43.29841230791933" lon="-2.7260797422025207"><ele>135.0</ele><time>2026-05-01T15:25:02Z</time></trkpt><trkpt lat="43.29854080088071" lon="-2.7260357752946827"><ele>130.25</ele><time>2026-05-01T15:25:03Z</time></trkpt><trkpt lat="43.29865213170217" lon="-2.725915546459595"><ele>125.5</ele><time>2026-05-01T15:25:04Z</time></trkpt><trkpt lat="43.29871613382494" lon="-2.7257722678349903"><ele>120.75</ele><time>2026-05-01T15:25:05Z</time></trkpt><trkpt lat="43.29878927929085" lon="-2.725680209059906"><ele>116.0</ele><time>2026-05-01T15:25:06Z</time></trkpt><trkpt lat="43.29888320509809" lon="-2.72566406519469"><ele>115.0</ele><time>2026-05-01T15:25:07Z</time></trkpt><trkpt lat="43.298993944729965" lon="-2.7257054103123752"><ele>114.0</ele><time>2026-05-01T15:25:08Z</time></trkpt><trkpt lat="43.299107905698406" lon="-2.725803075845768"><ele>113.0</ele><time>2026-05-01T15:25:09Z</time></trkpt><trkpt lat="43.299202490938704" lon="-2.725899198406857"><ele>112.0</ele><time>2026-05-01T15:25:10Z</time></trkpt><trkpt lat="43.29928361508405" lon="-2.7259788688917825"><ele>112.0</ele><time>2026-05-01T15:25:11Z</time></trkpt><trkpt lat="43.29937059753785" lon="-2.7260024052749148"><ele>111.99999999999999</ele><time>2026-05-01T15:25:12Z</time></trkpt><trkpt lat="43.299442701934275" lon="-2.725955898429742"><ele>111.99999999999999</ele><time>2026-05-01T15:25:13Z</time></trkpt><trkpt lat="43.299478739915784" lon="-2.7258509916003932"><ele>112.0</ele><time>2026-05-01T15:25:14Z</time></trkpt><trkpt lat="43.29946051701168" lon="-2.725702458822335"><ele>112.0</ele><time>2026-05-01T15:25:15Z</time></trkpt><trkpt lat="43.29940158240665" lon="-2.7255427147342064"><ele>112.0</ele><time>2026-05-01T15:25:16Z</time></trkpt><trkpt lat="43.29929982347357" lon="-2.72537371587514"><ele>112.0</ele><time>2026-05-01T15:25:17Z</time></trkpt><trkpt lat="43.2992242351291" lon="-2.7251659809454685"><ele>112.0</ele><time>2026-05-01T15:25:18Z</time></trkpt><trkpt lat="43.2991525140105" lon="-2.724953269103583"><ele>110.75</ele><time>2026-05-01T15:25:19Z</time></trkpt><trkpt lat="43.29910523602042" lon="-2.7247547075921332"><ele>109.5</ele><time>2026-05-01T15:25:20Z</time></trkpt><trkpt lat="43.29904378973013" lon="-2.7245821968278574"><ele>108.25</ele><time>2026-05-01T15:25:21Z</time></trkpt><trkpt lat="43.29899430220312" lon="-2.72441157243078"><ele>107.0</ele><time>2026-05-01T15:25:22Z</time></trkpt><trkpt lat="43.29893961725721" lon="-2.7242494594041418"><ele>106.0</ele><time>2026-05-01T15:25:23Z</time></trkpt><trkpt lat="43.298900249856494" lon="-2.724093446919178"><ele>105.0</ele><time>2026-05-01T15:25:24Z</time></trkpt><trkpt lat="43.29888420075088" lon="-2.723945361380776"><ele>104.0</ele><time>2026-05-01T15:25:25Z</time></trkpt><trkpt lat="43.29891014130829" lon="-2.72379394271957"><ele>103.0</ele><time>2026-05-01T15:25:26Z</time></trkpt><trkpt lat="43.298987429067424" lon="-2.723665694580596"><ele>102.33333333333334</ele><time>2026-05-01T15:25:27Z</time></trkpt><trkpt lat="43.29905275021315" lon="-2.723561790683292"><ele>101.66666666666667</ele><time>2026-05-01T15:25:28Z</time></trkpt><trkpt lat="43.29911123498718" lon="-2.7234758419197957"><ele>101.0</ele><time>2026-05-01T15:25:29Z</time></trkpt><trkpt lat="43.299133556669865" lon="-2.723381432037735"><ele>100.33333333333334</ele><time>2026-05-01T15:25:30Z</time></trkpt><trkpt lat="43.299126898606666" lon="-2.7232696773509657"><ele>99.66666666666667</ele><time>2026-05-01T15:25:31Z</time></trkpt><trkpt lat="43.29905224178037" lon="-2.723187536976491"><ele>99.0</ele><time>2026-05-01T15:25:32Z</time></trkpt><trkpt lat="43.298936617190556" lon="-2.723187863934913"><ele>96.0</ele><time>2026-05-01T15:25:33Z</time></trkpt><trkpt lat="43.29881616122594" lon="-2.7232146505577295"><ele>93.0</ele><time>2026-05-01T15:25:34Z</time></trkpt><trkpt lat="43.29867759573414" lon="-2.7232020412757714"><ele>90.0</ele><time>2026-05-01T15:25:35Z</time></trkpt><trkpt lat="43.29852176749838" lon="-2.7231155652117427"><ele>87.0</ele><time>2026-05-01T15:25:36Z</time></trkpt><trkpt lat="43.298360177551004" lon="-2.7230288232800586"><ele>87.0</ele><time>2026-05-01T15:25:37Z</time></trkpt><trkpt lat="43.29819627972708" lon="-2.7229710425780405"><ele>87.0</ele><time>2026-05-01T15:25:38Z</time></trkpt><trkpt lat="43.29805818805203" lon="-2.722924906675604"><ele>87.0</ele><time>2026-05-01T15:25:39Z</time></trkpt><trkpt lat="43.29795536342071" lon="-2.722834715012808"><ele>87.0</ele><time>2026-05-01T15:25:40Z</time></trkpt><trkpt lat="43.29787487462452" lon="-2.7227334476773084"><ele>84.0</ele><time>2026-05-01T15:25:41Z</time></trkpt><trkpt lat="43.297822835846524" lon="-2.722595214172805"><ele>81.0</ele><time>2026-05-01T15:25:42Z</time></trkpt><trkpt lat="43.29778183039964" lon="-2.722427205329106"><ele>78.0</ele><time>2026-05-01T15:25:43Z</time></trkpt><trkpt lat="43.29775622438152" lon="-2.7222582744655495"><ele>75.0</ele><time>2026-05-01T15:25:44Z</time></trkpt><trkpt lat="43.29773119437846" lon="-2.722125282627397"><ele>75.0</ele><time>2026-05-01T15:25:45Z</time></trkpt><trkpt lat="43.29767624054837" lon="-2.7220316988935087"><ele>75.0</ele><time>2026-05-01T15:25:46Z</time></trkpt><trkpt lat="43.29757446212416" lon="-2.721970667978852"><ele>75.0</ele><time>2026-05-01T15:25:47Z</time></trkpt><trkpt lat="43.29743713834711" lon="-2.7219806843120664"><ele>75.0</ele><time>2026-05-01T15:25:48Z</time></trkpt><trkpt lat="43.297284239318756" lon="-2.7219756162670623"><ele>74.0</ele><time>2026-05-01T15:25:49Z</time></trkpt><trkpt lat="43.297123911993644" lon="-2.7219206989335976"><ele>73.0</ele><time>2026-05-01T15:25:50.001Z</time></trkpt><trkpt lat="43.296949848113066" lon="-2.721809198463982"><ele>72.0</ele><time>2026-05-01T15:25:51.001Z</time></trkpt><trkpt lat="43.2967862770598" lon="-2.721679816987653"><ele>72.0</ele><time>2026-05-01T15:25:52.001Z</time></trkpt><trkpt lat="43.29663827428164" lon="-2.721546599353532"><ele>72.0</ele><time>2026-05-01T15:25:53.001Z</time></trkpt><trkpt lat="43.2965272283982" lon="-2.7214439249565"><ele>72.0</ele><time>2026-05-01T15:25:54.001Z</time></trkpt><trkpt lat="43.296430906994864" lon="-2.721354001738803"><ele>72.0</ele><time>2026-05-01T15:25:55.001Z</time></trkpt><trkpt lat="43.29636447444314" lon="-2.721224919452182"><ele>69.5</ele><time>2026-05-01T15:25:56.001Z</time></trkpt><trkpt lat="43.29632004623485" lon="-2.7210379476195574"><ele>67.0</ele><time>2026-05-01T15:25:57.001Z</time></trkpt><trkpt lat="43.29625260915471" lon="-2.720865921807827"><ele>64.5</ele><time>2026-05-01T15:25:58.001Z</time></trkpt><trkpt lat="43.296197322400545" lon="-2.7207085738763617"><ele>62.0</ele><time>2026-05-01T15:25:59.001Z</time></trkpt><trkpt lat="43.296112039361084" lon="-2.7205957830820093"><ele>62.0</ele><time>2026-05-01T15:26:00.001Z</time></trkpt><trkpt lat="43.29597953319104" lon="-2.7205132533050844"><ele>62.0</ele><time>2026-05-01T15:26:01.001Z</time></trkpt><trkpt lat="43.29582015980518" lon="-2.7204131387486505"><ele>62.0</ele><time>2026-05-01T15:26:02.001Z</time></trkpt><trkpt lat="43.2956583082274" lon="-2.7203191885229656"><ele>60.333333333333336</ele><time>2026-05-01T15:26:03.001Z</time></trkpt><trkpt lat="43.29548627858235" lon="-2.720225864543339"><ele>58.66666666666667</ele><time>2026-05-01T15:26:04.001Z</time></trkpt><trkpt lat="43.295324865364215" lon="-2.7200965989577597"><ele>57.0</ele><time>2026-05-01T15:26:05.001Z</time></trkpt><trkpt lat="43.29517543999422" lon="-2.7199553765770994"><ele>57.0</ele><time>2026-05-01T15:26:06.001Z</time></trkpt><trkpt lat="43.29503839230457" lon="-2.719764428643757"><ele>57.0</ele><time>2026-05-01T15:26:07.001Z</time></trkpt><trkpt lat="43.294910329417455" lon="-2.7195595335113163"><ele>57.0</ele><time>2026-05-01T15:26:08.001Z</time></trkpt><trkpt lat="43.294785263150814" lon="-2.7193482104626314"><ele>54.0</ele><time>2026-05-01T15:26:09.001Z</time></trkpt><trkpt lat="43.29467254325996" lon="-2.719120392667111"><ele>51.0</ele><time>2026-05-01T15:26:10.001Z</time></trkpt><trkpt lat="43.29456771907461" lon="-2.7188818144040177"><ele>48.0</ele><time>2026-05-01T15:26:11.001Z</time></trkpt><trkpt lat="43.294470944668106" lon="-2.7186353672443495"><ele>49.33333333333333</ele><time>2026-05-01T15:26:12.001Z</time></trkpt><trkpt lat="43.294387232463144" lon="-2.7183717069376976"><ele>50.666666666666664</ele><time>2026-05-01T15:26:13.001Z</time></trkpt><trkpt lat="43.29430235406068" lon="-2.718097221815346"><ele>52.0</ele><time>2026-05-01T15:26:14.001Z</time></trkpt><trkpt lat="43.29421277222113" lon="-2.717816957758439"><ele>52.666666666666664</ele><time>2026-05-01T15:26:15.001Z</time></trkpt><trkpt lat="43.294113419758695" lon="-2.7175487283356796"><ele>53.33333333333333</ele><time>2026-05-01T15:26:16.001Z</time></trkpt><trkpt lat="43.29399827427821" lon="-2.717295287827373"><ele>54.0</ele><time>2026-05-01T15:26:17.001Z</time></trkpt><trkpt lat="43.29388373136587" lon="-2.717060929532468"><ele>49.333333333333336</ele><time>2026-05-01T15:26:18.001Z</time></trkpt><trkpt lat="43.29378052394078" lon="-2.716828380279369"><ele>44.66666666666667</ele><time>2026-05-01T15:26:19.001Z</time></trkpt><trkpt lat="43.29369367501801" lon="-2.7165759346341316"><ele>40.0</ele><time>2026-05-01T15:26:20.001Z</time></trkpt><trkpt lat="43.293626047733596" lon="-2.7162982095707786"><ele>40.0</ele><time>2026-05-01T15:26:21.001Z</time></trkpt><trkpt lat="43.29357329013517" lon="-2.7160055197709445"><ele>40.0</ele><time>2026-05-01T15:26:22.001Z</time></trkpt><trkpt lat="43.29353301064571" lon="-2.715710888488568"><ele>40.0</ele><time>2026-05-01T15:26:23.001Z</time></trkpt><trkpt lat="43.29349550908529" lon="-2.7154201329230263"><ele>39.66666666666667</ele><time>2026-05-01T15:26:24.001Z</time></trkpt><trkpt lat="43.29343027783791" lon="-2.7151474574387846"><ele>39.333333333333336</ele><time>2026-05-01T15:26:25.001Z</time></trkpt><trkpt lat="43.2933691585735" lon="-2.714852241084258"><ele>39.0</ele><time>2026-05-01T15:26:26.001Z</time></trkpt><trkpt lat="43.293337121985736" lon="-2.714528143897507"><ele>38.0</ele><time>2026-05-01T15:26:27.001Z</time></trkpt><trkpt lat="43.293306786082304" lon="-2.7141942060568263"><ele>37.0</ele><time>2026-05-01T15:26:28.001Z</time></trkpt><trkpt lat="43.29324674793435" lon="-2.7138400633616846"><ele>35.0</ele><time>2026-05-01T15:26:29.001Z</time></trkpt><trkpt lat="43.29316945915371" lon="-2.7134916487142653"><ele>33.0</ele><time>2026-05-01T15:26:30.001Z</time></trkpt><trkpt lat="43.29309993231644" lon="-2.7131605850934215"><ele>34.0</ele><time>2026-05-01T15:26:31.001Z</time></trkpt><trkpt lat="43.29303111790034" lon="-2.7128505772563196"><ele>35.0</ele><time>2026-05-01T15:26:32.001Z</time></trkpt><trkpt lat="43.29294531507559" lon="-2.71255840929217"><ele>35.0</ele><time>2026-05-01T15:26:33.001Z</time></trkpt><trkpt lat="43.292830403364576" lon="-2.712268580508904"><ele>35.0</ele><time>2026-05-01T15:26:34.001Z</time></trkpt><trkpt lat="43.29271035046342" lon="-2.7119919784566426"><ele>35.5</ele><time>2026-05-01T15:26:35.001Z</time></trkpt><trkpt lat="43.29260153463474" lon="-2.7116953508399892"><ele>36.0</ele><time>2026-05-01T15:26:36.001Z</time></trkpt><trkpt lat="43.2925135916468" lon="-2.7113780770297047"><ele>36.0</ele><time>2026-05-01T15:26:37.001Z</time></trkpt><trkpt lat="43.29244807716858" lon="-2.7110762927471748"><ele>36.0</ele><time>2026-05-01T15:26:38.001Z</time></trkpt><trkpt lat="43.29240025866158" lon="-2.71082368966502"><ele>36.0</ele><time>2026-05-01T15:26:39.001Z</time></trkpt><trkpt lat="43.29238492985323" lon="-2.7105954256818485"><ele>35.666666666666664</ele><time>2026-05-01T15:26:40.001Z</time></trkpt><trkpt lat="43.292358185119646" lon="-2.7103729049935654"><ele>35.33333333333333</ele><time>2026-05-01T15:26:41.001Z</time></trkpt><trkpt lat="43.29232087148232" lon="-2.7101850872541897"><ele>35.0</ele><time>2026-05-01T15:26:42.001Z</time></trkpt><trkpt lat="43.29229831995103" lon="-2.709989353401024"><ele>36.0</ele><time>2026-05-01T15:26:43.001Z</time></trkpt><trkpt lat="43.29228855159725" lon="-2.709778309523876"><ele>37.0</ele><time>2026-05-01T15:26:44.001Z</time></trkpt><trkpt lat="43.29225852847673" lon="-2.7095696612631137"><ele>38.0</ele><time>2026-05-01T15:26:45.001Z</time></trkpt><trkpt lat="43.292255969330384" lon="-2.7093691637576165"><ele>35.33333333333333</ele><time>2026-05-01T15:26:46.001Z</time></trkpt><trkpt lat="43.29226601138291" lon="-2.7091533075026137"><ele>32.666666666666664</ele><time>2026-05-01T15:26:47.001Z</time></trkpt><trkpt lat="43.29229113972744" lon="-2.708922570151973"><ele>30.0</ele><time>2026-05-01T15:26:48.001Z</time></trkpt><trkpt lat="43.29231675148943" lon="-2.708695785611762"><ele>30.333333333333336</ele><time>2026-05-01T15:26:49.001Z</time></trkpt><trkpt lat="43.2923550093269" lon="-2.708484886695215"><ele>30.666666666666668</ele><time>2026-05-01T15:26:50.001Z</time></trkpt><trkpt lat="43.292376761482416" lon="-2.708256815628973"><ele>31.0</ele><time>2026-05-01T15:26:51.001Z</time></trkpt><trkpt lat="43.29240073281744" lon="-2.708025046505461"><ele>31.0</ele><time>2026-05-01T15:26:52.001Z</time></trkpt><trkpt lat="43.29241641492691" lon="-2.707788930624539"><ele>31.0</ele><time>2026-05-01T15:26:53.001Z</time></trkpt><trkpt lat="43.292427709878154" lon="-2.7075533310424156"><ele>31.0</ele><time>2026-05-01T15:26:54.001Z</time></trkpt><trkpt lat="43.29244303787065" lon="-2.707312358771071"><ele>30.0</ele><time>2026-05-01T15:26:55Z</time></trkpt><trkpt lat="43.292450487118295" lon="-2.707073596562888"><ele>29.0</ele><time>2026-05-01T15:26:56Z</time></trkpt><trkpt lat="43.292442713243524" lon="-2.706825058465109"><ele>28.0</ele><time>2026-05-01T15:26:57Z</time></trkpt><trkpt lat="43.29241396359895" lon="-2.7065690325321046"><ele>27.0</ele><time>2026-05-01T15:26:58Z</time></trkpt><trkpt lat="43.292378603576914" lon="-2.7063003122990654"><ele>26.0</ele><time>2026-05-01T15:26:59Z</time></trkpt><trkpt lat="43.29236340636101" lon="-2.7060218189229657"><ele>25.0</ele><time>2026-05-01T15:27:00Z</time></trkpt><trkpt lat="43.292349478428235" lon="-2.705737547105674"><ele>25.0</ele><time>2026-05-01T15:27:01Z</time></trkpt><trkpt lat="43.292349314938065" lon="-2.7054543708584506"><ele>25.0</ele><time>2026-05-01T15:27:02Z</time></trkpt><trkpt lat="43.292348121670265" lon="-2.7051627503925695"><ele>25.0</ele><time>2026-05-01T15:27:03Z</time></trkpt><trkpt lat="43.29230665977534" lon="-2.704872549446191"><ele>25.0</ele><time>2026-05-01T15:27:04Z</time></trkpt><trkpt lat="43.29227469058552" lon="-2.7045808715826483"><ele>25.0</ele><time>2026-05-01T15:27:05Z</time></trkpt><trkpt lat="43.292242068687564" lon="-2.7042905219511444"><ele>25.0</ele><time>2026-05-01T15:27:06Z</time></trkpt><trkpt lat="43.29220892952244" lon="-2.7040162435975357"><ele>25.0</ele><time>2026-05-01T15:27:07Z</time></trkpt><trkpt lat="43.29214497938565" lon="-2.703749403969737"><ele>25.0</ele><time>2026-05-01T15:27:08Z</time></trkpt><trkpt lat="43.29205751277048" lon="-2.703483340807908"><ele>25.0</ele><time>2026-05-01T15:27:09Z</time></trkpt><trkpt lat="43.291952244065556" lon="-2.7032507366278415"><ele>24.333333333333336</ele><time>2026-05-01T15:27:10Z</time></trkpt><trkpt lat="43.291861051413086" lon="-2.703003115946065"><ele>23.666666666666668</ele><time>2026-05-01T15:27:11Z</time></trkpt><trkpt lat="43.29177751570507" lon="-2.702742753927679"><ele>23.0</ele><time>2026-05-01T15:27:12Z</time></trkpt><trkpt lat="43.29169849434184" lon="-2.702460985323313"><ele>22.666666666666668</ele><time>2026-05-01T15:27:13Z</time></trkpt><trkpt lat="43.2916267962567" lon="-2.7021789470769426"><ele>22.333333333333332</ele><time>2026-05-01T15:27:14Z</time></trkpt><trkpt lat="43.29157328967535" lon="-2.701887084298979"><ele>22.0</ele><time>2026-05-01T15:27:15Z</time></trkpt><trkpt lat="43.29154195775583" lon="-2.7015837741004627"><ele>22.5</ele><time>2026-05-01T15:27:16Z</time></trkpt><trkpt lat="43.29150967388155" lon="-2.701260275038186"><ele>23.0</ele><time>2026-05-01T15:27:17Z</time></trkpt><trkpt lat="43.29149304088137" lon="-2.7009307426918645"><ele>23.0</ele><time>2026-05-01T15:27:18Z</time></trkpt><trkpt lat="43.29149293990476" lon="-2.700600162924909"><ele>23.0</ele><time>2026-05-01T15:27:19Z</time></trkpt><trkpt lat="43.29147994332092" lon="-2.7002720376871068"><ele>22.5</ele><time>2026-05-01T15:27:20Z</time></trkpt><trkpt lat="43.29145436469513" lon="-2.699941147155459"><ele>22.0</ele><time>2026-05-01T15:27:21Z</time></trkpt><trkpt lat="43.291456873975044" lon="-2.6996272398669734"><ele>22.333333333333332</ele><time>2026-05-01T15:27:22Z</time></trkpt><trkpt lat="43.29143810852432" lon="-2.6993300848294024"><ele>22.666666666666668</ele><time>2026-05-01T15:27:23Z</time></trkpt><trkpt lat="43.29139712754337" lon="-2.6990470307301564"><ele>23.0</ele><time>2026-05-01T15:27:24Z</time></trkpt><trkpt lat="43.29131134534215" lon="-2.6987978290150108"><ele>21.0</ele><time>2026-05-01T15:27:25Z</time></trkpt><trkpt lat="43.29118300928761" lon="-2.698567123258554"><ele>19.0</ele><time>2026-05-01T15:27:26Z</time></trkpt><trkpt lat="43.29105654252473" lon="-2.6983076826604937"><ele>17.0</ele><time>2026-05-01T15:27:27Z</time></trkpt><trkpt lat="43.29091894147757" lon="-2.6980528734379727"><ele>17.0</ele><time>2026-05-01T15:27:28Z</time></trkpt><trkpt lat="43.290785894454814" lon="-2.697789626168844"><ele>17.0</ele><time>2026-05-01T15:27:29Z</time></trkpt><trkpt lat="43.29064276738511" lon="-2.6975485825637326"><ele>18.0</ele><time>2026-05-01T15:27:30Z</time></trkpt><trkpt lat="43.2905110340668" lon="-2.697298920002463"><ele>19.0</ele><time>2026-05-01T15:27:31Z</time></trkpt><trkpt lat="43.29038017720752" lon="-2.6970436410068657"><ele>19.5</ele><time>2026-05-01T15:27:32Z</time></trkpt><trkpt lat="43.29025088835636" lon="-2.6967784360689375"><ele>20.0</ele><time>2026-05-01T15:27:33Z</time></trkpt><trkpt lat="43.29014529894378" lon="-2.696474003945041"><ele>20.0</ele><time>2026-05-01T15:27:34Z</time></trkpt><trkpt lat="43.2900571117403" lon="-2.6961569829845073"><ele>20.0</ele><time>2026-05-01T15:27:35Z</time></trkpt><trkpt lat="43.28997277081826" lon="-2.695842592693944"><ele>20.0</ele><time>2026-05-01T15:27:36Z</time></trkpt><trkpt lat="43.289890681957715" lon="-2.695534490296428"><ele>20.0</ele><time>2026-05-01T15:27:37Z</time></trkpt><trkpt lat="43.28980886353901" lon="-2.6952204659020995"><ele>18.5</ele><time>2026-05-01T15:27:38Z</time></trkpt><trkpt lat="43.28973662487628" lon="-2.6949137543014534"><ele>17.0</ele><time>2026-05-01T15:27:39Z</time></trkpt><trkpt lat="43.28970824048612" lon="-2.694608925241963"><ele>17.0</ele><time>2026-05-01T15:27:40Z</time></trkpt><trkpt lat="43.28970501761241" lon="-2.69431578691414"><ele>17.0</ele><time>2026-05-01T15:27:41Z</time></trkpt><trkpt lat="43.28970472757413" lon="-2.694024460747802"><ele>17.0</ele><time>2026-05-01T15:27:42Z</time></trkpt><trkpt lat="43.28970445665026" lon="-2.693752336219481"><ele>16.666666666666668</ele><time>2026-05-01T15:27:43Z</time></trkpt><trkpt lat="43.28970419878868" lon="-2.6934933325239934"><ele>16.333333333333332</ele><time>2026-05-01T15:27:44Z</time></trkpt><trkpt lat="43.2897039576542" lon="-2.693251138471865"><ele>16.0</ele><time>2026-05-01T15:27:45Z</time></trkpt><trkpt lat="43.289714370089435" lon="-2.693018954270602"><ele>16.0</ele><time>2026-05-01T15:27:46Z</time></trkpt><trkpt lat="43.2896959037298" lon="-2.6927963060751536"><ele>16.0</ele><time>2026-05-01T15:27:47Z</time></trkpt><trkpt lat="43.289665255281854" lon="-2.6925789395635333"><ele>16.0</ele><time>2026-05-01T15:27:48Z</time></trkpt><trkpt lat="43.28962966348013" lon="-2.692385184024321"><ele>15.75</ele><time>2026-05-01T15:27:49Z</time></trkpt><trkpt lat="43.289598722056226" lon="-2.6921954695833055"><ele>15.5</ele><time>2026-05-01T15:27:50Z</time></trkpt><trkpt lat="43.289567010011964" lon="-2.692002970452223"><ele>15.25</ele><time>2026-05-01T15:27:51Z</time></trkpt><trkpt lat="43.28953243706925" lon="-2.691797492413668"><ele>15.0</ele><time>2026-05-01T15:27:52Z</time></trkpt><trkpt lat="43.289495729533286" lon="-2.691596588348322"><ele>15.0</ele><time>2026-05-01T15:27:53Z</time></trkpt><trkpt lat="43.289458424709935" lon="-2.6913906573768425"><ele>15.0</ele><time>2026-05-01T15:27:54Z</time></trkpt><trkpt lat="43.28942438871809" lon="-2.691185644777393"><ele>15.0</ele><time>2026-05-01T15:27:55Z</time></trkpt><trkpt lat="43.2893914131667" lon="-2.6909991597082654"><ele>15.0</ele><time>2026-05-01T15:27:56Z</time></trkpt><trkpt lat="43.28936385671459" lon="-2.6908221068941653"><ele>15.0</ele><time>2026-05-01T15:27:57Z</time></trkpt><trkpt lat="43.28933056623973" lon="-2.690646292620804"><ele>15.0</ele><time>2026-05-01T15:27:58.001Z</time></trkpt><trkpt lat="43.28930208413237" lon="-2.6905075392836255"><ele>15.0</ele><time>2026-05-01T15:27:59.001Z</time></trkpt><trkpt lat="43.28927623192308" lon="-2.69037573103284"><ele>15.0</ele><time>2026-05-01T15:28:00.001Z</time></trkpt><trkpt lat="43.28924984661739" lon="-2.6902467230510956"><ele>15.0</ele><time>2026-05-01T15:28:01.001Z</time></trkpt><trkpt lat="43.28923114319999" lon="-2.690145250854986"><ele>15.0</ele><time>2026-05-01T15:28:02.001Z</time></trkpt><trkpt lat="43.289202450215825" lon="-2.6899980337189744"><ele>15.0</ele><time>2026-05-01T15:28:04.001Z</time></trkpt><trkpt lat="43.289173812883774" lon="-2.6898366713230875"><ele>15.0</ele><time>2026-05-01T15:28:06.001Z</time></trkpt><trkpt lat="43.28915714399161" lon="-2.68975058423138"><ele>15.0</ele><time>2026-05-01T15:28:07.001Z</time></trkpt><trkpt lat="43.28912653745011" lon="-2.689597982044406"><ele>15.0</ele><time>2026-05-01T15:28:09.001Z</time></trkpt><trkpt lat="43.28910645974795" lon="-2.6895043253806854"><ele>15.0</ele><time>2026-05-01T15:28:10.001Z</time></trkpt><trkpt lat="43.28907442266524" lon="-2.689394755208849"><ele>15.0</ele><time>2026-05-01T15:28:12.001Z</time></trkpt><trkpt lat="43.28901503421145" lon="-2.689292955129261"><ele>15.0</ele><time>2026-05-01T15:28:27.001Z</time></trkpt><trkpt lat="43.28891911783268" lon="-2.6892421272884137"><ele>15.0</ele><time>2026-05-01T15:28:48.001Z</time></trkpt><trkpt lat="43.28882838065852" lon="-2.689246057285256"><ele>15.0</ele><time>2026-05-01T15:28:49.001Z</time></trkpt><trkpt lat="43.28871332583375" lon="-2.6892656986731094"><ele>14.333333333333332</ele><time>2026-05-01T15:28:50.001Z</time></trkpt><trkpt lat="43.28857791030204" lon="-2.689281172344116"><ele>13.666666666666666</ele><time>2026-05-01T15:28:51.001Z</time></trkpt><trkpt lat="43.288424613970584" lon="-2.6893282193689756"><ele>13.0</ele><time>2026-05-01T15:28:52.001Z</time></trkpt><trkpt lat="43.288261652558525" lon="-2.68937002136443"><ele>13.333333333333332</ele><time>2026-05-01T15:28:53.001Z</time></trkpt><trkpt lat="43.28806411414904" lon="-2.6893914481826515"><ele>13.666666666666668</ele><time>2026-05-01T15:28:54.001Z</time></trkpt><trkpt lat="43.28789463602999" lon="-2.689422798264325"><ele>14.0</ele><time>2026-05-01T15:28:55.001Z</time></trkpt><trkpt lat="43.28774563823802" lon="-2.6894459733098173"><ele>14.5</ele><time>2026-05-01T15:28:56.001Z</time></trkpt><trkpt lat="43.28761438728692" lon="-2.6894759726059974"><ele>15.0</ele><time>2026-05-01T15:28:57.001Z</time></trkpt><trkpt lat="43.28748495722993" lon="-2.6895101044687673"><ele>15.5</ele><time>2026-05-01T15:28:58.001Z</time></trkpt><trkpt lat="43.28732296102893" lon="-2.6895672633125063"><ele>16.0</ele><time>2026-05-01T15:28:59.001Z</time></trkpt><trkpt lat="43.28714291356437" lon="-2.6896268134463646"><ele>16.333333333333332</ele><time>2026-05-01T15:29:00.001Z</time></trkpt><trkpt lat="43.286963056208194" lon="-2.689663954411708"><ele>16.666666666666668</ele><time>2026-05-01T15:29:01Z</time></trkpt><trkpt lat="43.28677549035869" lon="-2.6896900141819646"><ele>17.0</ele><time>2026-05-01T15:29:02Z</time></trkpt><trkpt lat="43.28658477639765" lon="-2.6897283901361604"><ele>17.0</ele><time>2026-05-01T15:29:03Z</time></trkpt><trkpt lat="43.28639882754631" lon="-2.6897441775692488"><ele>17.0</ele><time>2026-05-01T15:29:04Z</time></trkpt><trkpt lat="43.28622321426473" lon="-2.6897609074867037"><ele>17.0</ele><time>2026-05-01T15:29:05Z</time></trkpt><trkpt lat="43.286017777506785" lon="-2.6897798664867816"><ele>17.0</ele><time>2026-05-01T15:29:06Z</time></trkpt><trkpt lat="43.285823092307076" lon="-2.6898258008375633"><ele>17.0</ele><time>2026-05-01T15:29:07Z</time></trkpt><trkpt lat="43.28563540083934" lon="-2.689846062965924"><ele>17.0</ele><time>2026-05-01T15:29:08Z</time></trkpt><trkpt lat="43.285452288649616" lon="-2.6898512424070957"><ele>17.666666666666668</ele><time>2026-05-01T15:29:09Z</time></trkpt><trkpt lat="43.28527107914473" lon="-2.6898252731567083"><ele>18.333333333333332</ele><time>2026-05-01T15:29:10Z</time></trkpt><trkpt lat="43.285095413124985" lon="-2.6897733111620243"><ele>19.0</ele><time>2026-05-01T15:29:11Z</time></trkpt><trkpt lat="43.28491104779865" lon="-2.689688017301993"><ele>19.0</ele><time>2026-05-01T15:29:12Z</time></trkpt><trkpt lat="43.28474052842523" lon="-2.6895880413674473"><ele>19.0</ele><time>2026-05-01T15:29:13Z</time></trkpt><trkpt lat="43.28456974295415" lon="-2.6894895168592896"><ele>19.0</ele><time>2026-05-01T15:29:14Z</time></trkpt><trkpt lat="43.28440424423937" lon="-2.6893982339751297"><ele>18.333333333333332</ele><time>2026-05-01T15:29:15Z</time></trkpt><trkpt lat="43.28424458250319" lon="-2.6892933088219273"><ele>17.666666666666668</ele><time>2026-05-01T15:29:16Z</time></trkpt><trkpt lat="43.28409622178269" lon="-2.689186872605138"><ele>17.0</ele><time>2026-05-01T15:29:17Z</time></trkpt><trkpt lat="43.28395080599631" lon="-2.6890530519700246"><ele>17.0</ele><time>2026-05-01T15:29:18Z</time></trkpt><trkpt lat="43.2838139744356" lon="-2.6888904464855052"><ele>17.0</ele><time>2026-05-01T15:29:19Z</time></trkpt><trkpt lat="43.283679924779825" lon="-2.688742278546822"><ele>17.0</ele><time>2026-05-01T15:29:20Z</time></trkpt><trkpt lat="43.28356479044587" lon="-2.6885538272010767"><ele>17.0</ele><time>2026-05-01T15:29:21Z</time></trkpt><trkpt lat="43.283443148042764" lon="-2.6883927156402097"><ele>17.0</ele><time>2026-05-01T15:29:22Z</time></trkpt><trkpt lat="43.283325367730356" lon="-2.68822377537017"><ele>17.0</ele><time>2026-05-01T15:29:23Z</time></trkpt><trkpt lat="43.28320650995044" lon="-2.6880600540103825"><ele>17.0</ele><time>2026-05-01T15:29:24Z</time></trkpt><trkpt lat="43.283091319507605" lon="-2.687907587078995"><ele>17.0</ele><time>2026-05-01T15:29:25Z</time></trkpt><trkpt lat="43.282977757218205" lon="-2.687755756827655"><ele>17.0</ele><time>2026-05-01T15:29:26Z</time></trkpt><trkpt lat="43.282872992502874" lon="-2.68760821985941"><ele>17.5</ele><time>2026-05-01T15:29:27Z</time></trkpt><trkpt lat="43.28277084500941" lon="-2.6874588749343493"><ele>18.0</ele><time>2026-05-01T15:29:28Z</time></trkpt><trkpt lat="43.282661553193066" lon="-2.687320974725538"><ele>18.5</ele><time>2026-05-01T15:29:29Z</time></trkpt><trkpt lat="43.28256600601843" lon="-2.687165963678724"><ele>19.0</ele><time>2026-05-01T15:29:30Z</time></trkpt><trkpt lat="43.28248948329736" lon="-2.687032200860489"><ele>19.75</ele><time>2026-05-01T15:29:31Z</time></trkpt><trkpt lat="43.28242282785043" lon="-2.6869009632513525"><ele>20.5</ele><time>2026-05-01T15:29:32Z</time></trkpt><trkpt lat="43.282359969611875" lon="-2.6867676236231004"><ele>21.25</ele><time>2026-05-01T15:29:33Z</time></trkpt><trkpt lat="43.28229073869164" lon="-2.686607310735997"><ele>22.0</ele><time>2026-05-01T15:29:34Z</time></trkpt><trkpt lat="43.282233743986005" lon="-2.6864669573101456"><ele>23.200000000000003</ele><time>2026-05-01T15:29:35Z</time></trkpt><trkpt lat="43.28217847536067" lon="-2.6863308544957207"><ele>24.4</ele><time>2026-05-01T15:29:36Z</time></trkpt><trkpt lat="43.28213969204296" lon="-2.686191661020959"><ele>25.599999999999998</ele><time>2026-05-01T15:29:37Z</time></trkpt><trkpt lat="43.28208831921569" lon="-2.6860576009974566"><ele>26.799999999999997</ele><time>2026-05-01T15:29:38Z</time></trkpt><trkpt lat="43.282039407979504" lon="-2.6859288768518144"><ele>28.0</ele><time>2026-05-01T15:29:39Z</time></trkpt><trkpt lat="43.281975403050154" lon="-2.6858069857491556"><ele>28.0</ele><time>2026-05-01T15:29:40Z</time></trkpt><trkpt lat="43.281927291459894" lon="-2.685681645958206"><ele>27.999999999999996</ele><time>2026-05-01T15:29:41Z</time></trkpt><trkpt lat="43.28187891794181" lon="-2.685559093610455"><ele>27.999999999999996</ele><time>2026-05-01T15:29:42Z</time></trkpt><trkpt lat="43.281833603465465" lon="-2.685416844098293"><ele>28.0</ele><time>2026-05-01T15:29:43Z</time></trkpt><trkpt lat="43.281759383047465" lon="-2.685288098035326"><ele>28.0</ele><time>2026-05-01T15:29:44.001Z</time></trkpt><trkpt lat="43.28166605570867" lon="-2.6851663906215397"><ele>28.0</ele><time>2026-05-01T15:29:45.001Z</time></trkpt><trkpt lat="43.281549574522614" lon="-2.685086921412594"><ele>28.0</ele><time>2026-05-01T15:29:46.001Z</time></trkpt><trkpt lat="43.28141177900292" lon="-2.685031076900335"><ele>28.0</ele><time>2026-05-01T15:29:47.001Z</time></trkpt><trkpt lat="43.28126519624393" lon="-2.68500376336332"><ele>28.0</ele><time>2026-05-01T15:29:48.001Z</time></trkpt><trkpt lat="43.281111040603705" lon="-2.684972636870952"><ele>28.333333333333336</ele><time>2026-05-01T15:29:49.001Z</time></trkpt><trkpt lat="43.28096465124687" lon="-2.6849395266659073"><ele>28.666666666666664</ele><time>2026-05-01T15:29:50.001Z</time></trkpt><trkpt lat="43.280809945687835" lon="-2.684903881224394"><ele>29.0</ele><time>2026-05-01T15:29:51.001Z</time></trkpt><trkpt lat="43.28065435350643" lon="-2.6848710644413307"><ele>29.666666666666664</ele><time>2026-05-01T15:29:52.001Z</time></trkpt><trkpt lat="43.28048462906213" lon="-2.6848366129833137"><ele>30.333333333333336</ele><time>2026-05-01T15:29:53.001Z</time></trkpt><trkpt lat="43.28031312759637" lon="-2.68480595654566"><ele>31.0</ele><time>2026-05-01T15:29:54.001Z</time></trkpt><trkpt lat="43.28013729759116" lon="-2.6847770593932627"><ele>31.0</ele><time>2026-05-01T15:29:55.001Z</time></trkpt><trkpt lat="43.27996915946266" lon="-2.6847510525172966"><ele>31.0</ele><time>2026-05-01T15:29:56.001Z</time></trkpt><trkpt lat="43.27980119595858" lon="-2.684732910150116"><ele>31.0</ele><time>2026-05-01T15:29:57.001Z</time></trkpt><trkpt lat="43.279629047652314" lon="-2.6847265422508597"><ele>32.0</ele><time>2026-05-01T15:29:58.001Z</time></trkpt><trkpt lat="43.27944862868581" lon="-2.6847131772588337"><ele>33.0</ele><time>2026-05-01T15:29:59.001Z</time></trkpt><trkpt lat="43.279278453981654" lon="-2.6847039961715216"><ele>34.0</ele><time>2026-05-01T15:30:00.001Z</time></trkpt><trkpt lat="43.2791085652902" lon="-2.6846976221448786"><ele>34.333333333333336</ele><time>2026-05-01T15:30:01.001Z</time></trkpt><trkpt lat="43.278932459292" lon="-2.6846935795975457"><ele>34.666666666666664</ele><time>2026-05-01T15:30:02.001Z</time></trkpt><trkpt lat="43.27875296510985" lon="-2.6846929628896703"><ele>35.0</ele><time>2026-05-01T15:30:03.001Z</time></trkpt><trkpt lat="43.27856783314186" lon="-2.68469371784919"><ele>35.0</ele><time>2026-05-01T15:30:04.001Z</time></trkpt><trkpt lat="43.27838419342878" lon="-2.684694715013269"><ele>35.0</ele><time>2026-05-01T15:30:05.001Z</time></trkpt><trkpt lat="43.27820624699644" lon="-2.684696158514813"><ele>35.0</ele><time>2026-05-01T15:30:06.001Z</time></trkpt><trkpt lat="43.27802645458106" lon="-2.6847000819198263"><ele>33.666666666666664</ele><time>2026-05-01T15:30:07.001Z</time></trkpt><trkpt lat="43.27784541274456" lon="-2.684700906165139"><ele>32.333333333333336</ele><time>2026-05-01T15:30:08.001Z</time></trkpt><trkpt lat="43.27767145336673" lon="-2.6847050357156594"><ele>31.0</ele><time>2026-05-01T15:30:09.001Z</time></trkpt><trkpt lat="43.27749745983385" lon="-2.6847060086694423"><ele>31.0</ele><time>2026-05-01T15:30:10.001Z</time></trkpt><trkpt lat="43.277326714333206" lon="-2.684705455762699"><ele>31.0</ele><time>2026-05-01T15:30:11.001Z</time></trkpt><trkpt lat="43.27715269653623" lon="-2.6847004470652682"><ele>31.0</ele><time>2026-05-01T15:30:12.001Z</time></trkpt><trkpt lat="43.27697870796979" lon="-2.6846983266261653"><ele>30.333333333333336</ele><time>2026-05-01T15:30:13.001Z</time></trkpt><trkpt lat="43.27679779464754" lon="-2.6847047203889596"><ele>29.666666666666664</ele><time>2026-05-01T15:30:14.001Z</time></trkpt><trkpt lat="43.27660949839671" lon="-2.684706210573759"><ele>29.0</ele><time>2026-05-01T15:30:15.001Z</time></trkpt><trkpt lat="43.276416568232435" lon="-2.684709294274862"><ele>29.0</ele><time>2026-05-01T15:30:16.001Z</time></trkpt><trkpt lat="43.2762203327475" lon="-2.684721899589142"><ele>29.0</ele><time>2026-05-01T15:30:17.001Z</time></trkpt><trkpt lat="43.276030853327896" lon="-2.6847393020885177"><ele>29.0</ele><time>2026-05-01T15:30:18.001Z</time></trkpt><trkpt lat="43.275846449999094" lon="-2.684759705667399"><ele>29.0</ele><time>2026-05-01T15:30:19.001Z</time></trkpt><trkpt lat="43.275668679601" lon="-2.6847765588915564"><ele>29.0</ele><time>2026-05-01T15:30:20.001Z</time></trkpt><trkpt lat="43.27548454656668" lon="-2.6847966766798934"><ele>29.0</ele><time>2026-05-01T15:30:21.001Z</time></trkpt><trkpt lat="43.275295634818285" lon="-2.684822090381473"><ele>29.666666666666664</ele><time>2026-05-01T15:30:22.001Z</time></trkpt><trkpt lat="43.27510856586277" lon="-2.684852673218871"><ele>30.333333333333336</ele><time>2026-05-01T15:30:23.001Z</time></trkpt><trkpt lat="43.27492632347557" lon="-2.684882989048104"><ele>31.0</ele><time>2026-05-01T15:30:24.001Z</time></trkpt><trkpt lat="43.274747961750634" lon="-2.6849125048421008"><ele>31.0</ele><time>2026-05-01T15:30:25.001Z</time></trkpt><trkpt lat="43.27456729084522" lon="-2.6849454708598612"><ele>31.0</ele><time>2026-05-01T15:30:26.001Z</time></trkpt><trkpt lat="43.274384370665274" lon="-2.684972085650883"><ele>31.0</ele><time>2026-05-01T15:30:27.001Z</time></trkpt><trkpt lat="43.2742009940717" lon="-2.6850063588022324"><ele>31.0</ele><time>2026-05-01T15:30:28.001Z</time></trkpt><trkpt lat="43.274019151232714" lon="-2.6850472001962644"><ele>31.0</ele><time>2026-05-01T15:30:29.001Z</time></trkpt><trkpt lat="43.27383951685202" lon="-2.685090321303152"><ele>31.0</ele><time>2026-05-01T15:30:30.001Z</time></trkpt><trkpt lat="43.27366253268626" lon="-2.6851315397062496"><ele>32.66666666666667</ele><time>2026-05-01T15:30:31.001Z</time></trkpt><trkpt lat="43.27348126414041" lon="-2.685156586651793"><ele>34.333333333333336</ele><time>2026-05-01T15:30:32.001Z</time></trkpt><trkpt lat="43.27329804166704" lon="-2.68516388259656"><ele>36.0</ele><time>2026-05-01T15:30:33.001Z</time></trkpt><trkpt lat="43.27311479038742" lon="-2.6851663004226025"><ele>34.333333333333336</ele><time>2026-05-01T15:30:34.001Z</time></trkpt><trkpt lat="43.27292744431244" lon="-2.685182209761261"><ele>32.66666666666667</ele><time>2026-05-01T15:30:35.001Z</time></trkpt><trkpt lat="43.27273659414317" lon="-2.6852054154755187"><ele>31.0</ele><time>2026-05-01T15:30:36.001Z</time></trkpt><trkpt lat="43.272551849380065" lon="-2.685224445791645"><ele>31.0</ele><time>2026-05-01T15:30:37.001Z</time></trkpt><trkpt lat="43.272403228147795" lon="-2.685241443967223"><ele>31.0</ele><time>2026-05-01T15:30:38.001Z</time></trkpt><trkpt lat="43.272255709451066" lon="-2.6852683458344435"><ele>31.0</ele><time>2026-05-01T15:30:39.001Z</time></trkpt><trkpt lat="43.27211980554646" lon="-2.685287776596371"><ele>31.0</ele><time>2026-05-01T15:30:40.001Z</time></trkpt><trkpt lat="43.27200044010483" lon="-2.68531043628615"><ele>31.0</ele><time>2026-05-01T15:30:41.001Z</time></trkpt><trkpt lat="43.27188415967254" lon="-2.6853203602651567"><ele>31.0</ele><time>2026-05-01T15:30:42.001Z</time></trkpt><trkpt lat="43.27177538353033" lon="-2.685333717698563"><ele>31.0</ele><time>2026-05-01T15:30:43.001Z</time></trkpt><trkpt lat="43.27167179855049" lon="-2.6853501303542147"><ele>31.0</ele><time>2026-05-01T15:30:44.001Z</time></trkpt><trkpt lat="43.27156129304646" lon="-2.6853573440222824"><ele>31.0</ele><time>2026-05-01T15:30:45.001Z</time></trkpt><trkpt lat="43.271455483434686" lon="-2.685371738451829"><ele>31.25</ele><time>2026-05-01T15:30:46.001Z</time></trkpt><trkpt lat="43.271347246127036" lon="-2.6853851384370526"><ele>31.5</ele><time>2026-05-01T15:30:47.001Z</time></trkpt><trkpt lat="43.27123261174769" lon="-2.6854106580879384"><ele>31.75</ele><time>2026-05-01T15:30:48.001Z</time></trkpt><trkpt lat="43.271119994540655" lon="-2.685424327984336"><ele>32.0</ele><time>2026-05-01T15:30:49.001Z</time></trkpt><trkpt lat="43.27100733767415" lon="-2.685446484777703"><ele>32.0</ele><time>2026-05-01T15:30:50.001Z</time></trkpt><trkpt lat="43.270885360648585" lon="-2.685473763909053"><ele>32.0</ele><time>2026-05-01T15:30:51.001Z</time></trkpt><trkpt lat="43.27076337149286" lon="-2.6854859979920005"><ele>32.0</ele><time>2026-05-01T15:30:52.001Z</time></trkpt><trkpt lat="43.27064819072233" lon="-2.6854988802334736"><ele>32.0</ele><time>2026-05-01T15:30:53.001Z</time></trkpt><trkpt lat="43.27053320830391" lon="-2.6855169678689874"><ele>33.0</ele><time>2026-05-01T15:30:54.002Z</time></trkpt><trkpt lat="43.27041982661908" lon="-2.6855378731044217"><ele>34.0</ele><time>2026-05-01T15:30:55.002Z</time></trkpt><trkpt lat="43.27029390965185" lon="-2.6855434720534586"><ele>35.0</ele><time>2026-05-01T15:30:56.002Z</time></trkpt><trkpt lat="43.270170260257125" lon="-2.685563820950738"><ele>36.0</ele><time>2026-05-01T15:30:57.002Z</time></trkpt><trkpt lat="43.27004102415117" lon="-2.685582819117396"><ele>36.0</ele><time>2026-05-01T15:30:58.002Z</time></trkpt><trkpt lat="43.269914794139126" lon="-2.6856013053275687"><ele>36.0</ele><time>2026-05-01T15:30:59.002Z</time></trkpt><trkpt lat="43.26978148358816" lon="-2.685615773625199"><ele>36.0</ele><time>2026-05-01T15:31:00.002Z</time></trkpt><trkpt lat="43.26964816931861" lon="-2.6856482516322635"><ele>36.0</ele><time>2026-05-01T15:31:01.002Z</time></trkpt><trkpt lat="43.26950873734346" lon="-2.6856741210897823"><ele>36.0</ele><time>2026-05-01T15:31:02.002Z</time></trkpt><trkpt lat="43.26936262003204" lon="-2.685702178278461"><ele>36.0</ele><time>2026-05-01T15:31:03.002Z</time></trkpt><trkpt lat="43.269221009697" lon="-2.6857291984302027"><ele>36.0</ele><time>2026-05-01T15:31:04.002Z</time></trkpt><trkpt lat="43.26907244851921" lon="-2.685735972399283"><ele>36.0</ele><time>2026-05-01T15:31:05.002Z</time></trkpt><trkpt lat="43.26892578978945" lon="-2.685744078977435"><ele>36.0</ele><time>2026-05-01T15:31:06.002Z</time></trkpt><trkpt lat="43.26877265929565" lon="-2.6857722678374407"><ele>36.0</ele><time>2026-05-01T15:31:07Z</time></trkpt><trkpt lat="43.26861352517748" lon="-2.6858105773033203"><ele>36.0</ele><time>2026-05-01T15:31:08Z</time></trkpt><trkpt lat="43.268443178874975" lon="-2.685822893772668"><ele>36.0</ele><time>2026-05-01T15:31:09Z</time></trkpt><trkpt lat="43.26826263635931" lon="-2.6858575290616487"><ele>36.0</ele><time>2026-05-01T15:31:10Z</time></trkpt><trkpt lat="43.268082541442574" lon="-2.6858690948103567"><ele>36.0</ele><time>2026-05-01T15:31:11Z</time></trkpt><trkpt lat="43.26790169113819" lon="-2.6859107515423117"><ele>36.0</ele><time>2026-05-01T15:31:12Z</time></trkpt><trkpt lat="43.26772057791861" lon="-2.6859321516569614"><ele>36.0</ele><time>2026-05-01T15:31:13Z</time></trkpt><trkpt lat="43.26754332829345" lon="-2.6859609620228797"><ele>36.0</ele><time>2026-05-01T15:31:14Z</time></trkpt><trkpt lat="43.26737489236286" lon="-2.6859926200002704"><ele>37.0</ele><time>2026-05-01T15:31:15Z</time></trkpt><trkpt lat="43.26721092280626" lon="-2.6860226394897966"><ele>38.0</ele><time>2026-05-01T15:31:16Z</time></trkpt><trkpt lat="43.26704878411421" lon="-2.686046355323219"><ele>39.0</ele><time>2026-05-01T15:31:17Z</time></trkpt><trkpt lat="43.26688996754222" lon="-2.6860685387657957"><ele>39.0</ele><time>2026-05-01T15:31:18Z</time></trkpt><trkpt lat="43.26673196659753" lon="-2.6860940625295813"><ele>39.0</ele><time>2026-05-01T15:31:19Z</time></trkpt><trkpt lat="43.26656907789308" lon="-2.6861128436298944"><ele>39.0</ele><time>2026-05-01T15:31:20Z</time></trkpt><trkpt lat="43.26640226671669" lon="-2.6861274121930996"><ele>43.33333333333333</ele><time>2026-05-01T15:31:21Z</time></trkpt><trkpt lat="43.26623227845676" lon="-2.686130117815806"><ele>47.666666666666664</ele><time>2026-05-01T15:31:22Z</time></trkpt><trkpt lat="43.2660682197795" lon="-2.686134591001123"><ele>52.0</ele><time>2026-05-01T15:31:23Z</time></trkpt><trkpt lat="43.26590546455609" lon="-2.6861442745708204"><ele>52.0</ele><time>2026-05-01T15:31:24Z</time></trkpt><trkpt lat="43.26574443110048" lon="-2.686146707310469"><ele>52.0</ele><time>2026-05-01T15:31:25Z</time></trkpt><trkpt lat="43.26557900930813" lon="-2.6861496641453457"><ele>52.0</ele><time>2026-05-01T15:31:26Z</time></trkpt><trkpt lat="43.26540956294646" lon="-2.6861375492480404"><ele>49.666666666666664</ele><time>2026-05-01T15:31:27Z</time></trkpt><trkpt lat="43.26523715178517" lon="-2.686097055723943"><ele>47.33333333333333</ele><time>2026-05-01T15:31:28Z</time></trkpt><trkpt lat="43.26507831149966" lon="-2.686044864336767"><ele>45.0</ele><time>2026-05-01T15:31:29Z</time></trkpt><trkpt lat="43.26492616554373" lon="-2.6859842635254543"><ele>47.0</ele><time>2026-05-01T15:31:30Z</time></trkpt><trkpt lat="43.26476470189708" lon="-2.685953507114178"><ele>49.0</ele><time>2026-05-01T15:31:31Z</time></trkpt><trkpt lat="43.26460860015512" lon="-2.6859127707579775"><ele>51.0</ele><time>2026-05-01T15:31:32Z</time></trkpt><trkpt lat="43.2644436100693" lon="-2.68587291788145"><ele>51.0</ele><time>2026-05-01T15:31:33Z</time></trkpt><trkpt lat="43.26428326743065" lon="-2.6858606192115677"><ele>51.0</ele><time>2026-05-01T15:31:34Z</time></trkpt><trkpt lat="43.264112929974004" lon="-2.6858446347372475"><ele>51.0</ele><time>2026-05-01T15:31:35Z</time></trkpt><trkpt lat="43.26394474796893" lon="-2.6858308045479506"><ele>55.0</ele><time>2026-05-01T15:31:36Z</time></trkpt><trkpt lat="43.26378374942436" lon="-2.6858156422319652"><ele>59.0</ele><time>2026-05-01T15:31:37Z</time></trkpt><trkpt lat="43.26363255507494" lon="-2.685790779838721"><ele>63.0</ele><time>2026-05-01T15:31:38Z</time></trkpt><trkpt lat="43.26347318278143" lon="-2.6857843431157935"><ele>63.0</ele><time>2026-05-01T15:31:39Z</time></trkpt><trkpt lat="43.263310815690225" lon="-2.685735763928484"><ele>63.0</ele><time>2026-05-01T15:31:40Z</time></trkpt><trkpt lat="43.2631459209959" lon="-2.6856686926887976"><ele>63.0</ele><time>2026-05-01T15:31:41Z</time></trkpt><trkpt lat="43.26298462963321" lon="-2.6856012940330394"><ele>63.5</ele><time>2026-05-01T15:31:42Z</time></trkpt><trkpt lat="43.26283926456195" lon="-2.6855343768431923"><ele>64.0</ele><time>2026-05-01T15:31:43Z</time></trkpt><trkpt lat="43.26270526836255" lon="-2.685486101792243"><ele>64.5</ele><time>2026-05-01T15:31:44Z</time></trkpt><trkpt lat="43.26257278314526" lon="-2.685453242230578"><ele>65.0</ele><time>2026-05-01T15:31:45Z</time></trkpt><trkpt lat="43.26243815285692" lon="-2.6854337582809578"><ele>65.0</ele><time>2026-05-01T15:31:46Z</time></trkpt><trkpt lat="43.262314481441116" lon="-2.685460601400981"><ele>65.0</ele><time>2026-05-01T15:31:47Z</time></trkpt><trkpt lat="43.26218676636243" lon="-2.68550088996149"><ele>65.0</ele><time>2026-05-01T15:31:48Z</time></trkpt><trkpt lat="43.26205144014579" lon="-2.685525337258446"><ele>65.0</ele><time>2026-05-01T15:31:49Z</time></trkpt><trkpt lat="43.26193073735651" lon="-2.68559454799826"><ele>63.0</ele><time>2026-05-01T15:31:50Z</time></trkpt><trkpt lat="43.2618060728743" lon="-2.685650169016018"><ele>61.0</ele><time>2026-05-01T15:31:51Z</time></trkpt><trkpt lat="43.26170273181326" lon="-2.6857478388778273"><ele>59.0</ele><time>2026-05-01T15:31:52.001Z</time></trkpt><trkpt lat="43.261614774891335" lon="-2.685883774270321"><ele>57.0</ele><time>2026-05-01T15:31:53.001Z</time></trkpt><trkpt lat="43.26156898381643" lon="-2.686054573298509"><ele>60.0</ele><time>2026-05-01T15:31:54.001Z</time></trkpt><trkpt lat="43.26154420074432" lon="-2.686251314834236"><ele>63.0</ele><time>2026-05-01T15:31:55.001Z</time></trkpt><trkpt lat="43.26153055910422" lon="-2.6864530583007666"><ele>66.0</ele><time>2026-05-01T15:31:56.001Z</time></trkpt><trkpt lat="43.26151885108857" lon="-2.686661881956089"><ele>69.0</ele><time>2026-05-01T15:31:57.001Z</time></trkpt><trkpt lat="43.26149762026017" lon="-2.6868787180604596"><ele>71.75</ele><time>2026-05-01T15:31:58.001Z</time></trkpt><trkpt lat="43.26149401150657" lon="-2.6870734346283687"><ele>74.5</ele><time>2026-05-01T15:31:59.001Z</time></trkpt><trkpt lat="43.26150512283589" lon="-2.6872579120437003"><ele>77.25</ele><time>2026-05-01T15:32:00.001Z</time></trkpt><trkpt lat="43.26151317629726" lon="-2.6874456629674492"><ele>80.0</ele><time>2026-05-01T15:32:01.001Z</time></trkpt><trkpt lat="43.26151318919056" lon="-2.687643194873654"><ele>80.75</ele><time>2026-05-01T15:32:02.001Z</time></trkpt><trkpt lat="43.261501386945206" lon="-2.687829528639204"><ele>81.5</ele><time>2026-05-01T15:32:03.001Z</time></trkpt><trkpt lat="43.26146733936377" lon="-2.6880004561096547"><ele>82.25</ele><time>2026-05-01T15:32:04.001Z</time></trkpt><trkpt lat="43.26140713625211" lon="-2.6881503316387083"><ele>83.0</ele><time>2026-05-01T15:32:05.001Z</time></trkpt><trkpt lat="43.26131216750627" lon="-2.6882861864729883"><ele>80.0</ele><time>2026-05-01T15:32:06.001Z</time></trkpt><trkpt lat="43.26117919202842" lon="-2.6883810610800203"><ele>77.0</ele><time>2026-05-01T15:32:07.001Z</time></trkpt><trkpt lat="43.261055386626715" lon="-2.688444310149576"><ele>74.0</ele><time>2026-05-01T15:32:08.001Z</time></trkpt><trkpt lat="43.26094150667467" lon="-2.6885191166622127"><ele>71.0</ele><time>2026-05-01T15:32:09.001Z</time></trkpt><trkpt lat="43.26085013970584" lon="-2.6886323589475793"><ele>73.25</ele><time>2026-05-01T15:32:10.001Z</time></trkpt><trkpt lat="43.26076603400683" lon="-2.688769647917257"><ele>75.5</ele><time>2026-05-01T15:32:11.001Z</time></trkpt><trkpt lat="43.260679546521864" lon="-2.688919301265151"><ele>77.75</ele><time>2026-05-01T15:32:12.001Z</time></trkpt><trkpt lat="43.2605965507987" lon="-2.6890596206499957"><ele>80.0</ele><time>2026-05-01T15:32:13.001Z</time></trkpt><trkpt lat="43.260503298429" lon="-2.68917956465207"><ele>80.0</ele><time>2026-05-01T15:32:14.001Z</time></trkpt><trkpt lat="43.26039665559728" lon="-2.6892638104324087"><ele>80.0</ele><time>2026-05-01T15:32:15.001Z</time></trkpt><trkpt lat="43.26027321532938" lon="-2.6893151766708927"><ele>80.0</ele><time>2026-05-01T15:32:16.001Z</time></trkpt><trkpt lat="43.26015126981004" lon="-2.6893660272453275"><ele>80.0</ele><time>2026-05-01T15:32:17.001Z</time></trkpt><trkpt lat="43.26001957281578" lon="-2.689381769850567"><ele>80.0</ele><time>2026-05-01T15:32:18.001Z</time></trkpt><trkpt lat="43.259888982518326" lon="-2.689387097686426"><ele>80.0</ele><time>2026-05-01T15:32:19.001Z</time></trkpt><trkpt lat="43.25976717606565" lon="-2.6894384539332714"><ele>80.0</ele><time>2026-05-01T15:32:20.001Z</time></trkpt><trkpt lat="43.25965176313749" lon="-2.689526611771291"><ele>80.0</ele><time>2026-05-01T15:32:21.001Z</time></trkpt><trkpt lat="43.25955785404487" lon="-2.6896656844424323"><ele>82.75</ele><time>2026-05-01T15:32:22.001Z</time></trkpt><trkpt lat="43.259454634541264" lon="-2.689809761098374"><ele>85.5</ele><time>2026-05-01T15:32:23.001Z</time></trkpt><trkpt lat="43.25934664529531" lon="-2.6899458902438838"><ele>88.25</ele><time>2026-05-01T15:32:24.001Z</time></trkpt><trkpt lat="43.25924257848763" lon="-2.6900673370678176"><ele>91.0</ele><time>2026-05-01T15:32:25.001Z</time></trkpt><trkpt lat="43.25915117745446" lon="-2.690178516377707"><ele>94.75</ele><time>2026-05-01T15:32:26.001Z</time></trkpt><trkpt lat="43.25905892245598" lon="-2.690267116216318"><ele>98.5</ele><time>2026-05-01T15:32:27.001Z</time></trkpt><trkpt lat="43.25895690653574" lon="-2.6903407281959892"><ele>102.25</ele><time>2026-05-01T15:32:28.001Z</time></trkpt><trkpt lat="43.258855393205856" lon="-2.6904189079022713"><ele>106.0</ele><time>2026-05-01T15:32:29.001Z</time></trkpt><trkpt lat="43.258747275297196" lon="-2.6905054291990522"><ele>106.0</ele><time>2026-05-01T15:32:30.001Z</time></trkpt><trkpt lat="43.258635467601145" lon="-2.690583104020859"><ele>106.0</ele><time>2026-05-01T15:32:31.001Z</time></trkpt><trkpt lat="43.258521949066484" lon="-2.6906743409448732"><ele>106.0</ele><time>2026-05-01T15:32:32.001Z</time></trkpt><trkpt lat="43.25841611600418" lon="-2.690778679546267"><ele>106.0</ele><time>2026-05-01T15:32:33.001Z</time></trkpt><trkpt lat="43.258317515821005" lon="-2.690871583580708"><ele>106.0</ele><time>2026-05-01T15:32:34.001Z</time></trkpt><trkpt lat="43.25821672541019" lon="-2.6909689706649607"><ele>106.0</ele><time>2026-05-01T15:32:35.001Z</time></trkpt><trkpt lat="43.25811089496919" lon="-2.691052490055358"><ele>106.0</ele><time>2026-05-01T15:32:36.001Z</time></trkpt><trkpt lat="43.257998431309346" lon="-2.6911275061357594"><ele>106.0</ele><time>2026-05-01T15:32:37.001Z</time></trkpt><trkpt lat="43.25788699376961" lon="-2.691200871641287"><ele>108.25</ele><time>2026-05-01T15:32:38.001Z</time></trkpt><trkpt lat="43.25776128980162" lon="-2.6912712282674467"><ele>110.5</ele><time>2026-05-01T15:32:39.001Z</time></trkpt><trkpt lat="43.25764391642057" lon="-2.691335815982958"><ele>112.75</ele><time>2026-05-01T15:32:40.001Z</time></trkpt><trkpt lat="43.257520069188224" lon="-2.6913852772300615"><ele>115.0</ele><time>2026-05-01T15:32:41.001Z</time></trkpt><trkpt lat="43.257394137403104" lon="-2.69142828469315"><ele>114.25</ele><time>2026-05-01T15:32:42.001Z</time></trkpt><trkpt lat="43.257276049973335" lon="-2.6914676185027115"><ele>113.5</ele><time>2026-05-01T15:32:43.001Z</time></trkpt><trkpt lat="43.25715124767563" lon="-2.691490105840257"><ele>112.75</ele><time>2026-05-01T15:32:44.001Z</time></trkpt><trkpt lat="43.25702351464584" lon="-2.6914906964540437"><ele>112.0</ele><time>2026-05-01T15:32:45.001Z</time></trkpt><trkpt lat="43.256899691195535" lon="-2.6914679668967585"><ele>112.0</ele><time>2026-05-01T15:32:46.001Z</time></trkpt><trkpt lat="43.25678204143506" lon="-2.691448810473892"><ele>112.0</ele><time>2026-05-01T15:32:47.001Z</time></trkpt><trkpt lat="43.2566614026378" lon="-2.6914084706181467"><ele>112.0</ele><time>2026-05-01T15:32:48.001Z</time></trkpt><trkpt lat="43.256540985324236" lon="-2.6913538311076897"><ele>112.0</ele><time>2026-05-01T15:32:49.001Z</time></trkpt><trkpt lat="43.256419028354586" lon="-2.691303088266329"><ele>112.25</ele><time>2026-05-01T15:32:50.001Z</time></trkpt><trkpt lat="43.256296901028946" lon="-2.691280419637076"><ele>112.5</ele><time>2026-05-01T15:32:51.001Z</time></trkpt><trkpt lat="43.256167497598625" lon="-2.691279881335953"><ele>112.75</ele><time>2026-05-01T15:32:52.001Z</time></trkpt><trkpt lat="43.25603730375622" lon="-2.6912599451850694"><ele>113.0</ele><time>2026-05-01T15:32:53.001Z</time></trkpt><trkpt lat="43.255895742330885" lon="-2.6912127119515503"><ele>113.0</ele><time>2026-05-01T15:32:54.001Z</time></trkpt><trkpt lat="43.25575659055158" lon="-2.6911554095073895"><ele>113.0</ele><time>2026-05-01T15:32:55.001Z</time></trkpt><trkpt lat="43.25563134754705" lon="-2.691103289747237"><ele>113.0</ele><time>2026-05-01T15:32:56.001Z</time></trkpt><trkpt lat="43.25552522709657" lon="-2.691047159818676"><ele>113.0</ele><time>2026-05-01T15:32:57.001Z</time></trkpt><trkpt lat="43.255422692077765" lon="-2.690980342935016"><ele>112.80000000000001</ele><time>2026-05-01T15:32:58.001Z</time></trkpt><trkpt lat="43.255364576814515" lon="-2.690825214699612"><ele>112.60000000000001</ele><time>2026-05-01T15:32:59.001Z</time></trkpt><trkpt lat="43.255331234002036" lon="-2.690669797202294"><ele>112.39999999999999</ele><time>2026-05-01T15:33:00.001Z</time></trkpt><trkpt lat="43.255308603514116" lon="-2.6905512500535917"><ele>112.19999999999999</ele><time>2026-05-01T15:33:01.001Z</time></trkpt><trkpt lat="43.25528387404708" lon="-2.6904507823028267"><ele>112.0</ele><time>2026-05-01T15:33:02.001Z</time></trkpt><trkpt lat="43.25529380711652" lon="-2.6903535321558194"><ele>112.0</ele><time>2026-05-01T15:33:03.002Z</time></trkpt><trkpt lat="43.255181375485954" lon="-2.690258303517618"><ele>111.99999999999999</ele><time>2026-05-01T15:33:04.002Z</time></trkpt><trkpt lat="43.25510331756254" lon="-2.690186598319702"><ele>111.99999999999999</ele><time>2026-05-01T15:33:05.002Z</time></trkpt><trkpt lat="43.255010289512335" lon="-2.6901187508149147"><ele>112.0</ele><time>2026-05-01T15:33:06.002Z</time></trkpt><trkpt lat="43.25491731558402" lon="-2.6900905259315597"><ele>112.0</ele><time>2026-05-01T15:33:07.002Z</time></trkpt><trkpt lat="43.25483630035396" lon="-2.690088727708497"><ele>111.25</ele><time>2026-05-01T15:33:08.002Z</time></trkpt><trkpt lat="43.25476356170384" lon="-2.6900754665781497"><ele>110.5</ele><time>2026-05-01T15:33:09.002Z</time></trkpt><trkpt lat="43.254670214459615" lon="-2.6900956455945977"><ele>109.75</ele><time>2026-05-01T15:33:11.002Z</time></trkpt><trkpt lat="43.25458959144973" lon="-2.68985989507148"><ele>109.0</ele><time>2026-05-01T15:33:14Z</time></trkpt><trkpt lat="43.25454879961101" lon="-2.689708904633244"><ele>109.0</ele><time>2026-05-01T15:33:15Z</time></trkpt><trkpt lat="43.25452256876248" lon="-2.68952959333322"><ele>109.0</ele><time>2026-05-01T15:33:16Z</time></trkpt><trkpt lat="43.254478406395684" lon="-2.689360645114674"><ele>109.0</ele><time>2026-05-01T15:33:17Z</time></trkpt><trkpt lat="43.25442886426976" lon="-2.689188916194424"><ele>109.0</ele><time>2026-05-01T15:33:18Z</time></trkpt><trkpt lat="43.25435779752271" lon="-2.6890167337150648"><ele>110.0</ele><time>2026-05-01T15:33:19Z</time></trkpt><trkpt lat="43.25427498213792" lon="-2.6888424786793435"><ele>111.0</ele><time>2026-05-01T15:33:20Z</time></trkpt><trkpt lat="43.254194140955114" lon="-2.6886607212756553"><ele>112.0</ele><time>2026-05-01T15:33:21Z</time></trkpt><trkpt lat="43.25410473582833" lon="-2.6884754679340968"><ele>112.0</ele><time>2026-05-01T15:33:22Z</time></trkpt><trkpt lat="43.25400156943644" lon="-2.688293612286547"><ele>112.0</ele><time>2026-05-01T15:33:23Z</time></trkpt><trkpt lat="43.253897403250804" lon="-2.68812951103188"><ele>112.0</ele><time>2026-05-01T15:33:24Z</time></trkpt><trkpt lat="43.253809096096575" lon="-2.6879636085030345"><ele>112.0</ele><time>2026-05-01T15:33:25Z</time></trkpt><trkpt lat="43.25373653996234" lon="-2.6877710680174367"><ele>112.0</ele><time>2026-05-01T15:33:26Z</time></trkpt><trkpt lat="43.25369675282418" lon="-2.6875381585032048"><ele>112.0</ele><time>2026-05-01T15:33:27Z</time></trkpt><trkpt lat="43.25365916497869" lon="-2.6872854824393015"><ele>113.66666666666667</ele><time>2026-05-01T15:33:28Z</time></trkpt><trkpt lat="43.25359993924188" lon="-2.687025804617657"><ele>115.33333333333334</ele><time>2026-05-01T15:33:29Z</time></trkpt><trkpt lat="43.253548227175884" lon="-2.6867982024410475"><ele>117.0</ele><time>2026-05-01T15:33:30Z</time></trkpt><trkpt lat="43.253528256944215" lon="-2.686566942401027"><ele>119.0</ele><time>2026-05-01T15:33:31Z</time></trkpt><trkpt lat="43.25353821527979" lon="-2.6863266870372766"><ele>121.0</ele><time>2026-05-01T15:33:32Z</time></trkpt><trkpt lat="43.2535125350744" lon="-2.686086203130195"><ele>123.0</ele><time>2026-05-01T15:33:33Z</time></trkpt><trkpt lat="43.253446844349625" lon="-2.6858345039119804"><ele>125.0</ele><time>2026-05-01T15:33:34Z</time></trkpt><trkpt lat="43.25337172446538" lon="-2.685571023654465"><ele>127.0</ele><time>2026-05-01T15:33:35Z</time></trkpt><trkpt lat="43.253307192150125" lon="-2.6853018507538495"><ele>129.0</ele><time>2026-05-01T15:33:36Z</time></trkpt><trkpt lat="43.25322123014356" lon="-2.6850372201612713"><ele>128.0</ele><time>2026-05-01T15:33:37Z</time></trkpt><trkpt lat="43.25314020084357" lon="-2.6847836287508273"><ele>127.0</ele><time>2026-05-01T15:33:38Z</time></trkpt><trkpt lat="43.25307358540446" lon="-2.684525948019566"><ele>126.0</ele><time>2026-05-01T15:33:39Z</time></trkpt><trkpt lat="43.25303926258891" lon="-2.684231482314067"><ele>126.0</ele><time>2026-05-01T15:33:40Z</time></trkpt><trkpt lat="43.25301966093157" lon="-2.6839210967591605"><ele>126.0</ele><time>2026-05-01T15:33:41Z</time></trkpt><trkpt lat="43.252987338990884" lon="-2.683594514773176"><ele>128.5</ele><time>2026-05-01T15:33:42Z</time></trkpt><trkpt lat="43.25294689340685" lon="-2.6832678472248372"><ele>131.0</ele><time>2026-05-01T15:33:43Z</time></trkpt><trkpt lat="43.25289878518" lon="-2.682961876395527"><ele>132.66666666666666</ele><time>2026-05-01T15:33:44Z</time></trkpt><trkpt lat="43.25283828679957" lon="-2.682674268489413"><ele>134.33333333333334</ele><time>2026-05-01T15:33:45Z</time></trkpt><trkpt lat="43.25280427575374" lon="-2.6823763829586498"><ele>136.0</ele><time>2026-05-01T15:33:46Z</time></trkpt><trkpt lat="43.25279248287078" lon="-2.682063815599442"><ele>137.66666666666669</ele><time>2026-05-01T15:33:47Z</time></trkpt><trkpt lat="43.252794706289976" lon="-2.681756757802728"><ele>139.33333333333334</ele><time>2026-05-01T15:33:48Z</time></trkpt><trkpt lat="43.252790895019395" lon="-2.681469536542026"><ele>141.0</ele><time>2026-05-01T15:33:49Z</time></trkpt><trkpt lat="43.25278314817121" lon="-2.681198629690876"><ele>139.66666666666666</ele><time>2026-05-01T15:33:50Z</time></trkpt><trkpt lat="43.252780959061944" lon="-2.680959760399759"><ele>138.33333333333331</ele><time>2026-05-01T15:33:51Z</time></trkpt><trkpt lat="43.25278464769207" lon="-2.680743553079284"><ele>137.0</ele><time>2026-05-01T15:33:52Z</time></trkpt><trkpt lat="43.25280228103634" lon="-2.680536132164119"><ele>137.0</ele><time>2026-05-01T15:33:53Z</time></trkpt><trkpt lat="43.25286092139126" lon="-2.680305856850353"><ele>137.0</ele><time>2026-05-01T15:33:54Z</time></trkpt><trkpt lat="43.25293751833842" lon="-2.680057377188404"><ele>137.0</ele><time>2026-05-01T15:33:55Z</time></trkpt><trkpt lat="43.252976303840974" lon="-2.6797858089325755"><ele>136.66666666666666</ele><time>2026-05-01T15:33:56Z</time></trkpt><trkpt lat="43.25301057339768" lon="-2.6795084092828363"><ele>136.33333333333334</ele><time>2026-05-01T15:33:57Z</time></trkpt><trkpt lat="43.25301441931715" lon="-2.679237202038997"><ele>136.0</ele><time>2026-05-01T15:33:58Z</time></trkpt><trkpt lat="43.25303005854603" lon="-2.6790129845310178"><ele>136.75</ele><time>2026-05-01T15:33:59Z</time></trkpt><trkpt lat="43.25305638597198" lon="-2.6788414180029148"><ele>137.5</ele><time>2026-05-01T15:34:00Z</time></trkpt><trkpt lat="43.25310470064741" lon="-2.6786716056734674"><ele>138.25</ele><time>2026-05-01T15:34:01Z</time></trkpt><trkpt lat="43.253193913411806" lon="-2.67849292093146"><ele>139.0</ele><time>2026-05-01T15:34:02Z</time></trkpt><trkpt lat="43.25326556922936" lon="-2.678355832322842"><ele>145.25</ele><time>2026-05-01T15:34:03Z</time></trkpt><trkpt lat="43.25331158837788" lon="-2.6782243995908774"><ele>151.5</ele><time>2026-05-01T15:34:04Z</time></trkpt><trkpt lat="43.25331702496483" lon="-2.6780768927549583"><ele>157.75</ele><time>2026-05-01T15:34:05Z</time></trkpt><trkpt lat="43.25323069735346" lon="-2.677953024802256"><ele>164.0</ele><time>2026-05-01T15:34:06Z</time></trkpt><trkpt lat="43.253145676760646" lon="-2.677801090408893"><ele>160.0</ele><time>2026-05-01T15:34:07.001Z</time></trkpt><trkpt lat="43.25306268358198" lon="-2.677629170482706"><ele>156.0</ele><time>2026-05-01T15:34:08.001Z</time></trkpt><trkpt lat="43.252975083103905" lon="-2.6774818885835128"><ele>152.0</ele><time>2026-05-01T15:34:09.001Z</time></trkpt><trkpt lat="43.25290541643137" lon="-2.677300415655846"><ele>148.0</ele><time>2026-05-01T15:34:10.001Z</time></trkpt><trkpt lat="43.25284128280452" lon="-2.677081903905625"><ele>150.33333333333334</ele><time>2026-05-01T15:34:11.001Z</time></trkpt><trkpt lat="43.25278797888116" lon="-2.676830877581904"><ele>152.66666666666666</ele><time>2026-05-01T15:34:12.001Z</time></trkpt><trkpt lat="43.25273611404302" lon="-2.6765711200339632"><ele>155.0</ele><time>2026-05-01T15:34:13.001Z</time></trkpt><trkpt lat="43.25267944685269" lon="-2.6763280411588894"><ele>155.0</ele><time>2026-05-01T15:34:14.001Z</time></trkpt><trkpt lat="43.25264899462086" lon="-2.6761196469118103"><ele>155.0</ele><time>2026-05-01T15:34:15.001Z</time></trkpt><trkpt lat="43.252617994789006" lon="-2.6759010472131575"><ele>155.0</ele><time>2026-05-01T15:34:16.001Z</time></trkpt><trkpt lat="43.252610887001836" lon="-2.675682930657572"><ele>157.0</ele><time>2026-05-01T15:34:17.001Z</time></trkpt><trkpt lat="43.252646843652144" lon="-2.6754838277061057"><ele>159.0</ele><time>2026-05-01T15:34:18.001Z</time></trkpt><trkpt lat="43.25270063627426" lon="-2.6753004350276184"><ele>161.0</ele><time>2026-05-01T15:34:19.001Z</time></trkpt><trkpt lat="43.25278711780297" lon="-2.6751604503323514"><ele>163.0</ele><time>2026-05-01T15:34:20.001Z</time></trkpt><trkpt lat="43.25290610635573" lon="-2.6750524325413463"><ele>163.66666666666669</ele><time>2026-05-01T15:34:21.001Z</time></trkpt><trkpt lat="43.2530570992114" lon="-2.6749758374463455"><ele>164.33333333333334</ele><time>2026-05-01T15:34:22.001Z</time></trkpt><trkpt lat="43.25322427548311" lon="-2.6749376302706556"><ele>165.0</ele><time>2026-05-01T15:34:23.001Z</time></trkpt><trkpt lat="43.25335960204808" lon="-2.6749034836879493"><ele>168.2</ele><time>2026-05-01T15:34:24.001Z</time></trkpt><trkpt lat="43.25346785589776" lon="-2.6748799282498505"><ele>171.4</ele><time>2026-05-01T15:34:25.001Z</time></trkpt><trkpt lat="43.253538504689026" lon="-2.674815353988118"><ele>174.60000000000002</ele><time>2026-05-01T15:34:26.001Z</time></trkpt><trkpt lat="43.25359363430395" lon="-2.6746790935968643"><ele>177.8</ele><time>2026-05-01T15:34:27.001Z</time></trkpt><trkpt lat="43.25358346763491" lon="-2.674502445285455"><ele>181.0</ele><time>2026-05-01T15:34:28.001Z</time></trkpt><trkpt lat="43.25351883514807" lon="-2.6743309762021297"><ele>181.0</ele><time>2026-05-01T15:34:29.001Z</time></trkpt><trkpt lat="43.25346385425457" lon="-2.6741426372552306"><ele>181.0</ele><time>2026-05-01T15:34:30.001Z</time></trkpt><trkpt lat="43.25338747219732" lon="-2.673957019522887"><ele>181.0</ele><time>2026-05-01T15:34:31.001Z</time></trkpt><trkpt lat="43.25329158619478" lon="-2.673807553207867"><ele>181.0</ele><time>2026-05-01T15:34:32.001Z</time></trkpt><trkpt lat="43.25318635765786" lon="-2.673703832858731"><ele>177.25</ele><time>2026-05-01T15:34:33.001Z</time></trkpt><trkpt lat="43.2531060743106" lon="-2.673589042312547"><ele>173.5</ele><time>2026-05-01T15:34:34.001Z</time></trkpt><trkpt lat="43.253062931452995" lon="-2.673429971573324"><ele>169.75</ele><time>2026-05-01T15:34:35.001Z</time></trkpt><trkpt lat="43.25303171083079" lon="-2.6732121227042196"><ele>166.0</ele><time>2026-05-01T15:34:36.001Z</time></trkpt><trkpt lat="43.25303023467535" lon="-2.672979909624267"><ele>166.25</ele><time>2026-05-01T15:34:37.001Z</time></trkpt><trkpt lat="43.2530235747893" lon="-2.6727493111582925"><ele>166.5</ele><time>2026-05-01T15:34:38.001Z</time></trkpt><trkpt lat="43.253027237789134" lon="-2.6725495994575668"><ele>166.75</ele><time>2026-05-01T15:34:39.001Z</time></trkpt><trkpt lat="43.25304440332696" lon="-2.6723677691134715"><ele>167.0</ele><time>2026-05-01T15:34:40.001Z</time></trkpt><trkpt lat="43.25308952810267" lon="-2.6721883846016268"><ele>173.66666666666666</ele><time>2026-05-01T15:34:41.001Z</time></trkpt><trkpt lat="43.2531814324354" lon="-2.6720194782831963"><ele>180.33333333333334</ele><time>2026-05-01T15:34:42.001Z</time></trkpt><trkpt lat="43.25330216203027" lon="-2.671864827520103"><ele>187.0</ele><time>2026-05-01T15:34:43.001Z</time></trkpt><trkpt lat="43.25342982899418" lon="-2.6717267158278446"><ele>187.0</ele><time>2026-05-01T15:34:44.001Z</time></trkpt><trkpt lat="43.253551795658986" lon="-2.6716193233127092"><ele>187.0</ele><time>2026-05-01T15:34:45.001Z</time></trkpt><trkpt lat="43.25365240390559" lon="-2.671507258672751"><ele>187.0</ele><time>2026-05-01T15:34:46.001Z</time></trkpt><trkpt lat="43.25372239747521" lon="-2.671417731180051"><ele>187.0</ele><time>2026-05-01T15:34:47.001Z</time></trkpt><trkpt lat="43.253758551896524" lon="-2.6712940161692975"><ele>187.0</ele><time>2026-05-01T15:34:48.001Z</time></trkpt><trkpt lat="43.253752895538426" lon="-2.671137455103829"><ele>187.0</ele><time>2026-05-01T15:34:49.001Z</time></trkpt><trkpt lat="43.253681105532614" lon="-2.671010643627513"><ele>187.0</ele><time>2026-05-01T15:34:50.001Z</time></trkpt><trkpt lat="43.25358448657308" lon="-2.670892791036755"><ele>187.0</ele><time>2026-05-01T15:34:51.001Z</time></trkpt><trkpt lat="43.253518296322504" lon="-2.6707608318698237"><ele>187.25</ele><time>2026-05-01T15:34:52.001Z</time></trkpt><trkpt lat="43.253461988533985" lon="-2.6706284975764336"><ele>187.5</ele><time>2026-05-01T15:34:53.001Z</time></trkpt><trkpt lat="43.25345508879119" lon="-2.670442138638509"><ele>187.75</ele><time>2026-05-01T15:34:54.001Z</time></trkpt><trkpt lat="43.25346204743893" lon="-2.670254824902494"><ele>188.0</ele><time>2026-05-01T15:34:55.001Z</time></trkpt><trkpt lat="43.25346172899049" lon="-2.670108313759402"><ele>190.0</ele><time>2026-05-01T15:34:56.001Z</time></trkpt><trkpt lat="43.253448653533844" lon="-2.6699668683257727"><ele>192.0</ele><time>2026-05-01T15:34:57.001Z</time></trkpt><trkpt lat="43.253346696258305" lon="-2.6698770569289403"><ele>194.0</ele><time>2026-05-01T15:34:58.001Z</time></trkpt><trkpt lat="43.25324348575703" lon="-2.669771826177507"><ele>196.0</ele><time>2026-05-01T15:34:59.001Z</time></trkpt><trkpt lat="43.25313082283569" lon="-2.6697087739444694"><ele>193.5</ele><time>2026-05-01T15:35:00.001Z</time></trkpt><trkpt lat="43.253048536337694" lon="-2.6695942478369186"><ele>191.0</ele><time>2026-05-01T15:35:01.001Z</time></trkpt><trkpt lat="43.252973243998504" lon="-2.6694644766485847"><ele>188.5</ele><time>2026-05-01T15:35:02.001Z</time></trkpt><trkpt lat="43.252893090513275" lon="-2.6693289760744916"><ele>186.0</ele><time>2026-05-01T15:35:03.001Z</time></trkpt><trkpt lat="43.25284113098747" lon="-2.669164458564256"><ele>186.0</ele><time>2026-05-01T15:35:04.001Z</time></trkpt><trkpt lat="43.25280437905139" lon="-2.6690051549870604"><ele>186.0</ele><time>2026-05-01T15:35:05.001Z</time></trkpt><trkpt lat="43.25277238205218" lon="-2.668859901284414"><ele>186.0</ele><time>2026-05-01T15:35:06.001Z</time></trkpt><trkpt lat="43.25274701852322" lon="-2.6687089995642546"><ele>186.0</ele><time>2026-05-01T15:35:07.001Z</time></trkpt><trkpt lat="43.25272487140608" lon="-2.6685561395302106"><ele>187.0</ele><time>2026-05-01T15:35:08.001Z</time></trkpt><trkpt lat="43.25271177280902" lon="-2.6684016033341473"><ele>188.0</ele><time>2026-05-01T15:35:09.001Z</time></trkpt><trkpt lat="43.252717157668506" lon="-2.668236838827689"><ele>189.0</ele><time>2026-05-01T15:35:10.001Z</time></trkpt><trkpt lat="43.25273114991545" lon="-2.6680885381695014"><ele>190.0</ele><time>2026-05-01T15:35:11.001Z</time></trkpt><trkpt lat="43.25275300032859" lon="-2.6679427208359616"><ele>190.0</ele><time>2026-05-01T15:35:12.001Z</time></trkpt><trkpt lat="43.25277854639974" lon="-2.667804572695859"><ele>190.0</ele><time>2026-05-01T15:35:13.001Z</time></trkpt><trkpt lat="43.25280738375706" lon="-2.6676764346220883"><ele>190.0</ele><time>2026-05-01T15:35:14.001Z</time></trkpt><trkpt lat="43.252836339814245" lon="-2.6675682248803883"><ele>190.0</ele><time>2026-05-01T15:35:15.001Z</time></trkpt><trkpt lat="43.252871700042135" lon="-2.667467016712493"><ele>190.0</ele><time>2026-05-01T15:35:16.001Z</time></trkpt><trkpt lat="43.25292279456048" lon="-2.667373013772101"><ele>189.8</ele><time>2026-05-01T15:35:17.001Z</time></trkpt><trkpt lat="43.25300333551558" lon="-2.667286812970103"><ele>189.6</ele><time>2026-05-01T15:35:18.002Z</time></trkpt><trkpt lat="43.25309618828926" lon="-2.667232617577555"><ele>189.39999999999998</ele><time>2026-05-01T15:35:19Z</time></trkpt><trkpt lat="43.253196320709286" lon="-2.6672176957104883"><ele>189.2</ele><time>2026-05-01T15:35:20Z</time></trkpt><trkpt lat="43.253278786754606" lon="-2.667155241917725"><ele>189.0</ele><time>2026-05-01T15:35:21Z</time></trkpt><trkpt lat="43.253351081250166" lon="-2.667083410471876"><ele>193.0</ele><time>2026-05-01T15:35:22Z</time></trkpt><trkpt lat="43.253397579763224" lon="-2.666957430452514"><ele>197.0</ele><time>2026-05-01T15:35:23Z</time></trkpt><trkpt lat="43.253392557415374" lon="-2.666825939322851"><ele>201.0</ele><time>2026-05-01T15:35:24Z</time></trkpt><trkpt lat="43.25337193442575" lon="-2.6666824253028643"><ele>205.0</ele><time>2026-05-01T15:35:25Z</time></trkpt><trkpt lat="43.25333786843819" lon="-2.6665450936387405"><ele>209.0</ele><time>2026-05-01T15:35:26Z</time></trkpt><trkpt lat="43.25331483665911" lon="-2.6663939807685835"><ele>209.0</ele><time>2026-05-01T15:35:27Z</time></trkpt><trkpt lat="43.253324819154074" lon="-2.6662480130286355"><ele>209.0</ele><time>2026-05-01T15:35:28Z</time></trkpt><trkpt lat="43.25334369576454" lon="-2.6661048669163163"><ele>209.0</ele><time>2026-05-01T15:35:29Z</time></trkpt><trkpt lat="43.25338110952986" lon="-2.6659625368605897"><ele>209.0</ele><time>2026-05-01T15:35:30Z</time></trkpt><trkpt lat="43.25343198301773" lon="-2.6658412176041226"><ele>209.0</ele><time>2026-05-01T15:35:31Z</time></trkpt><trkpt lat="43.25348828577567" lon="-2.6657420711724122"><ele>210.0</ele><time>2026-05-01T15:35:32Z</time></trkpt><trkpt lat="43.25353473981341" lon="-2.6656281722834505"><ele>211.0</ele><time>2026-05-01T15:35:33Z</time></trkpt><trkpt lat="43.25359831729296" lon="-2.6655288349470947"><ele>211.99999999999997</ele><time>2026-05-01T15:35:34Z</time></trkpt><trkpt lat="43.25361068352939" lon="-2.6653895128249236"><ele>213.0</ele><time>2026-05-01T15:35:35Z</time></trkpt><trkpt lat="43.25358998719441" lon="-2.6652579249761623"><ele>214.0</ele><time>2026-05-01T15:35:36Z</time></trkpt><trkpt lat="43.25352665676484" lon="-2.6651423338337348"><ele>212.75</ele><time>2026-05-01T15:35:37Z</time></trkpt><trkpt lat="43.253432934159235" lon="-2.6650532254009156"><ele>211.5</ele><time>2026-05-01T15:35:38Z</time></trkpt><trkpt lat="43.253310213125715" lon="-2.664977251240887"><ele>210.25</ele><time>2026-05-01T15:35:39Z</time></trkpt><trkpt lat="43.25315795700439" lon="-2.664886731155169"><ele>209.0</ele><time>2026-05-01T15:35:40Z</time></trkpt><trkpt lat="43.25297448614679" lon="-2.664787249565354"><ele>209.0</ele><time>2026-05-01T15:35:41Z</time></trkpt><trkpt lat="43.252791453889984" lon="-2.6646857382048053"><ele>209.0</ele><time>2026-05-01T15:35:42Z</time></trkpt><trkpt lat="43.25261195949921" lon="-2.664571587261398"><ele>209.0</ele><time>2026-05-01T15:35:43Z</time></trkpt><trkpt lat="43.252463945663195" lon="-2.6644609456049753"><ele>212.66666666666669</ele><time>2026-05-01T15:35:44Z</time></trkpt><trkpt lat="43.252294057827484" lon="-2.664386583041019"><ele>216.33333333333331</ele><time>2026-05-01T15:35:45Z</time></trkpt><trkpt lat="43.252127509576006" lon="-2.6643513810450967"><ele>220.0</ele><time>2026-05-01T15:35:46Z</time></trkpt><trkpt lat="43.25198724566403" lon="-2.6643261454147478"><ele>220.0</ele><time>2026-05-01T15:35:47Z</time></trkpt><trkpt lat="43.25186222131205" lon="-2.664242094972151"><ele>220.0</ele><time>2026-05-01T15:35:48Z</time></trkpt><trkpt lat="43.25175170166202" lon="-2.6641233076841786"><ele>220.0</ele><time>2026-05-01T15:35:49Z</time></trkpt><trkpt lat="43.251645519341295" lon="-2.6639383941745844"><ele>220.0</ele><time>2026-05-01T15:35:50Z</time></trkpt><trkpt lat="43.25155066959941" lon="-2.6637087087671323"><ele>220.0</ele><time>2026-05-01T15:35:51Z</time></trkpt><trkpt lat="43.25147486089393" lon="-2.6634518729007235"><ele>220.0</ele><time>2026-05-01T15:35:52Z</time></trkpt><trkpt lat="43.25140952804627" lon="-2.6631654535437956"><ele>219.33333333333331</ele><time>2026-05-01T15:35:53Z</time></trkpt><trkpt lat="43.25135885371813" lon="-2.6628844027690217"><ele>218.66666666666669</ele><time>2026-05-01T15:35:54Z</time></trkpt><trkpt lat="43.25131669035161" lon="-2.662621458402193"><ele>218.0</ele><time>2026-05-01T15:35:55Z</time></trkpt><trkpt lat="43.25127427502504" lon="-2.6623633607190023"><ele>218.0</ele><time>2026-05-01T15:35:56Z</time></trkpt><trkpt lat="43.25119239080064" lon="-2.6621149897918865"><ele>218.0</ele><time>2026-05-01T15:35:57Z</time></trkpt><trkpt lat="43.25111934715163" lon="-2.6618640479836317"><ele>218.0</ele><time>2026-05-01T15:35:58Z</time></trkpt><trkpt lat="43.25102986236944" lon="-2.661638193163167"><ele>220.5</ele><time>2026-05-01T15:35:59Z</time></trkpt><trkpt lat="43.250945104200525" lon="-2.661429219633636"><ele>223.0</ele><time>2026-05-01T15:36:00Z</time></trkpt><trkpt lat="43.25086849329824" lon="-2.6612859674852585"><ele>225.5</ele><time>2026-05-01T15:36:01Z</time></trkpt><trkpt lat="43.250840075784104" lon="-2.661134708182484"><ele>228.0</ele><time>2026-05-01T15:36:02Z</time></trkpt><trkpt lat="43.25081974707444" lon="-2.660976231915488"><ele>230.5</ele><time>2026-05-01T15:36:03Z</time></trkpt><trkpt lat="43.25083137999042" lon="-2.6608185140265332"><ele>233.0</ele><time>2026-05-01T15:36:04Z</time></trkpt><trkpt lat="43.2508913593474" lon="-2.660664238488771"><ele>235.5</ele><time>2026-05-01T15:36:05Z</time></trkpt><trkpt lat="43.25098408665043" lon="-2.6604849044242798"><ele>238.0</ele><time>2026-05-01T15:36:06.001Z</time></trkpt><trkpt lat="43.251076101531076" lon="-2.6603224777233567"><ele>237.33333333333331</ele><time>2026-05-01T15:36:07.001Z</time></trkpt><trkpt lat="43.25114021393373" lon="-2.660134368780369"><ele>236.66666666666669</ele><time>2026-05-01T15:36:08.001Z</time></trkpt><trkpt lat="43.251200385362935" lon="-2.659913940221959"><ele>236.0</ele><time>2026-05-01T15:36:09.001Z</time></trkpt><trkpt lat="43.25124252667327" lon="-2.659670743387521"><ele>234.33333333333334</ele><time>2026-05-01T15:36:10.001Z</time></trkpt><trkpt lat="43.25129343952311" lon="-2.659423307436993"><ele>232.66666666666669</ele><time>2026-05-01T15:36:11.001Z</time></trkpt><trkpt lat="43.25133337240357" lon="-2.659184185430071"><ele>231.0</ele><time>2026-05-01T15:36:12.001Z</time></trkpt><trkpt lat="43.25136758851801" lon="-2.65893861924513"><ele>231.0</ele><time>2026-05-01T15:36:13.001Z</time></trkpt><trkpt lat="43.25139316381449" lon="-2.658684851722638"><ele>231.0</ele><time>2026-05-01T15:36:14.001Z</time></trkpt><trkpt lat="43.2514131741138" lon="-2.6584359358171654"><ele>231.0</ele><time>2026-05-01T15:36:15.001Z</time></trkpt><trkpt lat="43.25144207737815" lon="-2.658189839648349"><ele>238.0</ele><time>2026-05-01T15:36:16.001Z</time></trkpt><trkpt lat="43.25148438490593" lon="-2.657957705097617"><ele>245.0</ele><time>2026-05-01T15:36:17.001Z</time></trkpt><trkpt lat="43.251522577587174" lon="-2.65770722039747"><ele>252.0</ele><time>2026-05-01T15:36:18.001Z</time></trkpt><trkpt lat="43.25158406334306" lon="-2.657460776236419"><ele>252.0</ele><time>2026-05-01T15:36:19.001Z</time></trkpt><trkpt lat="43.251652659859204" lon="-2.6572136616817352"><ele>252.0</ele><time>2026-05-01T15:36:20.001Z</time></trkpt><trkpt lat="43.25172019340936" lon="-2.656965123856134"><ele>252.0</ele><time>2026-05-01T15:36:21.001Z</time></trkpt><trkpt lat="43.25178496473186" lon="-2.656710831722131"><ele>251.66666666666669</ele><time>2026-05-01T15:36:22.001Z</time></trkpt><trkpt lat="43.25184028203937" lon="-2.6564657021005917"><ele>251.33333333333334</ele><time>2026-05-01T15:36:23.001Z</time></trkpt><trkpt lat="43.25188428581199" lon="-2.656222640519871"><ele>251.0</ele><time>2026-05-01T15:36:24.001Z</time></trkpt><trkpt lat="43.251890185715" lon="-2.6559819020473623"><ele>252.0</ele><time>2026-05-01T15:36:25.001Z</time></trkpt><trkpt lat="43.2518533607874" lon="-2.6557270166759226"><ele>253.0</ele><time>2026-05-01T15:36:26.001Z</time></trkpt><trkpt lat="43.25180189119305" lon="-2.6554509202554906"><ele>254.0</ele><time>2026-05-01T15:36:27.001Z</time></trkpt><trkpt lat="43.25175156583325" lon="-2.6551793017236083"><ele>256.6666666666667</ele><time>2026-05-01T15:36:28.001Z</time></trkpt><trkpt lat="43.25170028691058" lon="-2.654921688643889"><ele>259.3333333333333</ele><time>2026-05-01T15:36:29.001Z</time></trkpt><trkpt lat="43.25166191595741" lon="-2.65465373316243"><ele>262.0</ele><time>2026-05-01T15:36:30.001Z</time></trkpt><trkpt lat="43.25160510798069" lon="-2.6543961157401657"><ele>264.0</ele><time>2026-05-01T15:36:31.001Z</time></trkpt><trkpt lat="43.251545252912166" lon="-2.6541368312432025"><ele>266.0</ele><time>2026-05-01T15:36:32.001Z</time></trkpt><trkpt lat="43.251490308539715" lon="-2.653859588024929"><ele>268.0</ele><time>2026-05-01T15:36:33.001Z</time></trkpt><trkpt lat="43.25144029524903" lon="-2.65358098218057"><ele>266.66666666666663</ele><time>2026-05-01T15:36:34.001Z</time></trkpt><trkpt lat="43.25139900355484" lon="-2.6532935755633456"><ele>265.3333333333333</ele><time>2026-05-01T15:36:35.001Z</time></trkpt><trkpt lat="43.251343574275644" lon="-2.653006668740657"><ele>264.0</ele><time>2026-05-01T15:36:36.001Z</time></trkpt><trkpt lat="43.25126584764447" lon="-2.6527261550823567"><ele>264.0</ele><time>2026-05-01T15:36:37.001Z</time></trkpt><trkpt lat="43.251170461403255" lon="-2.6524718721124843"><ele>264.0</ele><time>2026-05-01T15:36:38.001Z</time></trkpt><trkpt lat="43.2510836378773" lon="-2.6522406022615033"><ele>264.0</ele><time>2026-05-01T15:36:39.001Z</time></trkpt><trkpt lat="43.25101923908599" lon="-2.6520588508949596"><ele>266.0</ele><time>2026-05-01T15:36:40.001Z</time></trkpt><trkpt lat="43.25096665371243" lon="-2.6519280356305073"><ele>268.0</ele><time>2026-05-01T15:36:41.001Z</time></trkpt><trkpt lat="43.250918888830775" lon="-2.65177386256517"><ele>270.0</ele><time>2026-05-01T15:36:42.001Z</time></trkpt><trkpt lat="43.25088492376469" lon="-2.651657168622495"><ele>272.0</ele><time>2026-05-01T15:36:43.001Z</time></trkpt><trkpt lat="43.25084501086713" lon="-2.651563929886453"><ele>274.0</ele><time>2026-05-01T15:36:44.001Z</time></trkpt><trkpt lat="43.25082974089087" lon="-2.651479337777121"><ele>274.0</ele><time>2026-05-01T15:36:45.001Z</time></trkpt><trkpt lat="43.25084342659972" lon="-2.6513731472153497"><ele>274.0</ele><time>2026-05-01T15:36:46.001Z</time></trkpt><trkpt lat="43.25091017917889" lon="-2.651298143555279"><ele>274.0</ele><time>2026-05-01T15:36:47.001Z</time></trkpt><trkpt lat="43.25101799783411" lon="-2.651342260496331"><ele>274.0</ele><time>2026-05-01T15:36:48.001Z</time></trkpt><trkpt lat="43.25107602597498" lon="-2.65144797874342"><ele>274.0</ele><time>2026-05-01T15:36:49.001Z</time></trkpt><trkpt lat="43.25112265803272" lon="-2.651585752879034"><ele>274.0</ele><time>2026-05-01T15:36:50.001Z</time></trkpt><trkpt lat="43.25118485317036" lon="-2.6517653576245035"><ele>274.0</ele><time>2026-05-01T15:36:51.001Z</time></trkpt><trkpt lat="43.2512842390188" lon="-2.651967630197578"><ele>274.0</ele><time>2026-05-01T15:36:52.001Z</time></trkpt><trkpt lat="43.25140779039957" lon="-2.6521720703572598"><ele>274.66666666666663</ele><time>2026-05-01T15:36:53.001Z</time></trkpt><trkpt lat="43.2515459146265" lon="-2.652381709329139"><ele>275.3333333333333</ele><time>2026-05-01T15:36:54.001Z</time></trkpt><trkpt lat="43.251696432103586" lon="-2.652591726535039"><ele>276.0</ele><time>2026-05-01T15:36:55.001Z</time></trkpt><trkpt lat="43.25184034106479" lon="-2.652805449988307"><ele>276.0</ele><time>2026-05-01T15:36:56.001Z</time></trkpt><trkpt lat="43.25196738844164" lon="-2.6530380493909163"><ele>276.0</ele><time>2026-05-01T15:36:57.001Z</time></trkpt><trkpt lat="43.252061516645426" lon="-2.653286411795645"><ele>276.0</ele><time>2026-05-01T15:36:58.001Z</time></trkpt><trkpt lat="43.25212809550196" lon="-2.6535379995999517"><ele>274.0</ele><time>2026-05-01T15:36:59.001Z</time></trkpt><trkpt lat="43.25218916023003" lon="-2.653748955200177"><ele>272.0</ele><time>2026-05-01T15:37:00.001Z</time></trkpt><trkpt lat="43.25224158708386" lon="-2.653926526109509"><ele>270.0</ele><time>2026-05-01T15:37:01.001Z</time></trkpt><trkpt lat="43.25227931135045" lon="-2.6540468643857014"><ele>268.0</ele><time>2026-05-01T15:37:02.001Z</time></trkpt><trkpt lat="43.25231058906378" lon="-2.6541345480605503"><ele>273.5</ele><time>2026-05-01T15:37:03.001Z</time></trkpt><trkpt lat="43.25237088308018" lon="-2.654268798629387"><ele>279.0</ele><time>2026-05-01T15:37:05.001Z</time></trkpt><trkpt lat="43.25248056976036" lon="-2.6542357305229647"><ele>284.5</ele><time>2026-05-01T15:37:07.001Z</time></trkpt><trkpt lat="43.25242817507362" lon="-2.6540054461178384"><ele>290.0</ele><time>2026-05-01T15:37:09.001Z</time></trkpt><trkpt lat="43.252388610247756" lon="-2.6538461961269872"><ele>290.0</ele><time>2026-05-01T15:37:10.001Z</time></trkpt><trkpt lat="43.25233653905352" lon="-2.653656607600643"><ele>290.0</ele><time>2026-05-01T15:37:11.001Z</time></trkpt><trkpt lat="43.252288416719196" lon="-2.6534406998199747"><ele>290.0</ele><time>2026-05-01T15:37:12.001Z</time></trkpt><trkpt lat="43.252254613241504" lon="-2.6531938495677814"><ele>288.33333333333337</ele><time>2026-05-01T15:37:13.001Z</time></trkpt><trkpt lat="43.25221666468648" lon="-2.6529498947310146"><ele>286.6666666666667</ele><time>2026-05-01T15:37:14.001Z</time></trkpt><trkpt lat="43.252169154792206" lon="-2.652710141689639"><ele>285.0</ele><time>2026-05-01T15:37:15.002Z</time></trkpt><trkpt lat="43.25210464249551" lon="-2.65247356381764"><ele>285.0</ele><time>2026-05-01T15:37:16.002Z</time></trkpt><trkpt lat="43.25203810774197" lon="-2.6522256394285084"><ele>285.0</ele><time>2026-05-01T15:37:17.002Z</time></trkpt><trkpt lat="43.251967640661945" lon="-2.6519613847054337"><ele>285.0</ele><time>2026-05-01T15:37:18.002Z</time></trkpt><trkpt lat="43.25189481385193" lon="-2.6516919785684876"><ele>289.3333333333333</ele><time>2026-05-01T15:37:19.002Z</time></trkpt><trkpt lat="43.251827434180555" lon="-2.6514023469441472"><ele>293.66666666666663</ele><time>2026-05-01T15:37:20.002Z</time></trkpt><trkpt lat="43.251736629941014" lon="-2.6511268114201725"><ele>298.0</ele><time>2026-05-01T15:37:21.002Z</time></trkpt><trkpt lat="43.251638739850875" lon="-2.650853624954422"><ele>298.3333333333333</ele><time>2026-05-01T15:37:22.002Z</time></trkpt><trkpt lat="43.25152270057097" lon="-2.6506212352457106"><ele>298.6666666666667</ele><time>2026-05-01T15:37:23.002Z</time></trkpt><trkpt lat="43.251408903100206" lon="-2.6504218932606625"><ele>299.0</ele><time>2026-05-01T15:37:24.002Z</time></trkpt><trkpt lat="43.25128676285243" lon="-2.650243749180879"><ele>299.0</ele><time>2026-05-01T15:37:25Z</time></trkpt><trkpt lat="43.25119343329936" lon="-2.650053486882792"><ele>299.0</ele><time>2026-05-01T15:37:26Z</time></trkpt><trkpt lat="43.25111767103736" lon="-2.649829407148992"><ele>299.0</ele><time>2026-05-01T15:37:27Z</time></trkpt><trkpt lat="43.25104653678172" lon="-2.6495906551678"><ele>302.0</ele><time>2026-05-01T15:37:28Z</time></trkpt><trkpt lat="43.250985085869836" lon="-2.6493553563178907"><ele>305.0</ele><time>2026-05-01T15:37:29Z</time></trkpt><trkpt lat="43.2509317456825" lon="-2.649112449248476"><ele>308.0</ele><time>2026-05-01T15:37:30Z</time></trkpt><trkpt lat="43.250913295228365" lon="-2.648862656535995"><ele>311.0</ele><time>2026-05-01T15:37:31Z</time></trkpt><trkpt lat="43.25089291268248" lon="-2.6486051027907425"><ele>314.0</ele><time>2026-05-01T15:37:32Z</time></trkpt><trkpt lat="43.25085718046082" lon="-2.648358978173146"><ele>317.0</ele><time>2026-05-01T15:37:33Z</time></trkpt><trkpt lat="43.25078536016853" lon="-2.6481289008827544"><ele>317.0</ele><time>2026-05-01T15:37:34Z</time></trkpt><trkpt lat="43.25069861899206" lon="-2.6479183994884585"><ele>317.0</ele><time>2026-05-01T15:37:35Z</time></trkpt><trkpt lat="43.25058695821448" lon="-2.647732030551523"><ele>317.0</ele><time>2026-05-01T15:37:36Z</time></trkpt><trkpt lat="43.250477556468944" lon="-2.647553985738287"><ele>316.0</ele><time>2026-05-01T15:37:37Z</time></trkpt><trkpt lat="43.25039796864487" lon="-2.647336242343172"><ele>315.0</ele><time>2026-05-01T15:37:38Z</time></trkpt><trkpt lat="43.25035388845224" lon="-2.6470916419412753"><ele>314.0</ele><time>2026-05-01T15:37:39Z</time></trkpt><trkpt lat="43.25029724332873" lon="-2.646817448148699"><ele>314.0</ele><time>2026-05-01T15:37:40Z</time></trkpt><trkpt lat="43.25023280074334" lon="-2.646535872328404"><ele>314.0</ele><time>2026-05-01T15:37:41Z</time></trkpt><trkpt lat="43.25015692425535" lon="-2.64624136077655"><ele>314.0</ele><time>2026-05-01T15:37:42Z</time></trkpt><trkpt lat="43.25007893480475" lon="-2.645950377369973"><ele>313.33333333333337</ele><time>2026-05-01T15:37:43Z</time></trkpt><trkpt lat="43.24998226871676" lon="-2.645669412067112"><ele>312.6666666666667</ele><time>2026-05-01T15:37:44Z</time></trkpt><trkpt lat="43.249879171732324" lon="-2.645404985682082"><ele>312.0</ele><time>2026-05-01T15:37:45Z</time></trkpt><trkpt lat="43.24975177898948" lon="-2.645145613709449"><ele>312.0</ele><time>2026-05-01T15:37:46Z</time></trkpt><trkpt lat="43.24962581866596" lon="-2.6448879485457164"><ele>312.0</ele><time>2026-05-01T15:37:47Z</time></trkpt><trkpt lat="43.24950299573668" lon="-2.644630588729362"><ele>318.6666666666667</ele><time>2026-05-01T15:37:48Z</time></trkpt><trkpt lat="43.249377557322" lon="-2.644405386269258"><ele>325.33333333333337</ele><time>2026-05-01T15:37:49Z</time></trkpt><trkpt lat="43.24923559053006" lon="-2.644187517592528"><ele>332.0</ele><time>2026-05-01T15:37:50Z</time></trkpt><trkpt lat="43.24910936182625" lon="-2.643965877478791"><ele>332.0</ele><time>2026-05-01T15:37:51Z</time></trkpt><trkpt lat="43.24901176212078" lon="-2.6437158870745674"><ele>332.0</ele><time>2026-05-01T15:37:52Z</time></trkpt><trkpt lat="43.24890727998798" lon="-2.6434590770640543"><ele>332.0</ele><time>2026-05-01T15:37:53Z</time></trkpt><trkpt lat="43.24879457698274" lon="-2.6432146555019727"><ele>334.6666666666667</ele><time>2026-05-01T15:37:54Z</time></trkpt><trkpt lat="43.24869003132191" lon="-2.642979641230273"><ele>337.3333333333333</ele><time>2026-05-01T15:37:55Z</time></trkpt><trkpt lat="43.248579357410996" lon="-2.6427589196364454"><ele>340.0</ele><time>2026-05-01T15:37:56Z</time></trkpt><trkpt lat="43.248474876611304" lon="-2.64252129689256"><ele>340.0</ele><time>2026-05-01T15:37:57Z</time></trkpt><trkpt lat="43.24835865409566" lon="-2.6422914566761024"><ele>340.0</ele><time>2026-05-01T15:37:58Z</time></trkpt><trkpt lat="43.24825447370719" lon="-2.642076372252168"><ele>340.0</ele><time>2026-05-01T15:37:59Z</time></trkpt><trkpt lat="43.24816004996113" lon="-2.6418979398830813"><ele>340.3333333333333</ele><time>2026-05-01T15:38:00Z</time></trkpt><trkpt lat="43.24807905446687" lon="-2.6417110348334"><ele>340.6666666666667</ele><time>2026-05-01T15:38:01Z</time></trkpt><trkpt lat="43.247992450960716" lon="-2.6415361655427883"><ele>341.0</ele><time>2026-05-01T15:38:02Z</time></trkpt><trkpt lat="43.24790045447303" lon="-2.6413520579486995"><ele>341.0</ele><time>2026-05-01T15:38:03Z</time></trkpt><trkpt lat="43.247800771865485" lon="-2.6411726153187742"><ele>341.0</ele><time>2026-05-01T15:38:04Z</time></trkpt><trkpt lat="43.24769146692288" lon="-2.6409862914191087"><ele>341.0</ele><time>2026-05-01T15:38:05Z</time></trkpt><trkpt lat="43.247589646913" lon="-2.640815341941285"><ele>343.0</ele><time>2026-05-01T15:38:06Z</time></trkpt><trkpt lat="43.24747548268652" lon="-2.6406655675296635"><ele>345.0</ele><time>2026-05-01T15:38:07Z</time></trkpt><trkpt lat="43.24739822623745" lon="-2.64052575535252"><ele>347.0</ele><time>2026-05-01T15:38:08Z</time></trkpt><trkpt lat="43.24732099248183" lon="-2.6404193353147494"><ele>349.0</ele><time>2026-05-01T15:38:09Z</time></trkpt><trkpt lat="43.247233184112474" lon="-2.6403228746407787"><ele>347.5</ele><time>2026-05-01T15:38:10Z</time></trkpt><trkpt lat="43.24712614240009" lon="-2.6402460863774606"><ele>346.0</ele><time>2026-05-01T15:38:11Z</time></trkpt><trkpt lat="43.24700374136601" lon="-2.6402355992750635"><ele>344.5</ele><time>2026-05-01T15:38:12Z</time></trkpt><trkpt lat="43.24685807446882" lon="-2.640246418492485"><ele>343.0</ele><time>2026-05-01T15:38:13Z</time></trkpt><trkpt lat="43.24670333257083" lon="-2.640244495385448"><ele>343.0</ele><time>2026-05-01T15:38:14Z</time></trkpt><trkpt lat="43.246560701113886" lon="-2.6402658455016"><ele>343.0</ele><time>2026-05-01T15:38:15Z</time></trkpt><trkpt lat="43.24642144667176" lon="-2.640269069820596"><ele>343.0</ele><time>2026-05-01T15:38:16.001Z</time></trkpt><trkpt lat="43.246283460673595" lon="-2.6402479518463142"><ele>343.0</ele><time>2026-05-01T15:38:17.001Z</time></trkpt><trkpt lat="43.24616054497886" lon="-2.640175708143456"><ele>345.66666666666663</ele><time>2026-05-01T15:38:18.001Z</time></trkpt><trkpt lat="43.246048729304" lon="-2.6400420565818985"><ele>348.3333333333333</ele><time>2026-05-01T15:38:19.001Z</time></trkpt><trkpt lat="43.24593442298459" lon="-2.6398886196590365"><ele>351.0</ele><time>2026-05-01T15:38:20.001Z</time></trkpt><trkpt lat="43.24583309145929" lon="-2.6397092171424266"><ele>351.0</ele><time>2026-05-01T15:38:21.001Z</time></trkpt><trkpt lat="43.24571313519399" lon="-2.6395822546039933"><ele>351.0</ele><time>2026-05-01T15:38:22.001Z</time></trkpt><trkpt lat="43.24557197884854" lon="-2.6394749944430127"><ele>351.0</ele><time>2026-05-01T15:38:23.001Z</time></trkpt><trkpt lat="43.245429674815036" lon="-2.6393780751535543"><ele>350.25</ele><time>2026-05-01T15:38:24.001Z</time></trkpt><trkpt lat="43.24530491910415" lon="-2.6392918447864155"><ele>349.5</ele><time>2026-05-01T15:38:25.001Z</time></trkpt><trkpt lat="43.24521372396996" lon="-2.639215240347376"><ele>348.75</ele><time>2026-05-01T15:38:26.001Z</time></trkpt><trkpt lat="43.24507611125439" lon="-2.639173992680323"><ele>348.0</ele><time>2026-05-01T15:38:27.001Z</time></trkpt><trkpt lat="43.244916490141954" lon="-2.639168479756984"><ele>349.0</ele><time>2026-05-01T15:38:28.001Z</time></trkpt><trkpt lat="43.24475498861142" lon="-2.6392011261926136"><ele>350.0</ele><time>2026-05-01T15:38:29.001Z</time></trkpt><trkpt lat="43.244608014088634" lon="-2.639251259019351"><ele>351.0</ele><time>2026-05-01T15:38:30.001Z</time></trkpt><trkpt lat="43.24447650481244" lon="-2.6392588740721235"><ele>352.0</ele><time>2026-05-01T15:38:31.001Z</time></trkpt><trkpt lat="43.24434534295294" lon="-2.6392431182485905"><ele>352.0</ele><time>2026-05-01T15:38:32.001Z</time></trkpt><trkpt lat="43.24422141644627" lon="-2.639203433779324"><ele>352.0</ele><time>2026-05-01T15:38:33.001Z</time></trkpt><trkpt lat="43.244116128664864" lon="-2.6391089428389876"><ele>352.0</ele><time>2026-05-01T15:38:34.001Z</time></trkpt><trkpt lat="43.24403764796956" lon="-2.6389886079018354"><ele>352.0</ele><time>2026-05-01T15:38:35.001Z</time></trkpt><trkpt lat="43.24397755766136" lon="-2.6388410980994097"><ele>352.0</ele><time>2026-05-01T15:38:36.001Z</time></trkpt><trkpt lat="43.243970648859644" lon="-2.6386586259051046"><ele>352.0</ele><time>2026-05-01T15:38:37.001Z</time></trkpt><trkpt lat="43.24396189946497" lon="-2.6384818412830704"><ele>352.0</ele><time>2026-05-01T15:38:38.001Z</time></trkpt><trkpt lat="43.24392857637541" lon="-2.6383381142811957"><ele>352.0</ele><time>2026-05-01T15:38:39.001Z</time></trkpt><trkpt lat="43.24385300060943" lon="-2.638213367273992"><ele>353.6</ele><time>2026-05-01T15:38:40.001Z</time></trkpt><trkpt lat="43.243767826623696" lon="-2.6381260015945864"><ele>355.20000000000005</ele><time>2026-05-01T15:38:41.001Z</time></trkpt><trkpt lat="43.243674286712796" lon="-2.638051183007605"><ele>356.8</ele><time>2026-05-01T15:38:42.001Z</time></trkpt><trkpt lat="43.243628987366186" lon="-2.637950782318906"><ele>358.4</ele><time>2026-05-01T15:38:43.001Z</time></trkpt><trkpt lat="43.24358866894314" lon="-2.6378263459523064"><ele>360.0</ele><time>2026-05-01T15:38:44.001Z</time></trkpt><trkpt lat="43.24362512582816" lon="-2.637666159197223"><ele>361.6666666666667</ele><time>2026-05-01T15:38:45.001Z</time></trkpt><trkpt lat="43.24373198393374" lon="-2.6375136849317835"><ele>363.33333333333337</ele><time>2026-05-01T15:38:46.001Z</time></trkpt><trkpt lat="43.24381856189945" lon="-2.637318430670543"><ele>365.0</ele><time>2026-05-01T15:38:47.001Z</time></trkpt><trkpt lat="43.24390771968911" lon="-2.63715932403048"><ele>358.0</ele><time>2026-05-01T15:38:48.001Z</time></trkpt><trkpt lat="43.24397120861" lon="-2.6369684525499"><ele>351.0</ele><time>2026-05-01T15:38:49.001Z</time></trkpt><trkpt lat="43.24402440924319" lon="-2.6367630217766997"><ele>344.0</ele><time>2026-05-01T15:38:50.001Z</time></trkpt><trkpt lat="43.2440677384149" lon="-2.6365428891619094"><ele>344.0</ele><time>2026-05-01T15:38:51.001Z</time></trkpt><trkpt lat="43.24410172242904" lon="-2.6363186190825125"><ele>344.0</ele><time>2026-05-01T15:38:52.001Z</time></trkpt><trkpt lat="43.24411696798558" lon="-2.6360805874004556"><ele>344.0</ele><time>2026-05-01T15:38:53.001Z</time></trkpt><trkpt lat="43.24414809289164" lon="-2.6358576405946406"><ele>344.0</ele><time>2026-05-01T15:38:54.001Z</time></trkpt><trkpt lat="43.24418632553258" lon="-2.635640683218473"><ele>344.0</ele><time>2026-05-01T15:38:55.001Z</time></trkpt><trkpt lat="43.24415337403171" lon="-2.635414051886183"><ele>344.0</ele><time>2026-05-01T15:38:56.001Z</time></trkpt><trkpt lat="43.24412678660806" lon="-2.6351706614734387"><ele>344.0</ele><time>2026-05-01T15:38:57.001Z</time></trkpt><trkpt lat="43.244105055103475" lon="-2.634913285896449"><ele>344.0</ele><time>2026-05-01T15:38:58.001Z</time></trkpt><trkpt lat="43.24408531458184" lon="-2.634662827608992"><ele>344.0</ele><time>2026-05-01T15:38:59.001Z</time></trkpt><trkpt lat="43.24404368952717" lon="-2.63443422022514"><ele>340.6666666666667</ele><time>2026-05-01T15:39:00.001Z</time></trkpt><trkpt lat="43.24401076417186" lon="-2.6342288540835934"><ele>337.3333333333333</ele><time>2026-05-01T15:39:01.001Z</time></trkpt><trkpt lat="43.24396951509192" lon="-2.634019888508744"><ele>334.0</ele><time>2026-05-01T15:39:02.001Z</time></trkpt><trkpt lat="43.24388900975883" lon="-2.633817858637484"><ele>340.3333333333333</ele><time>2026-05-01T15:39:03.001Z</time></trkpt><trkpt lat="43.24379562027228" lon="-2.633616574875136"><ele>346.6666666666667</ele><time>2026-05-01T15:39:04.001Z</time></trkpt><trkpt lat="43.24368930701484" lon="-2.6334378120635"><ele>353.0</ele><time>2026-05-01T15:39:05.001Z</time></trkpt><trkpt lat="43.24355954433599" lon="-2.633274080533575"><ele>353.0</ele><time>2026-05-01T15:39:06.001Z</time></trkpt><trkpt lat="43.24340757235743" lon="-2.633126865956851"><ele>353.0</ele><time>2026-05-01T15:39:07.001Z</time></trkpt><trkpt lat="43.24325363604612" lon="-2.6329943790822394"><ele>353.0</ele><time>2026-05-01T15:39:08.001Z</time></trkpt><trkpt lat="43.2431271820621" lon="-2.632871085601265"><ele>353.25</ele><time>2026-05-01T15:39:09.001Z</time></trkpt><trkpt lat="43.24300443359857" lon="-2.632743664905242"><ele>353.5</ele><time>2026-05-01T15:39:10.001Z</time></trkpt><trkpt lat="43.242886183049364" lon="-2.632638927002281"><ele>353.75</ele><time>2026-05-01T15:39:11.001Z</time></trkpt><trkpt lat="43.24277381084796" lon="-2.6325707878677225"><ele>354.0</ele><time>2026-05-01T15:39:12.001Z</time></trkpt><trkpt lat="43.24266437257772" lon="-2.6325407844935094"><ele>354.0</ele><time>2026-05-01T15:39:13.001Z</time></trkpt><trkpt lat="43.2425683269203" lon="-2.632495448556064"><ele>354.0</ele><time>2026-05-01T15:39:14.001Z</time></trkpt><trkpt lat="43.24250429911905" lon="-2.632408252359595"><ele>354.0</ele><time>2026-05-01T15:39:15.001Z</time></trkpt><trkpt lat="43.2424665553185" lon="-2.632245306688508"><ele>354.0</ele><time>2026-05-01T15:39:16.001Z</time></trkpt><trkpt lat="43.24242421424879" lon="-2.6320536698880295"><ele>350.6666666666667</ele><time>2026-05-01T15:39:17.001Z</time></trkpt><trkpt lat="43.242412644000616" lon="-2.631824575411885"><ele>347.33333333333337</ele><time>2026-05-01T15:39:18.001Z</time></trkpt><trkpt lat="43.24236039649127" lon="-2.6315868296207316"><ele>344.0</ele><time>2026-05-01T15:39:19.001Z</time></trkpt><trkpt lat="43.242325730597244" lon="-2.6313560664770876"><ele>355.0</ele><time>2026-05-01T15:39:20.002Z</time></trkpt><trkpt lat="43.242282320776326" lon="-2.631158213525875"><ele>366.0</ele><time>2026-05-01T15:39:21.002Z</time></trkpt><trkpt lat="43.24220028354677" lon="-2.630963941982178"><ele>377.0</ele><time>2026-05-01T15:39:22.002Z</time></trkpt><trkpt lat="43.24208293159381" lon="-2.630763755065093"><ele>377.0</ele><time>2026-05-01T15:39:23.002Z</time></trkpt><trkpt lat="43.241958904676835" lon="-2.6305585798393167"><ele>377.0</ele><time>2026-05-01T15:39:24.002Z</time></trkpt><trkpt lat="43.24184201753884" lon="-2.630341356157879"><ele>377.0</ele><time>2026-05-01T15:39:25.002Z</time></trkpt><trkpt lat="43.24172216854077" lon="-2.630109219573257"><ele>372.33333333333337</ele><time>2026-05-01T15:39:26.002Z</time></trkpt><trkpt lat="43.241604765885384" lon="-2.629865689200226"><ele>367.6666666666667</ele><time>2026-05-01T15:39:27.002Z</time></trkpt><trkpt lat="43.24150150926711" lon="-2.629640445838602"><ele>363.0</ele><time>2026-05-01T15:39:28.002Z</time></trkpt><trkpt lat="43.24141068804214" lon="-2.6294247254837795"><ele>368.3333333333333</ele><time>2026-05-01T15:39:29.002Z</time></trkpt><trkpt lat="43.24134238901088" lon="-2.6291837259151456"><ele>373.66666666666663</ele><time>2026-05-01T15:39:30.002Z</time></trkpt><trkpt lat="43.241287276611494" lon="-2.628909491324795"><ele>379.0</ele><time>2026-05-01T15:39:31Z</time></trkpt><trkpt lat="43.24121927386235" lon="-2.628631114080008"><ele>379.0</ele><time>2026-05-01T15:39:32Z</time></trkpt><trkpt lat="43.241166617030366" lon="-2.628355681788118"><ele>379.0</ele><time>2026-05-01T15:39:33Z</time></trkpt><trkpt lat="43.2410925644318" lon="-2.62813361005012"><ele>379.0</ele><time>2026-05-01T15:39:34Z</time></trkpt><trkpt lat="43.2410336462799" lon="-2.627940946674518"><ele>376.5</ele><time>2026-05-01T15:39:35Z</time></trkpt><trkpt lat="43.24096694774401" lon="-2.627759763002711"><ele>374.0</ele><time>2026-05-01T15:39:36Z</time></trkpt><trkpt lat="43.240890391019306" lon="-2.6276105676277353"><ele>371.5</ele><time>2026-05-01T15:39:37Z</time></trkpt><trkpt lat="43.24082104010598" lon="-2.627488994774499"><ele>369.0</ele><time>2026-05-01T15:39:38Z</time></trkpt><trkpt lat="43.24076800406911" lon="-2.6273778950669002"><ele>369.0</ele><time>2026-05-01T15:39:39Z</time></trkpt><trkpt lat="43.24073349490953" lon="-2.6272544365674833"><ele>369.0</ele><time>2026-05-01T15:39:40Z</time></trkpt><trkpt lat="43.240715367138556" lon="-2.627123109267734"><ele>369.0</ele><time>2026-05-01T15:39:41Z</time></trkpt><trkpt lat="43.24074859611864" lon="-2.6269878675132943"><ele>369.0</ele><time>2026-05-01T15:39:42Z</time></trkpt><trkpt lat="43.2408410485621" lon="-2.6268815147166924"><ele>369.0</ele><time>2026-05-01T15:39:43Z</time></trkpt><trkpt lat="43.24097425324538" lon="-2.626857845096056"><ele>372.0</ele><time>2026-05-01T15:39:44Z</time></trkpt><trkpt lat="43.24111476539567" lon="-2.626819327626601"><ele>375.0</ele><time>2026-05-01T15:39:45Z</time></trkpt><trkpt lat="43.24127769437699" lon="-2.626741670028968"><ele>378.0</ele><time>2026-05-01T15:39:46Z</time></trkpt><trkpt lat="43.24144800147228" lon="-2.626630866343003"><ele>372.0</ele><time>2026-05-01T15:39:47Z</time></trkpt><trkpt lat="43.24162327129288" lon="-2.626504951815015"><ele>366.0</ele><time>2026-05-01T15:39:48Z</time></trkpt><trkpt lat="43.24182806849125" lon="-2.6264086406901117"><ele>360.0</ele><time>2026-05-01T15:39:49Z</time></trkpt><trkpt lat="43.242040824043" lon="-2.626303991448719"><ele>360.0</ele><time>2026-05-01T15:39:50Z</time></trkpt><trkpt lat="43.2422560877397" lon="-2.6262110122463045"><ele>360.0</ele><time>2026-05-01T15:39:51Z</time></trkpt><trkpt lat="43.24249039782847" lon="-2.6261132599313393"><ele>364.0</ele><time>2026-05-01T15:39:52Z</time></trkpt><trkpt lat="43.24266568232898" lon="-2.626040132629972"><ele>368.0</ele><time>2026-05-01T15:39:53Z</time></trkpt><trkpt lat="43.24283866723325" lon="-2.625991057104383"><ele>372.0</ele><time>2026-05-01T15:39:54Z</time></trkpt><trkpt lat="43.242978595299896" lon="-2.625921785401642"><ele>372.0</ele><time>2026-05-01T15:39:55Z</time></trkpt><trkpt lat="43.24311248678203" lon="-2.625858813925044"><ele>372.0</ele><time>2026-05-01T15:39:56Z</time></trkpt><trkpt lat="43.24320897838551" lon="-2.6257433570601996"><ele>372.0</ele><time>2026-05-01T15:39:57Z</time></trkpt><trkpt lat="43.24328738816739" lon="-2.625634390444432"><ele>372.0</ele><time>2026-05-01T15:39:58Z</time></trkpt><trkpt lat="43.243334630295095" lon="-2.625470652789156"><ele>371.0</ele><time>2026-05-01T15:39:59Z</time></trkpt><trkpt lat="43.24342800622192" lon="-2.6253740380214765"><ele>370.0</ele><time>2026-05-01T15:40:00Z</time></trkpt><trkpt lat="43.24334787412974" lon="-2.62505993797716"><ele>369.0</ele><time>2026-05-01T15:40:01Z</time></trkpt><trkpt lat="43.243325096276884" lon="-2.624862895579075"><ele>371.25</ele><time>2026-05-01T15:40:02Z</time></trkpt><trkpt lat="43.24334801856112" lon="-2.624684310076337"><ele>373.5</ele><time>2026-05-01T15:40:03Z</time></trkpt><trkpt lat="43.243420820959635" lon="-2.624516684023183"><ele>375.75</ele><time>2026-05-01T15:40:04Z</time></trkpt><trkpt lat="43.243527550934424" lon="-2.624363873173946"><ele>378.0</ele><time>2026-05-01T15:40:05Z</time></trkpt><trkpt lat="43.24361102393706" lon="-2.624192385643066"><ele>380.66666666666663</ele><time>2026-05-01T15:40:06Z</time></trkpt><trkpt lat="43.24364639764281" lon="-2.623968742137437"><ele>383.3333333333333</ele><time>2026-05-01T15:40:07Z</time></trkpt><trkpt lat="43.24367420094183" lon="-2.623727188366728"><ele>386.0</ele><time>2026-05-01T15:40:08Z</time></trkpt><trkpt lat="43.24371654470899" lon="-2.623467391203657"><ele>387.3333333333333</ele><time>2026-05-01T15:40:09Z</time></trkpt><trkpt lat="43.24377843482272" lon="-2.623209786586704"><ele>388.66666666666663</ele><time>2026-05-01T15:40:10Z</time></trkpt><trkpt lat="43.24384769078981" lon="-2.6229725509343345"><ele>390.0</ele><time>2026-05-01T15:40:11Z</time></trkpt><trkpt lat="43.243918041898816" lon="-2.622764243866464"><ele>388.2</ele><time>2026-05-01T15:40:12Z</time></trkpt><trkpt lat="43.243978784975106" lon="-2.6226004694000813"><ele>386.4</ele><time>2026-05-01T15:40:13Z</time></trkpt><trkpt lat="43.2440314955218" lon="-2.6224661083719183"><ele>384.6</ele><time>2026-05-01T15:40:14Z</time></trkpt><trkpt lat="43.244085798606314" lon="-2.622364015047803"><ele>382.8</ele><time>2026-05-01T15:40:15Z</time></trkpt><trkpt lat="43.244172866936815" lon="-2.622297308478512"><ele>381.0</ele><time>2026-05-01T15:40:16Z</time></trkpt><trkpt lat="43.24428016484029" lon="-2.622288955475556"><ele>381.0</ele><time>2026-05-01T15:40:17Z</time></trkpt><trkpt lat="43.24438207312235" lon="-2.622351282823318"><ele>381.0</ele><time>2026-05-01T15:40:18Z</time></trkpt><trkpt lat="43.24444741070152" lon="-2.6224744942841536"><ele>381.0</ele><time>2026-05-01T15:40:19Z</time></trkpt><trkpt lat="43.244493321165386" lon="-2.6226485652327867"><ele>381.0</ele><time>2026-05-01T15:40:20Z</time></trkpt><trkpt lat="43.24453102419291" lon="-2.622856836007577"><ele>377.3333333333333</ele><time>2026-05-01T15:40:21Z</time></trkpt><trkpt lat="43.24457032563696" lon="-2.623082307133734"><ele>373.66666666666663</ele><time>2026-05-01T15:40:22Z</time></trkpt><trkpt lat="43.24461700871657" lon="-2.623297344813746"><ele>370.0</ele><time>2026-05-01T15:40:23Z</time></trkpt><trkpt lat="43.24469062256275" lon="-2.623503727618498"><ele>371.25</ele><time>2026-05-01T15:40:24.001Z</time></trkpt><trkpt lat="43.24479108065398" lon="-2.6236986795541974"><ele>372.5</ele><time>2026-05-01T15:40:25.001Z</time></trkpt><trkpt lat="43.244904309141724" lon="-2.6238521837153845"><ele>373.75</ele><time>2026-05-01T15:40:26.001Z</time></trkpt><trkpt lat="43.244991846502714" lon="-2.6239381323409234"><ele>375.0</ele><time>2026-05-01T15:40:27.001Z</time></trkpt><trkpt lat="43.245051352814784" lon="-2.6239868276048495"><ele>375.0</ele><time>2026-05-01T15:40:28.001Z</time></trkpt><trkpt lat="43.245128134438595" lon="-2.6239845405532423"><ele>375.0</ele><time>2026-05-01T15:40:29.001Z</time></trkpt><trkpt lat="43.24520641349148" lon="-2.623914566502433"><ele>375.0</ele><time>2026-05-01T15:40:30.001Z</time></trkpt><trkpt lat="43.24526236281638" lon="-2.6237873332547235"><ele>375.0</ele><time>2026-05-01T15:40:31.001Z</time></trkpt><trkpt lat="43.245274037555" lon="-2.623629052249313"><ele>375.0</ele><time>2026-05-01T15:40:32.001Z</time></trkpt><trkpt lat="43.24528477827478" lon="-2.6234508974333517"><ele>378.75</ele><time>2026-05-01T15:40:33.001Z</time></trkpt><trkpt lat="43.24530092820664" lon="-2.623256374658549"><ele>382.5</ele><time>2026-05-01T15:40:34.001Z</time></trkpt><trkpt lat="43.2453070849375" lon="-2.623059420740396"><ele>386.25</ele><time>2026-05-01T15:40:35.001Z</time></trkpt><trkpt lat="43.24530046999956" lon="-2.6228789546596825"><ele>390.0</ele><time>2026-05-01T15:40:36.001Z</time></trkpt><trkpt lat="43.24529963618494" lon="-2.622713013534338"><ele>391.4</ele><time>2026-05-01T15:40:37.001Z</time></trkpt><trkpt lat="43.245302068675116" lon="-2.6225726985870788"><ele>392.8</ele><time>2026-05-01T15:40:38.001Z</time></trkpt><trkpt lat="43.24534440524324" lon="-2.622456640611801"><ele>394.20000000000005</ele><time>2026-05-01T15:40:39.001Z</time></trkpt><trkpt lat="43.24542758924619" lon="-2.6223973417710438"><ele>395.6</ele><time>2026-05-01T15:40:40.001Z</time></trkpt><trkpt lat="43.24553312472477" lon="-2.622406348606011"><ele>397.0</ele><time>2026-05-01T15:40:41.001Z</time></trkpt><trkpt lat="43.24564552914074" lon="-2.622474903522348"><ele>398.75</ele><time>2026-05-01T15:40:42.001Z</time></trkpt><trkpt lat="43.24576514044766" lon="-2.622581863808978"><ele>400.5</ele><time>2026-05-01T15:40:43.001Z</time></trkpt><trkpt lat="43.24588747086057" lon="-2.6226390537272968"><ele>402.25</ele><time>2026-05-01T15:40:44.001Z</time></trkpt><trkpt lat="43.24602231758362" lon="-2.622619395986344"><ele>404.0</ele><time>2026-05-01T15:40:45.001Z</time></trkpt><trkpt lat="43.24616128509085" lon="-2.6225666900872784"><ele>404.0</ele><time>2026-05-01T15:40:46.001Z</time></trkpt><trkpt lat="43.24630373471676" lon="-2.6225464667616016"><ele>404.0</ele><time>2026-05-01T15:40:47.001Z</time></trkpt><trkpt lat="43.24644029763314" lon="-2.6225997425708645"><ele>404.0</ele><time>2026-05-01T15:40:48.001Z</time></trkpt><trkpt lat="43.246554228010595" lon="-2.6227309865848127"><ele>404.0</ele><time>2026-05-01T15:40:49.001Z</time></trkpt><trkpt lat="43.2466990741881" lon="-2.622916914594632"><ele>400.66666666666663</ele><time>2026-05-01T15:40:50.001Z</time></trkpt><trkpt lat="43.246850448519695" lon="-2.6231147009863793"><ele>397.33333333333337</ele><time>2026-05-01T15:40:51.001Z</time></trkpt><trkpt lat="43.24700315996457" lon="-2.6233414210481576"><ele>394.0</ele><time>2026-05-01T15:40:52.001Z</time></trkpt><trkpt lat="43.247131575693764" lon="-2.623594625129855"><ele>386.6666666666667</ele><time>2026-05-01T15:40:53.001Z</time></trkpt><trkpt lat="43.24725210409746" lon="-2.6238435792016928"><ele>379.33333333333337</ele><time>2026-05-01T15:40:54.001Z</time></trkpt><trkpt lat="43.24736351337052" lon="-2.624068176184243"><ele>372.0</ele><time>2026-05-01T15:40:55.001Z</time></trkpt><trkpt lat="43.24748990422882" lon="-2.624282382533203"><ele>380.66666666666663</ele><time>2026-05-01T15:40:56.001Z</time></trkpt><trkpt lat="43.24761215796683" lon="-2.6245028131926835"><ele>389.3333333333333</ele><time>2026-05-01T15:40:57.001Z</time></trkpt><trkpt lat="43.247744954392154" lon="-2.624726714819225"><ele>398.0</ele><time>2026-05-01T15:40:58.001Z</time></trkpt><trkpt lat="43.24786261008825" lon="-2.624966874998439"><ele>398.0</ele><time>2026-05-01T15:40:59.001Z</time></trkpt><trkpt lat="43.247973067516405" lon="-2.6251983485791426"><ele>398.0</ele><time>2026-05-01T15:41:00.001Z</time></trkpt><trkpt lat="43.24807155699443" lon="-2.625436366616609"><ele>398.0</ele><time>2026-05-01T15:41:01.001Z</time></trkpt><trkpt lat="43.248163968898304" lon="-2.6256481038562556"><ele>400.66666666666663</ele><time>2026-05-01T15:41:02.001Z</time></trkpt><trkpt lat="43.24824733150466" lon="-2.6258372952385"><ele>403.33333333333337</ele><time>2026-05-01T15:41:03.001Z</time></trkpt><trkpt lat="43.24832995166651" lon="-2.626012319493358"><ele>406.0</ele><time>2026-05-01T15:41:04.001Z</time></trkpt><trkpt lat="43.248420431744826" lon="-2.626183329261407"><ele>406.0</ele><time>2026-05-01T15:41:05.001Z</time></trkpt><trkpt lat="43.24851791893309" lon="-2.6263277751512977"><ele>406.0</ele><time>2026-05-01T15:41:06.001Z</time></trkpt><trkpt lat="43.24862668348094" lon="-2.626409556631703"><ele>406.0</ele><time>2026-05-01T15:41:07.001Z</time></trkpt><trkpt lat="43.24874957553501" lon="-2.6264459790334653"><ele>406.0</ele><time>2026-05-01T15:41:08.001Z</time></trkpt><trkpt lat="43.24889367919713" lon="-2.626443047640186"><ele>409.20000000000005</ele><time>2026-05-01T15:41:09.001Z</time></trkpt><trkpt lat="43.24903339693552" lon="-2.626389187343821"><ele>412.40000000000003</ele><time>2026-05-01T15:41:10.001Z</time></trkpt><trkpt lat="43.24913673434014" lon="-2.626321675010857"><ele>415.6</ele><time>2026-05-01T15:41:11.001Z</time></trkpt><trkpt lat="43.24921379832496" lon="-2.6262807565201727"><ele>418.8</ele><time>2026-05-01T15:41:12.001Z</time></trkpt><trkpt lat="43.24929335882716" lon="-2.626238738883602"><ele>422.0</ele><time>2026-05-01T15:41:13.001Z</time></trkpt><trkpt lat="43.249352824409435" lon="-2.626210317904996"><ele>422.0</ele><time>2026-05-01T15:41:14.001Z</time></trkpt><trkpt lat="43.249436453067" lon="-2.626188041229852"><ele>422.0</ele><time>2026-05-01T15:41:16.001Z</time></trkpt><trkpt lat="43.249511537161055" lon="-2.626173449601473"><ele>422.0</ele><time>2026-05-01T15:42:19Z</time></trkpt><trkpt lat="43.249660348372515" lon="-2.6261507310033605"><ele>422.0</ele><time>2026-05-01T15:42:21Z</time></trkpt><trkpt lat="43.249750328007025" lon="-2.6261046593435355"><ele>422.0</ele><time>2026-05-01T15:42:22Z</time></trkpt><trkpt lat="43.24985293808046" lon="-2.626029292831022"><ele>422.5</ele><time>2026-05-01T15:42:23Z</time></trkpt><trkpt lat="43.24994401698193" lon="-2.625957333965414"><ele>423.0</ele><time>2026-05-01T15:42:24Z</time></trkpt><trkpt lat="43.25000042548325" lon="-2.625828188256804"><ele>423.5</ele><time>2026-05-01T15:42:25Z</time></trkpt><trkpt lat="43.25009678208495" lon="-2.6257012819798136"><ele>424.0</ele><time>2026-05-01T15:42:26Z</time></trkpt><trkpt lat="43.25017561976647" lon="-2.625564960954312"><ele>424.0</ele><time>2026-05-01T15:42:27.001Z</time></trkpt><trkpt lat="43.25024168503603" lon="-2.625406192811583"><ele>424.0</ele><time>2026-05-01T15:42:28.001Z</time></trkpt><trkpt lat="43.2502874480143" lon="-2.625245860398431"><ele>424.0</ele><time>2026-05-01T15:42:29.001Z</time></trkpt><trkpt lat="43.25031372317709" lon="-2.625085657760329"><ele>424.0</ele><time>2026-05-01T15:42:30.001Z</time></trkpt><trkpt lat="43.25032515597821" lon="-2.624938824946749"><ele>424.75</ele><time>2026-05-01T15:42:31.001Z</time></trkpt><trkpt lat="43.25032012487356" lon="-2.624804908237877"><ele>425.5</ele><time>2026-05-01T15:42:32.001Z</time></trkpt><trkpt lat="43.25025476332616" lon="-2.6246528971286143"><ele>426.25</ele><time>2026-05-01T15:42:33.001Z</time></trkpt><trkpt lat="43.250148643625515" lon="-2.6245049898428396"><ele>427.0</ele><time>2026-05-01T15:42:34.001Z</time></trkpt><trkpt lat="43.250049390669254" lon="-2.6243746427946335"><ele>427.0</ele><time>2026-05-01T15:42:35.001Z</time></trkpt><trkpt lat="43.2499617340144" lon="-2.624237872700469"><ele>427.0</ele><time>2026-05-01T15:42:36.001Z</time></trkpt><trkpt lat="43.249889671912" lon="-2.624102465607019"><ele>427.0</ele><time>2026-05-01T15:42:37.001Z</time></trkpt><trkpt lat="43.24985456018732" lon="-2.623967034829849"><ele>427.0</ele><time>2026-05-01T15:42:38.001Z</time></trkpt><trkpt lat="43.249850500022156" lon="-2.623817365425221"><ele>424.33333333333337</ele><time>2026-05-01T15:42:39.001Z</time></trkpt><trkpt lat="43.24988752334604" lon="-2.623619759942712"><ele>421.66666666666663</ele><time>2026-05-01T15:42:40.001Z</time></trkpt><trkpt lat="43.249922271364966" lon="-2.623374883686204"><ele>419.0</ele><time>2026-05-01T15:42:41.001Z</time></trkpt><trkpt lat="43.249946085642" lon="-2.6231260041711075"><ele>419.0</ele><time>2026-05-01T15:42:42.001Z</time></trkpt><trkpt lat="43.2499682932546" lon="-2.622876977097403"><ele>419.0</ele><time>2026-05-01T15:42:43.001Z</time></trkpt><trkpt lat="43.249989587031635" lon="-2.6226005784156894"><ele>419.0</ele><time>2026-05-01T15:42:44.001Z</time></trkpt><trkpt lat="43.249976361320286" lon="-2.622318398777008"><ele>418.0</ele><time>2026-05-01T15:42:45.001Z</time></trkpt><trkpt lat="43.24998502090479" lon="-2.6220765752989914"><ele>417.0</ele><time>2026-05-01T15:42:46.001Z</time></trkpt><trkpt lat="43.24999993934848" lon="-2.6218410880617062"><ele>416.0</ele><time>2026-05-01T15:42:47.001Z</time></trkpt><trkpt lat="43.25001594306523" lon="-2.621631942436226"><ele>415.66666666666663</ele><time>2026-05-01T15:42:48.001Z</time></trkpt><trkpt lat="43.250045488991454" lon="-2.6214138061017627"><ele>415.33333333333337</ele><time>2026-05-01T15:42:49.001Z</time></trkpt><trkpt lat="43.250118985902354" lon="-2.6211877592651938"><ele>415.0</ele><time>2026-05-01T15:42:50.001Z</time></trkpt><trkpt lat="43.25017094147967" lon="-2.6209749242376303"><ele>415.0</ele><time>2026-05-01T15:42:51.001Z</time></trkpt><trkpt lat="43.25022588101468" lon="-2.6207796428868653"><ele>415.0</ele><time>2026-05-01T15:42:52.001Z</time></trkpt><trkpt lat="43.25024623620363" lon="-2.620557363848377"><ele>415.0</ele><time>2026-05-01T15:42:53.001Z</time></trkpt><trkpt lat="43.250258141785544" lon="-2.6203035826187873"><ele>415.0</ele><time>2026-05-01T15:42:54.001Z</time></trkpt><trkpt lat="43.25026536050935" lon="-2.6200522225506457"><ele>415.0</ele><time>2026-05-01T15:42:55.001Z</time></trkpt><trkpt lat="43.2502691568132" lon="-2.619837150123409"><ele>415.0</ele><time>2026-05-01T15:42:56.001Z</time></trkpt><trkpt lat="43.250252305295504" lon="-2.6196434971601854"><ele>413.6666666666667</ele><time>2026-05-01T15:42:57.001Z</time></trkpt><trkpt lat="43.25021692844198" lon="-2.6194190598384215"><ele>412.33333333333337</ele><time>2026-05-01T15:42:58.001Z</time></trkpt><trkpt lat="43.25014288353283" lon="-2.6191859999045954"><ele>411.0</ele><time>2026-05-01T15:42:59.001Z</time></trkpt><trkpt lat="43.250074333747904" lon="-2.6189545435871353"><ele>411.0</ele><time>2026-05-01T15:43:00.001Z</time></trkpt><trkpt lat="43.25001996314213" lon="-2.618752609662067"><ele>411.0</ele><time>2026-05-01T15:43:01.001Z</time></trkpt><trkpt lat="43.24997202153876" lon="-2.6185824931247943"><ele>411.0</ele><time>2026-05-01T15:43:02.001Z</time></trkpt><trkpt lat="43.24995526080339" lon="-2.6184271117620432"><ele>411.0</ele><time>2026-05-01T15:43:03.001Z</time></trkpt><trkpt lat="43.24998661485964" lon="-2.6182482238174725"><ele>409.66666666666663</ele><time>2026-05-01T15:43:04.001Z</time></trkpt><trkpt lat="43.25005906808053" lon="-2.6180495321001587"><ele>408.3333333333333</ele><time>2026-05-01T15:43:05.001Z</time></trkpt><trkpt lat="43.25012874320926" lon="-2.617827086153394"><ele>407.0</ele><time>2026-05-01T15:43:06.001Z</time></trkpt><trkpt lat="43.25016817834748" lon="-2.6175890136032667"><ele>407.0</ele><time>2026-05-01T15:43:07.001Z</time></trkpt><trkpt lat="43.2502002260241" lon="-2.617365280587788"><ele>407.0</ele><time>2026-05-01T15:43:08.001Z</time></trkpt><trkpt lat="43.2502371309146" lon="-2.6171885948146847"><ele>407.0</ele><time>2026-05-01T15:43:09.001Z</time></trkpt><trkpt lat="43.25029798949688" lon="-2.6170554452075327"><ele>407.0</ele><time>2026-05-01T15:43:10.001Z</time></trkpt><trkpt lat="43.25039688345015" lon="-2.616944180183087"><ele>409.0</ele><time>2026-05-01T15:43:11.001Z</time></trkpt><trkpt lat="43.25054201606632" lon="-2.61687895007676"><ele>411.0</ele><time>2026-05-01T15:43:12.001Z</time></trkpt><trkpt lat="43.250703069173085" lon="-2.6168413691632226"><ele>413.0</ele><time>2026-05-01T15:43:13.001Z</time></trkpt><trkpt lat="43.25085450061794" lon="-2.6167543432122913"><ele>413.0</ele><time>2026-05-01T15:43:14.001Z</time></trkpt><trkpt lat="43.25102082023216" lon="-2.61665851133462"><ele>413.0</ele><time>2026-05-01T15:43:15.001Z</time></trkpt><trkpt lat="43.251179517491074" lon="-2.6165265303822967"><ele>413.0</ele><time>2026-05-01T15:43:16.001Z</time></trkpt><trkpt lat="43.251338398650695" lon="-2.616357336109592"><ele>412.66666666666663</ele><time>2026-05-01T15:43:17.001Z</time></trkpt><trkpt lat="43.25149185053562" lon="-2.6161751830243003"><ele>412.33333333333337</ele><time>2026-05-01T15:43:18.001Z</time></trkpt><trkpt lat="43.251651232467935" lon="-2.615981212096932"><ele>412.0</ele><time>2026-05-01T15:43:19.001Z</time></trkpt><trkpt lat="43.25181306383792" lon="-2.615810471387668"><ele>412.0</ele><time>2026-05-01T15:43:20.001Z</time></trkpt><trkpt lat="43.251971962344946" lon="-2.6156581961939382"><ele>412.0</ele><time>2026-05-01T15:43:21.001Z</time></trkpt><trkpt lat="43.25213203252839" lon="-2.615511268652286"><ele>412.0</ele><time>2026-05-01T15:43:22.001Z</time></trkpt><trkpt lat="43.2522838834458" lon="-2.6153775799799335"><ele>411.25</ele><time>2026-05-01T15:43:23.001Z</time></trkpt><trkpt lat="43.252425904465916" lon="-2.6152663547037642"><ele>410.5</ele><time>2026-05-01T15:43:24.001Z</time></trkpt><trkpt lat="43.25254832066472" lon="-2.615172015609864"><ele>409.75</ele><time>2026-05-01T15:43:25.001Z</time></trkpt><trkpt lat="43.25265886747782" lon="-2.615076969900629"><ele>409.0</ele><time>2026-05-01T15:43:26.001Z</time></trkpt><trkpt lat="43.252770883693444" lon="-2.614961700763542"><ele>409.0</ele><time>2026-05-01T15:43:27.001Z</time></trkpt><trkpt lat="43.252878465435714" lon="-2.614830270264052"><ele>409.0</ele><time>2026-05-01T15:43:28.001Z</time></trkpt><trkpt lat="43.25297069858051" lon="-2.614671602895567"><ele>409.0</ele><time>2026-05-01T15:43:29.002Z</time></trkpt><trkpt lat="43.25301796464005" lon="-2.6144967557630783"><ele>409.0</ele><time>2026-05-01T15:43:30.002Z</time></trkpt><trkpt lat="43.25307743501721" lon="-2.614311654214663"><ele>407.6666666666667</ele><time>2026-05-01T15:43:31.002Z</time></trkpt><trkpt lat="43.25310529311504" lon="-2.6141093619688776"><ele>406.33333333333337</ele><time>2026-05-01T15:43:32.002Z</time></trkpt><trkpt lat="43.253171120484495" lon="-2.613913082889876"><ele>405.0</ele><time>2026-05-01T15:43:33.002Z</time></trkpt><trkpt lat="43.253292355864026" lon="-2.613746419819756"><ele>401.0</ele><time>2026-05-01T15:43:34.002Z</time></trkpt><trkpt lat="43.253436228214085" lon="-2.6135810713174257"><ele>397.0</ele><time>2026-05-01T15:43:35.002Z</time></trkpt><trkpt lat="43.25360848492663" lon="-2.6134459776959544"><ele>393.0</ele><time>2026-05-01T15:43:36.002Z</time></trkpt><trkpt lat="43.25379220000204" lon="-2.6133131063903283"><ele>393.0</ele><time>2026-05-01T15:43:37.002Z</time></trkpt><trkpt lat="43.25396459824136" lon="-2.613164055488536"><ele>393.0</ele><time>2026-05-01T15:43:38.002Z</time></trkpt><trkpt lat="43.25411404438661" lon="-2.612966447052397"><ele>393.0</ele><time>2026-05-01T15:43:39.002Z</time></trkpt><trkpt lat="43.25427326816063" lon="-2.612790786887178"><ele>393.0</ele><time>2026-05-01T15:43:40.002Z</time></trkpt><trkpt lat="43.25442454207743" lon="-2.6125966734167756"><ele>393.0</ele><time>2026-05-01T15:43:41.002Z</time></trkpt><trkpt lat="43.25459199569175" lon="-2.6124197894853523"><ele>393.0</ele><time>2026-05-01T15:43:42.002Z</time></trkpt><trkpt lat="43.25477618389187" lon="-2.6122455462113243"><ele>394.5</ele><time>2026-05-01T15:43:43Z</time></trkpt><trkpt lat="43.25496789986306" lon="-2.61207901035941"><ele>396.0</ele><time>2026-05-01T15:43:44Z</time></trkpt><trkpt lat="43.25516527792374" lon="-2.6119159192395456"><ele>396.0</ele><time>2026-05-01T15:43:45Z</time></trkpt><trkpt lat="43.255346610025654" lon="-2.611769964948965"><ele>396.0</ele><time>2026-05-01T15:43:46Z</time></trkpt><trkpt lat="43.25550572386529" lon="-2.611628425286758"><ele>396.0</ele><time>2026-05-01T15:43:47Z</time></trkpt><trkpt lat="43.255661656872" lon="-2.6114992865143476"><ele>390.6666666666667</ele><time>2026-05-01T15:43:48Z</time></trkpt><trkpt lat="43.255818935810794" lon="-2.611381384086532"><ele>385.33333333333337</ele><time>2026-05-01T15:43:49Z</time></trkpt><trkpt lat="43.255972285872794" lon="-2.6112930013577174"><ele>380.0</ele><time>2026-05-01T15:43:50Z</time></trkpt><trkpt lat="43.25612978349654" lon="-2.6112152001242337"><ele>384.33333333333337</ele><time>2026-05-01T15:43:51Z</time></trkpt><trkpt lat="43.25627411185649" lon="-2.6111131394987157"><ele>388.6666666666667</ele><time>2026-05-01T15:43:52Z</time></trkpt><trkpt lat="43.25638336916576" lon="-2.610943041255757"><ele>393.0</ele><time>2026-05-01T15:43:53Z</time></trkpt><trkpt lat="43.256488394883384" lon="-2.6107531767493692"><ele>390.33333333333337</ele><time>2026-05-01T15:43:54Z</time></trkpt><trkpt lat="43.25661557441554" lon="-2.610527126118275"><ele>387.6666666666667</ele><time>2026-05-01T15:43:55Z</time></trkpt><trkpt lat="43.256742807041356" lon="-2.6103039995172526"><ele>385.0</ele><time>2026-05-01T15:43:56Z</time></trkpt><trkpt lat="43.256834707580346" lon="-2.6101485839211254"><ele>385.0</ele><time>2026-05-01T15:43:57Z</time></trkpt><trkpt lat="43.25692162463136" lon="-2.6099968003928167"><ele>385.0</ele><time>2026-05-01T15:43:58Z</time></trkpt><trkpt lat="43.25699601746926" lon="-2.609851007743433"><ele>385.0</ele><time>2026-05-01T15:43:59Z</time></trkpt><trkpt lat="43.25705699175699" lon="-2.609685891216598"><ele>385.0</ele><time>2026-05-01T15:44:00Z</time></trkpt><trkpt lat="43.25710866791222" lon="-2.609506700685032"><ele>386.5</ele><time>2026-05-01T15:44:01Z</time></trkpt><trkpt lat="43.25713000972014" lon="-2.6093007265070787"><ele>388.0</ele><time>2026-05-01T15:44:02Z</time></trkpt><trkpt lat="43.25715932629713" lon="-2.6091131625863375"><ele>389.5</ele><time>2026-05-01T15:44:03Z</time></trkpt><trkpt lat="43.25712961743912" lon="-2.608968589164647"><ele>391.0</ele><time>2026-05-01T15:44:04Z</time></trkpt><trkpt lat="43.257065021130295" lon="-2.6088061084328866"><ele>391.0</ele><time>2026-05-01T15:44:05Z</time></trkpt><trkpt lat="43.256964880272264" lon="-2.6086917180076536"><ele>391.0</ele><time>2026-05-01T15:44:06Z</time></trkpt><trkpt lat="43.256885382283386" lon="-2.608597184818726"><ele>391.0</ele><time>2026-05-01T15:44:07Z</time></trkpt><trkpt lat="43.25684005108159" lon="-2.6084888175837837"><ele>391.0</ele><time>2026-05-01T15:44:08Z</time></trkpt><trkpt lat="43.25683036484868" lon="-2.6083806312539752"><ele>391.0</ele><time>2026-05-01T15:44:09Z</time></trkpt><trkpt lat="43.25686537055587" lon="-2.608166107640885"><ele>388.0</ele><time>2026-05-01T15:44:10Z</time></trkpt><trkpt lat="43.256919117542225" lon="-2.6079427524665255"><ele>385.0</ele><time>2026-05-01T15:44:11Z</time></trkpt><trkpt lat="43.25703371627457" lon="-2.6076933595556717"><ele>382.0</ele><time>2026-05-01T15:44:12Z</time></trkpt><trkpt lat="43.25720898518333" lon="-2.6074739211313513"><ele>370.3333333333333</ele><time>2026-05-01T15:44:13Z</time></trkpt><trkpt lat="43.2573526234199" lon="-2.6072949079987047"><ele>358.6666666666667</ele><time>2026-05-01T15:44:14Z</time></trkpt><trkpt lat="43.25751866020899" lon="-2.6071374011242594"><ele>347.0</ele><time>2026-05-01T15:44:15Z</time></trkpt><trkpt lat="43.25762559658703" lon="-2.606949745700279"><ele>347.0</ele><time>2026-05-01T15:44:16Z</time></trkpt><trkpt lat="43.25773297416704" lon="-2.6067520607902286"><ele>347.0</ele><time>2026-05-01T15:44:17Z</time></trkpt><trkpt lat="43.257833895952736" lon="-2.60655309970622"><ele>347.0</ele><time>2026-05-01T15:44:18Z</time></trkpt><trkpt lat="43.25791632895132" lon="-2.606371311671499"><ele>347.0</ele><time>2026-05-01T15:44:19Z</time></trkpt><trkpt lat="43.25798851771229" lon="-2.6061743207549437"><ele>347.0</ele><time>2026-05-01T15:44:20Z</time></trkpt><trkpt lat="43.25804317277449" lon="-2.605962632263052"><ele>347.0</ele><time>2026-05-01T15:44:21Z</time></trkpt><trkpt lat="43.258045835877425" lon="-2.6057753607780043"><ele>347.0</ele><time>2026-05-01T15:44:22Z</time></trkpt><trkpt lat="43.258044420931064" lon="-2.605595440396731"><ele>347.0</ele><time>2026-05-01T15:44:23Z</time></trkpt><trkpt lat="43.25805883365743" lon="-2.6054644599596886"><ele>347.0</ele><time>2026-05-01T15:44:24.001Z</time></trkpt><trkpt lat="43.25808644038741" lon="-2.605326641108801"><ele>347.0</ele><time>2026-05-01T15:44:25.001Z</time></trkpt><trkpt lat="43.25812078524686" lon="-2.6052246601150313"><ele>347.0</ele><time>2026-05-01T15:44:26.001Z</time></trkpt><trkpt lat="43.25817357669681" lon="-2.605146749860735"><ele>343.0</ele><time>2026-05-01T15:44:27.001Z</time></trkpt><trkpt lat="43.25827568864066" lon="-2.605123899402654"><ele>339.0</ele><time>2026-05-01T15:44:28.001Z</time></trkpt><trkpt lat="43.25835084778909" lon="-2.605181893842239"><ele>335.0</ele><time>2026-05-01T15:44:29.001Z</time></trkpt><trkpt lat="43.258391096831595" lon="-2.6053178901441045"><ele>331.0</ele><time>2026-05-01T15:44:30.001Z</time></trkpt><trkpt lat="43.258414612702325" lon="-2.6054919388363347"><ele>327.0</ele><time>2026-05-01T15:44:31.001Z</time></trkpt><trkpt lat="43.25841599336279" lon="-2.6056920355199455"><ele>327.0</ele><time>2026-05-01T15:44:32.001Z</time></trkpt><trkpt lat="43.25840437512058" lon="-2.605875242855913"><ele>327.0</ele><time>2026-05-01T15:44:33.001Z</time></trkpt><trkpt lat="43.25837803786208" lon="-2.6060336325241535"><ele>327.0</ele><time>2026-05-01T15:44:34.001Z</time></trkpt><trkpt lat="43.25833216138385" lon="-2.6061715788171904"><ele>327.0</ele><time>2026-05-01T15:44:35.001Z</time></trkpt><trkpt lat="43.25826977820751" lon="-2.606275295372151"><ele>326.1666666666667</ele><time>2026-05-01T15:44:36.001Z</time></trkpt><trkpt lat="43.25824010098877" lon="-2.6063796236579315"><ele>325.3333333333333</ele><time>2026-05-01T15:44:37.001Z</time></trkpt><trkpt lat="43.25821165436809" lon="-2.6064695915445704"><ele>324.5</ele><time>2026-05-01T15:44:38.001Z</time></trkpt><trkpt lat="43.25821550993649" lon="-2.606622091423401"><ele>323.66666666666663</ele><time>2026-05-01T15:44:40.001Z</time></trkpt><trkpt lat="43.2582826106581" lon="-2.60666172031884"><ele>322.8333333333333</ele><time>2026-05-01T15:44:41.001Z</time></trkpt><trkpt lat="43.25837318035018" lon="-2.606622582120289"><ele>322.0</ele><time>2026-05-01T15:44:42.001Z</time></trkpt><trkpt lat="43.258433161112535" lon="-2.6064876690541796"><ele>322.0</ele><time>2026-05-01T15:44:43.001Z</time></trkpt><trkpt lat="43.25852303930691" lon="-2.6063141985297595"><ele>322.0</ele><time>2026-05-01T15:44:44.001Z</time></trkpt><trkpt lat="43.2586074789705" lon="-2.6061246476713853"><ele>322.0</ele><time>2026-05-01T15:44:45.001Z</time></trkpt><trkpt lat="43.258717314767665" lon="-2.605915336779037"><ele>323.66666666666663</ele><time>2026-05-01T15:44:46.001Z</time></trkpt><trkpt lat="43.25880048262884" lon="-2.605689781027241"><ele>325.3333333333333</ele><time>2026-05-01T15:44:47.001Z</time></trkpt><trkpt lat="43.258895407808716" lon="-2.605502966919223"><ele>327.0</ele><time>2026-05-01T15:44:48.001Z</time></trkpt><trkpt lat="43.25897094462289" lon="-2.6053078350191172"><ele>323.5</ele><time>2026-05-01T15:44:49.001Z</time></trkpt><trkpt lat="43.25904002499484" lon="-2.6051368819066076"><ele>320.0</ele><time>2026-05-01T15:44:50.001Z</time></trkpt><trkpt lat="43.25909987321093" lon="-2.6049822105732114"><ele>316.5</ele><time>2026-05-01T15:44:51.001Z</time></trkpt><trkpt lat="43.259133100799914" lon="-2.6048298186195464"><ele>313.0</ele><time>2026-05-01T15:44:52.001Z</time></trkpt><trkpt lat="43.25914416676247" lon="-2.604686943210931"><ele>313.0</ele><time>2026-05-01T15:44:53.001Z</time></trkpt><trkpt lat="43.259122460625086" lon="-2.6045386031350373"><ele>313.0</ele><time>2026-05-01T15:44:54.001Z</time></trkpt><trkpt lat="43.25902432763371" lon="-2.604427844654796"><ele>313.0</ele><time>2026-05-01T15:44:55.001Z</time></trkpt><trkpt lat="43.258901857096106" lon="-2.6043837313566436"><ele>313.0</ele><time>2026-05-01T15:44:56.001Z</time></trkpt><trkpt lat="43.25878704541001" lon="-2.6043389585722516"><ele>312.8</ele><time>2026-05-01T15:44:57.001Z</time></trkpt><trkpt lat="43.2586764850669" lon="-2.6043070334701355"><ele>312.6</ele><time>2026-05-01T15:44:58.001Z</time></trkpt><trkpt lat="43.258591607373006" lon="-2.6042431546899167"><ele>312.4</ele><time>2026-05-01T15:44:59.001Z</time></trkpt><trkpt lat="43.25854509096149" lon="-2.604146625488945"><ele>312.2</ele><time>2026-05-01T15:45:00.001Z</time></trkpt><trkpt lat="43.25853797132491" lon="-2.6040158108532725"><ele>312.0</ele><time>2026-05-01T15:45:01.001Z</time></trkpt><trkpt lat="43.25858310367335" lon="-2.603868359489858"><ele>312.0</ele><time>2026-05-01T15:45:02.001Z</time></trkpt><trkpt lat="43.25867504318262" lon="-2.6037055916931333"><ele>312.0</ele><time>2026-05-01T15:45:03.001Z</time></trkpt><trkpt lat="43.2587747597178" lon="-2.603526840130693"><ele>312.0</ele><time>2026-05-01T15:45:04.001Z</time></trkpt><trkpt lat="43.25887081526779" lon="-2.603368720485602"><ele>312.0</ele><time>2026-05-01T15:45:05.001Z</time></trkpt><trkpt lat="43.25894470829154" lon="-2.603226099706235"><ele>312.0</ele><time>2026-05-01T15:45:06.001Z</time></trkpt><trkpt lat="43.25897587810467" lon="-2.603073929600103"><ele>312.0</ele><time>2026-05-01T15:45:07.001Z</time></trkpt><trkpt lat="43.2589768647825" lon="-2.602894623703551"><ele>312.0</ele><time>2026-05-01T15:45:08.001Z</time></trkpt><trkpt lat="43.25892170151065" lon="-2.602718327799694"><ele>311.0</ele><time>2026-05-01T15:45:09.001Z</time></trkpt><trkpt lat="43.258809169158084" lon="-2.602599093513103"><ele>310.0</ele><time>2026-05-01T15:45:10.001Z</time></trkpt><trkpt lat="43.25871191882154" lon="-2.6024943412316675"><ele>309.0</ele><time>2026-05-01T15:45:11.001Z</time></trkpt><trkpt lat="43.25862682389456" lon="-2.602417454057673"><ele>308.0</ele><time>2026-05-01T15:45:12.001Z</time></trkpt><trkpt lat="43.2585940696062" lon="-2.6023144223880386"><ele>307.0</ele><time>2026-05-01T15:45:13.001Z</time></trkpt><trkpt lat="43.25861698915672" lon="-2.6021779629677284"><ele>307.0</ele><time>2026-05-01T15:45:14.001Z</time></trkpt><trkpt lat="43.2586582481107" lon="-2.6020064612897973"><ele>307.0</ele><time>2026-05-01T15:45:15.001Z</time></trkpt><trkpt lat="43.25875604821643" lon="-2.6018555084411794"><ele>307.0</ele><time>2026-05-01T15:45:16.001Z</time></trkpt><trkpt lat="43.25890680557384" lon="-2.6017597912819226"><ele>307.0</ele><time>2026-05-01T15:45:17.001Z</time></trkpt><trkpt lat="43.25907012632304" lon="-2.601650924137664"><ele>301.0</ele><time>2026-05-01T15:45:18.001Z</time></trkpt><trkpt lat="43.25924378177637" lon="-2.6015567082167377"><ele>295.0</ele><time>2026-05-01T15:45:19.001Z</time></trkpt><trkpt lat="43.2594346438384" lon="-2.601461986714454"><ele>289.0</ele><time>2026-05-01T15:45:20.001Z</time></trkpt><trkpt lat="43.25960306992499" lon="-2.6014048318126406"><ele>289.0</ele><time>2026-05-01T15:45:21.001Z</time></trkpt><trkpt lat="43.25973354405701" lon="-2.601372896866336"><ele>289.0</ele><time>2026-05-01T15:45:22.001Z</time></trkpt><trkpt lat="43.25983988456209" lon="-2.6013300473134575"><ele>289.0</ele><time>2026-05-01T15:45:23.001Z</time></trkpt><trkpt lat="43.25994403926585" lon="-2.601237668388547"><ele>289.0</ele><time>2026-05-01T15:45:24.001Z</time></trkpt><trkpt lat="43.26003209653146" lon="-2.6011312979651153"><ele>286.25</ele><time>2026-05-01T15:45:25.001Z</time></trkpt><trkpt lat="43.26005791615452" lon="-2.600992259970679"><ele>283.5</ele><time>2026-05-01T15:45:26.001Z</time></trkpt><trkpt lat="43.2600637316923" lon="-2.600808378021365"><ele>280.75</ele><time>2026-05-01T15:45:27.002Z</time></trkpt><trkpt lat="43.26004450735274" lon="-2.6006337137571234"><ele>278.0</ele><time>2026-05-01T15:45:28.002Z</time></trkpt><trkpt lat="43.25997584352666" lon="-2.600499272240362"><ele>278.0</ele><time>2026-05-01T15:45:29.002Z</time></trkpt><trkpt lat="43.25988439400571" lon="-2.600372670107511"><ele>278.0</ele><time>2026-05-01T15:45:30.002Z</time></trkpt><trkpt lat="43.25981222171263" lon="-2.600287385103865"><ele>278.0</ele><time>2026-05-01T15:45:31.002Z</time></trkpt><trkpt lat="43.25978659373498" lon="-2.60018852979135"><ele>278.0</ele><time>2026-05-01T15:45:32.002Z</time></trkpt><trkpt lat="43.25976724870394" lon="-2.6000700705088606"><ele>278.0</ele><time>2026-05-01T15:45:33.002Z</time></trkpt><trkpt lat="43.25981867251795" lon="-2.5999182603994226"><ele>278.0</ele><time>2026-05-01T15:45:34.002Z</time></trkpt><trkpt lat="43.25996464013883" lon="-2.5998199214529985"><ele>278.0</ele><time>2026-05-01T15:45:35.002Z</time></trkpt><trkpt lat="43.26012664638444" lon="-2.599705599423645"><ele>278.0</ele><time>2026-05-01T15:45:36.002Z</time></trkpt><trkpt lat="43.26027822429589" lon="-2.599587442422187"><ele>278.0</ele><time>2026-05-01T15:45:37.002Z</time></trkpt><trkpt lat="43.26042133646561" lon="-2.599536689492011"><ele>278.0</ele><time>2026-05-01T15:45:38.002Z</time></trkpt><trkpt lat="43.260537554117704" lon="-2.599433482226732"><ele>278.0</ele><time>2026-05-01T15:45:39.002Z</time></trkpt><trkpt lat="43.26063220557009" lon="-2.5993170313320633"><ele>278.0</ele><time>2026-05-01T15:45:40.002Z</time></trkpt><trkpt lat="43.26070722042466" lon="-2.5991737217592674"><ele>273.75</ele><time>2026-05-01T15:45:41.002Z</time></trkpt><trkpt lat="43.26077655343256" lon="-2.599021164407044"><ele>269.5</ele><time>2026-05-01T15:45:42.002Z</time></trkpt><trkpt lat="43.26080536166604" lon="-2.5988346208714"><ele>265.25</ele><time>2026-05-01T15:45:43.002Z</time></trkpt><trkpt lat="43.26082698608051" lon="-2.598642266271665"><ele>261.0</ele><time>2026-05-01T15:45:44.002Z</time></trkpt><trkpt lat="43.26081379223441" lon="-2.598454395855785"><ele>261.25</ele><time>2026-05-01T15:45:45.002Z</time></trkpt><trkpt lat="43.26079032816424" lon="-2.5982645073414083"><ele>261.5</ele><time>2026-05-01T15:45:46.002Z</time></trkpt><trkpt lat="43.260764948101794" lon="-2.5980627397526534"><ele>261.75</ele><time>2026-05-01T15:45:47.002Z</time></trkpt><trkpt lat="43.26070272493102" lon="-2.597906680609818"><ele>262.0</ele><time>2026-05-01T15:45:48.002Z</time></trkpt><trkpt lat="43.26060990804495" lon="-2.5978107920679303"><ele>262.0</ele><time>2026-05-01T15:45:49Z</time></trkpt><trkpt lat="43.26049313823685" lon="-2.597733817583098"><ele>262.0</ele><time>2026-05-01T15:45:50Z</time></trkpt><trkpt lat="43.260350898204265" lon="-2.5976645455255127"><ele>262.0</ele><time>2026-05-01T15:45:51Z</time></trkpt><trkpt lat="43.26023475240775" lon="-2.597618025750549"><ele>262.0</ele><time>2026-05-01T15:45:52Z</time></trkpt><trkpt lat="43.26013268719392" lon="-2.597554215357259"><ele>262.0</ele><time>2026-05-01T15:45:53Z</time></trkpt><trkpt lat="43.260065283317324" lon="-2.5974848171301934"><ele>262.0</ele><time>2026-05-01T15:45:54Z</time></trkpt><trkpt lat="43.260024865490806" lon="-2.5974054194079352"><ele>262.0</ele><time>2026-05-01T15:45:55Z</time></trkpt><trkpt lat="43.25999234650729" lon="-2.5973110024706796"><ele>262.0</ele><time>2026-05-01T15:45:56Z</time></trkpt><trkpt lat="43.26003147568752" lon="-2.597166709290112"><ele>262.0</ele><time>2026-05-01T15:45:57Z</time></trkpt><trkpt lat="43.260127845370036" lon="-2.5970282066423493"><ele>264.0</ele><time>2026-05-01T15:45:58Z</time></trkpt><trkpt lat="43.26026192155434" lon="-2.59691551836181"><ele>266.0</ele><time>2026-05-01T15:45:59Z</time></trkpt><trkpt lat="43.26039091082372" lon="-2.596816474955945"><ele>268.0</ele><time>2026-05-01T15:46:00Z</time></trkpt><trkpt lat="43.260505627634366" lon="-2.5967220073521413"><ele>270.0</ele><time>2026-05-01T15:46:01Z</time></trkpt><trkpt lat="43.26060840530492" lon="-2.596625239658885"><ele>263.75</ele><time>2026-05-01T15:46:02Z</time></trkpt><trkpt lat="43.26065373299218" lon="-2.59647199747472"><ele>257.5</ele><time>2026-05-01T15:46:03Z</time></trkpt><trkpt lat="43.26069931201266" lon="-2.5962925491136493"><ele>251.25</ele><time>2026-05-01T15:46:04Z</time></trkpt><trkpt lat="43.26073926449706" lon="-2.5961320188025674"><ele>245.0</ele><time>2026-05-01T15:46:05Z</time></trkpt><trkpt lat="43.260832511496375" lon="-2.596001528604834"><ele>245.0</ele><time>2026-05-01T15:46:06Z</time></trkpt><trkpt lat="43.26097123890498" lon="-2.5958713729308696"><ele>245.0</ele><time>2026-05-01T15:46:07Z</time></trkpt><trkpt lat="43.261132942308166" lon="-2.59572861183594"><ele>245.0</ele><time>2026-05-01T15:46:08Z</time></trkpt><trkpt lat="43.261308640518756" lon="-2.595584249222186"><ele>245.0</ele><time>2026-05-01T15:46:09Z</time></trkpt><trkpt lat="43.261485023024484" lon="-2.5954498839625217"><ele>245.0</ele><time>2026-05-01T15:46:10Z</time></trkpt><trkpt lat="43.26167248207691" lon="-2.595338884273235"><ele>245.0</ele><time>2026-05-01T15:46:11Z</time></trkpt><trkpt lat="43.26184633450479" lon="-2.5952475443701024"><ele>245.0</ele><time>2026-05-01T15:46:12Z</time></trkpt><trkpt lat="43.262001437063454" lon="-2.5951779832977393"><ele>245.0</ele><time>2026-05-01T15:46:13Z</time></trkpt><trkpt lat="43.26213872304795" lon="-2.5951065004705414"><ele>245.0</ele><time>2026-05-01T15:46:14Z</time></trkpt><trkpt lat="43.26227379974226" lon="-2.5950321447905442"><ele>242.25</ele><time>2026-05-01T15:46:15Z</time></trkpt><trkpt lat="43.26239625213876" lon="-2.594937951939893"><ele>239.5</ele><time>2026-05-01T15:46:16Z</time></trkpt><trkpt lat="43.262499061236944" lon="-2.5948224372786552"><ele>236.75</ele><time>2026-05-01T15:46:17Z</time></trkpt><trkpt lat="43.26259700838712" lon="-2.59466345745709"><ele>234.0</ele><time>2026-05-01T15:46:18Z</time></trkpt><trkpt lat="43.26268640864815" lon="-2.5944823953995053"><ele>234.0</ele><time>2026-05-01T15:46:19Z</time></trkpt><trkpt lat="43.262741077593134" lon="-2.5942946838402987"><ele>234.0</ele><time>2026-05-01T15:46:20Z</time></trkpt><trkpt lat="43.2627687048215" lon="-2.5941264688873016"><ele>234.0</ele><time>2026-05-01T15:46:21Z</time></trkpt><trkpt lat="43.26275461358191" lon="-2.5939509739292825"><ele>234.0</ele><time>2026-05-01T15:46:22Z</time></trkpt><trkpt lat="43.262718969547095" lon="-2.5937611763624737"><ele>231.25</ele><time>2026-05-01T15:46:23Z</time></trkpt><trkpt lat="43.26263651877765" lon="-2.593596888703099"><ele>228.5</ele><time>2026-05-01T15:46:24Z</time></trkpt><trkpt lat="43.26255849540019" lon="-2.5934295487695698"><ele>225.75</ele><time>2026-05-01T15:46:25Z</time></trkpt><trkpt lat="43.26247615533229" lon="-2.593267053186106"><ele>223.0</ele><time>2026-05-01T15:46:26Z</time></trkpt><trkpt lat="43.26240498516727" lon="-2.593097689936212"><ele>223.0</ele><time>2026-05-01T15:46:27Z</time></trkpt><trkpt lat="43.26231481465784" lon="-2.592961624000417"><ele>223.0</ele><time>2026-05-01T15:46:28Z</time></trkpt><trkpt lat="43.26225089071737" lon="-2.5928333021323646"><ele>223.0</ele><time>2026-05-01T15:46:29Z</time></trkpt><trkpt lat="43.262196795296525" lon="-2.5927197149948373"><ele>223.0</ele><time>2026-05-01T15:46:30Z</time></trkpt><trkpt lat="43.262153404423806" lon="-2.592625189422476"><ele>223.0</ele><time>2026-05-01T15:46:31Z</time></trkpt><trkpt lat="43.26212876793672" lon="-2.5925355820556146"><ele>223.16666666666666</ele><time>2026-05-01T15:46:32Z</time></trkpt><trkpt lat="43.26208266666688" lon="-2.5923805583200292"><ele>223.33333333333331</ele><time>2026-05-01T15:46:34Z</time></trkpt><trkpt lat="43.262092662389975" lon="-2.5922950927565833"><ele>223.5</ele><time>2026-05-01T15:46:35Z</time></trkpt><trkpt lat="43.262134602897284" lon="-2.592223325078746"><ele>223.66666666666669</ele><time>2026-05-01T15:46:36Z</time></trkpt><trkpt lat="43.26220021371197" lon="-2.5921925459569186"><ele>223.83333333333334</ele><time>2026-05-01T15:46:37Z</time></trkpt><trkpt lat="43.26226834067133" lon="-2.5922280157668016"><ele>224.0</ele><time>2026-05-01T15:46:38.001Z</time></trkpt><trkpt lat="43.26232987129607" lon="-2.592334206060612"><ele>220.79999999999998</ele><time>2026-05-01T15:46:39.001Z</time></trkpt><trkpt lat="43.262377743682755" lon="-2.592445092535606"><ele>217.59999999999997</ele><time>2026-05-01T15:46:40.001Z</time></trkpt><trkpt lat="43.26242996135397" lon="-2.5925392160138236"><ele>214.4</ele><time>2026-05-01T15:46:41.001Z</time></trkpt><trkpt lat="43.26250736483113" lon="-2.592610114725203"><ele>211.2</ele><time>2026-05-01T15:46:42.001Z</time></trkpt><trkpt lat="43.26259432032113" lon="-2.592694686324239"><ele>208.0</ele><time>2026-05-01T15:46:43.001Z</time></trkpt><trkpt lat="43.262686935747254" lon="-2.5927490079920985"><ele>208.0</ele><time>2026-05-01T15:46:44.001Z</time></trkpt><trkpt lat="43.262780881408055" lon="-2.5927950951661414"><ele>208.0</ele><time>2026-05-01T15:46:45.001Z</time></trkpt><trkpt lat="43.26287654555024" lon="-2.5928412798957376"><ele>208.0</ele><time>2026-05-01T15:46:46.001Z</time></trkpt><trkpt lat="43.262972266958656" lon="-2.592887492272803"><ele>208.0</ele><time>2026-05-01T15:46:47.001Z</time></trkpt><trkpt lat="43.26307198662132" lon="-2.592937968281203"><ele>208.0</ele><time>2026-05-01T15:46:48.001Z</time></trkpt><trkpt lat="43.2631742339681" lon="-2.593009569181053"><ele>208.0</ele><time>2026-05-01T15:46:49.001Z</time></trkpt><trkpt lat="43.26326482428166" lon="-2.593049912862937"><ele>208.0</ele><time>2026-05-01T15:46:50.001Z</time></trkpt><trkpt lat="43.26336422964809" lon="-2.5930831229733324"><ele>208.0</ele><time>2026-05-01T15:46:51.001Z</time></trkpt><trkpt lat="43.263469770457455" lon="-2.5930978136550316"><ele>208.0</ele><time>2026-05-01T15:46:52.001Z</time></trkpt><trkpt lat="43.26359198422688" lon="-2.593077165276271"><ele>208.0</ele><time>2026-05-01T15:46:53.001Z</time></trkpt><trkpt lat="43.263711222820305" lon="-2.593030511037393"><ele>207.99999999999997</ele><time>2026-05-01T15:46:54.001Z</time></trkpt><trkpt lat="43.26380640317335" lon="-2.5929990741632025"><ele>208.0</ele><time>2026-05-01T15:46:55.001Z</time></trkpt><trkpt lat="43.26389532363273" lon="-2.592984981442373"><ele>208.0</ele><time>2026-05-01T15:46:56.001Z</time></trkpt><trkpt lat="43.26397438027278" lon="-2.5929788526532844"><ele>208.0</ele><time>2026-05-01T15:46:57.001Z</time></trkpt><trkpt lat="43.26405060502448" lon="-2.5929593577604537"><ele>207.99999999999997</ele><time>2026-05-01T15:46:58.001Z</time></trkpt><trkpt lat="43.2641481508064" lon="-2.5929240962728684"><ele>208.0</ele><time>2026-05-01T15:47:00.001Z</time></trkpt><trkpt lat="43.26421930594355" lon="-2.5928570415393115"><ele>204.8</ele><time>2026-05-01T15:47:03.001Z</time></trkpt><trkpt lat="43.26432636928372" lon="-2.5928933767763995"><ele>201.60000000000002</ele><time>2026-05-01T15:47:05.001Z</time></trkpt><trkpt lat="43.26440297712046" lon="-2.592926672013721"><ele>198.39999999999998</ele><time>2026-05-01T15:47:06.001Z</time></trkpt><trkpt lat="43.264497679312655" lon="-2.5929345971399034"><ele>195.2</ele><time>2026-05-01T15:47:07.001Z</time></trkpt><trkpt lat="43.264589883629405" lon="-2.592891592545354"><ele>192.0</ele><time>2026-05-01T15:47:08.001Z</time></trkpt><trkpt lat="43.26466295444621" lon="-2.5928412842389807"><ele>192.6</ele><time>2026-05-01T15:47:09.001Z</time></trkpt><trkpt lat="43.264724158407425" lon="-2.5927536763078094"><ele>193.2</ele><time>2026-05-01T15:47:10.001Z</time></trkpt><trkpt lat="43.26478570389739" lon="-2.592630070802901"><ele>193.8</ele><time>2026-05-01T15:47:11.001Z</time></trkpt><trkpt lat="43.264838997684045" lon="-2.592514520612193"><ele>194.4</ele><time>2026-05-01T15:47:12.001Z</time></trkpt><trkpt lat="43.26489226148733" lon="-2.592420147151077"><ele>195.0</ele><time>2026-05-01T15:47:13.001Z</time></trkpt><trkpt lat="43.26494392605709" lon="-2.592340922015403"><ele>195.0</ele><time>2026-05-01T15:47:14.001Z</time></trkpt><trkpt lat="43.26499137983065" lon="-2.592262655178238"><ele>195.0</ele><time>2026-05-01T15:47:15.001Z</time></trkpt><trkpt lat="43.265038977927304" lon="-2.5921745749131424"><ele>195.0</ele><time>2026-05-01T15:47:16.001Z</time></trkpt><trkpt lat="43.265094736323" lon="-2.592077550596383"><ele>195.0</ele><time>2026-05-01T15:47:17.001Z</time></trkpt><trkpt lat="43.26514837544841" lon="-2.591987576922766"><ele>195.0</ele><time>2026-05-01T15:47:18.001Z</time></trkpt><trkpt lat="43.26521016365766" lon="-2.5919119074038623"><ele>195.0</ele><time>2026-05-01T15:47:19.001Z</time></trkpt><trkpt lat="43.26527938835052" lon="-2.591851461508992"><ele>195.25</ele><time>2026-05-01T15:47:20.001Z</time></trkpt><trkpt lat="43.26536908094846" lon="-2.5917990964287076"><ele>195.5</ele><time>2026-05-01T15:47:21.001Z</time></trkpt><trkpt lat="43.2654723738961" lon="-2.5917499804313806"><ele>195.75</ele><time>2026-05-01T15:47:22.001Z</time></trkpt><trkpt lat="43.26559849270504" lon="-2.5917075524787316"><ele>196.0</ele><time>2026-05-01T15:47:23.001Z</time></trkpt><trkpt lat="43.26571441110929" lon="-2.591689934663458"><ele>194.20000000000002</ele><time>2026-05-01T15:47:24.001Z</time></trkpt><trkpt lat="43.265825161700874" lon="-2.591672561694616"><ele>192.4</ele><time>2026-05-01T15:47:25.001Z</time></trkpt><trkpt lat="43.26590915225522" lon="-2.591659530156075"><ele>190.6</ele><time>2026-05-01T15:47:26.001Z</time></trkpt><trkpt lat="43.26598682048892" lon="-2.5916508299077883"><ele>188.8</ele><time>2026-05-01T15:47:27.001Z</time></trkpt><trkpt lat="43.266081914915866" lon="-2.591634787988509"><ele>187.0</ele><time>2026-05-01T15:47:28.001Z</time></trkpt><trkpt lat="43.26618886685857" lon="-2.59161661930547"><ele>187.0</ele><time>2026-05-01T15:47:29.001Z</time></trkpt><trkpt lat="43.266319779180606" lon="-2.5916058800790593"><ele>187.0</ele><time>2026-05-01T15:47:30.001Z</time></trkpt><trkpt lat="43.26645395728479" lon="-2.591589040758021"><ele>187.0</ele><time>2026-05-01T15:47:31.001Z</time></trkpt><trkpt lat="43.26657444984253" lon="-2.591586239967572"><ele>187.0</ele><time>2026-05-01T15:47:32.001Z</time></trkpt><trkpt lat="43.26670160048385" lon="-2.5916203782663025"><ele>187.0</ele><time>2026-05-01T15:47:33.001Z</time></trkpt><trkpt lat="43.26682526164518" lon="-2.591718445029636"><ele>187.0</ele><time>2026-05-01T15:47:34.001Z</time></trkpt><trkpt lat="43.26695578044698" lon="-2.591847751426001"><ele>187.0</ele><time>2026-05-01T15:47:35.001Z</time></trkpt><trkpt lat="43.267059317662806" lon="-2.5919499053373225"><ele>187.0</ele><time>2026-05-01T15:47:36.001Z</time></trkpt><trkpt lat="43.26714607627047" lon="-2.592030236329892"><ele>186.83333333333334</ele><time>2026-05-01T15:47:37.001Z</time></trkpt><trkpt lat="43.26721150832348" lon="-2.592087913536267"><ele>186.66666666666669</ele><time>2026-05-01T15:47:38.001Z</time></trkpt><trkpt lat="43.2672639453622" lon="-2.5921456785051014"><ele>186.5</ele><time>2026-05-01T15:47:39.001Z</time></trkpt><trkpt lat="43.26732252034286" lon="-2.592204954124457"><ele>186.33333333333334</ele><time>2026-05-01T15:47:40.001Z</time></trkpt><trkpt lat="43.26740270227689" lon="-2.592279126497995"><ele>186.16666666666666</ele><time>2026-05-01T15:47:41.001Z</time></trkpt><trkpt lat="43.26750982300988" lon="-2.5923817232649458"><ele>186.0</ele><time>2026-05-01T15:47:42.001Z</time></trkpt><trkpt lat="43.267630518147605" lon="-2.592497763297409"><ele>186.0</ele><time>2026-05-01T15:47:43.002Z</time></trkpt><trkpt lat="43.26775720045607" lon="-2.592632266125792"><ele>186.0</ele><time>2026-05-01T15:47:44.002Z</time></trkpt><trkpt lat="43.26787755120982" lon="-2.5927878008202785"><ele>186.0</ele><time>2026-05-01T15:47:45.002Z</time></trkpt><trkpt lat="43.26799501344602" lon="-2.5929648755313996"><ele>185.66666666666666</ele><time>2026-05-01T15:47:46.002Z</time></trkpt><trkpt lat="43.26810513170395" lon="-2.5931245280268556"><ele>185.33333333333331</ele><time>2026-05-01T15:47:47.002Z</time></trkpt><trkpt lat="43.26823055512244" lon="-2.5932440188596066"><ele>185.0</ele><time>2026-05-01T15:47:48.002Z</time></trkpt><trkpt lat="43.268367021889674" lon="-2.593357503046733"><ele>185.0</ele><time>2026-05-01T15:47:49.002Z</time></trkpt><trkpt lat="43.26850925668426" lon="-2.5934757973093916"><ele>185.0</ele><time>2026-05-01T15:47:50.002Z</time></trkpt><trkpt lat="43.268644910242195" lon="-2.593612020485058"><ele>185.0</ele><time>2026-05-01T15:47:51.002Z</time></trkpt><trkpt lat="43.26877657943879" lon="-2.593773651657065"><ele>186.33333333333331</ele><time>2026-05-01T15:47:52.002Z</time></trkpt><trkpt lat="43.26889519247698" lon="-2.5939439569054374"><ele>187.66666666666666</ele><time>2026-05-01T15:47:53.002Z</time></trkpt><trkpt lat="43.26898865561059" lon="-2.5941187257077947"><ele>189.0</ele><time>2026-05-01T15:47:54.002Z</time></trkpt><trkpt lat="43.26908281749877" lon="-2.594276282961165"><ele>189.0</ele><time>2026-05-01T15:47:55Z</time></trkpt><trkpt lat="43.26921091742754" lon="-2.5944054812711355"><ele>189.0</ele><time>2026-05-01T15:47:56Z</time></trkpt><trkpt lat="43.269368367003956" lon="-2.59450094364448"><ele>189.0</ele><time>2026-05-01T15:47:57Z</time></trkpt><trkpt lat="43.26954585943991" lon="-2.5945212476864876"><ele>190.0</ele><time>2026-05-01T15:47:58Z</time></trkpt><trkpt lat="43.26973140297477" lon="-2.5945503655917066"><ele>191.0</ele><time>2026-05-01T15:47:59Z</time></trkpt><trkpt lat="43.26990252001086" lon="-2.5945237287162843"><ele>192.0</ele><time>2026-05-01T15:48:00Z</time></trkpt><trkpt lat="43.270076508158695" lon="-2.5944515815447082"><ele>192.0</ele><time>2026-05-01T15:48:01Z</time></trkpt><trkpt lat="43.27027003692419" lon="-2.59435218405579"><ele>192.0</ele><time>2026-05-01T15:48:02Z</time></trkpt><trkpt lat="43.270465848053114" lon="-2.5942341777364244"><ele>192.0</ele><time>2026-05-01T15:48:03Z</time></trkpt><trkpt lat="43.27069388500534" lon="-2.5941542822321493"><ele>188.5</ele><time>2026-05-01T15:48:04Z</time></trkpt><trkpt lat="43.27092352493776" lon="-2.5941079170202186"><ele>185.0</ele><time>2026-05-01T15:48:05Z</time></trkpt><trkpt lat="43.27114869689619" lon="-2.5940156191978594"><ele>185.0</ele><time>2026-05-01T15:48:06Z</time></trkpt><trkpt lat="43.27135978677819" lon="-2.5938879635439958"><ele>185.0</ele><time>2026-05-01T15:48:07Z</time></trkpt><trkpt lat="43.271568710139405" lon="-2.5937940178527152"><ele>184.33333333333331</ele><time>2026-05-01T15:48:08Z</time></trkpt><trkpt lat="43.27178148363398" lon="-2.593705113938079"><ele>183.66666666666666</ele><time>2026-05-01T15:48:09Z</time></trkpt><trkpt lat="43.271994164678595" lon="-2.5936265569326546"><ele>183.0</ele><time>2026-05-01T15:48:10Z</time></trkpt><trkpt lat="43.272177196589475" lon="-2.593548114418734"><ele>179.0</ele><time>2026-05-01T15:48:11Z</time></trkpt><trkpt lat="43.27234814339275" lon="-2.593454727569168"><ele>175.0</ele><time>2026-05-01T15:48:12Z</time></trkpt><trkpt lat="43.27248392434971" lon="-2.5934006193476447"><ele>171.0</ele><time>2026-05-01T15:48:13Z</time></trkpt><trkpt lat="43.272637028307024" lon="-2.593323286252291"><ele>171.0</ele><time>2026-05-01T15:48:14Z</time></trkpt><trkpt lat="43.272807122338236" lon="-2.5932931976378764"><ele>171.0</ele><time>2026-05-01T15:48:15Z</time></trkpt><trkpt lat="43.27298834563615" lon="-2.593302077670301"><ele>171.0</ele><time>2026-05-01T15:48:16Z</time></trkpt><trkpt lat="43.27319151084808" lon="-2.5933686369072264"><ele>169.0</ele><time>2026-05-01T15:48:17Z</time></trkpt><trkpt lat="43.2734008177774" lon="-2.5934129466436167"><ele>167.0</ele><time>2026-05-01T15:48:18Z</time></trkpt><trkpt lat="43.27360959093332" lon="-2.5934690103768374"><ele>165.0</ele><time>2026-05-01T15:48:19Z</time></trkpt><trkpt lat="43.27381626564276" lon="-2.5935238760369685"><ele>164.0</ele><time>2026-05-01T15:48:20Z</time></trkpt><trkpt lat="43.27401676608584" lon="-2.5935769830427455"><ele>163.0</ele><time>2026-05-01T15:48:21Z</time></trkpt><trkpt lat="43.27421261866264" lon="-2.5936288588633105"><ele>162.0</ele><time>2026-05-01T15:48:22Z</time></trkpt><trkpt lat="43.274386636096516" lon="-2.5936749511914585"><ele>164.33333333333334</ele><time>2026-05-01T15:48:23Z</time></trkpt><trkpt lat="43.27455517384857" lon="-2.5937195919003564"><ele>166.66666666666669</ele><time>2026-05-01T15:48:24Z</time></trkpt><trkpt lat="43.2747367305332" lon="-2.593774649702975"><ele>169.0</ele><time>2026-05-01T15:48:25Z</time></trkpt><trkpt lat="43.27490088275221" lon="-2.5938953665932667"><ele>171.0</ele><time>2026-05-01T15:48:26Z</time></trkpt><trkpt lat="43.27506652063449" lon="-2.593980611629363"><ele>173.0</ele><time>2026-05-01T15:48:27Z</time></trkpt><trkpt lat="43.27522246054423" lon="-2.59405054529767"><ele>175.0</ele><time>2026-05-01T15:48:28Z</time></trkpt><trkpt lat="43.275370966899146" lon="-2.5940983088465934"><ele>175.0</ele><time>2026-05-01T15:48:29Z</time></trkpt><trkpt lat="43.27550534567804" lon="-2.5941409113686453"><ele>175.0</ele><time>2026-05-01T15:48:30Z</time></trkpt><trkpt lat="43.27562844768558" lon="-2.59419142081442"><ele>175.0</ele><time>2026-05-01T15:48:31Z</time></trkpt><trkpt lat="43.27574820570308" lon="-2.5942981981018143"><ele>175.0</ele><time>2026-05-01T15:48:32Z</time></trkpt><trkpt lat="43.2758341188981" lon="-2.5945031158182967"><ele>177.0</ele><time>2026-05-01T15:48:33Z</time></trkpt><trkpt lat="43.27584324257617" lon="-2.594715688652881"><ele>179.0</ele><time>2026-05-01T15:48:34Z</time></trkpt><trkpt lat="43.27584276838576" lon="-2.5949168338350055"><ele>181.0</ele><time>2026-05-01T15:48:35Z</time></trkpt><trkpt lat="43.2758016190655" lon="-2.5951321527021336"><ele>178.5</ele><time>2026-05-01T15:48:36Z</time></trkpt><trkpt lat="43.27578500910566" lon="-2.595347984810724"><ele>176.0</ele><time>2026-05-01T15:48:37Z</time></trkpt><trkpt lat="43.275799254109685" lon="-2.5955337686967326"><ele>173.5</ele><time>2026-05-01T15:48:38.001Z</time></trkpt><trkpt lat="43.275840014435126" lon="-2.595704262195133"><ele>171.0</ele><time>2026-05-01T15:48:39.001Z</time></trkpt><trkpt lat="43.27591927524435" lon="-2.595839961986352"><ele>171.0</ele><time>2026-05-01T15:48:40.001Z</time></trkpt><trkpt lat="43.276036164078725" lon="-2.5959829435221327"><ele>171.0</ele><time>2026-05-01T15:48:41.001Z</time></trkpt><trkpt lat="43.27618653989432" lon="-2.5961009986484234"><ele>171.0</ele><time>2026-05-01T15:48:42.001Z</time></trkpt><trkpt lat="43.27633004535771" lon="-2.5962323939397374"><ele>169.0</ele><time>2026-05-01T15:48:43.001Z</time></trkpt><trkpt lat="43.27644490888035" lon="-2.59637230688587"><ele>167.0</ele><time>2026-05-01T15:48:44.001Z</time></trkpt><trkpt lat="43.2765656619449" lon="-2.5964407472726"><ele>165.0</ele><time>2026-05-01T15:48:45.001Z</time></trkpt><trkpt lat="43.2766726162228" lon="-2.5964764396056546"><ele>163.0</ele><time>2026-05-01T15:48:46.001Z</time></trkpt><trkpt lat="43.27679793306248" lon="-2.596452531050708"><ele>163.0</ele><time>2026-05-01T15:48:47.001Z</time></trkpt><trkpt lat="43.27693356401346" lon="-2.596367531036525"><ele>163.0</ele><time>2026-05-01T15:48:48.001Z</time></trkpt><trkpt lat="43.27706335154328" lon="-2.596227011635576"><ele>163.0</ele><time>2026-05-01T15:48:49.001Z</time></trkpt><trkpt lat="43.27722514552678" lon="-2.596129279549368"><ele>167.33333333333334</ele><time>2026-05-01T15:48:50.001Z</time></trkpt><trkpt lat="43.27739655847741" lon="-2.596057541186278"><ele>171.66666666666666</ele><time>2026-05-01T15:48:51.001Z</time></trkpt><trkpt lat="43.277585854611615" lon="-2.596001047084582"><ele>176.0</ele><time>2026-05-01T15:48:52.001Z</time></trkpt><trkpt lat="43.27777466761563" lon="-2.595947897086406"><ele>176.0</ele><time>2026-05-01T15:48:53.001Z</time></trkpt><trkpt lat="43.2779732446587" lon="-2.595922404782732"><ele>176.0</ele><time>2026-05-01T15:48:54.001Z</time></trkpt><trkpt lat="43.27820382528599" lon="-2.5959235451531186"><ele>176.0</ele><time>2026-05-01T15:48:55.001Z</time></trkpt><trkpt lat="43.27842728323501" lon="-2.5959398489311183"><ele>170.66666666666666</ele><time>2026-05-01T15:48:56.001Z</time></trkpt><trkpt lat="43.2786367038134" lon="-2.595956568150953"><ele>165.33333333333334</ele><time>2026-05-01T15:48:57.001Z</time></trkpt><trkpt lat="43.27881445627095" lon="-2.5959761898156555"><ele>160.0</ele><time>2026-05-01T15:48:58.001Z</time></trkpt><trkpt lat="43.27896799233331" lon="-2.5959979698354645"><ele>157.8</ele><time>2026-05-01T15:48:59.001Z</time></trkpt><trkpt lat="43.27909930243163" lon="-2.596014120575086"><ele>155.6</ele><time>2026-05-01T15:49:00.001Z</time></trkpt><trkpt lat="43.279217602695866" lon="-2.596031344463431"><ele>153.4</ele><time>2026-05-01T15:49:01.001Z</time></trkpt><trkpt lat="43.279309487969954" lon="-2.596041181192691"><ele>151.2</ele><time>2026-05-01T15:49:02.001Z</time></trkpt><trkpt lat="43.279399097724045" lon="-2.5960185212705764"><ele>149.0</ele><time>2026-05-01T15:49:03.001Z</time></trkpt><trkpt lat="43.279491791512946" lon="-2.595941396471886"><ele>149.0</ele><time>2026-05-01T15:49:04.001Z</time></trkpt><trkpt lat="43.279558040005966" lon="-2.5958014079632914"><ele>149.0</ele><time>2026-05-01T15:49:05.001Z</time></trkpt><trkpt lat="43.279536005897384" lon="-2.5956303205962095"><ele>149.0</ele><time>2026-05-01T15:49:06.001Z</time></trkpt><trkpt lat="43.27951523412074" lon="-2.59545045878054"><ele>149.0</ele><time>2026-05-01T15:49:07.001Z</time></trkpt><trkpt lat="43.279505504061675" lon="-2.5952477612038978"><ele>155.0</ele><time>2026-05-01T15:49:08.001Z</time></trkpt><trkpt lat="43.2794826202894" lon="-2.595039530329559"><ele>161.0</ele><time>2026-05-01T15:49:09.001Z</time></trkpt><trkpt lat="43.27948680336115" lon="-2.594811813951166"><ele>167.0</ele><time>2026-05-01T15:49:10.001Z</time></trkpt><trkpt lat="43.27951558866364" lon="-2.5945775242165"><ele>172.66666666666666</ele><time>2026-05-01T15:49:11.001Z</time></trkpt><trkpt lat="43.279568009828104" lon="-2.5943461209588627"><ele>178.33333333333334</ele><time>2026-05-01T15:49:12.001Z</time></trkpt><trkpt lat="43.27963995669931" lon="-2.5941188746167336"><ele>184.0</ele><time>2026-05-01T15:49:13.001Z</time></trkpt><trkpt lat="43.27972952331326" lon="-2.5939077042182523"><ele>172.0</ele><time>2026-05-01T15:49:14.001Z</time></trkpt><trkpt lat="43.27984101212948" lon="-2.593709474950512"><ele>160.0</ele><time>2026-05-01T15:49:15.001Z</time></trkpt><trkpt lat="43.27998026469863" lon="-2.5935277574575926"><ele>148.0</ele><time>2026-05-01T15:49:16.001Z</time></trkpt><trkpt lat="43.280160554921686" lon="-2.59334912835665"><ele>148.0</ele><time>2026-05-01T15:49:17.001Z</time></trkpt><trkpt lat="43.280326939104704" lon="-2.5931838867666106"><ele>148.0</ele><time>2026-05-01T15:49:18.001Z</time></trkpt><trkpt lat="43.280496055394" lon="-2.593106707789688"><ele>148.0</ele><time>2026-05-01T15:49:19.001Z</time></trkpt><trkpt lat="43.280686122413954" lon="-2.5930084872690196"><ele>142.5</ele><time>2026-05-01T15:49:20.001Z</time></trkpt><trkpt lat="43.28091087347145" lon="-2.5929456924595398"><ele>137.0</ele><time>2026-05-01T15:49:21.001Z</time></trkpt><trkpt lat="43.28114690319263" lon="-2.592871918856656"><ele>137.0</ele><time>2026-05-01T15:49:22.001Z</time></trkpt><trkpt lat="43.28137684151438" lon="-2.59278825583814"><ele>137.0</ele><time>2026-05-01T15:49:23.001Z</time></trkpt><trkpt lat="43.28160953874823" lon="-2.5927082294270596"><ele>137.0</ele><time>2026-05-01T15:49:24.001Z</time></trkpt><trkpt lat="43.28185361548778" lon="-2.5926428536221935"><ele>137.0</ele><time>2026-05-01T15:49:25.001Z</time></trkpt><trkpt lat="43.28209056793134" lon="-2.592581333535232"><ele>136.5</ele><time>2026-05-01T15:49:26.001Z</time></trkpt><trkpt lat="43.28233366984817" lon="-2.5925065002779895"><ele>136.0</ele><time>2026-05-01T15:49:27.001Z</time></trkpt><trkpt lat="43.282583024837336" lon="-2.5924108914978623"><ele>136.0</ele><time>2026-05-01T15:49:28.001Z</time></trkpt><trkpt lat="43.28280773063117" lon="-2.5923371181687096"><ele>136.0</ele><time>2026-05-01T15:49:29.001Z</time></trkpt><trkpt lat="43.28301837486584" lon="-2.592268242935"><ele>136.0</ele><time>2026-05-01T15:49:30.001Z</time></trkpt><trkpt lat="43.283224010758126" lon="-2.592198218231722"><ele>135.66666666666669</ele><time>2026-05-01T15:49:31.001Z</time></trkpt><trkpt lat="43.283391469146906" lon="-2.5921324542099446"><ele>135.33333333333334</ele><time>2026-05-01T15:49:32.001Z</time></trkpt><trkpt lat="43.283536218561245" lon="-2.592058797366573"><ele>135.0</ele><time>2026-05-01T15:49:33.001Z</time></trkpt><trkpt lat="43.28367368050753" lon="-2.5919491528286063"><ele>132.66666666666666</ele><time>2026-05-01T15:49:34.001Z</time></trkpt><trkpt lat="43.28378911336028" lon="-2.59180549700609"><ele>130.33333333333331</ele><time>2026-05-01T15:49:35.001Z</time></trkpt><trkpt lat="43.28387541582187" lon="-2.591648459980947"><ele>128.0</ele><time>2026-05-01T15:49:36.001Z</time></trkpt><trkpt lat="43.28396020159376" lon="-2.591434632122454"><ele>128.0</ele><time>2026-05-01T15:49:37.001Z</time></trkpt><trkpt lat="43.284015421833566" lon="-2.5912442901951165"><ele>128.0</ele><time>2026-05-01T15:49:38.001Z</time></trkpt><trkpt lat="43.2840522385338" lon="-2.5910630805077353"><ele>128.0</ele><time>2026-05-01T15:49:39.001Z</time></trkpt><trkpt lat="43.28405555981643" lon="-2.590871224987481"><ele>128.0</ele><time>2026-05-01T15:49:40.001Z</time></trkpt><trkpt lat="43.28401408228391" lon="-2.5906629898224476"><ele>138.0</ele><time>2026-05-01T15:49:41.001Z</time></trkpt><trkpt lat="43.283924861046984" lon="-2.590456416823749"><ele>148.0</ele><time>2026-05-01T15:49:42.001Z</time></trkpt><trkpt lat="43.283839571045064" lon="-2.590251705645032"><ele>158.0</ele><time>2026-05-01T15:49:43.002Z</time></trkpt><trkpt lat="43.28375821420241" lon="-2.590032508106634"><ele>158.0</ele><time>2026-05-01T15:49:44.002Z</time></trkpt><trkpt lat="43.28372053814657" lon="-2.5897798571164237"><ele>158.0</ele><time>2026-05-01T15:49:45.002Z</time></trkpt><trkpt lat="43.28370454366153" lon="-2.5895244548534784"><ele>158.0</ele><time>2026-05-01T15:49:46.002Z</time></trkpt><trkpt lat="43.28371036577213" lon="-2.5892775641774164"><ele>156.66666666666666</ele><time>2026-05-01T15:49:47.002Z</time></trkpt><trkpt lat="43.28371094306154" lon="-2.589056962583894"><ele>155.33333333333334</ele><time>2026-05-01T15:49:48.002Z</time></trkpt><trkpt lat="43.28372579053889" lon="-2.5888173439534383"><ele>154.0</ele><time>2026-05-01T15:49:49.002Z</time></trkpt><trkpt lat="43.28379356134164" lon="-2.5885644328827473"><ele>153.0</ele><time>2026-05-01T15:49:50.002Z</time></trkpt><trkpt lat="43.2838595321248" lon="-2.5883095898467974"><ele>152.0</ele><time>2026-05-01T15:49:51.002Z</time></trkpt><trkpt lat="43.28397487557016" lon="-2.5880613077350136"><ele>151.0</ele><time>2026-05-01T15:49:52.002Z</time></trkpt><trkpt lat="43.28405572614684" lon="-2.5878535970674137"><ele>142.66666666666669</ele><time>2026-05-01T15:49:53.002Z</time></trkpt><trkpt lat="43.28417027151145" lon="-2.5876454494558354"><ele>134.33333333333334</ele><time>2026-05-01T15:49:54.002Z</time></trkpt><trkpt lat="43.28430154000696" lon="-2.5874436204887132"><ele>126.0</ele><time>2026-05-01T15:49:55.002Z</time></trkpt><trkpt lat="43.28446220654134" lon="-2.5872674536761147"><ele>126.0</ele><time>2026-05-01T15:49:56.002Z</time></trkpt><trkpt lat="43.284640323555244" lon="-2.5870968418493976"><ele>126.0</ele><time>2026-05-01T15:49:57.002Z</time></trkpt><trkpt lat="43.28479820864197" lon="-2.5869348425369205"><ele>126.0</ele><time>2026-05-01T15:49:58.002Z</time></trkpt><trkpt lat="43.28498260197605" lon="-2.5868114462713696"><ele>126.0</ele><time>2026-05-01T15:49:59.002Z</time></trkpt><trkpt lat="43.28514803463641" lon="-2.586670337598292"><ele>126.0</ele><time>2026-05-01T15:50:00.002Z</time></trkpt><trkpt lat="43.28528835703811" lon="-2.58648627447003"><ele>126.0</ele><time>2026-05-01T15:50:01Z</time></trkpt><trkpt lat="43.285431575881915" lon="-2.5863279248419886"><ele>125.0</ele><time>2026-05-01T15:50:02Z</time></trkpt><trkpt lat="43.285557682679304" lon="-2.5861529517314277"><ele>124.0</ele><time>2026-05-01T15:50:03Z</time></trkpt><trkpt lat="43.28569972865431" lon="-2.5859914417027388"><ele>123.0</ele><time>2026-05-01T15:50:04Z</time></trkpt><trkpt lat="43.285858957686344" lon="-2.5858471608784055"><ele>123.0</ele><time>2026-05-01T15:50:05Z</time></trkpt><trkpt lat="43.28602496784845" lon="-2.5857268921911443"><ele>123.0</ele><time>2026-05-01T15:50:06Z</time></trkpt><trkpt lat="43.28619857208574" lon="-2.5856101080593277"><ele>123.0</ele><time>2026-05-01T15:50:07Z</time></trkpt><trkpt lat="43.286357016419586" lon="-2.5855103963735266"><ele>124.66666666666666</ele><time>2026-05-01T15:50:08Z</time></trkpt><trkpt lat="43.286511000038765" lon="-2.585416822207593"><ele>126.33333333333333</ele><time>2026-05-01T15:50:09Z</time></trkpt><trkpt lat="43.286658091476696" lon="-2.58529836712505"><ele>128.0</ele><time>2026-05-01T15:50:10Z</time></trkpt><trkpt lat="43.28680105394967" lon="-2.585143114106465"><ele>128.0</ele><time>2026-05-01T15:50:11Z</time></trkpt><trkpt lat="43.28695587618913" lon="-2.584962937578633"><ele>128.0</ele><time>2026-05-01T15:50:12Z</time></trkpt><trkpt lat="43.28711910193402" lon="-2.584765099341568"><ele>128.0</ele><time>2026-05-01T15:50:13Z</time></trkpt><trkpt lat="43.28727995301399" lon="-2.5845771002092692"><ele>125.0</ele><time>2026-05-01T15:50:14Z</time></trkpt><trkpt lat="43.287458045763984" lon="-2.5843982372617913"><ele>122.0</ele><time>2026-05-01T15:50:15Z</time></trkpt><trkpt lat="43.287639697408494" lon="-2.5842225394225102"><ele>119.0</ele><time>2026-05-01T15:50:16Z</time></trkpt><trkpt lat="43.287818335939455" lon="-2.584066785597101"><ele>119.0</ele><time>2026-05-01T15:50:17Z</time></trkpt><trkpt lat="43.287982523871925" lon="-2.5839077130567203"><ele>119.0</ele><time>2026-05-01T15:50:18Z</time></trkpt><trkpt lat="43.28813088414831" lon="-2.583752354485266"><ele>119.0</ele><time>2026-05-01T15:50:19Z</time></trkpt><trkpt lat="43.288257777652234" lon="-2.5835629072240334"><ele>118.66666666666666</ele><time>2026-05-01T15:50:20Z</time></trkpt><trkpt lat="43.28839948021434" lon="-2.583344915534496"><ele>118.33333333333334</ele><time>2026-05-01T15:50:21Z</time></trkpt><trkpt lat="43.288542655052844" lon="-2.5831413845919777"><ele>118.0</ele><time>2026-05-01T15:50:22Z</time></trkpt><trkpt lat="43.288711762952005" lon="-2.582928464338797"><ele>115.5</ele><time>2026-05-01T15:50:23Z</time></trkpt><trkpt lat="43.28888214062324" lon="-2.582719197802367"><ele>113.0</ele><time>2026-05-01T15:50:24Z</time></trkpt><trkpt lat="43.28905047078223" lon="-2.5824988440174024"><ele>113.0</ele><time>2026-05-01T15:50:25Z</time></trkpt><trkpt lat="43.28922410588465" lon="-2.582273192545965"><ele>113.0</ele><time>2026-05-01T15:50:26Z</time></trkpt><trkpt lat="43.28939517475101" lon="-2.5820493660665838"><ele>117.0</ele><time>2026-05-01T15:50:27Z</time></trkpt><trkpt lat="43.289569354899584" lon="-2.5818213426886576"><ele>121.0</ele><time>2026-05-01T15:50:28Z</time></trkpt><trkpt lat="43.28972814207655" lon="-2.581615336929757"><ele>119.33333333333334</ele><time>2026-05-01T15:50:29Z</time></trkpt><trkpt lat="43.28987344577751" lon="-2.5814262803429613"><ele>117.66666666666666</ele><time>2026-05-01T15:50:30Z</time></trkpt><trkpt lat="43.29000862025624" lon="-2.5812455215060455"><ele>116.0</ele><time>2026-05-01T15:50:31Z</time></trkpt><trkpt lat="43.29014483172496" lon="-2.5810647525107093"><ele>116.0</ele><time>2026-05-01T15:50:32Z</time></trkpt><trkpt lat="43.29029464297123" lon="-2.580869386945064"><ele>116.0</ele><time>2026-05-01T15:50:33Z</time></trkpt><trkpt lat="43.2904510949057" lon="-2.580662627819336"><ele>116.0</ele><time>2026-05-01T15:50:34Z</time></trkpt><trkpt lat="43.29060648052577" lon="-2.5804530387195515"><ele>115.0</ele><time>2026-05-01T15:50:35Z</time></trkpt><trkpt lat="43.29076263640885" lon="-2.5802323017934885"><ele>114.0</ele><time>2026-05-01T15:50:36Z</time></trkpt><trkpt lat="43.29091953321338" lon="-2.5800051750579507"><ele>114.0</ele><time>2026-05-01T15:50:37Z</time></trkpt><trkpt lat="43.29107723798724" lon="-2.579776878536918"><ele>114.0</ele><time>2026-05-01T15:50:38Z</time></trkpt><trkpt lat="43.29122891588086" lon="-2.5795570373087924"><ele>111.33333333333334</ele><time>2026-05-01T15:50:39Z</time></trkpt><trkpt lat="43.29137828719886" lon="-2.5793426185915753"><ele>108.66666666666667</ele><time>2026-05-01T15:50:40Z</time></trkpt><trkpt lat="43.2915271290462" lon="-2.579139004346415"><ele>106.0</ele><time>2026-05-01T15:50:41Z</time></trkpt><trkpt lat="43.29169609279305" lon="-2.5789667919695582"><ele>106.0</ele><time>2026-05-01T15:50:42.001Z</time></trkpt><trkpt lat="43.29185906135007" lon="-2.5787915332030904"><ele>106.0</ele><time>2026-05-01T15:50:43.001Z</time></trkpt><trkpt lat="43.292013164407436" lon="-2.578610893616645"><ele>106.0</ele><time>2026-05-01T15:50:44.001Z</time></trkpt><trkpt lat="43.29216796703264" lon="-2.5784786745014845"><ele>105.25</ele><time>2026-05-01T15:50:45.001Z</time></trkpt><trkpt lat="43.29228928826537" lon="-2.5783349088816085"><ele>104.5</ele><time>2026-05-01T15:50:46.001Z</time></trkpt><trkpt lat="43.292393931346794" lon="-2.5781940936165824"><ele>103.75</ele><time>2026-05-01T15:50:47.001Z</time></trkpt><trkpt lat="43.29247818980574" lon="-2.578042867613184"><ele>103.0</ele><time>2026-05-01T15:50:48.001Z</time></trkpt><trkpt lat="43.29253002935365" lon="-2.5778467291790723"><ele>103.0</ele><time>2026-05-01T15:50:49.001Z</time></trkpt><trkpt lat="43.292585565526544" lon="-2.577620045164021"><ele>103.0</ele><time>2026-05-01T15:50:50.001Z</time></trkpt><trkpt lat="43.29261940574542" lon="-2.5773497608617157"><ele>103.0</ele><time>2026-05-01T15:50:51.001Z</time></trkpt><trkpt lat="43.29268475182665" lon="-2.5770518787780836"><ele>103.0</ele><time>2026-05-01T15:50:52.001Z</time></trkpt><trkpt lat="43.29274763951454" lon="-2.5767445969325995"><ele>103.0</ele><time>2026-05-01T15:50:53.001Z</time></trkpt><trkpt lat="43.292789867532136" lon="-2.576440047468579"><ele>103.33333333333334</ele><time>2026-05-01T15:50:54.001Z</time></trkpt><trkpt lat="43.29285531270935" lon="-2.5761642313706568"><ele>103.66666666666666</ele><time>2026-05-01T15:50:55.001Z</time></trkpt><trkpt lat="43.292892264419066" lon="-2.5758698185097613"><ele>104.0</ele><time>2026-05-01T15:50:56.001Z</time></trkpt><trkpt lat="43.292943415101774" lon="-2.5755849729613614"><ele>104.66666666666666</ele><time>2026-05-01T15:50:57.001Z</time></trkpt><trkpt lat="43.29299660039394" lon="-2.575296609783433"><ele>105.33333333333334</ele><time>2026-05-01T15:50:58.001Z</time></trkpt><trkpt lat="43.293074844520135" lon="-2.575011342691622"><ele>106.0</ele><time>2026-05-01T15:50:59.001Z</time></trkpt><trkpt lat="43.29312296190108" lon="-2.5747177371055088"><ele>102.33333333333334</ele><time>2026-05-01T15:51:00.001Z</time></trkpt><trkpt lat="43.29317201897483" lon="-2.5744233433734824"><ele>98.66666666666667</ele><time>2026-05-01T15:51:01.001Z</time></trkpt><trkpt lat="43.29322758713788" lon="-2.574126252981704"><ele>95.0</ele><time>2026-05-01T15:51:02.001Z</time></trkpt><trkpt lat="43.2932807910673" lon="-2.5738454607392076"><ele>95.66666666666667</ele><time>2026-05-01T15:51:03.001Z</time></trkpt><trkpt lat="43.293329762212885" lon="-2.5735859800046663"><ele>96.33333333333334</ele><time>2026-05-01T15:51:04.001Z</time></trkpt><trkpt lat="43.293375308785755" lon="-2.573336805917819"><ele>97.0</ele><time>2026-05-01T15:51:05.001Z</time></trkpt><trkpt lat="43.29342268926317" lon="-2.5730814010396794"><ele>96.66666666666667</ele><time>2026-05-01T15:51:06.001Z</time></trkpt><trkpt lat="43.29345840845637" lon="-2.572815919885946"><ele>96.33333333333334</ele><time>2026-05-01T15:51:07.001Z</time></trkpt><trkpt lat="43.293510333088584" lon="-2.572554550303154"><ele>96.0</ele><time>2026-05-01T15:51:08.001Z</time></trkpt><trkpt lat="43.293563613654804" lon="-2.5722865075651233"><ele>95.66666666666667</ele><time>2026-05-01T15:51:09.001Z</time></trkpt><trkpt lat="43.29361484289965" lon="-2.572006641037121"><ele>95.33333333333334</ele><time>2026-05-01T15:51:10.001Z</time></trkpt><trkpt lat="43.293664339249865" lon="-2.571719529635697"><ele>95.0</ele><time>2026-05-01T15:51:11.001Z</time></trkpt><trkpt lat="43.293715163568926" lon="-2.5714340721192253"><ele>93.0</ele><time>2026-05-01T15:51:12.001Z</time></trkpt><trkpt lat="43.29376530699734" lon="-2.5711515315085554"><ele>91.0</ele><time>2026-05-01T15:51:13.001Z</time></trkpt><trkpt lat="43.293813350365795" lon="-2.5708650503755632"><ele>89.0</ele><time>2026-05-01T15:51:14.001Z</time></trkpt><trkpt lat="43.29386250677004" lon="-2.570572927020516"><ele>88.66666666666667</ele><time>2026-05-01T15:51:15.001Z</time></trkpt><trkpt lat="43.293918476851324" lon="-2.5702839931313584"><ele>88.33333333333333</ele><time>2026-05-01T15:51:16.001Z</time></trkpt><trkpt lat="43.29397117845871" lon="-2.569995097845687"><ele>88.0</ele><time>2026-05-01T15:51:17.001Z</time></trkpt><trkpt lat="43.29402152942895" lon="-2.569692429746099"><ele>89.0</ele><time>2026-05-01T15:51:18.001Z</time></trkpt><trkpt lat="43.294068805205576" lon="-2.5693837299825755"><ele>90.0</ele><time>2026-05-01T15:51:19.001Z</time></trkpt><trkpt lat="43.29410778515176" lon="-2.569079667600312"><ele>90.0</ele><time>2026-05-01T15:51:20.001Z</time></trkpt><trkpt lat="43.29412645329418" lon="-2.5687812968089325"><ele>90.0</ele><time>2026-05-01T15:51:21.001Z</time></trkpt><trkpt lat="43.29413254297998" lon="-2.5684851481543762"><ele>90.0</ele><time>2026-05-01T15:51:22.001Z</time></trkpt><trkpt lat="43.29412797712052" lon="-2.5682109286899935"><ele>90.66666666666667</ele><time>2026-05-01T15:51:23.001Z</time></trkpt><trkpt lat="43.29411328143861" lon="-2.567935412534902"><ele>91.33333333333334</ele><time>2026-05-01T15:51:24.001Z</time></trkpt><trkpt lat="43.294102645024836" lon="-2.5676439047876056"><ele>92.0</ele><time>2026-05-01T15:51:25.001Z</time></trkpt><trkpt lat="43.29409428138064" lon="-2.5673575672426545"><ele>93.66666666666667</ele><time>2026-05-01T15:51:26.001Z</time></trkpt><trkpt lat="43.29410197582396" lon="-2.5670727702703853"><ele>95.33333333333334</ele><time>2026-05-01T15:51:27.001Z</time></trkpt><trkpt lat="43.29413449470091" lon="-2.5668015812902087"><ele>97.0</ele><time>2026-05-01T15:51:28.001Z</time></trkpt><trkpt lat="43.29416933434085" lon="-2.566540910534283"><ele>98.66666666666667</ele><time>2026-05-01T15:51:29.001Z</time></trkpt><trkpt lat="43.29417373242471" lon="-2.566284100656434"><ele>100.33333333333334</ele><time>2026-05-01T15:51:30.001Z</time></trkpt><trkpt lat="43.294166613862394" lon="-2.566039329416029"><ele>102.0</ele><time>2026-05-01T15:51:31.001Z</time></trkpt><trkpt lat="43.29414889602507" lon="-2.5658007554091964"><ele>102.33333333333334</ele><time>2026-05-01T15:51:32.001Z</time></trkpt><trkpt lat="43.294114344915364" lon="-2.565563900658962"><ele>102.66666666666667</ele><time>2026-05-01T15:51:33.001Z</time></trkpt><trkpt lat="43.29406243773754" lon="-2.5653333778309286"><ele>103.0</ele><time>2026-05-01T15:51:34.001Z</time></trkpt><trkpt lat="43.29403641612212" lon="-2.565115619284924"><ele>101.5</ele><time>2026-05-01T15:51:35.001Z</time></trkpt><trkpt lat="43.29403136203803" lon="-2.5649370974435004"><ele>100.0</ele><time>2026-05-01T15:51:36.001Z</time></trkpt><trkpt lat="43.29404652259939" lon="-2.5647791137238514"><ele>98.5</ele><time>2026-05-01T15:51:37.001Z</time></trkpt><trkpt lat="43.29409175910186" lon="-2.564609078089577"><ele>97.0</ele><time>2026-05-01T15:51:38.001Z</time></trkpt><trkpt lat="43.29418177313516" lon="-2.56447374109097"><ele>94.75</ele><time>2026-05-01T15:51:39.001Z</time></trkpt><trkpt lat="43.294296783011944" lon="-2.5643596021292994"><ele>92.5</ele><time>2026-05-01T15:51:40.001Z</time></trkpt><trkpt lat="43.29444007333221" lon="-2.5642950513283127"><ele>90.25</ele><time>2026-05-01T15:51:41.001Z</time></trkpt><trkpt lat="43.2945553041773" lon="-2.5642297716313975"><ele>88.0</ele><time>2026-05-01T15:51:42.001Z</time></trkpt><trkpt lat="43.2946644930458" lon="-2.5641676677512293"><ele>90.5</ele><time>2026-05-01T15:51:43.001Z</time></trkpt><trkpt lat="43.29476375030056" lon="-2.564100417871623"><ele>93.0</ele><time>2026-05-01T15:51:44.001Z</time></trkpt><trkpt lat="43.29486708491431" lon="-2.5640471519577432"><ele>95.5</ele><time>2026-05-01T15:51:45.001Z</time></trkpt><trkpt lat="43.294981663216504" lon="-2.563996461014911"><ele>98.0</ele><time>2026-05-01T15:51:46.001Z</time></trkpt><trkpt lat="43.29510045537889" lon="-2.5639416757029445"><ele>98.0</ele><time>2026-05-01T15:51:47.002Z</time></trkpt><trkpt lat="43.29521987110175" lon="-2.563884287375619"><ele>98.0</ele><time>2026-05-01T15:51:48.002Z</time></trkpt><trkpt lat="43.29534725219109" lon="-2.5638217624643223"><ele>98.0</ele><time>2026-05-01T15:51:49.002Z</time></trkpt><trkpt lat="43.29546898543397" lon="-2.563764002604207"><ele>98.0</ele><time>2026-05-01T15:51:50.002Z</time></trkpt><trkpt lat="43.295582853768124" lon="-2.5637157034894313"><ele>96.75</ele><time>2026-05-01T15:51:51.002Z</time></trkpt><trkpt lat="43.295689596169765" lon="-2.563660724900992"><ele>95.5</ele><time>2026-05-01T15:51:52.002Z</time></trkpt><trkpt lat="43.295792915231075" lon="-2.5636134485453357"><ele>94.25</ele><time>2026-05-01T15:51:53.002Z</time></trkpt><trkpt lat="43.29590525241867" lon="-2.563564648523902"><ele>93.0</ele><time>2026-05-01T15:51:54.002Z</time></trkpt><trkpt lat="43.2960100225225" lon="-2.563512165341588"><ele>93.0</ele><time>2026-05-01T15:51:55.002Z</time></trkpt><trkpt lat="43.296120899229884" lon="-2.563460596552064"><ele>93.0</ele><time>2026-05-01T15:51:56.002Z</time></trkpt><trkpt lat="43.296227608264985" lon="-2.563416763585548"><ele>93.0</ele><time>2026-05-01T15:51:57.002Z</time></trkpt><trkpt lat="43.29632698823072" lon="-2.563377418737167"><ele>93.0</ele><time>2026-05-01T15:51:58.002Z</time></trkpt><trkpt lat="43.29641752968402" lon="-2.5633436560818135"><ele>93.0</ele><time>2026-05-01T15:51:59.002Z</time></trkpt><trkpt lat="43.29650795614606" lon="-2.563303440946617"><ele>93.33333333333333</ele><time>2026-05-01T15:52:00.002Z</time></trkpt><trkpt lat="43.29660248716474" lon="-2.563259163241506"><ele>93.66666666666667</ele><time>2026-05-01T15:52:01.002Z</time></trkpt><trkpt lat="43.29667677102804" lon="-2.5632246469070923"><ele>94.0</ele><time>2026-05-01T15:52:02.002Z</time></trkpt><trkpt lat="43.29674244054666" lon="-2.563186077503778"><ele>94.33333333333334</ele><time>2026-05-01T15:52:03.002Z</time></trkpt><trkpt lat="43.296823908245045" lon="-2.563130534729129"><ele>94.66666666666667</ele><time>2026-05-01T15:52:04.002Z</time></trkpt><trkpt lat="43.29690139446773" lon="-2.563027819358608"><ele>95.0</ele><time>2026-05-01T15:52:05.002Z</time></trkpt><trkpt lat="43.29697967649263" lon="-2.5629564357470147"><ele>95.0</ele><time>2026-05-01T15:52:06.002Z</time></trkpt><trkpt lat="43.29705210915641" lon="-2.562918509011494"><ele>95.0</ele><time>2026-05-01T15:52:07Z</time></trkpt><trkpt lat="43.297125063009716" lon="-2.562819031488538"><ele>95.0</ele><time>2026-05-01T15:52:08Z</time></trkpt><trkpt lat="43.29721273311055" lon="-2.5627341469247416"><ele>95.0</ele><time>2026-05-01T15:52:09Z</time></trkpt><trkpt lat="43.297329603504906" lon="-2.562631743506529"><ele>95.0</ele><time>2026-05-01T15:52:10Z</time></trkpt><trkpt lat="43.29741092627635" lon="-2.5625735101436202"><ele>94.0</ele><time>2026-05-01T15:52:11Z</time></trkpt><trkpt lat="43.297500064920776" lon="-2.5625097603920723"><ele>93.0</ele><time>2026-05-01T15:52:12Z</time></trkpt><trkpt lat="43.29758303788103" lon="-2.562403032165851"><ele>92.0</ele><time>2026-05-01T15:52:13Z</time></trkpt><trkpt lat="43.29766328684918" lon="-2.5623337692068513"><ele>91.0</ele><time>2026-05-01T15:52:14Z</time></trkpt><trkpt lat="43.29773575338946" lon="-2.562261149975334"><ele>90.0</ele><time>2026-05-01T15:52:15Z</time></trkpt><trkpt lat="43.29781072622086" lon="-2.562166678729149"><ele>90.0</ele><time>2026-05-01T15:52:16Z</time></trkpt><trkpt lat="43.29787735762017" lon="-2.5620759273100573"><ele>90.0</ele><time>2026-05-01T15:52:17Z</time></trkpt><trkpt lat="43.297930310270715" lon="-2.561986284461461"><ele>90.0</ele><time>2026-05-01T15:52:18Z</time></trkpt><trkpt lat="43.2979777132728" lon="-2.5618780275143234"><ele>90.0</ele><time>2026-05-01T15:52:19Z</time></trkpt><trkpt lat="43.29802731980411" lon="-2.5617564899220446"><ele>90.0</ele><time>2026-05-01T15:52:20Z</time></trkpt><trkpt lat="43.29809160478124" lon="-2.5616252738832923"><ele>89.0</ele><time>2026-05-01T15:52:21Z</time></trkpt><trkpt lat="43.298183203080995" lon="-2.561479824145834"><ele>88.0</ele><time>2026-05-01T15:52:22Z</time></trkpt><trkpt lat="43.29825116712489" lon="-2.561309550326162"><ele>87.0</ele><time>2026-05-01T15:52:23Z</time></trkpt><trkpt lat="43.298324351605324" lon="-2.5611361986358254"><ele>86.0</ele><time>2026-05-01T15:52:24Z</time></trkpt><trkpt lat="43.298397626621785" lon="-2.5609563985577974"><ele>85.25</ele><time>2026-05-01T15:52:25Z</time></trkpt><trkpt lat="43.29845783129176" lon="-2.5608018522941602"><ele>84.5</ele><time>2026-05-01T15:52:26Z</time></trkpt><trkpt lat="43.298513753515195" lon="-2.5606907717366503"><ele>83.75</ele><time>2026-05-01T15:52:27Z</time></trkpt><trkpt lat="43.298570975636565" lon="-2.560557276013348"><ele>83.0</ele><time>2026-05-01T15:52:28Z</time></trkpt><trkpt lat="43.2986335471063" lon="-2.560395166427154"><ele>81.33333333333334</ele><time>2026-05-01T15:52:29Z</time></trkpt><trkpt lat="43.29871006022031" lon="-2.560201211994389"><ele>79.66666666666667</ele><time>2026-05-01T15:52:30Z</time></trkpt><trkpt lat="43.298791027444494" lon="-2.559993657043654"><ele>78.0</ele><time>2026-05-01T15:52:31Z</time></trkpt><trkpt lat="43.29888069727453" lon="-2.559765920126963"><ele>77.66666666666667</ele><time>2026-05-01T15:52:32Z</time></trkpt><trkpt lat="43.29896596332135" lon="-2.5595148833544434"><ele>77.33333333333334</ele><time>2026-05-01T15:52:33Z</time></trkpt><trkpt lat="43.29906510178291" lon="-2.559260432651314"><ele>77.0</ele><time>2026-05-01T15:52:34Z</time></trkpt><trkpt lat="43.29916528561309" lon="-2.559003449277748"><ele>77.0</ele><time>2026-05-01T15:52:35Z</time></trkpt><trkpt lat="43.29926739349487" lon="-2.5587418946889593"><ele>77.0</ele><time>2026-05-01T15:52:36Z</time></trkpt><trkpt lat="43.299369350738516" lon="-2.558480725968174"><ele>77.0</ele><time>2026-05-01T15:52:37Z</time></trkpt><trkpt lat="43.29946835492385" lon="-2.5582205710410935"><ele>76.33333333333334</ele><time>2026-05-01T15:52:38Z</time></trkpt><trkpt lat="43.29956819338206" lon="-2.5579579874666396"><ele>75.66666666666667</ele><time>2026-05-01T15:52:39Z</time></trkpt><trkpt lat="43.29968132873785" lon="-2.5576895588510733"><ele>75.0</ele><time>2026-05-01T15:52:40Z</time></trkpt><trkpt lat="43.29977647884248" lon="-2.557438444214111"><ele>75.66666666666667</ele><time>2026-05-01T15:52:41Z</time></trkpt><trkpt lat="43.299871841149496" lon="-2.5571825149526766"><ele>76.33333333333334</ele><time>2026-05-01T15:52:42Z</time></trkpt><trkpt lat="43.29994971770093" lon="-2.5569132168978332"><ele>77.0</ele><time>2026-05-01T15:52:43Z</time></trkpt><trkpt lat="43.30003545462447" lon="-2.5566227671063047"><ele>77.0</ele><time>2026-05-01T15:52:44Z</time></trkpt><trkpt lat="43.300125146367186" lon="-2.5563208450071437"><ele>77.0</ele><time>2026-05-01T15:52:45Z</time></trkpt><trkpt lat="43.30021722306871" lon="-2.5560202008647153"><ele>78.0</ele><time>2026-05-01T15:52:46Z</time></trkpt><trkpt lat="43.30030607843269" lon="-2.555721686184832"><ele>79.0</ele><time>2026-05-01T15:52:47Z</time></trkpt><trkpt lat="43.30039563341056" lon="-2.555432388526491"><ele>81.0</ele><time>2026-05-01T15:52:48Z</time></trkpt><trkpt lat="43.30047960502811" lon="-2.555159876312352"><ele>83.0</ele><time>2026-05-01T15:52:49.001Z</time></trkpt><trkpt lat="43.30055583456132" lon="-2.554904245294126"><ele>85.0</ele><time>2026-05-01T15:52:50.001Z</time></trkpt><trkpt lat="43.30061972811374" lon="-2.5546984253159697"><ele>86.66666666666666</ele><time>2026-05-01T15:52:51.001Z</time></trkpt><trkpt lat="43.30068894768022" lon="-2.5544917958495663"><ele>88.33333333333333</ele><time>2026-05-01T15:52:52.001Z</time></trkpt><trkpt lat="43.300728945714916" lon="-2.5543055471350478"><ele>90.0</ele><time>2026-05-01T15:52:53.001Z</time></trkpt><trkpt lat="43.30076614361418" lon="-2.5540949721766895"><ele>90.0</ele><time>2026-05-01T15:52:54.001Z</time></trkpt><trkpt lat="43.30078322912464" lon="-2.5538804841009335"><ele>90.0</ele><time>2026-05-01T15:52:55.001Z</time></trkpt><trkpt lat="43.30075995188067" lon="-2.5536803502557"><ele>90.0</ele><time>2026-05-01T15:52:56.001Z</time></trkpt><trkpt lat="43.300712729578656" lon="-2.5534766450705013"><ele>90.33333333333333</ele><time>2026-05-01T15:52:57.001Z</time></trkpt><trkpt lat="43.300674549592884" lon="-2.553278084550139"><ele>90.66666666666666</ele><time>2026-05-01T15:52:58.001Z</time></trkpt><trkpt lat="43.300663576596605" lon="-2.553055853850306"><ele>91.0</ele><time>2026-05-01T15:52:59.001Z</time></trkpt><trkpt lat="43.30067138309104" lon="-2.5528241374158203"><ele>89.25</ele><time>2026-05-01T15:53:00.001Z</time></trkpt><trkpt lat="43.30065951021023" lon="-2.5526142101321296"><ele>87.5</ele><time>2026-05-01T15:53:01.001Z</time></trkpt><trkpt lat="43.30068070002235" lon="-2.552437676408973"><ele>85.75</ele><time>2026-05-01T15:53:02.001Z</time></trkpt><trkpt lat="43.30076813499568" lon="-2.55225478678194"><ele>84.0</ele><time>2026-05-01T15:53:03.001Z</time></trkpt><trkpt lat="43.30088120446042" lon="-2.5520533684463342"><ele>81.33333333333333</ele><time>2026-05-01T15:53:04.001Z</time></trkpt><trkpt lat="43.301022624560275" lon="-2.551838596440816"><ele>78.66666666666666</ele><time>2026-05-01T15:53:05.001Z</time></trkpt><trkpt lat="43.30116640840501" lon="-2.551603670187059"><ele>76.0</ele><time>2026-05-01T15:53:06.001Z</time></trkpt><trkpt lat="43.30130719458438" lon="-2.5513184474661563"><ele>77.33333333333333</ele><time>2026-05-01T15:53:07.001Z</time></trkpt><trkpt lat="43.30143612278797" lon="-2.551073446410595"><ele>78.66666666666667</ele><time>2026-05-01T15:53:08.001Z</time></trkpt><trkpt lat="43.301540027753056" lon="-2.5508672285687157"><ele>80.0</ele><time>2026-05-01T15:53:09.001Z</time></trkpt><trkpt lat="43.3016394583088" lon="-2.55066989097926"><ele>80.0</ele><time>2026-05-01T15:53:10.001Z</time></trkpt><trkpt lat="43.30173626061735" lon="-2.5504801399899066"><ele>80.0</ele><time>2026-05-01T15:53:11.001Z</time></trkpt><trkpt lat="43.30182373539626" lon="-2.5503010534012724"><ele>80.0</ele><time>2026-05-01T15:53:12.001Z</time></trkpt><trkpt lat="43.301878591027965" lon="-2.55010956130127"><ele>78.0</ele><time>2026-05-01T15:53:13.001Z</time></trkpt><trkpt lat="43.30192327956421" lon="-2.549873160281322"><ele>76.0</ele><time>2026-05-01T15:53:14.001Z</time></trkpt><trkpt lat="43.301986664198644" lon="-2.5496410405188064"><ele>74.0</ele><time>2026-05-01T15:53:15.001Z</time></trkpt><trkpt lat="43.30206521139576" lon="-2.5493973896495983"><ele>73.33333333333334</ele><time>2026-05-01T15:53:16.001Z</time></trkpt><trkpt lat="43.30216608747062" lon="-2.5491509628658964"><ele>72.66666666666667</ele><time>2026-05-01T15:53:17.001Z</time></trkpt><trkpt lat="43.30228668014744" lon="-2.5488981115805704"><ele>72.0</ele><time>2026-05-01T15:53:18.001Z</time></trkpt><trkpt lat="43.30240943888385" lon="-2.5486506794924066"><ele>71.5</ele><time>2026-05-01T15:53:19.001Z</time></trkpt><trkpt lat="43.30253799717722" lon="-2.548392649257959"><ele>71.0</ele><time>2026-05-01T15:53:20.001Z</time></trkpt><trkpt lat="43.30267277112883" lon="-2.5481276143317686"><ele>67.5</ele><time>2026-05-01T15:53:21.001Z</time></trkpt><trkpt lat="43.302807469646055" lon="-2.547864207317873"><ele>64.0</ele><time>2026-05-01T15:53:22.001Z</time></trkpt><trkpt lat="43.302942460376855" lon="-2.547593172149449"><ele>64.0</ele><time>2026-05-01T15:53:23.001Z</time></trkpt><trkpt lat="43.30307970653412" lon="-2.5473255862804973"><ele>64.0</ele><time>2026-05-01T15:53:24.001Z</time></trkpt><trkpt lat="43.303225187322596" lon="-2.547058077267627"><ele>65.5</ele><time>2026-05-01T15:53:25.001Z</time></trkpt><trkpt lat="43.303374424328446" lon="-2.546790940984523"><ele>67.0</ele><time>2026-05-01T15:53:26.001Z</time></trkpt><trkpt lat="43.30352335168589" lon="-2.546536390253931"><ele>67.0</ele><time>2026-05-01T15:53:27.001Z</time></trkpt><trkpt lat="43.30368413682729" lon="-2.5462845005229022"><ele>67.0</ele><time>2026-05-01T15:53:28.001Z</time></trkpt><trkpt lat="43.303834859783336" lon="-2.5460548077704774"><ele>69.0</ele><time>2026-05-01T15:53:29.001Z</time></trkpt><trkpt lat="43.30396471730604" lon="-2.5458628621729495"><ele>71.0</ele><time>2026-05-01T15:53:30.001Z</time></trkpt><trkpt lat="43.304097991892164" lon="-2.5456884909928807"><ele>73.0</ele><time>2026-05-01T15:53:31.001Z</time></trkpt><trkpt lat="43.30426479916465" lon="-2.5455378275754446"><ele>73.0</ele><time>2026-05-01T15:53:32.001Z</time></trkpt><trkpt lat="43.30444325943572" lon="-2.545423166484121"><ele>73.0</ele><time>2026-05-01T15:53:33.001Z</time></trkpt><trkpt lat="43.3046492645848" lon="-2.5452970114421607"><ele>73.0</ele><time>2026-05-01T15:53:34.001Z</time></trkpt><trkpt lat="43.30486870716248" lon="-2.54516301763682"><ele>69.0</ele><time>2026-05-01T15:53:35.001Z</time></trkpt><trkpt lat="43.30508803344949" lon="-2.545035995058068"><ele>65.0</ele><time>2026-05-01T15:53:36.001Z</time></trkpt><trkpt lat="43.30531303375053" lon="-2.5449095113265914"><ele>65.0</ele><time>2026-05-01T15:53:37.001Z</time></trkpt><trkpt lat="43.30553479664666" lon="-2.544788641479186"><ele>65.0</ele><time>2026-05-01T15:53:38.001Z</time></trkpt><trkpt lat="43.30576309266498" lon="-2.544669936298129"><ele>61.5</ele><time>2026-05-01T15:53:39.001Z</time></trkpt><trkpt lat="43.30599175075127" lon="-2.5445510446132316"><ele>58.0</ele><time>2026-05-01T15:53:40.001Z</time></trkpt><trkpt lat="43.30623483732944" lon="-2.5444288012846"><ele>61.5</ele><time>2026-05-01T15:53:41.001Z</time></trkpt><trkpt lat="43.30647650324619" lon="-2.544308854089753"><ele>65.0</ele><time>2026-05-01T15:53:42.001Z</time></trkpt><trkpt lat="43.30670648606825" lon="-2.5441941956469196"><ele>65.0</ele><time>2026-05-01T15:53:43.001Z</time></trkpt><trkpt lat="43.306933997505546" lon="-2.544079955122522"><ele>65.0</ele><time>2026-05-01T15:53:44.001Z</time></trkpt><trkpt lat="43.30716287531298" lon="-2.5439853305009836"><ele>65.0</ele><time>2026-05-01T15:53:45.001Z</time></trkpt><trkpt lat="43.30735586147662" lon="-2.5438713568723696"><ele>65.0</ele><time>2026-05-01T15:53:46.001Z</time></trkpt><trkpt lat="43.30753401727477" lon="-2.5437510940137287"><ele>65.0</ele><time>2026-05-01T15:53:47.001Z</time></trkpt><trkpt lat="43.30770020447432" lon="-2.543603041860271"><ele>65.0</ele><time>2026-05-01T15:53:48.001Z</time></trkpt><trkpt lat="43.30783959508057" lon="-2.5434501303039365"><ele>65.0</ele><time>2026-05-01T15:53:49.001Z</time></trkpt><trkpt lat="43.30796895550447" lon="-2.5432725908362404"><ele>65.0</ele><time>2026-05-01T15:53:50.001Z</time></trkpt><trkpt lat="43.308060324034614" lon="-2.5431303116357586"><ele>65.66666666666667</ele><time>2026-05-01T15:53:51.001Z</time></trkpt><trkpt lat="43.30813412883724" lon="-2.5429407705387455"><ele>66.33333333333333</ele><time>2026-05-01T15:53:52.001Z</time></trkpt><trkpt lat="43.3081872275705" lon="-2.542697557671776"><ele>67.0</ele><time>2026-05-01T15:53:53.001Z</time></trkpt><trkpt lat="43.308253530459915" lon="-2.542465335821057"><ele>67.0</ele><time>2026-05-01T15:53:54.001Z</time></trkpt><trkpt lat="43.30838252038407" lon="-2.5422464374710105"><ele>67.0</ele><time>2026-05-01T15:53:55.001Z</time></trkpt><trkpt lat="43.30851167090172" lon="-2.5420203563738832"><ele>67.0</ele><time>2026-05-01T15:53:56.001Z</time></trkpt><trkpt lat="43.30865526923226" lon="-2.541807956036253"><ele>67.66666666666666</ele><time>2026-05-01T15:53:57.002Z</time></trkpt><trkpt lat="43.30880116922341" lon="-2.541609338933895"><ele>68.33333333333333</ele><time>2026-05-01T15:53:58.002Z</time></trkpt><trkpt lat="43.30892873389689" lon="-2.541467580560816"><ele>69.0</ele><time>2026-05-01T15:53:59.002Z</time></trkpt><trkpt lat="43.30906333086973" lon="-2.5413302361653827"><ele>69.0</ele><time>2026-05-01T15:54:00.002Z</time></trkpt><trkpt lat="43.309233447853785" lon="-2.541232036372712"><ele>69.0</ele><time>2026-05-01T15:54:01.002Z</time></trkpt><trkpt lat="43.30945154880456" lon="-2.541171650762047"><ele>69.0</ele><time>2026-05-01T15:54:02.002Z</time></trkpt><trkpt lat="43.30968657370042" lon="-2.541088138813787"><ele>66.5</ele><time>2026-05-01T15:54:03.002Z</time></trkpt><trkpt lat="43.309924763879785" lon="-2.5409852057831936"><ele>64.0</ele><time>2026-05-01T15:54:04.002Z</time></trkpt><trkpt lat="43.310157685190234" lon="-2.5408946595884894"><ele>64.0</ele><time>2026-05-01T15:54:05.002Z</time></trkpt><trkpt lat="43.31039121137302" lon="-2.5408052015271814"><ele>64.0</ele><time>2026-05-01T15:54:06.002Z</time></trkpt><trkpt lat="43.31061486541081" lon="-2.5407150966748464"><ele>67.66666666666666</ele><time>2026-05-01T15:54:07.002Z</time></trkpt><trkpt lat="43.31082665271221" lon="-2.540645331748568"><ele>71.33333333333333</ele><time>2026-05-01T15:54:08.002Z</time></trkpt><trkpt lat="43.311026489174715" lon="-2.540564623276879"><ele>75.0</ele><time>2026-05-01T15:54:09.002Z</time></trkpt><trkpt lat="43.31120859990478" lon="-2.5405040151022753"><ele>75.0</ele><time>2026-05-01T15:54:10.002Z</time></trkpt><trkpt lat="43.311372306220825" lon="-2.540481423128244"><ele>75.0</ele><time>2026-05-01T15:54:11.002Z</time></trkpt><trkpt lat="43.31156666789211" lon="-2.5404776031653125"><ele>75.0</ele><time>2026-05-01T15:54:12.002Z</time></trkpt><trkpt lat="43.311780717221446" lon="-2.540541931920515"><ele>76.33333333333333</ele><time>2026-05-01T15:54:13Z</time></trkpt><trkpt lat="43.31200049593762" lon="-2.540546920581311"><ele>77.66666666666666</ele><time>2026-05-01T15:54:14Z</time></trkpt><trkpt lat="43.31222115476652" lon="-2.540560449662304"><ele>79.0</ele><time>2026-05-01T15:54:15Z</time></trkpt><trkpt lat="43.31244644980406" lon="-2.540581850609101"><ele>79.0</ele><time>2026-05-01T15:54:16Z</time></trkpt><trkpt lat="43.31268992349645" lon="-2.540621921866616"><ele>79.0</ele><time>2026-05-01T15:54:17Z</time></trkpt><trkpt lat="43.312955470297894" lon="-2.540646258396342"><ele>71.5</ele><time>2026-05-01T15:54:18Z</time></trkpt><trkpt lat="43.313187985263006" lon="-2.5406949541734476"><ele>64.0</ele><time>2026-05-01T15:54:19Z</time></trkpt><trkpt lat="43.313417063579756" lon="-2.5407819220548964"><ele>64.0</ele><time>2026-05-01T15:54:20Z</time></trkpt><trkpt lat="43.31364256860957" lon="-2.5407806882510693"><ele>64.0</ele><time>2026-05-01T15:54:21Z</time></trkpt><trkpt lat="43.31382288467303" lon="-2.5408142851280546"><ele>64.0</ele><time>2026-05-01T15:54:22Z</time></trkpt><trkpt lat="43.31400059339859" lon="-2.540826565339519"><ele>61.33333333333333</ele><time>2026-05-01T15:54:23Z</time></trkpt><trkpt lat="43.31415629522269" lon="-2.540832677900656"><ele>58.66666666666667</ele><time>2026-05-01T15:54:24Z</time></trkpt><trkpt lat="43.31429419251792" lon="-2.54085286329362"><ele>56.0</ele><time>2026-05-01T15:54:25Z</time></trkpt><trkpt lat="43.31449215124447" lon="-2.540881183190375"><ele>56.0</ele><time>2026-05-01T15:54:26Z</time></trkpt><trkpt lat="43.31468488529125" lon="-2.540920209713827"><ele>56.0</ele><time>2026-05-01T15:54:27Z</time></trkpt><trkpt lat="43.31490905615779" lon="-2.5409297721574107"><ele>56.0</ele><time>2026-05-01T15:54:28Z</time></trkpt><trkpt lat="43.31514561175401" lon="-2.5409577812664126"><ele>54.0</ele><time>2026-05-01T15:54:29Z</time></trkpt><trkpt lat="43.31538989606959" lon="-2.540978469272788"><ele>52.0</ele><time>2026-05-01T15:54:30Z</time></trkpt><trkpt lat="43.315649041975846" lon="-2.540986068356415"><ele>50.5</ele><time>2026-05-01T15:54:31Z</time></trkpt><trkpt lat="43.31591102736206" lon="-2.5410061574498357"><ele>49.0</ele><time>2026-05-01T15:54:32Z</time></trkpt><trkpt lat="43.3161728086999" lon="-2.5410444646061134"><ele>49.0</ele><time>2026-05-01T15:54:33Z</time></trkpt><trkpt lat="43.31645576465032" lon="-2.541037723493668"><ele>49.0</ele><time>2026-05-01T15:54:34Z</time></trkpt><trkpt lat="43.31671358401257" lon="-2.541061700018941"><ele>49.0</ele><time>2026-05-01T15:54:35Z</time></trkpt><trkpt lat="43.31699248501993" lon="-2.5410612436794735"><ele>49.0</ele><time>2026-05-01T15:54:36Z</time></trkpt><trkpt lat="43.31725334417263" lon="-2.5410554584778553"><ele>48.0</ele><time>2026-05-01T15:54:37Z</time></trkpt><trkpt lat="43.317505994564804" lon="-2.541078680471955"><ele>47.0</ele><time>2026-05-01T15:54:38Z</time></trkpt><trkpt lat="43.3177578583431" lon="-2.541073675640975"><ele>47.0</ele><time>2026-05-01T15:54:39Z</time></trkpt><trkpt lat="43.318001943917324" lon="-2.541070969451269"><ele>47.0</ele><time>2026-05-01T15:54:40Z</time></trkpt><trkpt lat="43.3182178948282" lon="-2.5411182311373754"><ele>48.5</ele><time>2026-05-01T15:54:41Z</time></trkpt><trkpt lat="43.31845253720433" lon="-2.541115691030987"><ele>50.0</ele><time>2026-05-01T15:54:42Z</time></trkpt><trkpt lat="43.31868826807627" lon="-2.5411220626930606"><ele>50.333333333333336</ele><time>2026-05-01T15:54:43Z</time></trkpt><trkpt lat="43.31891670518544" lon="-2.541121221813704"><ele>50.66666666666667</ele><time>2026-05-01T15:54:44Z</time></trkpt><trkpt lat="43.31912766815254" lon="-2.541144975592392"><ele>51.0</ele><time>2026-05-01T15:54:45Z</time></trkpt><trkpt lat="43.3193515523795" lon="-2.5411807764518146"><ele>53.0</ele><time>2026-05-01T15:54:46Z</time></trkpt><trkpt lat="43.31956916837033" lon="-2.541247113275476"><ele>55.0</ele><time>2026-05-01T15:54:47Z</time></trkpt><trkpt lat="43.31982563301588" lon="-2.541299539343407"><ele>55.0</ele><time>2026-05-01T15:54:48Z</time></trkpt><trkpt lat="43.320082001604646" lon="-2.5413674773218786"><ele>55.0</ele><time>2026-05-01T15:54:49Z</time></trkpt><trkpt lat="43.32033695262663" lon="-2.541433127401787"><ele>51.5</ele><time>2026-05-01T15:54:50Z</time></trkpt><trkpt lat="43.32059779388616" lon="-2.5415251481391126"><ele>48.0</ele><time>2026-05-01T15:54:51Z</time></trkpt><trkpt lat="43.32088761108267" lon="-2.541597405410157"><ele>48.0</ele><time>2026-05-01T15:54:52Z</time></trkpt><trkpt lat="43.3211585765742" lon="-2.5416860706538897"><ele>48.0</ele><time>2026-05-01T15:54:53.001Z</time></trkpt><trkpt lat="43.3214373711846" lon="-2.5417282517032347"><ele>47.0</ele><time>2026-05-01T15:54:54.001Z</time></trkpt><trkpt lat="43.321712702162" lon="-2.5417894742365377"><ele>46.0</ele><time>2026-05-01T15:54:55.001Z</time></trkpt><trkpt lat="43.32196874766049" lon="-2.541851475396011"><ele>46.0</ele><time>2026-05-01T15:54:56.001Z</time></trkpt><trkpt lat="43.32220471924124" lon="-2.5419138726955017"><ele>46.0</ele><time>2026-05-01T15:54:57.001Z</time></trkpt><trkpt lat="43.32244869271678" lon="-2.541986017152879"><ele>46.0</ele><time>2026-05-01T15:54:58.001Z</time></trkpt><trkpt lat="43.32270065086969" lon="-2.542046636637087"><ele>46.0</ele><time>2026-05-01T15:54:59.001Z</time></trkpt><trkpt lat="43.322950193987964" lon="-2.54211276592552"><ele>55.0</ele><time>2026-05-01T15:55:00.001Z</time></trkpt><trkpt lat="43.32319943274482" lon="-2.5421684707496164"><ele>64.0</ele><time>2026-05-01T15:55:01.001Z</time></trkpt><trkpt lat="43.32344583421826" lon="-2.542246151796915"><ele>64.0</ele><time>2026-05-01T15:55:02.001Z</time></trkpt><trkpt lat="43.32369896441775" lon="-2.542322853171909"><ele>64.0</ele><time>2026-05-01T15:55:03.001Z</time></trkpt><trkpt lat="43.323961913541055" lon="-2.5423891620128978"><ele>61.0</ele><time>2026-05-01T15:55:04.001Z</time></trkpt><trkpt lat="43.324213304361464" lon="-2.5424370810548274"><ele>58.0</ele><time>2026-05-01T15:55:05.001Z</time></trkpt><trkpt lat="43.32445305475982" lon="-2.5425106418874277"><ele>58.0</ele><time>2026-05-01T15:55:06.001Z</time></trkpt><trkpt lat="43.32467719980656" lon="-2.542579369189778"><ele>58.0</ele><time>2026-05-01T15:55:07.001Z</time></trkpt><trkpt lat="43.32492440800284" lon="-2.542675668940972"><ele>55.0</ele><time>2026-05-01T15:55:08.001Z</time></trkpt><trkpt lat="43.325176663888854" lon="-2.5427568140926993"><ele>52.0</ele><time>2026-05-01T15:55:09.001Z</time></trkpt><trkpt lat="43.325418069933505" lon="-2.54283805249448"><ele>61.5</ele><time>2026-05-01T15:55:10.001Z</time></trkpt><trkpt lat="43.325661199451595" lon="-2.5429653510723482"><ele>71.0</ele><time>2026-05-01T15:55:11.001Z</time></trkpt><trkpt lat="43.325879850318" lon="-2.543038649152762"><ele>71.0</ele><time>2026-05-01T15:55:12.001Z</time></trkpt><trkpt lat="43.32612424235556" lon="-2.543146258537804"><ele>71.0</ele><time>2026-05-01T15:55:13.001Z</time></trkpt><trkpt lat="43.326341105014265" lon="-2.5432311153591582"><ele>64.0</ele><time>2026-05-01T15:55:14.001Z</time></trkpt><trkpt lat="43.32657013170357" lon="-2.5432965525200215"><ele>57.0</ele><time>2026-05-01T15:55:15.001Z</time></trkpt><trkpt lat="43.32679439602812" lon="-2.543318634911211"><ele>57.0</ele><time>2026-05-01T15:55:16.001Z</time></trkpt><trkpt lat="43.32699979858872" lon="-2.5433296607642313"><ele>57.0</ele><time>2026-05-01T15:55:17.001Z</time></trkpt><trkpt lat="43.32722118125074" lon="-2.5433410615766125"><ele>57.0</ele><time>2026-05-01T15:55:18.001Z</time></trkpt><trkpt lat="43.32744611926055" lon="-2.5433797366844075"><ele>54.33333333333333</ele><time>2026-05-01T15:55:19.001Z</time></trkpt><trkpt lat="43.32765089772167" lon="-2.543421229993339"><ele>51.666666666666664</ele><time>2026-05-01T15:55:20.001Z</time></trkpt><trkpt lat="43.327863022917036" lon="-2.5434535583414295"><ele>49.0</ele><time>2026-05-01T15:55:21.001Z</time></trkpt><trkpt lat="43.32807375307066" lon="-2.5434854193872622"><ele>47.33333333333333</ele><time>2026-05-01T15:55:22.001Z</time></trkpt><trkpt lat="43.32828701313206" lon="-2.543506288770717"><ele>45.666666666666664</ele><time>2026-05-01T15:55:23.001Z</time></trkpt><trkpt lat="43.32848329675722" lon="-2.543529432814406"><ele>44.0</ele><time>2026-05-01T15:55:24.001Z</time></trkpt><trkpt lat="43.32865156050186" lon="-2.54352284061275"><ele>44.0</ele><time>2026-05-01T15:55:25.001Z</time></trkpt><trkpt lat="43.32885276384076" lon="-2.543492053405288"><ele>44.0</ele><time>2026-05-01T15:55:26.001Z</time></trkpt><trkpt lat="43.329046791935426" lon="-2.543468009971656"><ele>44.0</ele><time>2026-05-01T15:55:27.001Z</time></trkpt><trkpt lat="43.32925443425836" lon="-2.54338338495657"><ele>43.0</ele><time>2026-05-01T15:55:28.001Z</time></trkpt><trkpt lat="43.329481150555736" lon="-2.5433232743072414"><ele>42.0</ele><time>2026-05-01T15:55:29.001Z</time></trkpt><trkpt lat="43.32969286671352" lon="-2.5432549451869995"><ele>41.0</ele><time>2026-05-01T15:55:30.001Z</time></trkpt><trkpt lat="43.329907150298894" lon="-2.543174746638154"><ele>41.0</ele><time>2026-05-01T15:55:31.001Z</time></trkpt><trkpt lat="43.33008161890201" lon="-2.543137242531999"><ele>41.0</ele><time>2026-05-01T15:55:32.001Z</time></trkpt><trkpt lat="43.33027289623835" lon="-2.5430461807253324"><ele>41.0</ele><time>2026-05-01T15:55:33.001Z</time></trkpt><trkpt lat="43.330373953922425" lon="-2.542995441378545"><ele>41.0</ele><time>2026-05-01T15:55:34.001Z</time></trkpt><trkpt lat="43.33053268495355" lon="-2.542883523953761"><ele>41.0</ele><time>2026-05-01T15:55:35.001Z</time></trkpt><trkpt lat="43.33064411480212" lon="-2.54277652935804"><ele>41.0</ele><time>2026-05-01T15:55:36.001Z</time></trkpt><trkpt lat="43.33077179266254" lon="-2.5426122290547433"><ele>42.0</ele><time>2026-05-01T15:55:37.001Z</time></trkpt><trkpt lat="43.330846590148326" lon="-2.542393013700356"><ele>43.0</ele><time>2026-05-01T15:55:38.001Z</time></trkpt><trkpt lat="43.33092413124755" lon="-2.5421291764952803"><ele>44.0</ele><time>2026-05-01T15:55:39.001Z</time></trkpt><trkpt lat="43.33096698690931" lon="-2.541854690945962"><ele>44.0</ele><time>2026-05-01T15:55:40.001Z</time></trkpt><trkpt lat="43.33101309981826" lon="-2.5415889849156157"><ele>44.0</ele><time>2026-05-01T15:55:41.001Z</time></trkpt><trkpt lat="43.331063194310644" lon="-2.5413271020101567"><ele>44.0</ele><time>2026-05-01T15:55:42.001Z</time></trkpt><trkpt lat="43.331081101477544" lon="-2.5410475748794217"><ele>44.33333333333333</ele><time>2026-05-01T15:55:43.001Z</time></trkpt><trkpt lat="43.33103619335354" lon="-2.540762664588092"><ele>44.666666666666664</ele><time>2026-05-01T15:55:44.001Z</time></trkpt><trkpt lat="43.33097441428079" lon="-2.540493311103777"><ele>45.0</ele><time>2026-05-01T15:55:45.001Z</time></trkpt><trkpt lat="43.33091116818614" lon="-2.5402439185538066"><ele>47.66666666666667</ele><time>2026-05-01T15:55:46.001Z</time></trkpt><trkpt lat="43.33087069721706" lon="-2.5400135439933793"><ele>50.333333333333336</ele><time>2026-05-01T15:55:47.001Z</time></trkpt><trkpt lat="43.330808063439775" lon="-2.539812015125279"><ele>53.0</ele><time>2026-05-01T15:55:48.001Z</time></trkpt><trkpt lat="43.330787263854354" lon="-2.5396089657760785"><ele>52.599999999999994</ele><time>2026-05-01T15:55:49.001Z</time></trkpt><trkpt lat="43.33075805038502" lon="-2.5394160275283957"><ele>52.199999999999996</ele><time>2026-05-01T15:55:50.001Z</time></trkpt><trkpt lat="43.330755703873315" lon="-2.5392614067038526"><ele>51.8</ele><time>2026-05-01T15:55:51.001Z</time></trkpt><trkpt lat="43.33075910065681" lon="-2.5391604694219416"><ele>51.4</ele><time>2026-05-01T15:55:52.001Z</time></trkpt><trkpt lat="43.33076156620954" lon="-2.53906510905196"><ele>51.0</ele><time>2026-05-01T15:55:53.001Z</time></trkpt><trkpt lat="43.33076478255342" lon="-2.5389667397857765"><ele>51.0</ele><time>2026-05-01T15:55:54.001Z</time></trkpt><trkpt lat="43.330771908187856" lon="-2.5388756207129783"><ele>51.0</ele><time>2026-05-01T15:55:55.001Z</time></trkpt><trkpt lat="43.33076406383707" lon="-2.5387572281325945"><ele>51.0</ele><time>2026-05-01T15:55:56.001Z</time></trkpt><trkpt lat="43.33079513945103" lon="-2.5386455483936836"><ele>51.0</ele><time>2026-05-01T15:55:57.001Z</time></trkpt><trkpt lat="43.33080981489231" lon="-2.538528619130147"><ele>51.0</ele><time>2026-05-01T15:55:58.001Z</time></trkpt><trkpt lat="43.33081590419757" lon="-2.5384252378584367"><ele>51.0</ele><time>2026-05-01T15:55:59.001Z</time></trkpt><trkpt lat="43.33082341251101" lon="-2.5383386470325915"><ele>50.0</ele><time>2026-05-01T15:56:00.001Z</time></trkpt><trkpt lat="43.330815444297855" lon="-2.5382356592096076"><ele>49.0</ele><time>2026-05-01T15:56:01.001Z</time></trkpt><trkpt lat="43.330827244429976" lon="-2.5381158746213144"><ele>48.0</ele><time>2026-05-01T15:56:02.001Z</time></trkpt><trkpt lat="43.330840390799715" lon="-2.537982423100284"><ele>47.0</ele><time>2026-05-01T15:56:03.002Z</time></trkpt><trkpt lat="43.33085465156053" lon="-2.537837657799231"><ele>46.0</ele><time>2026-05-01T15:56:04.002Z</time></trkpt><trkpt lat="43.33086532014954" lon="-2.53772935770537"><ele>45.0</ele><time>2026-05-01T15:56:05.002Z</time></trkpt><trkpt lat="43.3309209372082" lon="-2.5375684262314797"><ele>44.2</ele><time>2026-05-01T15:56:07.002Z</time></trkpt><trkpt lat="43.330967650004816" lon="-2.53745089780693"><ele>43.4</ele><time>2026-05-01T15:56:09.002Z</time></trkpt><trkpt lat="43.33104458094276" lon="-2.5373154638188113"><ele>42.599999999999994</ele><time>2026-05-01T15:56:11.002Z</time></trkpt><trkpt lat="43.331096520013936" lon="-2.537235617893921"><ele>41.8</ele><time>2026-05-01T15:56:12.002Z</time></trkpt><trkpt lat="43.33117472986091" lon="-2.5371514796021324"><ele>41.0</ele><time>2026-05-01T15:56:13.002Z</time></trkpt><trkpt lat="43.33127552296331" lon="-2.5370817596689643"><ele>40.5</ele><time>2026-05-01T15:56:14.002Z</time></trkpt><trkpt lat="43.33138646723942" lon="-2.537044560023568"><ele>40.0</ele><time>2026-05-01T15:56:15.002Z</time></trkpt><trkpt lat="43.33151448966537" lon="-2.537018002144608"><ele>39.5</ele><time>2026-05-01T15:56:16.002Z</time></trkpt><trkpt lat="43.33166401528948" lon="-2.5370015333916522"><ele>39.0</ele><time>2026-05-01T15:56:17.002Z</time></trkpt><trkpt lat="43.33182195775016" lon="-2.5370018262392056"><ele>39.0</ele><time>2026-05-01T15:56:18.002Z</time></trkpt><trkpt lat="43.33198316723133" lon="-2.5370030125688725"><ele>39.0</ele><time>2026-05-01T15:56:19Z</time></trkpt><trkpt lat="43.33215612327318" lon="-2.5369791526865866"><ele>39.0</ele><time>2026-05-01T15:56:20Z</time></trkpt><trkpt lat="43.33232197533988" lon="-2.5369100181330486"><ele>43.0</ele><time>2026-05-01T15:56:21Z</time></trkpt><trkpt lat="43.33248108386934" lon="-2.536799564369641"><ele>47.0</ele><time>2026-05-01T15:56:22Z</time></trkpt><trkpt lat="43.332617152535036" lon="-2.5366638417141383"><ele>51.0</ele><time>2026-05-01T15:56:23Z</time></trkpt><trkpt lat="43.33274444835206" lon="-2.536474527007054"><ele>51.0</ele><time>2026-05-01T15:56:24Z</time></trkpt><trkpt lat="43.33287211090581" lon="-2.5362606419440175"><ele>51.0</ele><time>2026-05-01T15:56:25Z</time></trkpt><trkpt lat="43.332995780160026" lon="-2.5360352434474795"><ele>51.0</ele><time>2026-05-01T15:56:26Z</time></trkpt><trkpt lat="43.33311833924245" lon="-2.5358114178640356"><ele>46.666666666666664</ele><time>2026-05-01T15:56:27Z</time></trkpt><trkpt lat="43.333246086925335" lon="-2.5355969418191284"><ele>42.33333333333333</ele><time>2026-05-01T15:56:28Z</time></trkpt><trkpt lat="43.33338070392082" lon="-2.535381283713207"><ele>38.0</ele><time>2026-05-01T15:56:29Z</time></trkpt><trkpt lat="43.33350963614526" lon="-2.535165226733212"><ele>37.33333333333333</ele><time>2026-05-01T15:56:30Z</time></trkpt><trkpt lat="43.33362327533984" lon="-2.534916914741606"><ele>36.666666666666664</ele><time>2026-05-01T15:56:31Z</time></trkpt><trkpt lat="43.333726929394565" lon="-2.5346768104471518"><ele>36.0</ele><time>2026-05-01T15:56:32Z</time></trkpt><trkpt lat="43.3338113536401" lon="-2.534423403616925"><ele>38.0</ele><time>2026-05-01T15:56:33Z</time></trkpt><trkpt lat="43.33388784503501" lon="-2.534155915108737"><ele>40.0</ele><time>2026-05-01T15:56:34Z</time></trkpt><trkpt lat="43.33394844731861" lon="-2.533881958436431"><ele>42.0</ele><time>2026-05-01T15:56:35Z</time></trkpt><trkpt lat="43.334001401887015" lon="-2.5336206671231953"><ele>46.33333333333333</ele><time>2026-05-01T15:56:36Z</time></trkpt><trkpt lat="43.334053167142194" lon="-2.533379602540862"><ele>50.666666666666664</ele><time>2026-05-01T15:56:37Z</time></trkpt><trkpt lat="43.33411359675454" lon="-2.5331472456073394"><ele>55.0</ele><time>2026-05-01T15:56:38Z</time></trkpt><trkpt lat="43.334189014045705" lon="-2.5329274933429673"><ele>50.33333333333333</ele><time>2026-05-01T15:56:39Z</time></trkpt><trkpt lat="43.33427677684999" lon="-2.532724379793837"><ele>45.666666666666664</ele><time>2026-05-01T15:56:40Z</time></trkpt><trkpt lat="43.33438039367028" lon="-2.532539394341665"><ele>41.0</ele><time>2026-05-01T15:56:41Z</time></trkpt><trkpt lat="43.33452279930626" lon="-2.532367910018807"><ele>41.0</ele><time>2026-05-01T15:56:42Z</time></trkpt><trkpt lat="43.33468787935851" lon="-2.5322179486117697"><ele>41.0</ele><time>2026-05-01T15:56:43Z</time></trkpt><trkpt lat="43.33486657974707" lon="-2.5321164126106157"><ele>41.0</ele><time>2026-05-01T15:56:44Z</time></trkpt><trkpt lat="43.33506445043631" lon="-2.5320597949956087"><ele>40.666666666666664</ele><time>2026-05-01T15:56:45Z</time></trkpt><trkpt lat="43.335275177920586" lon="-2.532033793729451"><ele>40.333333333333336</ele><time>2026-05-01T15:56:46Z</time></trkpt><trkpt lat="43.33549144917629" lon="-2.532009453370096"><ele>40.0</ele><time>2026-05-01T15:56:47Z</time></trkpt><trkpt lat="43.33570089190954" lon="-2.531973853468542"><ele>41.66666666666667</ele><time>2026-05-01T15:56:48Z</time></trkpt><trkpt lat="43.3359025595813" lon="-2.531906734594225"><ele>43.333333333333336</ele><time>2026-05-01T15:56:49Z</time></trkpt><trkpt lat="43.33607844554809" lon="-2.5318208536541102"><ele>45.0</ele><time>2026-05-01T15:56:50Z</time></trkpt><trkpt lat="43.33623578431208" lon="-2.5316839399701276"><ele>45.0</ele><time>2026-05-01T15:56:51Z</time></trkpt><trkpt lat="43.33638443542503" lon="-2.531506104890812"><ele>45.0</ele><time>2026-05-01T15:56:52Z</time></trkpt><trkpt lat="43.33651577141337" lon="-2.5312867682114693"><ele>45.0</ele><time>2026-05-01T15:56:53Z</time></trkpt><trkpt lat="43.33665603539345" lon="-2.531094487402808"><ele>44.0</ele><time>2026-05-01T15:56:54Z</time></trkpt><trkpt lat="43.336806785209205" lon="-2.5309240793688694"><ele>43.0</ele><time>2026-05-01T15:56:55Z</time></trkpt><trkpt lat="43.33698346920573" lon="-2.5307744845310185"><ele>42.0</ele><time>2026-05-01T15:56:56Z</time></trkpt><trkpt lat="43.33718799814513" lon="-2.530651658005928"><ele>40.333333333333336</ele><time>2026-05-01T15:56:57Z</time></trkpt><trkpt lat="43.337382511092244" lon="-2.5305340444579594"><ele>38.66666666666667</ele><time>2026-05-01T15:56:58Z</time></trkpt><trkpt lat="43.337572035296205" lon="-2.5304170630471825"><ele>37.0</ele><time>2026-05-01T15:56:59Z</time></trkpt><trkpt lat="43.33772532298306" lon="-2.5302410162294575"><ele>37.0</ele><time>2026-05-01T15:57:00Z</time></trkpt><trkpt lat="43.33785677789296" lon="-2.530042947515566"><ele>37.0</ele><time>2026-05-01T15:57:01Z</time></trkpt><trkpt lat="43.337966297498006" lon="-2.5298110364031396"><ele>37.0</ele><time>2026-05-01T15:57:02Z</time></trkpt><trkpt lat="43.33805746088036" lon="-2.529541228708594"><ele>37.0</ele><time>2026-05-01T15:57:03.001Z</time></trkpt><trkpt lat="43.338155458004735" lon="-2.52924912393378"><ele>37.0</ele><time>2026-05-01T15:57:04.001Z</time></trkpt><trkpt lat="43.338253170932084" lon="-2.5289471629320786"><ele>32.0</ele><time>2026-05-01T15:57:05.001Z</time></trkpt><trkpt lat="43.3383425400757" lon="-2.528650514525367"><ele>27.0</ele><time>2026-05-01T15:57:06.001Z</time></trkpt><trkpt lat="43.33842899258819" lon="-2.5283537859089735"><ele>27.0</ele><time>2026-05-01T15:57:07.001Z</time></trkpt><trkpt lat="43.338515265203576" lon="-2.5280516956960257"><ele>27.0</ele><time>2026-05-01T15:57:08.001Z</time></trkpt><trkpt lat="43.33861733163372" lon="-2.5277554994802367"><ele>26.5</ele><time>2026-05-01T15:57:09.001Z</time></trkpt><trkpt lat="43.338685799758316" lon="-2.5274525932053002"><ele>26.0</ele><time>2026-05-01T15:57:10.001Z</time></trkpt><trkpt lat="43.338800960065" lon="-2.5271456043596254"><ele>26.5</ele><time>2026-05-01T15:57:11.001Z</time></trkpt><trkpt lat="43.33889685058198" lon="-2.52681632240486"><ele>27.0</ele><time>2026-05-01T15:57:12.001Z</time></trkpt><trkpt lat="43.33899089841437" lon="-2.526480651774921"><ele>27.5</ele><time>2026-05-01T15:57:13.001Z</time></trkpt><trkpt lat="43.33907913101531" lon="-2.5261609759321164"><ele>28.0</ele><time>2026-05-01T15:57:14.001Z</time></trkpt><trkpt lat="43.33916947998703" lon="-2.525847817280617"><ele>28.0</ele><time>2026-05-01T15:57:15.001Z</time></trkpt><trkpt lat="43.33927032599081" lon="-2.525538044486653"><ele>28.0</ele><time>2026-05-01T15:57:16.001Z</time></trkpt><trkpt lat="43.339365697102906" lon="-2.5252309951445726"><ele>27.5</ele><time>2026-05-01T15:57:17.001Z</time></trkpt><trkpt lat="43.33946714703636" lon="-2.524915855994992"><ele>27.0</ele><time>2026-05-01T15:57:18.001Z</time></trkpt><trkpt lat="43.339552953384846" lon="-2.5245913970273284"><ele>26.5</ele><time>2026-05-01T15:57:19.001Z</time></trkpt><trkpt lat="43.339663499444086" lon="-2.52428980098874"><ele>26.0</ele><time>2026-05-01T15:57:20.001Z</time></trkpt><trkpt lat="43.33975788878616" lon="-2.523975905957319"><ele>27.5</ele><time>2026-05-01T15:57:21.001Z</time></trkpt><trkpt lat="43.33985566760552" lon="-2.5236657433356213"><ele>29.0</ele><time>2026-05-01T15:57:22.001Z</time></trkpt><trkpt lat="43.33995857880167" lon="-2.523359890119261"><ele>29.0</ele><time>2026-05-01T15:57:23.001Z</time></trkpt><trkpt lat="43.34005957475689" lon="-2.5230472686847394"><ele>29.0</ele><time>2026-05-01T15:57:24.001Z</time></trkpt><trkpt lat="43.340157998045676" lon="-2.5227254388874014"><ele>28.0</ele><time>2026-05-01T15:57:25.001Z</time></trkpt><trkpt lat="43.340256765276216" lon="-2.52240454221792"><ele>27.0</ele><time>2026-05-01T15:57:26.001Z</time></trkpt><trkpt lat="43.340363296528345" lon="-2.522083186136738"><ele>26.5</ele><time>2026-05-01T15:57:27.001Z</time></trkpt><trkpt lat="43.34044836764898" lon="-2.5217555954553137"><ele>26.0</ele><time>2026-05-01T15:57:28.001Z</time></trkpt><trkpt lat="43.340538638324176" lon="-2.521451613693523"><ele>31.666666666666664</ele><time>2026-05-01T15:57:29.001Z</time></trkpt><trkpt lat="43.340611019430014" lon="-2.521163439227294"><ele>37.333333333333336</ele><time>2026-05-01T15:57:30.001Z</time></trkpt><trkpt lat="43.34065407274808" lon="-2.5208704809313875"><ele>43.0</ele><time>2026-05-01T15:57:31.001Z</time></trkpt><trkpt lat="43.34066219555533" lon="-2.520574553260775"><ele>46.66666666666667</ele><time>2026-05-01T15:57:32.001Z</time></trkpt><trkpt lat="43.34063746974956" lon="-2.5202774112865494"><ele>50.333333333333336</ele><time>2026-05-01T15:57:33.001Z</time></trkpt><trkpt lat="43.340594164993995" lon="-2.5200029807395583"><ele>54.0</ele><time>2026-05-01T15:57:34.001Z</time></trkpt><trkpt lat="43.34054802997472" lon="-2.5197620176379334"><ele>48.666666666666664</ele><time>2026-05-01T15:57:35.001Z</time></trkpt><trkpt lat="43.34049782802815" lon="-2.519555345454326"><ele>43.33333333333333</ele><time>2026-05-01T15:57:36.001Z</time></trkpt><trkpt lat="43.34042770360978" lon="-2.51936731643068"><ele>38.0</ele><time>2026-05-01T15:57:37.001Z</time></trkpt><trkpt lat="43.34031463849485" lon="-2.5192015042060873"><ele>38.0</ele><time>2026-05-01T15:57:38.001Z</time></trkpt><trkpt lat="43.34017128306611" lon="-2.519072513048107"><ele>38.0</ele><time>2026-05-01T15:57:39.001Z</time></trkpt><trkpt lat="43.34000790674049" lon="-2.51899294917544"><ele>38.0</ele><time>2026-05-01T15:57:40.001Z</time></trkpt><trkpt lat="43.339847018188635" lon="-2.518921016208918"><ele>38.666666666666664</ele><time>2026-05-01T15:57:41.001Z</time></trkpt><trkpt lat="43.339682391572246" lon="-2.5188316580675356"><ele>39.333333333333336</ele><time>2026-05-01T15:57:42.001Z</time></trkpt><trkpt lat="43.33951741707818" lon="-2.5186840607144703"><ele>40.0</ele><time>2026-05-01T15:57:43.001Z</time></trkpt><trkpt lat="43.33935384732342" lon="-2.518510508392889"><ele>44.333333333333336</ele><time>2026-05-01T15:57:44.001Z</time></trkpt><trkpt lat="43.33920798554375" lon="-2.518316213692989"><ele>48.66666666666667</ele><time>2026-05-01T15:57:45.001Z</time></trkpt><trkpt lat="43.33909934008995" lon="-2.5180866915159195"><ele>53.0</ele><time>2026-05-01T15:57:46.001Z</time></trkpt><trkpt lat="43.338988634009056" lon="-2.517848973571363"><ele>52.333333333333336</ele><time>2026-05-01T15:57:47.001Z</time></trkpt><trkpt lat="43.33886053908838" lon="-2.517621177360568"><ele>51.66666666666667</ele><time>2026-05-01T15:57:48.001Z</time></trkpt><trkpt lat="43.33872636219318" lon="-2.5173999903750817"><ele>51.0</ele><time>2026-05-01T15:57:49.001Z</time></trkpt><trkpt lat="43.33849195231914" lon="-2.5172665539734385"><ele>51.0</ele><time>2026-05-01T15:57:50.001Z</time></trkpt><trkpt lat="43.33831972047332" lon="-2.5171090547836"><ele>51.0</ele><time>2026-05-01T15:57:51.001Z</time></trkpt><trkpt lat="43.338157707856084" lon="-2.516969114870495"><ele>51.0</ele><time>2026-05-01T15:57:52.001Z</time></trkpt><trkpt lat="43.3380035251297" lon="-2.51682533745743"><ele>50.0</ele><time>2026-05-01T15:57:53.001Z</time></trkpt><trkpt lat="43.33785030532502" lon="-2.516656811575493"><ele>49.0</ele><time>2026-05-01T15:57:54.001Z</time></trkpt><trkpt lat="43.33770680112004" lon="-2.516487857944528"><ele>48.0</ele><time>2026-05-01T15:57:55.001Z</time></trkpt><trkpt lat="43.33757775736059" lon="-2.516322077352769"><ele>52.66666666666667</ele><time>2026-05-01T15:57:56.001Z</time></trkpt><trkpt lat="43.33746228045074" lon="-2.516152875382967"><ele>57.333333333333336</ele><time>2026-05-01T15:57:57.001Z</time></trkpt><trkpt lat="43.33736722398938" lon="-2.515963725080685"><ele>62.0</ele><time>2026-05-01T15:57:58.001Z</time></trkpt><trkpt lat="43.33729241431215" lon="-2.515752217730235"><ele>62.0</ele><time>2026-05-01T15:57:59.001Z</time></trkpt><trkpt lat="43.3372519412161" lon="-2.515517642068538"><ele>62.0</ele><time>2026-05-01T15:58:00.001Z</time></trkpt><trkpt lat="43.337231627032594" lon="-2.5152408997958706"><ele>62.0</ele><time>2026-05-01T15:58:01.001Z</time></trkpt><trkpt lat="43.337235214312905" lon="-2.5149834962546467"><ele>62.66666666666667</ele><time>2026-05-01T15:58:02.001Z</time></trkpt><trkpt lat="43.33725505711057" lon="-2.514729433708698"><ele>63.33333333333333</ele><time>2026-05-01T15:58:03.001Z</time></trkpt><trkpt lat="43.337279888794015" lon="-2.5144769174217707"><ele>64.0</ele><time>2026-05-01T15:58:04.001Z</time></trkpt><trkpt lat="43.337309053446965" lon="-2.514234092227686"><ele>61.5</ele><time>2026-05-01T15:58:05.001Z</time></trkpt><trkpt lat="43.33734650362302" lon="-2.514039273654229"><ele>59.0</ele><time>2026-05-01T15:58:06.001Z</time></trkpt><trkpt lat="43.33739413210827" lon="-2.5138691163529763"><ele>56.5</ele><time>2026-05-01T15:58:07.001Z</time></trkpt><trkpt lat="43.33746909062045" lon="-2.513716384736449"><ele>54.0</ele><time>2026-05-01T15:58:08.001Z</time></trkpt><trkpt lat="43.33757643451154" lon="-2.513589374589932"><ele>48.666666666666664</ele><time>2026-05-01T15:58:09.001Z</time></trkpt><trkpt lat="43.337707491146595" lon="-2.51350961259541"><ele>43.33333333333333</ele><time>2026-05-01T15:58:10.001Z</time></trkpt><trkpt lat="43.33785657215724" lon="-2.5134887521031377"><ele>38.0</ele><time>2026-05-01T15:58:11.001Z</time></trkpt><trkpt lat="43.33802363135156" lon="-2.5135395499115547"><ele>36.0</ele><time>2026-05-01T15:58:12.001Z</time></trkpt><trkpt lat="43.33817815725622" lon="-2.5136381478750334"><ele>34.0</ele><time>2026-05-01T15:58:13.001Z</time></trkpt><trkpt lat="43.338327825759414" lon="-2.5137800025956256"><ele>32.0</ele><time>2026-05-01T15:58:14.001Z</time></trkpt><trkpt lat="43.33846558119133" lon="-2.5139580308950635"><ele>40.666666666666664</ele><time>2026-05-01T15:58:15.001Z</time></trkpt><trkpt lat="43.33859622679613" lon="-2.5141744754724633"><ele>49.33333333333333</ele><time>2026-05-01T15:58:16.002Z</time></trkpt><trkpt lat="43.33872731426815" lon="-2.5144165633846205"><ele>58.0</ele><time>2026-05-01T15:58:17.002Z</time></trkpt><trkpt lat="43.3388319084417" lon="-2.514658805986962"><ele>51.33333333333333</ele><time>2026-05-01T15:58:18.002Z</time></trkpt><trkpt lat="43.33892464611524" lon="-2.5148696734018197"><ele>44.666666666666664</ele><time>2026-05-01T15:58:19.002Z</time></trkpt><trkpt lat="43.33902369262293" lon="-2.515042149991292"><ele>38.0</ele><time>2026-05-01T15:58:20.002Z</time></trkpt><trkpt lat="43.33914864662595" lon="-2.515171790971"><ele>38.0</ele><time>2026-05-01T15:58:21.002Z</time></trkpt><trkpt lat="43.33930645960095" lon="-2.5152573939684735"><ele>38.0</ele><time>2026-05-01T15:58:22.002Z</time></trkpt><trkpt lat="43.33950015687409" lon="-2.515304057441924"><ele>38.0</ele><time>2026-05-01T15:58:23.002Z</time></trkpt><trkpt lat="43.33970866956734" lon="-2.5153334209758684"><ele>35.0</ele><time>2026-05-01T15:58:24.002Z</time></trkpt><trkpt lat="43.339896055933465" lon="-2.515366650737227"><ele>32.0</ele><time>2026-05-01T15:58:25Z</time></trkpt><trkpt lat="43.34006221925431" lon="-2.5153743521688394"><ele>29.0</ele><time>2026-05-01T15:58:26Z</time></trkpt><trkpt lat="43.34022214834642" lon="-2.51532989307896"><ele>29.0</ele><time>2026-05-01T15:58:27Z</time></trkpt><trkpt lat="43.34039538353956" lon="-2.5152335164053397"><ele>29.0</ele><time>2026-05-01T15:58:28Z</time></trkpt><trkpt lat="43.34057525858907" lon="-2.5151033401323226"><ele>29.0</ele><time>2026-05-01T15:58:29Z</time></trkpt><trkpt lat="43.34074200510435" lon="-2.5149230329422574"><ele>26.333333333333332</ele><time>2026-05-01T15:58:30Z</time></trkpt><trkpt lat="43.34088574556581" lon="-2.514710186243469"><ele>23.666666666666664</ele><time>2026-05-01T15:58:31Z</time></trkpt><trkpt lat="43.34102437978713" lon="-2.514464631876026"><ele>21.0</ele><time>2026-05-01T15:58:32Z</time></trkpt><trkpt lat="43.341148967936284" lon="-2.5141901363820485"><ele>21.0</ele><time>2026-05-01T15:58:33Z</time></trkpt><trkpt lat="43.34125723904931" lon="-2.5138870606363244"><ele>21.0</ele><time>2026-05-01T15:58:34Z</time></trkpt><trkpt lat="43.34135588082768" lon="-2.5135738704880306"><ele>24.5</ele><time>2026-05-01T15:58:35Z</time></trkpt><trkpt lat="43.341464311569304" lon="-2.5132602154624273"><ele>28.0</ele><time>2026-05-01T15:58:36Z</time></trkpt><trkpt lat="43.34158461561572" lon="-2.512936192813359"><ele>22.5</ele><time>2026-05-01T15:58:37Z</time></trkpt><trkpt lat="43.341705678831524" lon="-2.5126350860066946"><ele>17.0</ele><time>2026-05-01T15:58:38Z</time></trkpt><trkpt lat="43.34182295127465" lon="-2.512341267344329"><ele>17.5</ele><time>2026-05-01T15:58:39Z</time></trkpt><trkpt lat="43.34194666419398" lon="-2.512065291613598"><ele>18.0</ele><time>2026-05-01T15:58:40Z</time></trkpt><trkpt lat="43.3420665333843" lon="-2.511807993461451"><ele>18.0</ele><time>2026-05-01T15:58:41Z</time></trkpt><trkpt lat="43.34220105350603" lon="-2.5115455925490644"><ele>18.0</ele><time>2026-05-01T15:58:42Z</time></trkpt><trkpt lat="43.34234370790788" lon="-2.511292746191002"><ele>21.5</ele><time>2026-05-01T15:58:43Z</time></trkpt><trkpt lat="43.34249018326685" lon="-2.5110406920185695"><ele>25.0</ele><time>2026-05-01T15:58:44Z</time></trkpt><trkpt lat="43.342625170603796" lon="-2.510784416328869"><ele>25.0</ele><time>2026-05-01T15:58:45Z</time></trkpt><trkpt lat="43.342720175801105" lon="-2.5105096859454177"><ele>25.0</ele><time>2026-05-01T15:58:46Z</time></trkpt><trkpt lat="43.34278166309269" lon="-2.51020809619912"><ele>25.0</ele><time>2026-05-01T15:58:47Z</time></trkpt><trkpt lat="43.34284632785546" lon="-2.5099019410515404"><ele>23.0</ele><time>2026-05-01T15:58:48Z</time></trkpt><trkpt lat="43.34291480568666" lon="-2.509598006376944"><ele>21.0</ele><time>2026-05-01T15:58:49Z</time></trkpt><trkpt lat="43.342985252483594" lon="-2.5092999405713985"><ele>25.5</ele><time>2026-05-01T15:58:50Z</time></trkpt><trkpt lat="43.34304825380408" lon="-2.5089981302498203"><ele>30.0</ele><time>2026-05-01T15:58:51Z</time></trkpt><trkpt lat="43.343103884293896" lon="-2.5086876454160474"><ele>30.0</ele><time>2026-05-01T15:58:52Z</time></trkpt><trkpt lat="43.34314027710313" lon="-2.5083569151418583"><ele>30.0</ele><time>2026-05-01T15:58:53Z</time></trkpt><trkpt lat="43.34315094656841" lon="-2.5080485421164087"><ele>29.333333333333336</ele><time>2026-05-01T15:58:54Z</time></trkpt><trkpt lat="43.34315232950355" lon="-2.5077847112308316"><ele>28.666666666666668</ele><time>2026-05-01T15:58:55Z</time></trkpt><trkpt lat="43.34315652719478" lon="-2.507532954461478"><ele>28.0</ele><time>2026-05-01T15:58:56Z</time></trkpt><trkpt lat="43.343163540966145" lon="-2.5073120078346993"><ele>28.0</ele><time>2026-05-01T15:58:57Z</time></trkpt><trkpt lat="43.34318184473973" lon="-2.507119723248684"><ele>28.0</ele><time>2026-05-01T15:58:58Z</time></trkpt><trkpt lat="43.34320673291166" lon="-2.506944835630738"><ele>28.0</ele><time>2026-05-01T15:58:59Z</time></trkpt><trkpt lat="43.34324138676045" lon="-2.5067883956704105"><ele>28.0</ele><time>2026-05-01T15:59:00Z</time></trkpt><trkpt lat="43.34328686104294" lon="-2.506635609484725"><ele>26.4</ele><time>2026-05-01T15:59:01Z</time></trkpt><trkpt lat="43.34332916670027" lon="-2.5064962312750385"><ele>24.799999999999997</ele><time>2026-05-01T15:59:02Z</time></trkpt><trkpt lat="43.34336525770822" lon="-2.5063747115426165"><ele>23.2</ele><time>2026-05-01T15:59:03Z</time></trkpt><trkpt lat="43.34339539100797" lon="-2.5062900313950354"><ele>21.6</ele><time>2026-05-01T15:59:04Z</time></trkpt><trkpt lat="43.343423089704515" lon="-2.506147571048434"><ele>20.0</ele><time>2026-05-01T15:59:06Z</time></trkpt><trkpt lat="43.34346337442019" lon="-2.5058246763202177"><ele>18.5</ele><time>2026-05-01T15:59:22.001Z</time></trkpt><trkpt lat="43.343560667076716" lon="-2.5057193672879237"><ele>17.0</ele><time>2026-05-01T15:59:23.001Z</time></trkpt><trkpt lat="43.34361791011261" lon="-2.505598549047682"><ele>15.5</ele><time>2026-05-01T15:59:24.001Z</time></trkpt><trkpt lat="43.34368166181924" lon="-2.505468050692058"><ele>14.0</ele><time>2026-05-01T15:59:25.001Z</time></trkpt><trkpt lat="43.3437697881095" lon="-2.505297591655646"><ele>12.666666666666668</ele><time>2026-05-01T15:59:26.001Z</time></trkpt><trkpt lat="43.34387152864574" lon="-2.5051337035514107"><ele>11.333333333333334</ele><time>2026-05-01T15:59:27.001Z</time></trkpt><trkpt lat="43.343984767865145" lon="-2.5049487627794536"><ele>10.0</ele><time>2026-05-01T15:59:28.001Z</time></trkpt><trkpt lat="43.34410338493055" lon="-2.5047577851025378"><ele>11.0</ele><time>2026-05-01T15:59:29.001Z</time></trkpt><trkpt lat="43.34422678507539" lon="-2.504559849554389"><ele>12.0</ele><time>2026-05-01T15:59:30.001Z</time></trkpt><trkpt lat="43.34436044634103" lon="-2.5043368121436034"><ele>13.0</ele><time>2026-05-01T15:59:31.001Z</time></trkpt><trkpt lat="43.344504185886734" lon="-2.504099204841606"><ele>13.0</ele><time>2026-05-01T15:59:32.001Z</time></trkpt><trkpt lat="43.344654152821754" lon="-2.5038507831913863"><ele>13.0</ele><time>2026-05-01T15:59:33.001Z</time></trkpt><trkpt lat="43.34480947264164" lon="-2.503611133163008"><ele>16.0</ele><time>2026-05-01T15:59:34.001Z</time></trkpt><trkpt lat="43.34496473375227" lon="-2.5033666704469555"><ele>19.0</ele><time>2026-05-01T15:59:35.001Z</time></trkpt><trkpt lat="43.34511513715637" lon="-2.5031357180889935"><ele>17.0</ele><time>2026-05-01T15:59:36.001Z</time></trkpt><trkpt lat="43.345271864799535" lon="-2.5029119310713024"><ele>15.0</ele><time>2026-05-01T15:59:37.001Z</time></trkpt><trkpt lat="43.345411132340175" lon="-2.502693384924077"><ele>13.0</ele><time>2026-05-01T15:59:38.001Z</time></trkpt><trkpt lat="43.34552029086767" lon="-2.5025005432375"><ele>17.666666666666664</ele><time>2026-05-01T15:59:39.001Z</time></trkpt><trkpt lat="43.34563889390638" lon="-2.502336779146697"><ele>22.333333333333332</ele><time>2026-05-01T15:59:40.001Z</time></trkpt><trkpt lat="43.345765366695815" lon="-2.5022004236570328"><ele>27.0</ele><time>2026-05-01T15:59:41.001Z</time></trkpt><trkpt lat="43.34591357614512" lon="-2.502103680628385"><ele>26.0</ele><time>2026-05-01T15:59:42.001Z</time></trkpt><trkpt lat="43.34608145250293" lon="-2.5020571367824385"><ele>25.0</ele><time>2026-05-01T15:59:43.001Z</time></trkpt><trkpt lat="43.346259702080374" lon="-2.5020598709689574"><ele>24.0</ele><time>2026-05-01T15:59:44.001Z</time></trkpt><trkpt lat="43.34644055951182" lon="-2.502109140431779"><ele>24.0</ele><time>2026-05-01T15:59:45.001Z</time></trkpt><trkpt lat="43.34660322053808" lon="-2.502218640691694"><ele>24.0</ele><time>2026-05-01T15:59:46.001Z</time></trkpt><trkpt lat="43.346742260862925" lon="-2.5023847130755765"><ele>24.0</ele><time>2026-05-01T15:59:47.001Z</time></trkpt><trkpt lat="43.346863020704966" lon="-2.5026015541319007"><ele>24.0</ele><time>2026-05-01T15:59:48.001Z</time></trkpt><trkpt lat="43.34697495322696" lon="-2.5028420480172486"><ele>24.0</ele><time>2026-05-01T15:59:49.001Z</time></trkpt><trkpt lat="43.347074329862764" lon="-2.50307425440187"><ele>24.0</ele><time>2026-05-01T15:59:50.001Z</time></trkpt><trkpt lat="43.34717022478947" lon="-2.5032843432587986"><ele>18.666666666666668</ele><time>2026-05-01T15:59:51.001Z</time></trkpt><trkpt lat="43.34727350919348" lon="-2.5034686334246503"><ele>13.333333333333332</ele><time>2026-05-01T15:59:52.001Z</time></trkpt><trkpt lat="43.34736741230114" lon="-2.5036523427767174"><ele>8.0</ele><time>2026-05-01T15:59:53.001Z</time></trkpt><trkpt lat="43.34746191750305" lon="-2.503819498181444"><ele>8.0</ele><time>2026-05-01T15:59:54.001Z</time></trkpt><trkpt lat="43.347560658955366" lon="-2.503964555291071"><ele>8.0</ele><time>2026-05-01T15:59:55.001Z</time></trkpt><trkpt lat="43.347648725078166" lon="-2.5041146228639635"><ele>8.0</ele><time>2026-05-01T15:59:56.001Z</time></trkpt><trkpt lat="43.34772461844537" lon="-2.504278582049908"><ele>8.0</ele><time>2026-05-01T15:59:57.001Z</time></trkpt><trkpt lat="43.34779515826248" lon="-2.5044448081961646"><ele>8.75</ele><time>2026-05-01T15:59:58.001Z</time></trkpt><trkpt lat="43.347860818328186" lon="-2.5045988623401647"><ele>9.5</ele><time>2026-05-01T15:59:59.001Z</time></trkpt><trkpt lat="43.34792378734955" lon="-2.5047311095522717"><ele>10.25</ele><time>2026-05-01T16:00:00.001Z</time></trkpt><trkpt lat="43.348009056015584" lon="-2.504866951119158"><ele>11.0</ele><time>2026-05-01T16:00:01.001Z</time></trkpt><trkpt lat="43.34812347093723" lon="-2.5049935186626535"><ele>11.0</ele><time>2026-05-01T16:00:02.001Z</time></trkpt><trkpt lat="43.34827453135233" lon="-2.5050795927368026"><ele>11.0</ele><time>2026-05-01T16:00:03.001Z</time></trkpt><trkpt lat="43.348438277050754" lon="-2.5051539022058877"><ele>11.0</ele><time>2026-05-01T16:00:04.001Z</time></trkpt><trkpt lat="43.34862979522076" lon="-2.5052695884722773"><ele>11.0</ele><time>2026-05-01T16:00:05.001Z</time></trkpt><trkpt lat="43.3488523216943" lon="-2.50537809007502"><ele>11.0</ele><time>2026-05-01T16:00:06.001Z</time></trkpt><trkpt lat="43.3490553341648" lon="-2.505503759206377"><ele>13.5</ele><time>2026-05-01T16:00:07.001Z</time></trkpt><trkpt lat="43.34927639172806" lon="-2.5056108607777"><ele>16.0</ele><time>2026-05-01T16:00:08.001Z</time></trkpt><trkpt lat="43.34950390528913" lon="-2.5057067738457066"><ele>10.5</ele><time>2026-05-01T16:00:09.001Z</time></trkpt><trkpt lat="43.349732956514615" lon="-2.505821632153284"><ele>5.0</ele><time>2026-05-01T16:00:10.001Z</time></trkpt><trkpt lat="43.349934101814924" lon="-2.5059273490879828"><ele>5.0</ele><time>2026-05-01T16:00:11.001Z</time></trkpt><trkpt lat="43.350147844449246" lon="-2.5060468679841312"><ele>5.0</ele><time>2026-05-01T16:00:12.001Z</time></trkpt><trkpt lat="43.35033593454911" lon="-2.506149595480738"><ele>5.0</ele><time>2026-05-01T16:00:13.001Z</time></trkpt><trkpt lat="43.35053256584809" lon="-2.5062476603294357"><ele>14.0</ele><time>2026-05-01T16:00:14.001Z</time></trkpt><trkpt lat="43.350723374867236" lon="-2.5063156472848713"><ele>23.0</ele><time>2026-05-01T16:00:15.001Z</time></trkpt><trkpt lat="43.350908871101815" lon="-2.5063550786904636"><ele>32.0</ele><time>2026-05-01T16:00:16.001Z</time></trkpt><trkpt lat="43.351112046469545" lon="-2.506377675922573"><ele>32.0</ele><time>2026-05-01T16:00:17.001Z</time></trkpt><trkpt lat="43.351288792228544" lon="-2.5063600361620653"><ele>32.0</ele><time>2026-05-01T16:00:18.001Z</time></trkpt><trkpt lat="43.35144385018601" lon="-2.5063146907880087"><ele>32.0</ele><time>2026-05-01T16:00:19.001Z</time></trkpt><trkpt lat="43.351589710678994" lon="-2.506236574992261"><ele>26.333333333333332</ele><time>2026-05-01T16:00:20.001Z</time></trkpt><trkpt lat="43.351708444272504" lon="-2.506135046672246"><ele>20.666666666666664</ele><time>2026-05-01T16:00:21.001Z</time></trkpt><trkpt lat="43.35182008023182" lon="-2.506010445377292"><ele>15.0</ele><time>2026-05-01T16:00:22.001Z</time></trkpt><trkpt lat="43.35194043322116" lon="-2.5058454283553764"><ele>15.0</ele><time>2026-05-01T16:00:23.001Z</time></trkpt><trkpt lat="43.352054155261904" lon="-2.505689975886923"><ele>15.0</ele><time>2026-05-01T16:00:24.001Z</time></trkpt><trkpt lat="43.352153276399" lon="-2.505536802659548"><ele>15.0</ele><time>2026-05-01T16:00:25.001Z</time></trkpt><trkpt lat="43.35222863657992" lon="-2.5053729971689203"><ele>17.0</ele><time>2026-05-01T16:00:26.001Z</time></trkpt><trkpt lat="43.352290304801286" lon="-2.5051981653881197"><ele>19.0</ele><time>2026-05-01T16:00:27.002Z</time></trkpt><trkpt lat="43.35235111939607" lon="-2.505029282770362"><ele>21.0</ele><time>2026-05-01T16:00:28.002Z</time></trkpt><trkpt lat="43.35241220513123" lon="-2.5048536215500623"><ele>23.0</ele><time>2026-05-01T16:00:29.002Z</time></trkpt><trkpt lat="43.35248765462055" lon="-2.5046718655242977"><ele>20.0</ele><time>2026-05-01T16:00:30.002Z</time></trkpt><trkpt lat="43.352536220846716" lon="-2.5044804410958688"><ele>17.0</ele><time>2026-05-01T16:00:31Z</time></trkpt><trkpt lat="43.35262289988848" lon="-2.5043225922659524"><ele>14.0</ele><time>2026-05-01T16:00:32Z</time></trkpt><trkpt lat="43.35269623555967" lon="-2.5041647525366586"><ele>11.0</ele><time>2026-05-01T16:00:33Z</time></trkpt><trkpt lat="43.35282668230875" lon="-2.504033994205737"><ele>11.0</ele><time>2026-05-01T16:00:34Z</time></trkpt><trkpt lat="43.35296497618324" lon="-2.503897258306941"><ele>11.0</ele><time>2026-05-01T16:00:35Z</time></trkpt><trkpt lat="43.35310779216488" lon="-2.503795681959868"><ele>11.0</ele><time>2026-05-01T16:00:36Z</time></trkpt><trkpt lat="43.35324179541587" lon="-2.503696762882466"><ele>10.5</ele><time>2026-05-01T16:00:37Z</time></trkpt><trkpt lat="43.3533655651969" lon="-2.503612925599866"><ele>10.0</ele><time>2026-05-01T16:00:38Z</time></trkpt><trkpt lat="43.35347547743435" lon="-2.5035315830284572"><ele>9.5</ele><time>2026-05-01T16:00:39Z</time></trkpt><trkpt lat="43.35357927806911" lon="-2.5034746841580042"><ele>9.0</ele><time>2026-05-01T16:00:40Z</time></trkpt><trkpt lat="43.35369646248427" lon="-2.5034441749669947"><ele>9.0</ele><time>2026-05-01T16:00:41Z</time></trkpt><trkpt lat="43.3538215146085" lon="-2.5034409150388557"><ele>9.0</ele><time>2026-05-01T16:00:42Z</time></trkpt><trkpt lat="43.35394116565207" lon="-2.50346372910211"><ele>9.0</ele><time>2026-05-01T16:00:43Z</time></trkpt><trkpt lat="43.35405379679176" lon="-2.5034871170521256"><ele>9.0</ele><time>2026-05-01T16:00:44Z</time></trkpt><trkpt lat="43.3541676469241" lon="-2.5035474725078903"><ele>8.75</ele><time>2026-05-01T16:00:45Z</time></trkpt><trkpt lat="43.35427047165074" lon="-2.503646721072171"><ele>8.5</ele><time>2026-05-01T16:00:46Z</time></trkpt><trkpt lat="43.354370183565855" lon="-2.5037555840420165"><ele>8.25</ele><time>2026-05-01T16:00:47Z</time></trkpt><trkpt lat="43.354459898353454" lon="-2.503874402807781"><ele>8.0</ele><time>2026-05-01T16:00:48Z</time></trkpt><trkpt lat="43.35454044580362" lon="-2.5039832233132695"><ele>7.4</ele><time>2026-05-01T16:00:49Z</time></trkpt><trkpt lat="43.354617117838515" lon="-2.504096015079902"><ele>6.800000000000001</ele><time>2026-05-01T16:00:50Z</time></trkpt><trkpt lat="43.35469544805871" lon="-2.5042154066847426"><ele>6.2</ele><time>2026-05-01T16:00:51Z</time></trkpt><trkpt lat="43.35475211570113" lon="-2.504324658293217"><ele>5.6</ele><time>2026-05-01T16:00:52Z</time></trkpt><trkpt lat="43.35481162469494" lon="-2.5044186602589296"><ele>5.0</ele><time>2026-05-01T16:00:53Z</time></trkpt><trkpt lat="43.35487886060296" lon="-2.504510117275155"><ele>5.5</ele><time>2026-05-01T16:00:54Z</time></trkpt><trkpt lat="43.354954027004716" lon="-2.5045964896225463"><ele>6.0</ele><time>2026-05-01T16:00:55Z</time></trkpt><trkpt lat="43.35503059642212" lon="-2.50465860654495"><ele>6.5</ele><time>2026-05-01T16:00:56Z</time></trkpt><trkpt lat="43.35508972708837" lon="-2.5047339428970457"><ele>7.0</ele><time>2026-05-01T16:00:57Z</time></trkpt><trkpt lat="43.35512195713703" lon="-2.5048309174145102"><ele>7.499999999999999</ele><time>2026-05-01T16:00:58Z</time></trkpt><trkpt lat="43.35512199347743" lon="-2.504933070295373"><ele>8.0</ele><time>2026-05-01T16:00:59Z</time></trkpt><trkpt lat="43.355086913412045" lon="-2.5050249599958887"><ele>8.0</ele><time>2026-05-01T16:01:00Z</time></trkpt><trkpt lat="43.35502262582806" lon="-2.505121366050183"><ele>8.0</ele><time>2026-05-01T16:01:01Z</time></trkpt><trkpt lat="43.35494524380453" lon="-2.505218935234734"><ele>8.0</ele><time>2026-05-01T16:01:02Z</time></trkpt><trkpt lat="43.35489961843074" lon="-2.505352093223669"><ele>8.0</ele><time>2026-05-01T16:01:03Z</time></trkpt><trkpt lat="43.354877498279265" lon="-2.5055076836012846"><ele>8.0</ele><time>2026-05-01T16:01:04Z</time></trkpt><trkpt lat="43.35486189216926" lon="-2.5056679331232212"><ele>9.4</ele><time>2026-05-01T16:01:05Z</time></trkpt><trkpt lat="43.35484211710702" lon="-2.5058097078683867"><ele>10.8</ele><time>2026-05-01T16:01:06Z</time></trkpt><trkpt lat="43.35482084882827" lon="-2.505955528744288"><ele>12.2</ele><time>2026-05-01T16:01:07Z</time></trkpt><trkpt lat="43.35480775674513" lon="-2.5061020433086623"><ele>13.6</ele><time>2026-05-01T16:01:08Z</time></trkpt><trkpt lat="43.35479885365785" lon="-2.506255580095613"><ele>15.0</ele><time>2026-05-01T16:01:09Z</time></trkpt><trkpt lat="43.354793381025274" lon="-2.506419760343239"><ele>17.5</ele><time>2026-05-01T16:01:10Z</time></trkpt><trkpt lat="43.35479340522597" lon="-2.5065971249690246"><ele>20.0</ele><time>2026-05-01T16:01:11Z</time></trkpt><trkpt lat="43.354809771517864" lon="-2.5067529828359207"><ele>22.5</ele><time>2026-05-01T16:01:12Z</time></trkpt><trkpt lat="43.35483070026515" lon="-2.506897522491011"><ele>25.0</ele><time>2026-05-01T16:01:13Z</time></trkpt><trkpt lat="43.354865201583" lon="-2.5070438662134635"><ele>29.5</ele><time>2026-05-01T16:01:14.001Z</time></trkpt><trkpt lat="43.35491194360559" lon="-2.507216932397818"><ele>34.0</ele><time>2026-05-01T16:01:15.001Z</time></trkpt><trkpt lat="43.354978356528584" lon="-2.507391786255049"><ele>38.5</ele><time>2026-05-01T16:01:16.001Z</time></trkpt><trkpt lat="43.35505477968421" lon="-2.5075312880898895"><ele>43.0</ele><time>2026-05-01T16:01:17.001Z</time></trkpt><trkpt lat="43.35513213108924" lon="-2.507657278514843"><ele>43.0</ele><time>2026-05-01T16:01:18.001Z</time></trkpt><trkpt lat="43.355210248909636" lon="-2.507784803189241"><ele>43.0</ele><time>2026-05-01T16:01:19.001Z</time></trkpt><trkpt lat="43.35530580116138" lon="-2.507911903869113"><ele>43.0</ele><time>2026-05-01T16:01:20.001Z</time></trkpt><trkpt lat="43.3554182756805" lon="-2.508020511752267"><ele>43.0</ele><time>2026-05-01T16:01:21.001Z</time></trkpt><trkpt lat="43.35555058653057" lon="-2.508125193059261"><ele>41.5</ele><time>2026-05-01T16:01:22.001Z</time></trkpt><trkpt lat="43.35567534675586" lon="-2.5082097695505534"><ele>40.0</ele><time>2026-05-01T16:01:23.001Z</time></trkpt><trkpt lat="43.3558047123484" lon="-2.5082859261573973"><ele>38.5</ele><time>2026-05-01T16:01:24.001Z</time></trkpt><trkpt lat="43.355928713810805" lon="-2.5083369687303883"><ele>37.0</ele><time>2026-05-01T16:01:25.001Z</time></trkpt><trkpt lat="43.35604596018453" lon="-2.5083584974486617"><ele>37.0</ele><time>2026-05-01T16:01:26.001Z</time></trkpt><trkpt lat="43.35615005264735" lon="-2.508371510211404"><ele>37.0</ele><time>2026-05-01T16:01:27.001Z</time></trkpt><trkpt lat="43.356282250354255" lon="-2.508364954237412"><ele>37.0</ele><time>2026-05-01T16:01:28.001Z</time></trkpt><trkpt lat="43.35642106883065" lon="-2.5083557731964783"><ele>37.0</ele><time>2026-05-01T16:01:29.001Z</time></trkpt><trkpt lat="43.35654538201332" lon="-2.508345230266761"><ele>38.75</ele><time>2026-05-01T16:01:30.001Z</time></trkpt><trkpt lat="43.35665976001877" lon="-2.508334859670757"><ele>40.5</ele><time>2026-05-01T16:01:31.001Z</time></trkpt><trkpt lat="43.356770475334045" lon="-2.508339575428906"><ele>42.25</ele><time>2026-05-01T16:01:32.001Z</time></trkpt><trkpt lat="43.35690212994989" lon="-2.508327026484649"><ele>44.0</ele><time>2026-05-01T16:01:33.001Z</time></trkpt><trkpt lat="43.357032054415306" lon="-2.5082971507565186"><ele>44.0</ele><time>2026-05-01T16:01:34.001Z</time></trkpt><trkpt lat="43.35716492253033" lon="-2.508294170342935"><ele>44.0</ele><time>2026-05-01T16:01:35.001Z</time></trkpt><trkpt lat="43.357295239552876" lon="-2.5083039657574813"><ele>44.0</ele><time>2026-05-01T16:01:36.001Z</time></trkpt><trkpt lat="43.357443997552856" lon="-2.5082803885442666"><ele>44.0</ele><time>2026-05-01T16:01:37.001Z</time></trkpt><trkpt lat="43.35763230684821" lon="-2.5082618825599856"><ele>44.0</ele><time>2026-05-01T16:01:38.001Z</time></trkpt><trkpt lat="43.357774108847536" lon="-2.508296986463047"><ele>44.0</ele><time>2026-05-01T16:01:39.001Z</time></trkpt><trkpt lat="43.35790810036368" lon="-2.5083326884382973"><ele>44.0</ele><time>2026-05-01T16:01:40.001Z</time></trkpt><trkpt lat="43.35805828444652" lon="-2.5083816512857857"><ele>44.0</ele><time>2026-05-01T16:01:41.001Z</time></trkpt><trkpt lat="43.35819567609904" lon="-2.5084186071732715"><ele>39.0</ele><time>2026-05-01T16:01:42.001Z</time></trkpt><trkpt lat="43.35834145092221" lon="-2.5085023139781613"><ele>34.0</ele><time>2026-05-01T16:01:43.001Z</time></trkpt><trkpt lat="43.35848996011654" lon="-2.508592255062292"><ele>29.0</ele><time>2026-05-01T16:01:44.001Z</time></trkpt><trkpt lat="43.358636955361895" lon="-2.5086935981145984"><ele>28.333333333333332</ele><time>2026-05-01T16:01:45.001Z</time></trkpt><trkpt lat="43.358782564583095" lon="-2.508815450467279"><ele>27.666666666666664</ele><time>2026-05-01T16:01:46.001Z</time></trkpt><trkpt lat="43.35892354983818" lon="-2.508959620832938"><ele>27.0</ele><time>2026-05-01T16:01:47.001Z</time></trkpt><trkpt lat="43.35907977926821" lon="-2.509134840109024"><ele>27.0</ele><time>2026-05-01T16:01:48.001Z</time></trkpt><trkpt lat="43.35924437486106" lon="-2.5093611347891875"><ele>27.0</ele><time>2026-05-01T16:01:49.001Z</time></trkpt><trkpt lat="43.359411750525275" lon="-2.5096123400917407"><ele>23.5</ele><time>2026-05-01T16:01:50.001Z</time></trkpt><trkpt lat="43.35957561069035" lon="-2.5099040496856775"><ele>20.0</ele><time>2026-05-01T16:01:51.001Z</time></trkpt><trkpt lat="43.35973416016519" lon="-2.5102050627470516"><ele>29.0</ele><time>2026-05-01T16:01:52.001Z</time></trkpt><trkpt lat="43.35989307898226" lon="-2.510525546114973"><ele>38.0</ele><time>2026-05-01T16:01:53.001Z</time></trkpt><trkpt lat="43.360069010642135" lon="-2.510835668997146"><ele>38.0</ele><time>2026-05-01T16:01:54.001Z</time></trkpt><trkpt lat="43.360239517913065" lon="-2.5111382911257607"><ele>38.0</ele><time>2026-05-01T16:01:55.001Z</time></trkpt><trkpt lat="43.36039884038473" lon="-2.5114447097717685"><ele>32.5</ele><time>2026-05-01T16:01:56.001Z</time></trkpt><trkpt lat="43.36055732287781" lon="-2.5117531697107944"><ele>27.0</ele><time>2026-05-01T16:01:57.001Z</time></trkpt><trkpt lat="43.360707311186296" lon="-2.5120291974613322"><ele>33.5</ele><time>2026-05-01T16:01:58.001Z</time></trkpt><trkpt lat="43.36084293839341" lon="-2.5123173004523336"><ele>40.0</ele><time>2026-05-01T16:01:59.001Z</time></trkpt><trkpt lat="43.36099362668899" lon="-2.5125944405473604"><ele>40.0</ele><time>2026-05-01T16:02:00.001Z</time></trkpt><trkpt lat="43.3611484872082" lon="-2.512879634492187"><ele>40.0</ele><time>2026-05-01T16:02:01.001Z</time></trkpt><trkpt lat="43.3612971363151" lon="-2.5131629055011175"><ele>38.0</ele><time>2026-05-01T16:02:02.001Z</time></trkpt><trkpt lat="43.36145318009845" lon="-2.513412256845953"><ele>36.0</ele><time>2026-05-01T16:02:03.001Z</time></trkpt><trkpt lat="43.36162533939016" lon="-2.5136424824135752"><ele>34.333333333333336</ele><time>2026-05-01T16:02:04.001Z</time></trkpt><trkpt lat="43.361815654060436" lon="-2.5137926443706844"><ele>32.66666666666667</ele><time>2026-05-01T16:02:05.001Z</time></trkpt><trkpt lat="43.36201504386096" lon="-2.5139312908949223"><ele>31.0</ele><time>2026-05-01T16:02:06.001Z</time></trkpt><trkpt lat="43.36223859834687" lon="-2.5140359337137608"><ele>31.0</ele><time>2026-05-01T16:02:07.001Z</time></trkpt><trkpt lat="43.362473314056004" lon="-2.5141043408133648"><ele>31.0</ele><time>2026-05-01T16:02:08.001Z</time></trkpt><trkpt lat="43.36271230969581" lon="-2.5141133776739326"><ele>31.0</ele><time>2026-05-01T16:02:09.001Z</time></trkpt><trkpt lat="43.3629392721572" lon="-2.5140909199010726"><ele>31.0</ele><time>2026-05-01T16:02:10.001Z</time></trkpt><trkpt lat="43.363150593800206" lon="-2.5140275666132887"><ele>31.0</ele><time>2026-05-01T16:02:11.001Z</time></trkpt><trkpt lat="43.36337328796369" lon="-2.5139168425182477"><ele>32.333333333333336</ele><time>2026-05-01T16:02:12.001Z</time></trkpt><trkpt lat="43.3635529929687" lon="-2.513786308139346"><ele>33.666666666666664</ele><time>2026-05-01T16:02:13.001Z</time></trkpt><trkpt lat="43.363696373740986" lon="-2.5136604079086884"><ele>35.0</ele><time>2026-05-01T16:02:14.001Z</time></trkpt><trkpt lat="43.36381503698777" lon="-2.51352503900552"><ele>37.75</ele><time>2026-05-01T16:02:15.001Z</time></trkpt><trkpt lat="43.363923661805316" lon="-2.513415306401468"><ele>40.5</ele><time>2026-05-01T16:02:16.001Z</time></trkpt><trkpt lat="43.36400821623732" lon="-2.5132914514293603"><ele>43.25</ele><time>2026-05-01T16:02:17.001Z</time></trkpt><trkpt lat="43.364066875012" lon="-2.5131764543182054"><ele>46.0</ele><time>2026-05-01T16:02:18.001Z</time></trkpt><trkpt lat="43.36409268826646" lon="-2.513035061086652"><ele>44.75</ele><time>2026-05-01T16:02:19.001Z</time></trkpt><trkpt lat="43.36408807667639" lon="-2.5128685612082244"><ele>43.5</ele><time>2026-05-01T16:02:20.001Z</time></trkpt><trkpt lat="43.36406486948268" lon="-2.5126863077217045"><ele>42.25</ele><time>2026-05-01T16:02:21.001Z</time></trkpt><trkpt lat="43.364021867166784" lon="-2.512508231535033"><ele>41.0</ele><time>2026-05-01T16:02:22.001Z</time></trkpt><trkpt lat="43.363924723414" lon="-2.5123655841991264"><ele>41.0</ele><time>2026-05-01T16:02:23.001Z</time></trkpt><trkpt lat="43.36387030677467" lon="-2.5122287439027864"><ele>41.0</ele><time>2026-05-01T16:02:24.001Z</time></trkpt><trkpt lat="43.363796420004405" lon="-2.5121204452401815"><ele>41.0</ele><time>2026-05-01T16:02:25.001Z</time></trkpt><trkpt lat="43.36373765317598" lon="-2.5120082115988613"><ele>41.0</ele><time>2026-05-01T16:02:26.001Z</time></trkpt><trkpt lat="43.36367885348661" lon="-2.511895913213949"><ele>41.0</ele><time>2026-05-01T16:02:27.001Z</time></trkpt><trkpt lat="43.36362246004356" lon="-2.51178547266936"><ele>40.5</ele><time>2026-05-01T16:02:28.001Z</time></trkpt><trkpt lat="43.36358120732387" lon="-2.511705248926049"><ele>40.0</ele><time>2026-05-01T16:02:29.001Z</time></trkpt><trkpt lat="43.36353771881189" lon="-2.5116192337508694"><ele>39.5</ele><time>2026-05-01T16:02:30.001Z</time></trkpt><trkpt lat="43.363491712744064" lon="-2.5115282391740394"><ele>39.0</ele><time>2026-05-01T16:02:31.001Z</time></trkpt><trkpt lat="43.36344965992556" lon="-2.511445063662156"><ele>38.5</ele><time>2026-05-01T16:02:32.001Z</time></trkpt><trkpt lat="43.3633964470046" lon="-2.511339388055952"><ele>38.0</ele><time>2026-05-01T16:02:33.001Z</time></trkpt><trkpt lat="43.36334149359347" lon="-2.511216758063848"><ele>38.0</ele><time>2026-05-01T16:02:34.002Z</time></trkpt><trkpt lat="43.36330328254698" lon="-2.5110816827038493"><ele>38.0</ele><time>2026-05-01T16:02:35.002Z</time></trkpt><trkpt lat="43.363257831781446" lon="-2.510951601015839"><ele>38.0</ele><time>2026-05-01T16:02:36.002Z</time></trkpt><trkpt lat="43.36321643951905" lon="-2.5108209194308158"><ele>38.0</ele><time>2026-05-01T16:02:37Z</time></trkpt><trkpt lat="43.36316203033567" lon="-2.5106988065248816"><ele>38.0</ele><time>2026-05-01T16:02:38Z</time></trkpt><trkpt lat="43.363136933308965" lon="-2.5105620183824096"><ele>38.0</ele><time>2026-05-01T16:02:39Z</time></trkpt><trkpt lat="43.36309778384448" lon="-2.510432639184965"><ele>38.0</ele><time>2026-05-01T16:02:40Z</time></trkpt><trkpt lat="43.363057861581446" lon="-2.5103163233084116"><ele>38.0</ele><time>2026-05-01T16:02:41Z</time></trkpt><trkpt lat="43.36303066697415" lon="-2.510214870891389"><ele>38.0</ele><time>2026-05-01T16:02:42Z</time></trkpt><trkpt lat="43.36300679074796" lon="-2.5101092512124077"><ele>38.0</ele><time>2026-05-01T16:02:43Z</time></trkpt><trkpt lat="43.36298569513629" lon="-2.510006177481134"><ele>38.0</ele><time>2026-05-01T16:02:44Z</time></trkpt><trkpt lat="43.36297512686666" lon="-2.5099135474319136"><ele>38.166666666666664</ele><time>2026-05-01T16:02:45Z</time></trkpt><trkpt lat="43.36297072723907" lon="-2.509817392328008"><ele>38.33333333333333</ele><time>2026-05-01T16:02:46Z</time></trkpt><trkpt lat="43.36297436997051" lon="-2.5097165704435627"><ele>38.5</ele><time>2026-05-01T16:02:47Z</time></trkpt><trkpt lat="43.36298606167181" lon="-2.5096008581778215"><ele>38.666666666666664</ele><time>2026-05-01T16:02:48Z</time></trkpt><trkpt lat="43.36302211019302" lon="-2.509497729664876"><ele>38.833333333333336</ele><time>2026-05-01T16:02:49Z</time></trkpt><trkpt lat="43.36306631515633" lon="-2.5093999313185917"><ele>39.0</ele><time>2026-05-01T16:02:50Z</time></trkpt><trkpt lat="43.36312353323292" lon="-2.5092877349341762"><ele>38.5</ele><time>2026-05-01T16:02:51Z</time></trkpt><trkpt lat="43.363180141676835" lon="-2.509194992306849"><ele>38.0</ele><time>2026-05-01T16:02:52Z</time></trkpt><trkpt lat="43.3632390774658" lon="-2.5091106688866507"><ele>37.5</ele><time>2026-05-01T16:02:53Z</time></trkpt><trkpt lat="43.363298938314536" lon="-2.509036880280536"><ele>37.0</ele><time>2026-05-01T16:02:54Z</time></trkpt><trkpt lat="43.36337056682255" lon="-2.5089850648898957"><ele>36.5</ele><time>2026-05-01T16:02:55Z</time></trkpt><trkpt lat="43.363434719157944" lon="-2.5089224604487472"><ele>36.0</ele><time>2026-05-01T16:02:56Z</time></trkpt><trkpt lat="43.36349092830947" lon="-2.5088348872888537"><ele>36.0</ele><time>2026-05-01T16:02:57Z</time></trkpt><trkpt lat="43.36355779563268" lon="-2.5087623527982306"><ele>36.0</ele><time>2026-05-01T16:02:58Z</time></trkpt><trkpt lat="43.363633983771145" lon="-2.508683725475264"><ele>36.0</ele><time>2026-05-01T16:02:59Z</time></trkpt><trkpt lat="43.363700929207056" lon="-2.5085849564263176"><ele>36.0</ele><time>2026-05-01T16:03:00Z</time></trkpt><trkpt lat="43.36375623486957" lon="-2.5084541695828317"><ele>36.0</ele><time>2026-05-01T16:03:01Z</time></trkpt><trkpt lat="43.36379364607513" lon="-2.508338749137196"><ele>35.2</ele><time>2026-05-01T16:03:02Z</time></trkpt><trkpt lat="43.36383001925203" lon="-2.5082304269257945"><ele>34.400000000000006</ele><time>2026-05-01T16:03:03Z</time></trkpt><trkpt lat="43.36384591722948" lon="-2.5081138723619953"><ele>33.6</ele><time>2026-05-01T16:03:04Z</time></trkpt><trkpt lat="43.36386286792354" lon="-2.5079899093568034"><ele>32.800000000000004</ele><time>2026-05-01T16:03:05Z</time></trkpt><trkpt lat="43.36387592681889" lon="-2.5078784045136406"><ele>32.0</ele><time>2026-05-01T16:03:06Z</time></trkpt><trkpt lat="43.3639064954847" lon="-2.507690462969799"><ele>31.999999999999996</ele><time>2026-05-01T16:03:08Z</time></trkpt><trkpt lat="43.36390363530327" lon="-2.5075661890919707"><ele>32.0</ele><time>2026-05-01T16:03:09Z</time></trkpt><trkpt lat="43.363919949887105" lon="-2.507443932038185"><ele>32.0</ele><time>2026-05-01T16:03:10Z</time></trkpt><trkpt lat="43.363945598380795" lon="-2.507320795582666"><ele>32.0</ele><time>2026-05-01T16:03:11Z</time></trkpt><trkpt lat="43.36395128562412" lon="-2.507215849162218"><ele>31.999999999999996</ele><time>2026-05-01T16:03:12Z</time></trkpt><trkpt lat="43.36396304109257" lon="-2.5071113892570724"><ele>32.0</ele><time>2026-05-01T16:03:13Z</time></trkpt><trkpt lat="43.36397443101439" lon="-2.5070099657693423"><ele>31.142857142857142</ele><time>2026-05-01T16:03:14Z</time></trkpt><trkpt lat="43.36399080827015" lon="-2.5069074670049987"><ele>30.285714285714285</ele><time>2026-05-01T16:03:15Z</time></trkpt><trkpt lat="43.36399706645961" lon="-2.506814406617428"><ele>29.428571428571427</ele><time>2026-05-01T16:03:16Z</time></trkpt><trkpt lat="43.36400920670204" lon="-2.506716746407138"><ele>28.57142857142857</ele><time>2026-05-01T16:03:17Z</time></trkpt><trkpt lat="43.36401627146396" lon="-2.50661876896536"><ele>27.714285714285715</ele><time>2026-05-01T16:03:18Z</time></trkpt><trkpt lat="43.364030171563364" lon="-2.5065097586002154"><ele>26.857142857142854</ele><time>2026-05-01T16:03:19Z</time></trkpt><trkpt lat="43.3640467279308" lon="-2.5064257462550135"><ele>26.0</ele><time>2026-05-01T16:03:20Z</time></trkpt><trkpt lat="43.36405931841522" lon="-2.506338571366092"><ele>25.57142857142857</ele><time>2026-05-01T16:03:21Z</time></trkpt><trkpt lat="43.364071313852726" lon="-2.5062445572414944"><ele>25.142857142857146</ele><time>2026-05-01T16:03:22Z</time></trkpt><trkpt lat="43.36407613446722" lon="-2.5061387624720224"><ele>24.714285714285715</ele><time>2026-05-01T16:03:23Z</time></trkpt><trkpt lat="43.36408819674815" lon="-2.5060298438614503"><ele>24.285714285714285</ele><time>2026-05-01T16:03:24Z</time></trkpt><trkpt lat="43.36409828061771" lon="-2.5059377743773124"><ele>23.857142857142854</ele><time>2026-05-01T16:03:25.001Z</time></trkpt><trkpt lat="43.36410678300548" lon="-2.505838631343041"><ele>23.42857142857143</ele><time>2026-05-01T16:03:26.001Z</time></trkpt><trkpt lat="43.36411230221239" lon="-2.505739518193821"><ele>23.0</ele><time>2026-05-01T16:03:27.001Z</time></trkpt><trkpt lat="43.364118999795934" lon="-2.5056281081573415"><ele>23.0</ele><time>2026-05-01T16:03:28.001Z</time></trkpt><trkpt lat="43.364068281061485" lon="-2.5055191544694964"><ele>23.0</ele><time>2026-05-01T16:03:29.001Z</time></trkpt><trkpt lat="43.36405191903985" lon="-2.505429344648265"><ele>23.0</ele><time>2026-05-01T16:03:30.001Z</time></trkpt><trkpt lat="43.364003675727886" lon="-2.5052766817306136"><ele>23.0</ele><time>2026-05-01T16:03:32.001Z</time></trkpt><trkpt lat="43.36396755808389" lon="-2.5051731844102894"><ele>23.0</ele><time>2026-05-01T16:03:34.001Z</time></trkpt><trkpt lat="43.363936795386365" lon="-2.505078776367901"><ele>23.0</ele><time>2026-05-01T16:03:38.001Z</time></trkpt><trkpt lat="43.36389542443219" lon="-2.504988233198171"><ele>23.166666666666668</ele><time>2026-05-01T16:03:42.001Z</time></trkpt><trkpt lat="43.36385192706112" lon="-2.5048835317057834"><ele>23.333333333333336</ele><time>2026-05-01T16:03:45.001Z</time></trkpt><trkpt lat="43.36379995960233" lon="-2.5047735143089085"><ele>23.5</ele><time>2026-05-01T16:03:48.001Z</time></trkpt><trkpt lat="43.3637603101485" lon="-2.5046853052840357"><ele>23.666666666666668</ele><time>2026-05-01T16:03:50.001Z</time></trkpt><trkpt lat="43.363720728527184" lon="-2.5045692625310276"><ele>23.833333333333332</ele><time>2026-05-01T16:03:53.001Z</time></trkpt><trkpt lat="43.363684954655405" lon="-2.504490114260144"><ele>24.0</ele><time>2026-05-01T16:03:55.001Z</time></trkpt><trkpt lat="43.363645654708044" lon="-2.5044137238481636"><ele>24.142857142857142</ele><time>2026-05-01T16:03:58.001Z</time></trkpt><trkpt lat="43.36362219330561" lon="-2.5043329180581577"><ele>24.285714285714285</ele><time>2026-05-01T16:04:04.001Z</time></trkpt><trkpt lat="43.363586181597285" lon="-2.504244352975896"><ele>24.42857142857143</ele><time>2026-05-01T16:04:24.001Z</time></trkpt><trkpt lat="43.36355143020869" lon="-2.5041557543796626"><ele>24.57142857142857</ele><time>2026-05-01T16:04:28.001Z</time></trkpt><trkpt lat="43.36352112937553" lon="-2.504078502487288"><ele>24.714285714285715</ele><time>2026-05-01T16:04:31.001Z</time></trkpt><trkpt lat="43.36348997268986" lon="-2.5039990685943327"><ele>24.857142857142858</ele><time>2026-05-01T16:04:35.001Z</time></trkpt><trkpt lat="43.36346334676768" lon="-2.5039037186482562"><ele>25.0</ele><time>2026-05-01T16:04:53Z</time></trkpt><trkpt lat="43.363418255789" lon="-2.503796283691161"><ele>24.166666666666668</ele><time>2026-05-01T16:04:55Z</time></trkpt><trkpt lat="43.36337726014748" lon="-2.503712342066885"><ele>23.333333333333336</ele><time>2026-05-01T16:04:57Z</time></trkpt><trkpt lat="43.36334731318925" lon="-2.503606649964323"><ele>22.5</ele><time>2026-05-01T16:05:00Z</time></trkpt><trkpt lat="43.36330360455491" lon="-2.50353005557607"><ele>21.666666666666668</ele><time>2026-05-01T16:05:02Z</time></trkpt><trkpt lat="43.36323710002962" lon="-2.503445280510272"><ele>20.833333333333336</ele><time>2026-05-01T16:05:04Z</time></trkpt><trkpt lat="43.36317906342339" lon="-2.503365510742183"><ele>20.0</ele><time>2026-05-01T16:05:06Z</time></trkpt><trkpt lat="43.36312190331403" lon="-2.503293170082513"><ele>20.0</ele><time>2026-05-01T16:05:08Z</time></trkpt><trkpt lat="43.36306537598546" lon="-2.5032240485366715"><ele>20.0</ele><time>2026-05-01T16:05:10Z</time></trkpt><trkpt lat="43.36299104017702" lon="-2.503138082848251"><ele>20.0</ele><time>2026-05-01T16:05:12Z</time></trkpt><trkpt lat="43.36295281138028" lon="-2.5030330600336357"><ele>20.0</ele><time>2026-05-01T16:05:14Z</time></trkpt><trkpt lat="43.36293118608952" lon="-2.50291722251497"><ele>20.0</ele><time>2026-05-01T16:05:16Z</time></trkpt><trkpt lat="43.36292968179992" lon="-2.5028273021682703"><ele>20.0</ele><time>2026-05-01T16:05:17Z</time></trkpt><trkpt lat="43.36293060224474" lon="-2.5027222212555515"><ele>20.8</ele><time>2026-05-01T16:05:18Z</time></trkpt><trkpt lat="43.36293278920097" lon="-2.502561912626204"><ele>21.6</ele><time>2026-05-01T16:05:20Z</time></trkpt><trkpt lat="43.36293207637658" lon="-2.5024461798911437"><ele>22.4</ele><time>2026-05-01T16:05:22Z</time></trkpt><trkpt lat="43.36291777847293" lon="-2.502316509286206"><ele>23.2</ele><time>2026-05-01T16:05:25Z</time></trkpt><trkpt lat="43.36288444572307" lon="-2.502213200223176"><ele>24.0</ele><time>2026-05-01T16:05:27Z</time></trkpt><trkpt lat="43.36285053756174" lon="-2.50212165787171"><ele>24.25</ele><time>2026-05-01T16:05:29Z</time></trkpt><trkpt lat="43.36279400202301" lon="-2.501975412523128"><ele>24.5</ele><time>2026-05-01T16:05:31Z</time></trkpt><trkpt lat="43.36278581702848" lon="-2.5018338025202143"><ele>24.75</ele><time>2026-05-01T16:05:32Z</time></trkpt><trkpt lat="43.36272118379261" lon="-2.5016844743503115"><ele>25.0</ele><time>2026-05-01T16:05:33Z</time></trkpt><trkpt lat="43.36266619265358" lon="-2.501547401973704"><ele>25.0</ele><time>2026-05-01T16:05:34Z</time></trkpt><trkpt lat="43.36261956489469" lon="-2.5013912120198256"><ele>25.0</ele><time>2026-05-01T16:05:35Z</time></trkpt><trkpt lat="43.36256730279003" lon="-2.5012227146473216"><ele>25.0</ele><time>2026-05-01T16:05:36Z</time></trkpt><trkpt lat="43.36250806876866" lon="-2.5010664867628356"><ele>25.0</ele><time>2026-05-01T16:05:37Z</time></trkpt><trkpt lat="43.36244702534887" lon="-2.5009050248363174"><ele>24.0</ele><time>2026-05-01T16:05:38Z</time></trkpt><trkpt lat="43.362389554525514" lon="-2.5007595006535652"><ele>23.0</ele><time>2026-05-01T16:05:39Z</time></trkpt><trkpt lat="43.36234101363632" lon="-2.500621550343465"><ele>22.0</ele><time>2026-05-01T16:05:40Z</time></trkpt><trkpt lat="43.36229445402844" lon="-2.5004966174547087"><ele>21.0</ele><time>2026-05-01T16:05:41Z</time></trkpt><trkpt lat="43.36225573042881" lon="-2.5003780797786046"><ele>20.0</ele><time>2026-05-01T16:05:42.001Z</time></trkpt><trkpt lat="43.3622007069136" lon="-2.500298854382322"><ele>20.0</ele><time>2026-05-01T16:05:44.001Z</time></trkpt><trkpt lat="43.36220490621118" lon="-2.500210711781353"><ele>20.0</ele><time>2026-05-01T16:06:16.001Z</time></trkpt><trkpt lat="43.36226755567407" lon="-2.500304541356269"><ele>20.0</ele><time>2026-05-01T16:06:25.001Z</time></trkpt><trkpt lat="43.3622811106314" lon="-2.500409574044903"><ele>20.0</ele><time>2026-05-01T16:06:26.001Z</time></trkpt><trkpt lat="43.36231581404533" lon="-2.5005363981226725"><ele>20.0</ele><time>2026-05-01T16:06:27.001Z</time></trkpt><trkpt lat="43.36238967643392" lon="-2.5006200753137593"><ele>20.0</ele><time>2026-05-01T16:06:28.001Z</time></trkpt><trkpt lat="43.362392901653415" lon="-2.50072315926901"><ele>20.0</ele><time>2026-05-01T16:06:29.001Z</time></trkpt><trkpt lat="43.3624244968513" lon="-2.500814984580353"><ele>20.0</ele><time>2026-05-01T16:06:30.001Z</time></trkpt><trkpt lat="43.36246947065528" lon="-2.50091162418724"><ele>20.0</ele><time>2026-05-01T16:06:31.001Z</time></trkpt><trkpt lat="43.36251029033896" lon="-2.5010148115984165"><ele>20.0</ele><time>2026-05-01T16:06:32.001Z</time></trkpt><trkpt lat="43.3625397352012" lon="-2.501116431264145"><ele>20.0</ele><time>2026-05-01T16:06:33.001Z</time></trkpt><trkpt lat="43.36257319129525" lon="-2.501218967382294"><ele>20.0</ele><time>2026-05-01T16:06:34.001Z</time></trkpt><trkpt lat="43.36258678629122" lon="-2.501319515177098"><ele>20.833333333333336</ele><time>2026-05-01T16:06:35.001Z</time></trkpt><trkpt lat="43.36264507697676" lon="-2.5013816189636686"><ele>21.666666666666668</ele><time>2026-05-01T16:06:36.001Z</time></trkpt><trkpt lat="43.362671984067404" lon="-2.5014737842402885"><ele>22.5</ele><time>2026-05-01T16:06:37.001Z</time></trkpt><trkpt lat="43.36270119341458" lon="-2.5015707959890547"><ele>23.333333333333336</ele><time>2026-05-01T16:06:38.001Z</time></trkpt><trkpt lat="43.36273507673033" lon="-2.501679233009496"><ele>24.166666666666668</ele><time>2026-05-01T16:06:39.001Z</time></trkpt><trkpt lat="43.362757980912846" lon="-2.5017916751091898"><ele>25.0</ele><time>2026-05-01T16:06:40.001Z</time></trkpt><trkpt lat="43.362787271135616" lon="-2.501880703073306"><ele>25.0</ele><time>2026-05-01T16:06:41.001Z</time></trkpt><trkpt lat="43.362829995917586" lon="-2.501974022877857"><ele>25.0</ele><time>2026-05-01T16:06:42.001Z</time></trkpt><trkpt lat="43.36287804363798" lon="-2.5021093558318"><ele>25.0</ele><time>2026-05-01T16:06:44.001Z</time></trkpt><trkpt lat="43.362926689086116" lon="-2.5022431153189335"><ele>25.0</ele><time>2026-05-01T16:06:46.001Z</time></trkpt><trkpt lat="43.362955083685414" lon="-2.5023451258769778"><ele>25.0</ele><time>2026-05-01T16:06:48.001Z</time></trkpt><trkpt lat="43.363016064326814" lon="-2.502402227554229"><ele>24.0</ele><time>2026-05-01T16:06:51Z</time></trkpt></trkseg><trkseg><trkpt lat="43.36303667917819" lon="-2.5022549273431336"><ele>9.0</ele><time>2026-05-01T16:48:17Z</time></trkpt><trkpt lat="43.363067826207875" lon="-2.502340540972223"><ele>9.0</ele><time>2026-05-01T16:48:28Z</time></trkpt><trkpt lat="43.363055785524956" lon="-2.5024271938524745"><ele>9.0</ele><time>2026-05-01T16:48:55Z</time></trkpt><trkpt lat="43.36297138151856" lon="-2.502455333725707"><ele>9.0</ele><time>2026-05-01T16:49:16Z</time></trkpt><trkpt lat="43.36289849013729" lon="-2.5025459094060993"><ele>9.0</ele><time>2026-05-01T16:49:18Z</time></trkpt><trkpt lat="43.36291865889887" lon="-2.502677202049999"><ele>9.0</ele><time>2026-05-01T16:49:19Z</time></trkpt><trkpt lat="43.36292219919226" lon="-2.502776985698244"><ele>11.75</ele><time>2026-05-01T16:49:20Z</time></trkpt><trkpt lat="43.36292567838887" lon="-2.502938933552249"><ele>14.5</ele><time>2026-05-01T16:49:22Z</time></trkpt><trkpt lat="43.36301441402436" lon="-2.503108004062049"><ele>17.25</ele><time>2026-05-01T16:49:24Z</time></trkpt><trkpt lat="43.3630954650821" lon="-2.5031867095150444"><ele>20.0</ele><time>2026-05-01T16:49:27Z</time></trkpt><trkpt lat="43.36314770574844" lon="-2.503277845268751"><ele>20.0</ele><time>2026-05-01T16:49:28Z</time></trkpt><trkpt lat="43.36323971886202" lon="-2.503384274723503"><ele>20.0</ele><time>2026-05-01T16:49:29Z</time></trkpt><trkpt lat="43.36333914990925" lon="-2.50354069292941"><ele>20.0</ele><time>2026-05-01T16:49:32Z</time></trkpt><trkpt lat="43.363440690883415" lon="-2.503780568860792"><ele>21.25</ele><time>2026-05-01T16:49:34Z</time></trkpt><trkpt lat="43.36348817127887" lon="-2.5039343098477245"><ele>22.5</ele><time>2026-05-01T16:49:38Z</time></trkpt><trkpt lat="43.36357625937752" lon="-2.5041269411467155"><ele>23.75</ele><time>2026-05-01T16:49:39Z</time></trkpt><trkpt lat="43.363624330559475" lon="-2.5042506247026686"><ele>25.0</ele><time>2026-05-01T16:49:44Z</time></trkpt><trkpt lat="43.36369099957294" lon="-2.5044172682785137"><ele>24.75</ele><time>2026-05-01T16:49:46Z</time></trkpt><trkpt lat="43.363775191218664" lon="-2.5046376620681183"><ele>24.5</ele><time>2026-05-01T16:49:47Z</time></trkpt><trkpt lat="43.36382837207046" lon="-2.5047496955777455"><ele>24.25</ele><time>2026-05-01T16:49:48Z</time></trkpt><trkpt lat="43.36388210946282" lon="-2.504907314856638"><ele>24.0</ele><time>2026-05-01T16:49:50Z</time></trkpt><trkpt lat="43.36393509547981" lon="-2.504991476070218"><ele>23.75</ele><time>2026-05-01T16:49:51Z</time></trkpt><trkpt lat="43.36396662069767" lon="-2.505069094304535"><ele>23.5</ele><time>2026-05-01T16:49:52Z</time></trkpt><trkpt lat="43.36400295252559" lon="-2.5051688187477015"><ele>23.25</ele><time>2026-05-01T16:49:54Z</time></trkpt><trkpt lat="43.36403072442151" lon="-2.505248398803118"><ele>23.0</ele><time>2026-05-01T16:50:01Z</time></trkpt><trkpt lat="43.363373347395296" lon="-2.5112022062220456"><ele>25.4</ele><time>2026-05-01T16:51:14Z</time></trkpt><trkpt lat="43.36342984382712" lon="-2.5113650069396933"><ele>27.799999999999997</ele><time>2026-05-01T16:51:15Z</time></trkpt><trkpt lat="43.363494753022515" lon="-2.511473065486149"><ele>30.2</ele><time>2026-05-01T16:51:16Z</time></trkpt><trkpt lat="43.363546891149745" lon="-2.5115788117672326"><ele>32.6</ele><time>2026-05-01T16:51:17Z</time></trkpt><trkpt lat="43.363590102947526" lon="-2.511666998751207"><ele>35.0</ele><time>2026-05-01T16:51:18Z</time></trkpt><trkpt lat="43.363630338216225" lon="-2.51174069879361"><ele>35.0</ele><time>2026-05-01T16:51:19Z</time></trkpt><trkpt lat="43.36367720234939" lon="-2.5118227627249463"><ele>35.0</ele><time>2026-05-01T16:51:20Z</time></trkpt><trkpt lat="43.3637256445229" lon="-2.511919896306141"><ele>35.0</ele><time>2026-05-01T16:51:21Z</time></trkpt><trkpt lat="43.36377733169335" lon="-2.512026639052213"><ele>35.0</ele><time>2026-05-01T16:51:22Z</time></trkpt><trkpt lat="43.363841428992856" lon="-2.5121482231645653"><ele>35.0</ele><time>2026-05-01T16:51:23Z</time></trkpt><trkpt lat="43.363898568945366" lon="-2.5122532969582623"><ele>36.2</ele><time>2026-05-01T16:51:24Z</time></trkpt><trkpt lat="43.36396016934524" lon="-2.5123629036646626"><ele>37.4</ele><time>2026-05-01T16:51:25Z</time></trkpt><trkpt lat="43.364018999876535" lon="-2.5124665432421796"><ele>38.599999999999994</ele><time>2026-05-01T16:51:26Z</time></trkpt><trkpt lat="43.36408501491498" lon="-2.5125464833211066"><ele>39.8</ele><time>2026-05-01T16:51:27Z</time></trkpt><trkpt lat="43.36415193013696" lon="-2.5126141700464695"><ele>41.0</ele><time>2026-05-01T16:51:28Z</time></trkpt><trkpt lat="43.364284636133014" lon="-2.512599295669271"><ele>41.0</ele><time>2026-05-01T16:51:29Z</time></trkpt><trkpt lat="43.36439148591998" lon="-2.51261785156059"><ele>41.0</ele><time>2026-05-01T16:51:30Z</time></trkpt><trkpt lat="43.36448433089358" lon="-2.5126920284736065"><ele>41.0</ele><time>2026-05-01T16:51:31Z</time></trkpt><trkpt lat="43.36453843104209" lon="-2.512834686852788"><ele>41.0</ele><time>2026-05-01T16:51:32Z</time></trkpt><trkpt lat="43.36455625246541" lon="-2.513008780598104"><ele>42.25</ele><time>2026-05-01T16:51:33Z</time></trkpt><trkpt lat="43.36462654999777" lon="-2.5131598526139673"><ele>43.5</ele><time>2026-05-01T16:51:34Z</time></trkpt><trkpt lat="43.364719830406564" lon="-2.513291079906347"><ele>44.75</ele><time>2026-05-01T16:51:35Z</time></trkpt><trkpt lat="43.36487620245293" lon="-2.5133619042977373"><ele>46.0</ele><time>2026-05-01T16:51:36Z</time></trkpt><trkpt lat="43.36505016910035" lon="-2.51344463644199"><ele>48.0</ele><time>2026-05-01T16:51:37Z</time></trkpt><trkpt lat="43.3652471748835" lon="-2.513525293596116"><ele>50.0</ele><time>2026-05-01T16:51:38Z</time></trkpt><trkpt lat="43.3654411130094" lon="-2.513595476494599"><ele>52.0</ele><time>2026-05-01T16:51:39Z</time></trkpt><trkpt lat="43.365638066103074" lon="-2.5136687918489318"><ele>51.33333333333333</ele><time>2026-05-01T16:51:40Z</time></trkpt><trkpt lat="43.36584702002031" lon="-2.5137595614959247"><ele>50.66666666666667</ele><time>2026-05-01T16:51:41Z</time></trkpt><trkpt lat="43.366053344408655" lon="-2.513871364151374"><ele>50.0</ele><time>2026-05-01T16:51:42Z</time></trkpt><trkpt lat="43.366228526490254" lon="-2.5140096590404766"><ele>50.333333333333336</ele><time>2026-05-01T16:51:43Z</time></trkpt><trkpt lat="43.366382927992156" lon="-2.5141396751042766"><ele>50.66666666666667</ele><time>2026-05-01T16:51:44Z</time></trkpt><trkpt lat="43.36651600273104" lon="-2.514294499812776"><ele>51.0</ele><time>2026-05-01T16:51:45Z</time></trkpt><trkpt lat="43.36664441325266" lon="-2.5144707658853944"><ele>50.33333333333333</ele><time>2026-05-01T16:51:46Z</time></trkpt><trkpt lat="43.366793540244" lon="-2.5146955674062466"><ele>49.666666666666664</ele><time>2026-05-01T16:51:47Z</time></trkpt><trkpt lat="43.36690427062275" lon="-2.5149580350295184"><ele>49.0</ele><time>2026-05-01T16:51:48Z</time></trkpt><trkpt lat="43.367012932513354" lon="-2.5152321154572856"><ele>51.0</ele><time>2026-05-01T16:51:49Z</time></trkpt><trkpt lat="43.367081124208596" lon="-2.515513376275141"><ele>53.0</ele><time>2026-05-01T16:51:50Z</time></trkpt><trkpt lat="43.36711174590552" lon="-2.5158168625158304"><ele>55.0</ele><time>2026-05-01T16:51:51Z</time></trkpt><trkpt lat="43.36712903979523" lon="-2.5161301800999576"><ele>59.666666666666664</ele><time>2026-05-01T16:51:52Z</time></trkpt><trkpt lat="43.36712598053966" lon="-2.516426365382113"><ele>64.33333333333333</ele><time>2026-05-01T16:51:53Z</time></trkpt><trkpt lat="43.36708350381572" lon="-2.5167274042456427"><ele>69.0</ele><time>2026-05-01T16:51:54Z</time></trkpt><trkpt lat="43.367016969866796" lon="-2.5170133233713403"><ele>78.0</ele><time>2026-05-01T16:51:55Z</time></trkpt><trkpt lat="43.36693306152081" lon="-2.5173008977982367"><ele>87.0</ele><time>2026-05-01T16:51:56Z</time></trkpt><trkpt lat="43.36680730652913" lon="-2.517578756479938"><ele>87.0</ele><time>2026-05-01T16:51:57Z</time></trkpt><trkpt lat="43.36665769368234" lon="-2.5178351183939887"><ele>87.0</ele><time>2026-05-01T16:51:58Z</time></trkpt><trkpt lat="43.36648805439859" lon="-2.518076925005039"><ele>81.5</ele><time>2026-05-01T16:51:59Z</time></trkpt><trkpt lat="43.36629402017335" lon="-2.5182862566096404"><ele>76.0</ele><time>2026-05-01T16:52:00Z</time></trkpt><trkpt lat="43.366108135286694" lon="-2.5184837976286802"><ele>76.0</ele><time>2026-05-01T16:52:01Z</time></trkpt><trkpt lat="43.36595575253318" lon="-2.518645973857141"><ele>76.0</ele><time>2026-05-01T16:52:02Z</time></trkpt><trkpt lat="43.36581556016222" lon="-2.518803494577727"><ele>76.0</ele><time>2026-05-01T16:52:03Z</time></trkpt><trkpt lat="43.36567508215921" lon="-2.5189586556110566"><ele>80.66666666666666</ele><time>2026-05-01T16:52:04Z</time></trkpt><trkpt lat="43.36555311549651" lon="-2.519124034399197"><ele>85.33333333333333</ele><time>2026-05-01T16:52:05Z</time></trkpt><trkpt lat="43.36543158924397" lon="-2.519299152786332"><ele>90.0</ele><time>2026-05-01T16:52:06Z</time></trkpt><trkpt lat="43.365331633940414" lon="-2.519507891593575"><ele>96.33333333333334</ele><time>2026-05-01T16:52:07Z</time></trkpt><trkpt lat="43.365229993217525" lon="-2.5197256064111806"><ele>102.66666666666667</ele><time>2026-05-01T16:52:08Z</time></trkpt><trkpt lat="43.365144474070256" lon="-2.5199500140988165"><ele>109.0</ele><time>2026-05-01T16:52:09Z</time></trkpt><trkpt lat="43.36506763297841" lon="-2.520182027970886"><ele>110.33333333333334</ele><time>2026-05-01T16:52:10Z</time></trkpt><trkpt lat="43.36499776856417" lon="-2.5204250283894245"><ele>111.66666666666666</ele><time>2026-05-01T16:52:11Z</time></trkpt><trkpt lat="43.36493019121508" lon="-2.5206753650038927"><ele>113.0</ele><time>2026-05-01T16:52:12Z</time></trkpt><trkpt lat="43.36486347313008" lon="-2.5209198769595016"><ele>139.0</ele><time>2026-05-01T16:52:13Z</time></trkpt><trkpt lat="43.359755806532156" lon="-2.5227027558141066"><ele>139.75</ele><time>2026-05-01T16:53:14Z</time></trkpt><trkpt lat="43.359671538293796" lon="-2.5228534466493664"><ele>140.5</ele><time>2026-05-01T16:53:15Z</time></trkpt><trkpt lat="43.359582586539155" lon="-2.523027284836294"><ele>141.25</ele><time>2026-05-01T16:53:16Z</time></trkpt><trkpt lat="43.35949127319989" lon="-2.523195300484867"><ele>142.0</ele><time>2026-05-01T16:53:17Z</time></trkpt><trkpt lat="43.35940596962086" lon="-2.5233643467677207"><ele>142.0</ele><time>2026-05-01T16:53:18Z</time></trkpt><trkpt lat="43.35932909124048" lon="-2.5235163033535937"><ele>142.0</ele><time>2026-05-01T16:53:19Z</time></trkpt><trkpt lat="43.359262690784675" lon="-2.5236437167389023"><ele>142.0</ele><time>2026-05-01T16:53:20Z</time></trkpt><trkpt lat="43.35918005039311" lon="-2.523747424694327"><ele>142.0</ele><time>2026-05-01T16:53:21Z</time></trkpt><trkpt lat="43.35909684424945" lon="-2.5238202229886055"><ele>145.16666666666669</ele><time>2026-05-01T16:53:22Z</time></trkpt><trkpt lat="43.35901045745516" lon="-2.5238735904998038"><ele>148.33333333333334</ele><time>2026-05-01T16:53:23Z</time></trkpt><trkpt lat="43.35893849008802" lon="-2.523916485946757"><ele>151.5</ele><time>2026-05-01T16:53:24Z</time></trkpt><trkpt lat="43.358873746508806" lon="-2.523938486165197"><ele>154.66666666666666</ele><time>2026-05-01T16:53:25Z</time></trkpt><trkpt lat="43.358806978287966" lon="-2.5239592094708083"><ele>157.83333333333331</ele><time>2026-05-01T16:53:28Z</time></trkpt><trkpt lat="43.35872567965903" lon="-2.5239712531606884"><ele>161.0</ele><time>2026-05-01T16:53:31Z</time></trkpt><trkpt lat="43.35864878538007" lon="-2.5239604376933213"><ele>161.33333333333331</ele><time>2026-05-01T16:53:33Z</time></trkpt><trkpt lat="43.35853960515856" lon="-2.523921430300516"><ele>161.66666666666666</ele><time>2026-05-01T16:53:35Z</time></trkpt><trkpt lat="43.358478461435894" lon="-2.5238716159869297"><ele>162.0</ele><time>2026-05-01T16:53:36Z</time></trkpt><trkpt lat="43.358407980817745" lon="-2.5238085672728094"><ele>162.33333333333334</ele><time>2026-05-01T16:53:37Z</time></trkpt><trkpt lat="43.35833008552984" lon="-2.523758068426904"><ele>162.66666666666669</ele><time>2026-05-01T16:53:38Z</time></trkpt><trkpt lat="43.35824511119009" lon="-2.5237072258996935"><ele>163.0</ele><time>2026-05-01T16:53:39Z</time></trkpt><trkpt lat="43.35816467782389" lon="-2.5236502835691375"><ele>162.20000000000002</ele><time>2026-05-01T16:53:40Z</time></trkpt><trkpt lat="43.358068839428846" lon="-2.5235905154365605"><ele>161.4</ele><time>2026-05-01T16:53:41Z</time></trkpt><trkpt lat="43.357982454246155" lon="-2.5235540826316654"><ele>160.60000000000002</ele><time>2026-05-01T16:53:42Z</time></trkpt><trkpt lat="43.35788912391736" lon="-2.5235445025427894"><ele>159.8</ele><time>2026-05-01T16:53:43Z</time></trkpt><trkpt lat="43.35779346604397" lon="-2.523565091977551"><ele>159.0</ele><time>2026-05-01T16:53:44Z</time></trkpt><trkpt lat="43.35770365580649" lon="-2.5236200858451197"><ele>159.0</ele><time>2026-05-01T16:53:45Z</time></trkpt><trkpt lat="43.35761268073345" lon="-2.5237056564401357"><ele>159.0</ele><time>2026-05-01T16:53:46Z</time></trkpt><trkpt lat="43.35752372215133" lon="-2.523793231309096"><ele>159.0</ele><time>2026-05-01T16:53:47Z</time></trkpt><trkpt lat="43.35743813467366" lon="-2.523878496098826"><ele>159.0</ele><time>2026-05-01T16:53:48Z</time></trkpt><trkpt lat="43.35735317876714" lon="-2.5239772750698406"><ele>159.0</ele><time>2026-05-01T16:53:49Z</time></trkpt><trkpt lat="43.35727000643945" lon="-2.5240809618173436"><ele>154.75</ele><time>2026-05-01T16:53:50Z</time></trkpt><trkpt lat="43.357194303171575" lon="-2.5242006419293634"><ele>150.5</ele><time>2026-05-01T16:53:51Z</time></trkpt><trkpt lat="43.35713482761925" lon="-2.524353124425378"><ele>146.25</ele><time>2026-05-01T16:53:52Z</time></trkpt><trkpt lat="43.35709571773584" lon="-2.524511429226168"><ele>142.0</ele><time>2026-05-01T16:53:53Z</time></trkpt><trkpt lat="43.35705567585851" lon="-2.5246812877489075"><ele>141.0</ele><time>2026-05-01T16:53:54Z</time></trkpt><trkpt lat="43.35701604687126" lon="-2.524846244647264"><ele>140.0</ele><time>2026-05-01T16:53:55Z</time></trkpt><trkpt lat="43.3569853590369" lon="-2.5250026668799075"><ele>139.0</ele><time>2026-05-01T16:53:56Z</time></trkpt><trkpt lat="43.35697919731399" lon="-2.525171480410041"><ele>138.0</ele><time>2026-05-01T16:53:57Z</time></trkpt><trkpt lat="43.35696338042041" lon="-2.5253358958932415"><ele>139.5</ele><time>2026-05-01T16:53:58Z</time></trkpt><trkpt lat="43.35694174514987" lon="-2.525502797722977"><ele>141.0</ele><time>2026-05-01T16:53:59Z</time></trkpt><trkpt lat="43.35690520803575" lon="-2.525668976823463"><ele>142.5</ele><time>2026-05-01T16:54:00Z</time></trkpt><trkpt lat="43.35685281340406" lon="-2.5258417347185445"><ele>144.0</ele><time>2026-05-01T16:54:01Z</time></trkpt><trkpt lat="43.35679034847639" lon="-2.5260208934856623"><ele>144.0</ele><time>2026-05-01T16:54:02Z</time></trkpt><trkpt lat="43.35672093461749" lon="-2.526192218840848"><ele>144.0</ele><time>2026-05-01T16:54:03Z</time></trkpt><trkpt lat="43.356644544891495" lon="-2.52634024953508"><ele>144.0</ele><time>2026-05-01T16:54:04Z</time></trkpt><trkpt lat="43.356554003645215" lon="-2.5264787442006296"><ele>144.0</ele><time>2026-05-01T16:54:05Z</time></trkpt><trkpt lat="43.35646821004063" lon="-2.526629987995541"><ele>146.75</ele><time>2026-05-01T16:54:06Z</time></trkpt><trkpt lat="43.35641239808797" lon="-2.5267822286036705"><ele>149.5</ele><time>2026-05-01T16:54:07Z</time></trkpt><trkpt lat="43.35639388924862" lon="-2.526958108414543"><ele>152.25</ele><time>2026-05-01T16:54:08Z</time></trkpt><trkpt lat="43.356391491176666" lon="-2.5271447313056012"><ele>155.0</ele><time>2026-05-01T16:54:09Z</time></trkpt><trkpt lat="43.356415377444385" lon="-2.527330591371352"><ele>155.66666666666666</ele><time>2026-05-01T16:54:10Z</time></trkpt><trkpt lat="43.35645478946928" lon="-2.52753791006627"><ele>156.33333333333334</ele><time>2026-05-01T16:54:11Z</time></trkpt><trkpt lat="43.35649625044533" lon="-2.527734883768615"><ele>157.0</ele><time>2026-05-01T16:54:12Z</time></trkpt><trkpt lat="43.35653749758258" lon="-2.5279300488315015"><ele>105.0</ele><time>2026-05-01T16:54:13Z</time></trkpt><trkpt lat="43.36084466597207" lon="-2.541314325045932"><ele>105.0</ele><time>2026-05-01T16:55:14Z</time></trkpt><trkpt lat="43.36090284561677" lon="-2.541573835350521"><ele>105.0</ele><time>2026-05-01T16:55:15Z</time></trkpt><trkpt lat="43.360965896450146" lon="-2.5418351857893087"><ele>105.0</ele><time>2026-05-01T16:55:16Z</time></trkpt><trkpt lat="43.36103116718703" lon="-2.542077444530291"><ele>105.6</ele><time>2026-05-01T16:55:17Z</time></trkpt><trkpt lat="43.36108764529278" lon="-2.5422659917103627"><ele>106.2</ele><time>2026-05-01T16:55:18Z</time></trkpt><trkpt lat="43.3611210464317" lon="-2.542415800922315"><ele>106.80000000000001</ele><time>2026-05-01T16:55:19Z</time></trkpt><trkpt lat="43.36114748750808" lon="-2.542505793534106"><ele>107.4</ele><time>2026-05-01T16:55:20Z</time></trkpt><trkpt lat="43.36116806308492" lon="-2.5426140592140265"><ele>108.0</ele><time>2026-05-01T16:55:21Z</time></trkpt><trkpt lat="43.3611956761528" lon="-2.5427339200220476"><ele>108.0</ele><time>2026-05-01T16:55:22Z</time></trkpt><trkpt lat="43.36122405421133" lon="-2.54284578198921"><ele>108.00000000000001</ele><time>2026-05-01T16:55:23Z</time></trkpt><trkpt lat="43.361254872080046" lon="-2.54298796646387"><ele>108.00000000000001</ele><time>2026-05-01T16:55:24Z</time></trkpt><trkpt lat="43.36129419562371" lon="-2.5431401697029816"><ele>108.0</ele><time>2026-05-01T16:55:25Z</time></trkpt><trkpt lat="43.36133813493109" lon="-2.5432869487446923"><ele>108.0</ele><time>2026-05-01T16:55:26Z</time></trkpt><trkpt lat="43.36137711105014" lon="-2.543436033525697"><ele>109.2</ele><time>2026-05-01T16:55:27Z</time></trkpt><trkpt lat="43.36140771792757" lon="-2.543589025378051"><ele>110.4</ele><time>2026-05-01T16:55:28Z</time></trkpt><trkpt lat="43.36143507195139" lon="-2.5437091676154573"><ele>111.60000000000001</ele><time>2026-05-01T16:55:29Z</time></trkpt><trkpt lat="43.36147623936393" lon="-2.543878787852846"><ele>112.80000000000001</ele><time>2026-05-01T16:55:31Z</time></trkpt><trkpt lat="43.36150151860121" lon="-2.5439941557006343"><ele>114.0</ele><time>2026-05-01T16:55:32Z</time></trkpt><trkpt lat="43.36153513269786" lon="-2.5441091704734897"><ele>114.0</ele><time>2026-05-01T16:55:33Z</time></trkpt><trkpt lat="43.36157529035169" lon="-2.544227611988076"><ele>114.0</ele><time>2026-05-01T16:55:34Z</time></trkpt><trkpt lat="43.36161338769326" lon="-2.544351043797454"><ele>114.0</ele><time>2026-05-01T16:55:35Z</time></trkpt><trkpt lat="43.36165030578729" lon="-2.5444660391582063"><ele>114.0</ele><time>2026-05-01T16:55:36Z</time></trkpt><trkpt lat="43.361688789366006" lon="-2.5445702211319023"><ele>114.0</ele><time>2026-05-01T16:55:37Z</time></trkpt><trkpt lat="43.36172818291889" lon="-2.5446661662380623"><ele>114.0</ele><time>2026-05-01T16:55:38Z</time></trkpt><trkpt lat="43.36176962934897" lon="-2.5447634256782434"><ele>113.5</ele><time>2026-05-01T16:55:39Z</time></trkpt><trkpt lat="43.361806321445506" lon="-2.544844962000265"><ele>113.0</ele><time>2026-05-01T16:55:40Z</time></trkpt><trkpt lat="43.36183867798284" lon="-2.5449249831029905"><ele>112.5</ele><time>2026-05-01T16:55:41Z</time></trkpt><trkpt lat="43.36187850470006" lon="-2.5449989568762925"><ele>112.0</ele><time>2026-05-01T16:55:42Z</time></trkpt><trkpt lat="43.361926191772426" lon="-2.5450927610020924"><ele>111.5</ele><time>2026-05-01T16:55:43Z</time></trkpt><trkpt lat="43.36200270485141" lon="-2.5452248387073153"><ele>111.0</ele><time>2026-05-01T16:55:45Z</time></trkpt><trkpt lat="43.362061853118796" lon="-2.5453271925550016"><ele>110.5</ele><time>2026-05-01T16:55:46Z</time></trkpt><trkpt lat="43.36212261812998" lon="-2.5454403181640712"><ele>110.0</ele><time>2026-05-01T16:55:47Z</time></trkpt><trkpt lat="43.36217304053888" lon="-2.545534503532854"><ele>109.5</ele><time>2026-05-01T16:55:48Z</time></trkpt><trkpt lat="43.362222522015365" lon="-2.545603708447702"><ele>109.0</ele><time>2026-05-01T16:55:49Z</time></trkpt><trkpt lat="43.36226535313195" lon="-2.545679944725752"><ele>108.5</ele><time>2026-05-01T16:55:50Z</time></trkpt><trkpt lat="43.36231671134582" lon="-2.5457615722412346"><ele>108.0</ele><time>2026-05-01T16:55:51Z</time></trkpt><trkpt lat="43.36236782397682" lon="-2.5458396336997127"><ele>108.0</ele><time>2026-05-01T16:55:52Z</time></trkpt><trkpt lat="43.36242770464208" lon="-2.5459396482848056"><ele>108.00000000000001</ele><time>2026-05-01T16:55:53Z</time></trkpt><trkpt lat="43.362489809812175" lon="-2.546047985330326"><ele>108.00000000000001</ele><time>2026-05-01T16:55:54Z</time></trkpt><trkpt lat="43.362547505531055" lon="-2.5461508762333906"><ele>108.0</ele><time>2026-05-01T16:55:55Z</time></trkpt><trkpt lat="43.3626090927424" lon="-2.5462534488262456"><ele>108.0</ele><time>2026-05-01T16:55:56Z</time></trkpt><trkpt lat="43.3626814216458" lon="-2.546352271464209"><ele>108.0</ele><time>2026-05-01T16:55:57Z</time></trkpt><trkpt lat="43.362758894236194" lon="-2.5464368424702135"><ele>108.00000000000001</ele><time>2026-05-01T16:55:58Z</time></trkpt><trkpt lat="43.36282257264251" lon="-2.5465438165033163"><ele>108.00000000000001</ele><time>2026-05-01T16:55:59Z</time></trkpt><trkpt lat="43.36286796136702" lon="-2.54670243225035"><ele>108.0</ele><time>2026-05-01T16:56:00Z</time></trkpt><trkpt lat="43.36293272548391" lon="-2.5468425542415196"><ele>108.0</ele><time>2026-05-01T16:56:01Z</time></trkpt><trkpt lat="43.36300399497808" lon="-2.5469630354256987"><ele>108.4</ele><time>2026-05-01T16:56:02Z</time></trkpt><trkpt lat="43.3630627722493" lon="-2.547078077780716"><ele>108.80000000000001</ele><time>2026-05-01T16:56:03Z</time></trkpt><trkpt lat="43.363135548716166" lon="-2.5471792572276284"><ele>109.2</ele><time>2026-05-01T16:56:04Z</time></trkpt><trkpt lat="43.36320518139514" lon="-2.5472810036203506"><ele>109.6</ele><time>2026-05-01T16:56:05Z</time></trkpt><trkpt lat="43.363278512379416" lon="-2.547399884996136"><ele>110.0</ele><time>2026-05-01T16:56:06Z</time></trkpt><trkpt lat="43.3633516529111" lon="-2.547529514709047"><ele>110.0</ele><time>2026-05-01T16:56:07Z</time></trkpt><trkpt lat="43.36343334887596" lon="-2.5476613356534266"><ele>110.0</ele><time>2026-05-01T16:56:08Z</time></trkpt><trkpt lat="43.36351250276382" lon="-2.5477918130507624"><ele>110.0</ele><time>2026-05-01T16:56:09Z</time></trkpt><trkpt lat="43.363585956336166" lon="-2.5479210647141644"><ele>110.0</ele><time>2026-05-01T16:56:10Z</time></trkpt><trkpt lat="43.363663480652114" lon="-2.548052586639655"><ele>109.66666666666666</ele><time>2026-05-01T16:56:11Z</time></trkpt><trkpt lat="43.36374509095047" lon="-2.548185228143939"><ele>109.33333333333334</ele><time>2026-05-01T16:56:12Z</time></trkpt><trkpt lat="43.363825465520975" lon="-2.5483209865268712"><ele>109.0</ele><time>2026-05-01T16:56:13Z</time></trkpt><trkpt lat="43.364292694661486" lon="-2.556926164955734"><ele>111.0</ele><time>2026-05-01T16:57:14Z</time></trkpt><trkpt lat="43.36439375477763" lon="-2.5569303318149093"><ele>113.0</ele><time>2026-05-01T16:57:15Z</time></trkpt><trkpt lat="43.36448502580136" lon="-2.556915574515395"><ele>115.0</ele><time>2026-05-01T16:57:16Z</time></trkpt><trkpt lat="43.36457461044198" lon="-2.5569030205844103"><ele>117.0</ele><time>2026-05-01T16:57:17Z</time></trkpt><trkpt lat="43.36467517849832" lon="-2.5569000670720285"><ele>119.0</ele><time>2026-05-01T16:57:18Z</time></trkpt><trkpt lat="43.36477916345882" lon="-2.556928988843908"><ele>119.0</ele><time>2026-05-01T16:57:19Z</time></trkpt><trkpt lat="43.364881318228285" lon="-2.5569977498070653"><ele>119.0</ele><time>2026-05-01T16:57:20Z</time></trkpt><trkpt lat="43.364962323837354" lon="-2.5570783683602705"><ele>119.0</ele><time>2026-05-01T16:57:21Z</time></trkpt><trkpt lat="43.36503525513875" lon="-2.5571690394449837"><ele>119.0</ele><time>2026-05-01T16:57:22Z</time></trkpt><trkpt lat="43.36509167695458" lon="-2.557266934144817"><ele>119.0</ele><time>2026-05-01T16:57:23Z</time></trkpt><trkpt lat="43.36514189346361" lon="-2.5573820292318254"><ele>124.0</ele><time>2026-05-01T16:57:24Z</time></trkpt><trkpt lat="43.36517314085395" lon="-2.557503050833125"><ele>129.0</ele><time>2026-05-01T16:57:25Z</time></trkpt><trkpt lat="43.365179348625595" lon="-2.5576381790425415"><ele>134.0</ele><time>2026-05-01T16:57:26Z</time></trkpt><trkpt lat="43.36516637197229" lon="-2.557747988234191"><ele>139.0</ele><time>2026-05-01T16:57:27Z</time></trkpt><trkpt lat="43.365156587002545" lon="-2.5578700552855094"><ele>144.0</ele><time>2026-05-01T16:57:28Z</time></trkpt><trkpt lat="43.36513967651378" lon="-2.5579919396562847"><ele>146.2</ele><time>2026-05-01T16:57:29Z</time></trkpt><trkpt lat="43.365124855960616" lon="-2.5581074746733794"><ele>148.4</ele><time>2026-05-01T16:57:30Z</time></trkpt><trkpt lat="43.36514009092465" lon="-2.558248489257475"><ele>150.6</ele><time>2026-05-01T16:57:31Z</time></trkpt><trkpt lat="43.36519639039261" lon="-2.5583777732685133"><ele>152.8</ele><time>2026-05-01T16:57:32Z</time></trkpt><trkpt lat="43.365281674461905" lon="-2.5584736730325255"><ele>155.0</ele><time>2026-05-01T16:57:33Z</time></trkpt><trkpt lat="43.36537403816535" lon="-2.5585075816577945"><ele>155.0</ele><time>2026-05-01T16:57:34Z</time></trkpt><trkpt lat="43.365466221486436" lon="-2.5585380173622005"><ele>155.0</ele><time>2026-05-01T16:57:35Z</time></trkpt><trkpt lat="43.3655391895695" lon="-2.5585815822211697"><ele>155.0</ele><time>2026-05-01T16:57:36Z</time></trkpt><trkpt lat="43.36561715412907" lon="-2.5586605872459307"><ele>155.0</ele><time>2026-05-01T16:57:37Z</time></trkpt><trkpt lat="43.3656832523472" lon="-2.5587706936236505"><ele>155.0</ele><time>2026-05-01T16:57:38Z</time></trkpt><trkpt lat="43.36575273916442" lon="-2.558874609335165"><ele>153.4</ele><time>2026-05-01T16:57:39Z</time></trkpt><trkpt lat="43.36581396221808" lon="-2.5589827827097484"><ele>151.8</ele><time>2026-05-01T16:57:40Z</time></trkpt><trkpt lat="43.3658740807977" lon="-2.5591011093160474"><ele>150.2</ele><time>2026-05-01T16:57:41Z</time></trkpt><trkpt lat="43.3659394344236" lon="-2.559224090074069"><ele>148.6</ele><time>2026-05-01T16:57:42Z</time></trkpt><trkpt lat="43.365999839727536" lon="-2.5593433118065962"><ele>147.0</ele><time>2026-05-01T16:57:43Z</time></trkpt><trkpt lat="43.36608616015363" lon="-2.5594612716084137"><ele>146.75</ele><time>2026-05-01T16:57:44Z</time></trkpt><trkpt lat="43.36615756031197" lon="-2.5595868779118174"><ele>146.5</ele><time>2026-05-01T16:57:45Z</time></trkpt><trkpt lat="43.36623483959571" lon="-2.5596974305256377"><ele>146.25</ele><time>2026-05-01T16:57:46Z</time></trkpt><trkpt lat="43.36632377954509" lon="-2.5597994204627597"><ele>146.0</ele><time>2026-05-01T16:57:47Z</time></trkpt><trkpt lat="43.36642103635941" lon="-2.559893431198644"><ele>146.0</ele><time>2026-05-01T16:57:48Z</time></trkpt><trkpt lat="43.36654604259137" lon="-2.559953361903044"><ele>146.0</ele><time>2026-05-01T16:57:49Z</time></trkpt><trkpt lat="43.3666524314308" lon="-2.5600213388966715"><ele>146.0</ele><time>2026-05-01T16:57:50Z</time></trkpt><trkpt lat="43.366767471698246" lon="-2.5600720535343653"><ele>146.0</ele><time>2026-05-01T16:57:51Z</time></trkpt><trkpt lat="43.36687922063016" lon="-2.560099864314678"><ele>146.0</ele><time>2026-05-01T16:57:52Z</time></trkpt><trkpt lat="43.36698248898184" lon="-2.560112676648811"><ele>146.0</ele><time>2026-05-01T16:57:53Z</time></trkpt><trkpt lat="43.367072859850474" lon="-2.560129396598403"><ele>146.0</ele><time>2026-05-01T16:57:54Z</time></trkpt><trkpt lat="43.36715870727816" lon="-2.5601521848679445"><ele>146.0</ele><time>2026-05-01T16:57:55Z</time></trkpt><trkpt lat="43.367255174683166" lon="-2.560185898250108"><ele>146.0</ele><time>2026-05-01T16:57:56Z</time></trkpt><trkpt lat="43.36733924708648" lon="-2.560239719732539"><ele>145.0</ele><time>2026-05-01T16:57:57Z</time></trkpt><trkpt lat="43.367406263597296" lon="-2.5603242820336165"><ele>144.0</ele><time>2026-05-01T16:57:58Z</time></trkpt><trkpt lat="43.367463008461804" lon="-2.5604291743811176"><ele>143.0</ele><time>2026-05-01T16:57:59Z</time></trkpt><trkpt lat="43.3675192599698" lon="-2.5605523801990806"><ele>142.0</ele><time>2026-05-01T16:58:00Z</time></trkpt><trkpt lat="43.36756682459036" lon="-2.560719834209164"><ele>141.0</ele><time>2026-05-01T16:58:01Z</time></trkpt><trkpt lat="43.36759192063394" lon="-2.5609102216971444"><ele>141.0</ele><time>2026-05-01T16:58:02Z</time></trkpt><trkpt lat="43.36762393047834" lon="-2.5610967363635333"><ele>141.0</ele><time>2026-05-01T16:58:03Z</time></trkpt><trkpt lat="43.36766983208041" lon="-2.561292639015527"><ele>141.0</ele><time>2026-05-01T16:58:04Z</time></trkpt><trkpt lat="43.36773031182956" lon="-2.561503878891902"><ele>139.0</ele><time>2026-05-01T16:58:05Z</time></trkpt><trkpt lat="43.36781693679456" lon="-2.561707644914182"><ele>137.0</ele><time>2026-05-01T16:58:06Z</time></trkpt><trkpt lat="43.36792825630509" lon="-2.5619243585594935"><ele>135.0</ele><time>2026-05-01T16:58:07Z</time></trkpt><trkpt lat="43.36802512720391" lon="-2.5621337552787242"><ele>135.33333333333334</ele><time>2026-05-01T16:58:08Z</time></trkpt><trkpt lat="43.3681358957134" lon="-2.562349160598358"><ele>135.66666666666669</ele><time>2026-05-01T16:58:09Z</time></trkpt><trkpt lat="43.36824177912238" lon="-2.5625464064680825"><ele>136.0</ele><time>2026-05-01T16:58:10Z</time></trkpt><trkpt lat="43.3683570980111" lon="-2.562740847718427"><ele>128.33333333333334</ele><time>2026-05-01T16:58:11Z</time></trkpt><trkpt lat="43.3684751715446" lon="-2.5629231823312573"><ele>120.66666666666666</ele><time>2026-05-01T16:58:12Z</time></trkpt><trkpt lat="43.368591440503096" lon="-2.563097282456523"><ele>113.0</ele><time>2026-05-01T16:58:13Z</time></trkpt><trkpt lat="43.37083481921217" lon="-2.572478215682706"><ele>101.75</ele><time>2026-05-01T16:59:14Z</time></trkpt><trkpt lat="43.37096520265198" lon="-2.5724971436026665"><ele>90.5</ele><time>2026-05-01T16:59:15Z</time></trkpt><trkpt lat="43.37108128298485" lon="-2.572496704874822"><ele>79.25</ele><time>2026-05-01T16:59:16Z</time></trkpt><trkpt lat="43.371206730457004" lon="-2.5725610334984492"><ele>68.0</ele><time>2026-05-01T16:59:17Z</time></trkpt><trkpt lat="43.37130152933477" lon="-2.5726861268561434"><ele>66.75</ele><time>2026-05-01T16:59:18Z</time></trkpt><trkpt lat="43.37135910068346" lon="-2.5728478660744485"><ele>65.5</ele><time>2026-05-01T16:59:19Z</time></trkpt><trkpt lat="43.3713770495531" lon="-2.5730228340867956"><ele>64.25</ele><time>2026-05-01T16:59:20Z</time></trkpt><trkpt lat="43.371348379369074" lon="-2.5732097643687477"><ele>63.0</ele><time>2026-05-01T16:59:21Z</time></trkpt><trkpt lat="43.371276088886184" lon="-2.5734346440574845"><ele>63.0</ele><time>2026-05-01T16:59:22Z</time></trkpt><trkpt lat="43.37118337481008" lon="-2.5736678019235035"><ele>63.0</ele><time>2026-05-01T16:59:23Z</time></trkpt><trkpt lat="43.37109225869136" lon="-2.573907873467134"><ele>63.0</ele><time>2026-05-01T16:59:24Z</time></trkpt><trkpt lat="43.37100919953323" lon="-2.5741806003350147"><ele>63.33333333333333</ele><time>2026-05-01T16:59:25Z</time></trkpt><trkpt lat="43.370929828325735" lon="-2.5744539349952222"><ele>63.666666666666664</ele><time>2026-05-01T16:59:26Z</time></trkpt><trkpt lat="43.37086809551871" lon="-2.574717893172767"><ele>64.0</ele><time>2026-05-01T16:59:27Z</time></trkpt><trkpt lat="43.37082064637682" lon="-2.57496867193295"><ele>65.66666666666666</ele><time>2026-05-01T16:59:28Z</time></trkpt><trkpt lat="43.370791526911155" lon="-2.5751904545217053"><ele>67.33333333333333</ele><time>2026-05-01T16:59:29Z</time></trkpt><trkpt lat="43.370768271134" lon="-2.575413507762161"><ele>69.0</ele><time>2026-05-01T16:59:30Z</time></trkpt><trkpt lat="43.37074942946379" lon="-2.575639194041359"><ele>69.66666666666667</ele><time>2026-05-01T16:59:31Z</time></trkpt><trkpt lat="43.370729530877185" lon="-2.575878908799181"><ele>70.33333333333334</ele><time>2026-05-01T16:59:32Z</time></trkpt><trkpt lat="43.37071112493561" lon="-2.5761374897049976"><ele>71.0</ele><time>2026-05-01T16:59:33Z</time></trkpt><trkpt lat="43.37070815022232" lon="-2.576399511237519"><ele>71.33333333333334</ele><time>2026-05-01T16:59:34Z</time></trkpt><trkpt lat="43.3707227440151" lon="-2.576652451476564"><ele>71.66666666666667</ele><time>2026-05-01T16:59:35Z</time></trkpt><trkpt lat="43.37073708070903" lon="-2.5769007119383405"><ele>72.0</ele><time>2026-05-01T16:59:36Z</time></trkpt><trkpt lat="43.37076204249012" lon="-2.5771711356758513"><ele>70.66666666666667</ele><time>2026-05-01T16:59:37Z</time></trkpt><trkpt lat="43.37078540547761" lon="-2.577435441792184"><ele>69.33333333333334</ele><time>2026-05-01T16:59:38Z</time></trkpt><trkpt lat="43.370807608452566" lon="-2.5777037922033"><ele>68.0</ele><time>2026-05-01T16:59:39Z</time></trkpt><trkpt lat="43.37086001030054" lon="-2.5779815340733023"><ele>64.33333333333334</ele><time>2026-05-01T16:59:40Z</time></trkpt><trkpt lat="43.37091140421378" lon="-2.5782749256858493"><ele>60.66666666666667</ele><time>2026-05-01T16:59:41Z</time></trkpt><trkpt lat="43.37094811442594" lon="-2.5785720040985183"><ele>57.0</ele><time>2026-05-01T16:59:42Z</time></trkpt><trkpt lat="43.370987143820756" lon="-2.578844770307997"><ele>54.0</ele><time>2026-05-01T16:59:43Z</time></trkpt><trkpt lat="43.37103883417998" lon="-2.579099133408246"><ele>51.0</ele><time>2026-05-01T16:59:44Z</time></trkpt><trkpt lat="43.37109901796788" lon="-2.579359896756605"><ele>48.0</ele><time>2026-05-01T16:59:45Z</time></trkpt><trkpt lat="43.371168693273944" lon="-2.579626870991015"><ele>44.333333333333336</ele><time>2026-05-01T16:59:46Z</time></trkpt><trkpt lat="43.371214547275265" lon="-2.579873853138694"><ele>40.66666666666667</ele><time>2026-05-01T16:59:47Z</time></trkpt><trkpt lat="43.37124679482336" lon="-2.580066651064965"><ele>37.0</ele><time>2026-05-01T16:59:48Z</time></trkpt><trkpt lat="43.37127540394976" lon="-2.580258270526736"><ele>38.25</ele><time>2026-05-01T16:59:49Z</time></trkpt><trkpt lat="43.371344603072586" lon="-2.5804260541668675"><ele>39.5</ele><time>2026-05-01T16:59:50Z</time></trkpt><trkpt lat="43.371455926519054" lon="-2.5805454313687286"><ele>40.75</ele><time>2026-05-01T16:59:51Z</time></trkpt><trkpt lat="43.37161091968296" lon="-2.580627203628278"><ele>42.0</ele><time>2026-05-01T16:59:52Z</time></trkpt><trkpt lat="43.37179005913982" lon="-2.5806871169233836"><ele>42.0</ele><time>2026-05-01T16:59:53Z</time></trkpt><trkpt lat="43.37196817755017" lon="-2.5807040397592833"><ele>42.0</ele><time>2026-05-01T16:59:54Z</time></trkpt><trkpt lat="43.37214355616773" lon="-2.580675804436181"><ele>42.0</ele><time>2026-05-01T16:59:55Z</time></trkpt><trkpt lat="43.37230724745367" lon="-2.5806149610779556"><ele>42.666666666666664</ele><time>2026-05-01T16:59:56Z</time></trkpt><trkpt lat="43.37245710089745" lon="-2.580521084830685"><ele>43.33333333333333</ele><time>2026-05-01T16:59:57Z</time></trkpt><trkpt lat="43.372602669479456" lon="-2.5804574369212165"><ele>44.0</ele><time>2026-05-01T16:59:58Z</time></trkpt><trkpt lat="43.37274365010831" lon="-2.5804498655931045"><ele>44.0</ele><time>2026-05-01T16:59:59Z</time></trkpt><trkpt lat="43.37289627413208" lon="-2.5804959583601135"><ele>44.0</ele><time>2026-05-01T17:00:00Z</time></trkpt><trkpt lat="43.3730558283706" lon="-2.5806150539817865"><ele>44.0</ele><time>2026-05-01T17:00:01Z</time></trkpt><trkpt lat="43.37320696996146" lon="-2.5807731762591994"><ele>44.666666666666664</ele><time>2026-05-01T17:00:02Z</time></trkpt><trkpt lat="43.37336101008114" lon="-2.5809437371535098"><ele>45.333333333333336</ele><time>2026-05-01T17:00:03Z</time></trkpt><trkpt lat="43.373513079139926" lon="-2.5811096648873244"><ele>46.0</ele><time>2026-05-01T17:00:04Z</time></trkpt><trkpt lat="43.37367803767583" lon="-2.5812563748720274"><ele>43.333333333333336</ele><time>2026-05-01T17:00:05Z</time></trkpt><trkpt lat="43.37383654249711" lon="-2.5813685577153067"><ele>40.666666666666664</ele><time>2026-05-01T17:00:06Z</time></trkpt><trkpt lat="43.373997221406604" lon="-2.581421950998849"><ele>38.0</ele><time>2026-05-01T17:00:07Z</time></trkpt><trkpt lat="43.374171569437785" lon="-2.581466583998695"><ele>38.0</ele><time>2026-05-01T17:00:08Z</time></trkpt><trkpt lat="43.37433936747302" lon="-2.5815253213907714"><ele>38.0</ele><time>2026-05-01T17:00:09Z</time></trkpt><trkpt lat="43.374498696260545" lon="-2.581645133207412"><ele>38.0</ele><time>2026-05-01T17:00:10Z</time></trkpt><trkpt lat="43.37464350182515" lon="-2.581850139518882"><ele>36.666666666666664</ele><time>2026-05-01T17:00:11Z</time></trkpt><trkpt lat="43.37478017191025" lon="-2.582094767678987"><ele>35.333333333333336</ele><time>2026-05-01T17:00:12Z</time></trkpt><trkpt lat="43.37491457497881" lon="-2.5823312526859836"><ele>34.0</ele><time>2026-05-01T17:00:13Z</time></trkpt><trkpt lat="43.380006089363505" lon="-2.585316805298829"><ele>30.2</ele><time>2026-05-01T17:01:14Z</time></trkpt><trkpt lat="43.38003890095303" lon="-2.5854472324499325"><ele>26.4</ele><time>2026-05-01T17:01:16Z</time></trkpt><trkpt lat="43.38009803850675" lon="-2.5855192608918727"><ele>22.6</ele><time>2026-05-01T17:01:18Z</time></trkpt><trkpt lat="43.38017317613194" lon="-2.5855879734731038"><ele>18.8</ele><time>2026-05-01T17:01:20Z</time></trkpt><trkpt lat="43.380225564667775" lon="-2.5856985310295957"><ele>15.0</ele><time>2026-05-01T17:01:22Z</time></trkpt><trkpt lat="43.3802777174725" lon="-2.5857915634025033"><ele>15.0</ele><time>2026-05-01T17:01:24Z</time></trkpt><trkpt lat="43.38034316517899" lon="-2.5858971130002018"><ele>15.0</ele><time>2026-05-01T17:01:26Z</time></trkpt><trkpt lat="43.380386914189216" lon="-2.5859695773801272"><ele>15.0</ele><time>2026-05-01T17:01:27Z</time></trkpt><trkpt lat="43.380469685840175" lon="-2.5861098006334604"><ele>15.0</ele><time>2026-05-01T17:01:29Z</time></trkpt><trkpt lat="43.38053331903781" lon="-2.586215750749816"><ele>15.0</ele><time>2026-05-01T17:01:31Z</time></trkpt><trkpt lat="43.380570915042355" lon="-2.5863054692954095"><ele>15.666666666666666</ele><time>2026-05-01T17:01:32Z</time></trkpt><trkpt lat="43.380622449759606" lon="-2.5863922735197207"><ele>16.333333333333332</ele><time>2026-05-01T17:01:33Z</time></trkpt><trkpt lat="43.38066536297285" lon="-2.5864824694964073"><ele>17.0</ele><time>2026-05-01T17:01:34Z</time></trkpt><trkpt lat="43.380711255090716" lon="-2.586569272244543"><ele>17.666666666666664</ele><time>2026-05-01T17:01:35Z</time></trkpt><trkpt lat="43.38074889681379" lon="-2.586647558805703"><ele>18.333333333333332</ele><time>2026-05-01T17:01:36Z</time></trkpt><trkpt lat="43.380785780218325" lon="-2.5867206037264565"><ele>19.0</ele><time>2026-05-01T17:01:37Z</time></trkpt><trkpt lat="43.380844579722634" lon="-2.586823797428393"><ele>19.0</ele><time>2026-05-01T17:01:39Z</time></trkpt><trkpt lat="43.380879549072084" lon="-2.586896080395073"><ele>19.0</ele><time>2026-05-01T17:01:40Z</time></trkpt><trkpt lat="43.38092049247903" lon="-2.5870012288975803"><ele>19.0</ele><time>2026-05-01T17:01:41Z</time></trkpt><trkpt lat="43.38096981250688" lon="-2.5871181730007247"><ele>19.0</ele><time>2026-05-01T17:01:42Z</time></trkpt><trkpt lat="43.38102652149739" lon="-2.587217089620046"><ele>19.0</ele><time>2026-05-01T17:01:43Z</time></trkpt><trkpt lat="43.3810565175654" lon="-2.5873431566457907"><ele>19.0</ele><time>2026-05-01T17:01:44Z</time></trkpt><trkpt lat="43.38107501654413" lon="-2.587480522300857"><ele>19.25</ele><time>2026-05-01T17:01:45Z</time></trkpt><trkpt lat="43.38108281562944" lon="-2.5876183217916666"><ele>19.5</ele><time>2026-05-01T17:01:46Z</time></trkpt><trkpt lat="43.3810764741302" lon="-2.5878134875131305"><ele>19.75</ele><time>2026-05-01T17:01:47Z</time></trkpt><trkpt lat="43.38106667947023" lon="-2.588005171835142"><ele>20.0</ele><time>2026-05-01T17:01:48Z</time></trkpt><trkpt lat="43.38105087817803" lon="-2.588193693504536"><ele>20.0</ele><time>2026-05-01T17:01:49Z</time></trkpt><trkpt lat="43.38104162178621" lon="-2.5883650539085803"><ele>20.0</ele><time>2026-05-01T17:01:50Z</time></trkpt><trkpt lat="43.381040092629895" lon="-2.5885360653603207"><ele>20.0</ele><time>2026-05-01T17:01:51Z</time></trkpt><trkpt lat="43.381033620406065" lon="-2.588689732592046"><ele>20.0</ele><time>2026-05-01T17:01:52Z</time></trkpt><trkpt lat="43.381010273127536" lon="-2.5888442095091944"><ele>21.0</ele><time>2026-05-01T17:01:53Z</time></trkpt><trkpt lat="43.38099235322963" lon="-2.5890043975842154"><ele>22.0</ele><time>2026-05-01T17:01:54Z</time></trkpt><trkpt lat="43.380947869412566" lon="-2.589143298563148"><ele>23.0</ele><time>2026-05-01T17:01:55Z</time></trkpt><trkpt lat="43.380900712365126" lon="-2.589273253251487"><ele>24.0</ele><time>2026-05-01T17:01:56Z</time></trkpt><trkpt lat="43.38086119309154" lon="-2.5893840148041356"><ele>25.0</ele><time>2026-05-01T17:01:57Z</time></trkpt><trkpt lat="43.38082520291677" lon="-2.5894906609804274"><ele>25.6</ele><time>2026-05-01T17:01:58Z</time></trkpt><trkpt lat="43.38082682771562" lon="-2.5896240270332465"><ele>26.2</ele><time>2026-05-01T17:01:59Z</time></trkpt><trkpt lat="43.380849525791014" lon="-2.589753861757163"><ele>26.799999999999997</ele><time>2026-05-01T17:02:00Z</time></trkpt><trkpt lat="43.38091782398043" lon="-2.5898694201495243"><ele>27.4</ele><time>2026-05-01T17:02:01Z</time></trkpt><trkpt lat="43.38100398767497" lon="-2.589970201050756"><ele>28.0</ele><time>2026-05-01T17:02:02Z</time></trkpt><trkpt lat="43.38108566398286" lon="-2.5900678790545717"><ele>28.0</ele><time>2026-05-01T17:02:03Z</time></trkpt><trkpt lat="43.381160140412454" lon="-2.590177631131563"><ele>27.999999999999996</ele><time>2026-05-01T17:02:04Z</time></trkpt><trkpt lat="43.38122511349305" lon="-2.5902922980411707"><ele>27.999999999999996</ele><time>2026-05-01T17:02:05Z</time></trkpt><trkpt lat="43.38127800119521" lon="-2.5904318784603375"><ele>28.0</ele><time>2026-05-01T17:02:06Z</time></trkpt><trkpt lat="43.38130851660982" lon="-2.5905848937998033"><ele>28.0</ele><time>2026-05-01T17:02:07Z</time></trkpt><trkpt lat="43.38133911132554" lon="-2.5907233604436013"><ele>29.599999999999998</ele><time>2026-05-01T17:02:08Z</time></trkpt><trkpt lat="43.381348491827424" lon="-2.59087119887924"><ele>31.199999999999996</ele><time>2026-05-01T17:02:09Z</time></trkpt><trkpt lat="43.381342519712" lon="-2.5910233026903904"><ele>32.8</ele><time>2026-05-01T17:02:10Z</time></trkpt><trkpt lat="43.381311049045635" lon="-2.5911709508204313"><ele>34.4</ele><time>2026-05-01T17:02:11Z</time></trkpt><trkpt lat="43.381270074914575" lon="-2.5913162893394603"><ele>36.0</ele><time>2026-05-01T17:02:12Z</time></trkpt><trkpt lat="43.38117695520102" lon="-2.5914454023696814"><ele>123.0</ele><time>2026-05-01T17:02:13Z</time></trkpt><trkpt lat="43.380924675771325" lon="-2.601788828909008"><ele>125.33333333333334</ele><time>2026-05-01T17:03:14Z</time></trkpt><trkpt lat="43.38091608193766" lon="-2.6020396640738754"><ele>127.66666666666667</ele><time>2026-05-01T17:03:15Z</time></trkpt><trkpt lat="43.380909589380806" lon="-2.602263953059424"><ele>130.0</ele><time>2026-05-01T17:03:16Z</time></trkpt><trkpt lat="43.3809060135646" lon="-2.6024724051329557"><ele>130.0</ele><time>2026-05-01T17:03:17Z</time></trkpt><trkpt lat="43.380904083718555" lon="-2.602662285307838"><ele>130.0</ele><time>2026-05-01T17:03:18Z</time></trkpt><trkpt lat="43.38090564629685" lon="-2.6028551992620184"><ele>130.0</ele><time>2026-05-01T17:03:19Z</time></trkpt><trkpt lat="43.38090226388275" lon="-2.603054146849703"><ele>130.0</ele><time>2026-05-01T17:03:20Z</time></trkpt><trkpt lat="43.3809066384863" lon="-2.603227212495607"><ele>131.5</ele><time>2026-05-01T17:03:21Z</time></trkpt><trkpt lat="43.38091992690254" lon="-2.6033985604431527"><ele>133.0</ele><time>2026-05-01T17:03:22Z</time></trkpt><trkpt lat="43.38092543407122" lon="-2.6035847696717247"><ele>134.5</ele><time>2026-05-01T17:03:23Z</time></trkpt><trkpt lat="43.380925756654705" lon="-2.603772399117855"><ele>136.0</ele><time>2026-05-01T17:03:24Z</time></trkpt><trkpt lat="43.380934583068274" lon="-2.603959978852629"><ele>137.25</ele><time>2026-05-01T17:03:25Z</time></trkpt><trkpt lat="43.3809449518575" lon="-2.6041548590566044"><ele>138.5</ele><time>2026-05-01T17:03:26Z</time></trkpt><trkpt lat="43.38095614844929" lon="-2.6043448820909343"><ele>139.75</ele><time>2026-05-01T17:03:27Z</time></trkpt><trkpt lat="43.38095924094473" lon="-2.604533012447885"><ele>141.0</ele><time>2026-05-01T17:03:28Z</time></trkpt><trkpt lat="43.380968010194934" lon="-2.6047123544711996"><ele>142.0</ele><time>2026-05-01T17:03:29Z</time></trkpt><trkpt lat="43.3809730513344" lon="-2.6048901168763696"><ele>143.0</ele><time>2026-05-01T17:03:30Z</time></trkpt><trkpt lat="43.38098349968887" lon="-2.605069077595268"><ele>144.0</ele><time>2026-05-01T17:03:31Z</time></trkpt><trkpt lat="43.38099506020636" lon="-2.605249241948317"><ele>145.0</ele><time>2026-05-01T17:03:32Z</time></trkpt><trkpt lat="43.38099685458354" lon="-2.605435319264487"><ele>146.25</ele><time>2026-05-01T17:03:33Z</time></trkpt><trkpt lat="43.38101722163947" lon="-2.6056132343564293"><ele>147.5</ele><time>2026-05-01T17:03:34Z</time></trkpt><trkpt lat="43.38104056635135" lon="-2.6057827617995333"><ele>148.75</ele><time>2026-05-01T17:03:35Z</time></trkpt><trkpt lat="43.38106557290793" lon="-2.6059531776164553"><ele>150.0</ele><time>2026-05-01T17:03:36Z</time></trkpt><trkpt lat="43.38108958152042" lon="-2.606115523018805"><ele>152.0</ele><time>2026-05-01T17:03:37Z</time></trkpt><trkpt lat="43.38111479794062" lon="-2.6062900536726965"><ele>154.0</ele><time>2026-05-01T17:03:38Z</time></trkpt><trkpt lat="43.3811387429627" lon="-2.6064840639145284"><ele>156.0</ele><time>2026-05-01T17:03:39Z</time></trkpt><trkpt lat="43.38117155773454" lon="-2.6066735053794607"><ele>158.0</ele><time>2026-05-01T17:03:40Z</time></trkpt><trkpt lat="43.38119549102127" lon="-2.6068641594129964"><ele>160.0</ele><time>2026-05-01T17:03:41Z</time></trkpt><trkpt lat="43.38122217734281" lon="-2.6070567234432085"><ele>162.0</ele><time>2026-05-01T17:03:42Z</time></trkpt><trkpt lat="43.381249628584705" lon="-2.6072540052254687"><ele>164.0</ele><time>2026-05-01T17:03:43Z</time></trkpt><trkpt lat="43.38127455466558" lon="-2.607459544120518"><ele>166.0</ele><time>2026-05-01T17:03:44Z</time></trkpt><trkpt lat="43.38129889367884" lon="-2.6076742821255947"><ele>168.66666666666669</ele><time>2026-05-01T17:03:45Z</time></trkpt><trkpt lat="43.38131127589413" lon="-2.607892383773856"><ele>171.33333333333334</ele><time>2026-05-01T17:03:46Z</time></trkpt><trkpt lat="43.38131091734411" lon="-2.608099411699158"><ele>174.0</ele><time>2026-05-01T17:03:47Z</time></trkpt><trkpt lat="43.38130210584892" lon="-2.6083073760348916"><ele>174.0</ele><time>2026-05-01T17:03:48Z</time></trkpt><trkpt lat="43.381287888739514" lon="-2.608513114963696"><ele>174.0</ele><time>2026-05-01T17:03:49Z</time></trkpt><trkpt lat="43.38127093745287" lon="-2.608726885516769"><ele>174.0</ele><time>2026-05-01T17:03:50Z</time></trkpt><trkpt lat="43.381259191030864" lon="-2.6089277428643958"><ele>176.25</ele><time>2026-05-01T17:03:51Z</time></trkpt><trkpt lat="43.3812489797273" lon="-2.6091242782893262"><ele>178.5</ele><time>2026-05-01T17:03:52Z</time></trkpt><trkpt lat="43.381235665003295" lon="-2.609316831008591"><ele>180.75</ele><time>2026-05-01T17:03:53Z</time></trkpt><trkpt lat="43.381221987234404" lon="-2.6095084099905925"><ele>183.0</ele><time>2026-05-01T17:03:54Z</time></trkpt><trkpt lat="43.38120125092501" lon="-2.609705871697242"><ele>184.5</ele><time>2026-05-01T17:03:55Z</time></trkpt><trkpt lat="43.3811873393914" lon="-2.609888141054892"><ele>186.0</ele><time>2026-05-01T17:03:56Z</time></trkpt><trkpt lat="43.38117145674723" lon="-2.61008203592274"><ele>187.5</ele><time>2026-05-01T17:03:57Z</time></trkpt><trkpt lat="43.38115756040961" lon="-2.610264858852215"><ele>189.0</ele><time>2026-05-01T17:03:58Z</time></trkpt><trkpt lat="43.381151767075615" lon="-2.610437052985638"><ele>190.0</ele><time>2026-05-01T17:03:59Z</time></trkpt><trkpt lat="43.38114601984697" lon="-2.6105951821258992"><ele>191.0</ele><time>2026-05-01T17:04:00Z</time></trkpt><trkpt lat="43.38113900171549" lon="-2.610741638655124"><ele>192.0</ele><time>2026-05-01T17:04:01Z</time></trkpt><trkpt lat="43.3811336793084" lon="-2.610902445063987"><ele>193.0</ele><time>2026-05-01T17:04:02Z</time></trkpt><trkpt lat="43.381131234321565" lon="-2.611057423019921"><ele>193.49999999999997</ele><time>2026-05-01T17:04:03Z</time></trkpt><trkpt lat="43.381129090885935" lon="-2.6111990775265546"><ele>194.0</ele><time>2026-05-01T17:04:04Z</time></trkpt><trkpt lat="43.38113303304405" lon="-2.61130853230777"><ele>194.5</ele><time>2026-05-01T17:04:05Z</time></trkpt><trkpt lat="43.381127893078116" lon="-2.611414700050505"><ele>195.0</ele><time>2026-05-01T17:04:06Z</time></trkpt><trkpt lat="43.38112667436204" lon="-2.6115301476622337"><ele>195.49999999999997</ele><time>2026-05-01T17:04:07Z</time></trkpt><trkpt lat="43.38112779841544" lon="-2.611624585453849"><ele>196.0</ele><time>2026-05-01T17:04:08Z</time></trkpt><trkpt lat="43.381125153927755" lon="-2.611777336500316"><ele>196.0</ele><time>2026-05-01T17:04:10Z</time></trkpt><trkpt lat="43.38115663942334" lon="-2.611862812257783"><ele>196.0</ele><time>2026-05-01T17:04:11Z</time></trkpt><trkpt lat="43.381152404813605" lon="-2.6120088588007957"><ele>196.0</ele><time>2026-05-01T17:04:13Z</time></trkpt><trkpt lat="43.38331371002931" lon="-2.6194464909472095"><ele>194.33333333333331</ele><time>2026-05-01T17:05:14Z</time></trkpt><trkpt lat="43.38344064036603" lon="-2.6196470901876654"><ele>192.66666666666666</ele><time>2026-05-01T17:05:15Z</time></trkpt><trkpt lat="43.38355813245529" lon="-2.6198255952320455"><ele>191.0</ele><time>2026-05-01T17:05:16Z</time></trkpt><trkpt lat="43.38366864231368" lon="-2.6199730987253957"><ele>191.0</ele><time>2026-05-01T17:05:17Z</time></trkpt><trkpt lat="43.383802630482116" lon="-2.6200907379377263"><ele>191.0</ele><time>2026-05-01T17:05:18Z</time></trkpt><trkpt lat="43.38394406044968" lon="-2.620186488614199"><ele>191.0</ele><time>2026-05-01T17:05:19Z</time></trkpt><trkpt lat="43.38407758017306" lon="-2.6202780627021283"><ele>192.66666666666666</ele><time>2026-05-01T17:05:20Z</time></trkpt><trkpt lat="43.38418878104229" lon="-2.620414198828479"><ele>194.33333333333331</ele><time>2026-05-01T17:05:21Z</time></trkpt><trkpt lat="43.38429537761045" lon="-2.620597190348921"><ele>196.0</ele><time>2026-05-01T17:05:22Z</time></trkpt><trkpt lat="43.38435343296117" lon="-2.620817856327957"><ele>196.0</ele><time>2026-05-01T17:05:23Z</time></trkpt><trkpt lat="43.38440297852132" lon="-2.6210078878676826"><ele>196.0</ele><time>2026-05-01T17:05:24Z</time></trkpt><trkpt lat="43.38449675698234" lon="-2.6211644893616475"><ele>196.0</ele><time>2026-05-01T17:05:25Z</time></trkpt><trkpt lat="43.384612492846216" lon="-2.621286761715085"><ele>196.0</ele><time>2026-05-01T17:05:26Z</time></trkpt><trkpt lat="43.384766649619955" lon="-2.6213955247891834"><ele>193.33333333333331</ele><time>2026-05-01T17:05:27Z</time></trkpt><trkpt lat="43.3849394729397" lon="-2.6215252830049"><ele>190.66666666666666</ele><time>2026-05-01T17:05:28Z</time></trkpt><trkpt lat="43.385090823547515" lon="-2.6216426485238333"><ele>188.0</ele><time>2026-05-01T17:05:29Z</time></trkpt><trkpt lat="43.38523005480265" lon="-2.6217442360344534"><ele>188.0</ele><time>2026-05-01T17:05:30Z</time></trkpt><trkpt lat="43.38535521087848" lon="-2.6218072360852096"><ele>188.0</ele><time>2026-05-01T17:05:31Z</time></trkpt><trkpt lat="43.385482823032646" lon="-2.6218434464225004"><ele>188.0</ele><time>2026-05-01T17:05:32Z</time></trkpt><trkpt lat="43.38562285373705" lon="-2.6218325013801422"><ele>188.0</ele><time>2026-05-01T17:05:33Z</time></trkpt><trkpt lat="43.38576100227939" lon="-2.6217594440306073"><ele>186.66666666666666</ele><time>2026-05-01T17:05:34Z</time></trkpt><trkpt lat="43.38587778043406" lon="-2.6216252172541776"><ele>185.33333333333334</ele><time>2026-05-01T17:05:35Z</time></trkpt><trkpt lat="43.38592848017361" lon="-2.6214105348932066"><ele>184.0</ele><time>2026-05-01T17:05:36Z</time></trkpt><trkpt lat="43.38601106099566" lon="-2.6212325287061717"><ele>179.33333333333334</ele><time>2026-05-01T17:05:37Z</time></trkpt><trkpt lat="43.38609809747245" lon="-2.62104632264041"><ele>174.66666666666666</ele><time>2026-05-01T17:05:38Z</time></trkpt><trkpt lat="43.38621181352992" lon="-2.620869009123321"><ele>170.0</ele><time>2026-05-01T17:05:39Z</time></trkpt><trkpt lat="43.38632598872905" lon="-2.6207171090494095"><ele>173.0</ele><time>2026-05-01T17:05:40Z</time></trkpt><trkpt lat="43.38642500238282" lon="-2.6205838929866347"><ele>176.0</ele><time>2026-05-01T17:05:41Z</time></trkpt><trkpt lat="43.386534469999646" lon="-2.620480840207795"><ele>179.0</ele><time>2026-05-01T17:05:42Z</time></trkpt><trkpt lat="43.38667862077144" lon="-2.620415085302963"><ele>182.0</ele><time>2026-05-01T17:05:43Z</time></trkpt><trkpt lat="43.38682273132472" lon="-2.6204047323780935"><ele>182.0</ele><time>2026-05-01T17:05:44Z</time></trkpt><trkpt lat="43.38696408888771" lon="-2.6204472570599107"><ele>182.0</ele><time>2026-05-01T17:05:45Z</time></trkpt><trkpt lat="43.38709813429179" lon="-2.620543021511292"><ele>182.0</ele><time>2026-05-01T17:05:46Z</time></trkpt><trkpt lat="43.38722537398339" lon="-2.6207003008840073"><ele>181.33333333333331</ele><time>2026-05-01T17:05:47Z</time></trkpt><trkpt lat="43.387336861782636" lon="-2.620892019577343"><ele>180.66666666666666</ele><time>2026-05-01T17:05:48Z</time></trkpt><trkpt lat="43.387447240853696" lon="-2.6211184668873533"><ele>180.0</ele><time>2026-05-01T17:05:49Z</time></trkpt><trkpt lat="43.38756657992986" lon="-2.621336050040547"><ele>180.0</ele><time>2026-05-01T17:05:50Z</time></trkpt><trkpt lat="43.38768898574294" lon="-2.6215540328058204"><ele>180.0</ele><time>2026-05-01T17:05:51Z</time></trkpt><trkpt lat="43.38781250997748" lon="-2.6217712249825404"><ele>180.0</ele><time>2026-05-01T17:05:52Z</time></trkpt><trkpt lat="43.38793432601761" lon="-2.6219874632072915"><ele>178.66666666666666</ele><time>2026-05-01T17:05:53Z</time></trkpt><trkpt lat="43.38804750643871" lon="-2.6221957459087903"><ele>177.33333333333331</ele><time>2026-05-01T17:05:54Z</time></trkpt><trkpt lat="43.38815495497068" lon="-2.622391456598025"><ele>176.0</ele><time>2026-05-01T17:05:55Z</time></trkpt><trkpt lat="43.38825459391025" lon="-2.622561589437155"><ele>176.0</ele><time>2026-05-01T17:05:56Z</time></trkpt><trkpt lat="43.38834628828359" lon="-2.6227250822147345"><ele>176.0</ele><time>2026-05-01T17:05:57Z</time></trkpt><trkpt lat="43.38844290144626" lon="-2.6228958785060588"><ele>176.0</ele><time>2026-05-01T17:05:58Z</time></trkpt><trkpt lat="43.38853188594774" lon="-2.6230576134249155"><ele>176.0</ele><time>2026-05-01T17:05:59Z</time></trkpt><trkpt lat="43.38862580502004" lon="-2.623223110270605"><ele>176.0</ele><time>2026-05-01T17:06:00Z</time></trkpt><trkpt lat="43.38871747860569" lon="-2.623396766046516"><ele>176.0</ele><time>2026-05-01T17:06:01Z</time></trkpt><trkpt lat="43.38881867034959" lon="-2.623549811873188"><ele>172.66666666666666</ele><time>2026-05-01T17:06:02Z</time></trkpt><trkpt lat="43.38894242669058" lon="-2.6236953999142782"><ele>169.33333333333334</ele><time>2026-05-01T17:06:03Z</time></trkpt><trkpt lat="43.38909043146139" lon="-2.623827812479854"><ele>166.0</ele><time>2026-05-01T17:06:04Z</time></trkpt><trkpt lat="43.38925162364754" lon="-2.6239317245633234"><ele>166.0</ele><time>2026-05-01T17:06:05Z</time></trkpt><trkpt lat="43.389403419688506" lon="-2.624029849263861"><ele>166.0</ele><time>2026-05-01T17:06:06Z</time></trkpt><trkpt lat="43.38954635352118" lon="-2.6241380217033607"><ele>166.0</ele><time>2026-05-01T17:06:07Z</time></trkpt><trkpt lat="43.38968740242586" lon="-2.624246399188052"><ele>165.33333333333334</ele><time>2026-05-01T17:06:08Z</time></trkpt><trkpt lat="43.38983626972991" lon="-2.624358432355135"><ele>164.66666666666666</ele><time>2026-05-01T17:06:09Z</time></trkpt><trkpt lat="43.38999628837167" lon="-2.624475761712567"><ele>164.0</ele><time>2026-05-01T17:06:10Z</time></trkpt><trkpt lat="43.39015669358565" lon="-2.6245995887161437"><ele>163.33333333333331</ele><time>2026-05-01T17:06:11Z</time></trkpt><trkpt lat="43.39032507003201" lon="-2.62472048777563"><ele>162.66666666666666</ele><time>2026-05-01T17:06:12Z</time></trkpt><trkpt lat="43.39049419895559" lon="-2.6248433445709005"><ele>162.0</ele><time>2026-05-01T17:06:13Z</time></trkpt><trkpt lat="43.39315696748718" lon="-2.6325874016852637"><ele>156.4</ele><time>2026-05-01T17:07:14Z</time></trkpt><trkpt lat="43.39305711925411" lon="-2.632569549234618"><ele>150.79999999999998</ele><time>2026-05-01T17:07:17Z</time></trkpt><trkpt lat="43.39303084327883" lon="-2.6324879881397014"><ele>145.2</ele><time>2026-05-01T17:07:18Z</time></trkpt><trkpt lat="43.392964342214384" lon="-2.6324360219042"><ele>139.6</ele><time>2026-05-01T17:07:19Z</time></trkpt><trkpt lat="43.392888170263724" lon="-2.632389066794461"><ele>134.0</ele><time>2026-05-01T17:07:20Z</time></trkpt><trkpt lat="43.39269131273639" lon="-2.6325707306972994"><ele>132.2</ele><time>2026-05-01T17:07:21Z</time></trkpt><trkpt lat="43.39259334223691" lon="-2.6325501500488726"><ele>130.4</ele><time>2026-05-01T17:07:22Z</time></trkpt><trkpt lat="43.392518613249706" lon="-2.6325556656546762"><ele>128.6</ele><time>2026-05-01T17:07:23Z</time></trkpt><trkpt lat="43.39243160718086" lon="-2.6325686465638287"><ele>126.8</ele><time>2026-05-01T17:07:24Z</time></trkpt><trkpt lat="43.3923244216312" lon="-2.632661167099216"><ele>125.0</ele><time>2026-05-01T17:07:25Z</time></trkpt><trkpt lat="43.392228518013674" lon="-2.632705032709001"><ele>123.2</ele><time>2026-05-01T17:07:26Z</time></trkpt><trkpt lat="43.39214172316191" lon="-2.632744449809415"><ele>121.4</ele><time>2026-05-01T17:07:27Z</time></trkpt><trkpt lat="43.39205323684018" lon="-2.632784635059884"><ele>119.6</ele><time>2026-05-01T17:07:28Z</time></trkpt><trkpt lat="43.39196268221263" lon="-2.632825759637799"><ele>117.8</ele><time>2026-05-01T17:07:29Z</time></trkpt><trkpt lat="43.39186761746003" lon="-2.6328662640538414"><ele>116.0</ele><time>2026-05-01T17:07:30Z</time></trkpt><trkpt lat="43.391790511367255" lon="-2.6328951516452617"><ele>116.0</ele><time>2026-05-01T17:07:31Z</time></trkpt><trkpt lat="43.391713526600356" lon="-2.632909616153514"><ele>116.0</ele><time>2026-05-01T17:07:32Z</time></trkpt><trkpt lat="43.39162822434413" lon="-2.6328839868552283"><ele>116.0</ele><time>2026-05-01T17:07:33Z</time></trkpt><trkpt lat="43.391522769615854" lon="-2.632860964939662"><ele>116.0</ele><time>2026-05-01T17:07:34Z</time></trkpt><trkpt lat="43.39140380885735" lon="-2.6328046508978344"><ele>116.0</ele><time>2026-05-01T17:07:35Z</time></trkpt><trkpt lat="43.39132201028609" lon="-2.632741598687783"><ele>113.19999999999999</ele><time>2026-05-01T17:07:36Z</time></trkpt><trkpt lat="43.39123701831997" lon="-2.632687347072022"><ele>110.39999999999999</ele><time>2026-05-01T17:07:37Z</time></trkpt><trkpt lat="43.391157057193844" lon="-2.6326463775768643"><ele>107.6</ele><time>2026-05-01T17:07:38Z</time></trkpt><trkpt lat="43.391066411454105" lon="-2.6325981468614286"><ele>104.8</ele><time>2026-05-01T17:07:39Z</time></trkpt><trkpt lat="43.39099137910742" lon="-2.632533039091713"><ele>102.0</ele><time>2026-05-01T17:07:40Z</time></trkpt><trkpt lat="43.39090373056713" lon="-2.6324803821948306"><ele>102.0</ele><time>2026-05-01T17:07:41Z</time></trkpt><trkpt lat="43.390815283706154" lon="-2.6323981900540834"><ele>102.0</ele><time>2026-05-01T17:07:42Z</time></trkpt><trkpt lat="43.39073887318849" lon="-2.632305689351699"><ele>102.0</ele><time>2026-05-01T17:07:43Z</time></trkpt><trkpt lat="43.39063958812355" lon="-2.6322653210244096"><ele>102.0</ele><time>2026-05-01T17:07:44Z</time></trkpt><trkpt lat="43.39055333129056" lon="-2.632178089485092"><ele>102.0</ele><time>2026-05-01T17:07:45Z</time></trkpt><trkpt lat="43.3904808284083" lon="-2.632093657616909"><ele>100.83333333333333</ele><time>2026-05-01T17:07:46Z</time></trkpt><trkpt lat="43.39039504228435" lon="-2.632013919346181"><ele>99.66666666666667</ele><time>2026-05-01T17:07:47Z</time></trkpt><trkpt lat="43.39032959790404" lon="-2.6319321140187446"><ele>98.5</ele><time>2026-05-01T17:07:48Z</time></trkpt><trkpt lat="43.3902620143673" lon="-2.6318614596560037"><ele>97.33333333333334</ele><time>2026-05-01T17:07:49Z</time></trkpt><trkpt lat="43.3901949760506" lon="-2.631786990908442"><ele>96.16666666666667</ele><time>2026-05-01T17:07:50Z</time></trkpt><trkpt lat="43.39012010340912" lon="-2.631728621823488"><ele>95.0</ele><time>2026-05-01T17:07:51Z</time></trkpt><trkpt lat="43.39003847740582" lon="-2.6316489562486667"><ele>95.0</ele><time>2026-05-01T17:07:52Z</time></trkpt><trkpt lat="43.38997397288621" lon="-2.631558216856792"><ele>95.0</ele><time>2026-05-01T17:07:53Z</time></trkpt><trkpt lat="43.38989784832164" lon="-2.631490030965302"><ele>95.0</ele><time>2026-05-01T17:07:54Z</time></trkpt><trkpt lat="43.389822225933266" lon="-2.631429667490903"><ele>95.0</ele><time>2026-05-01T17:07:55Z</time></trkpt><trkpt lat="43.38976487765809" lon="-2.6313738798647424"><ele>95.0</ele><time>2026-05-01T17:07:56Z</time></trkpt><trkpt lat="43.3896865383929" lon="-2.6313206055036598"><ele>95.0</ele><time>2026-05-01T17:07:57Z</time></trkpt><trkpt lat="43.38961891278812" lon="-2.631285852969454"><ele>93.83333333333334</ele><time>2026-05-01T17:07:58Z</time></trkpt><trkpt lat="43.38955539298916" lon="-2.6312620229809753"><ele>92.66666666666667</ele><time>2026-05-01T17:07:59Z</time></trkpt><trkpt lat="43.38947476281017" lon="-2.631233488163624"><ele>91.5</ele><time>2026-05-01T17:08:00Z</time></trkpt><trkpt lat="43.389390911772715" lon="-2.6312464329706913"><ele>90.33333333333333</ele><time>2026-05-01T17:08:01Z</time></trkpt><trkpt lat="43.38929897285658" lon="-2.63126051704401"><ele>89.16666666666666</ele><time>2026-05-01T17:08:02Z</time></trkpt><trkpt lat="43.389186666873634" lon="-2.6312803865588035"><ele>88.0</ele><time>2026-05-01T17:08:03Z</time></trkpt><trkpt lat="43.389070162822485" lon="-2.6313011219858287"><ele>88.0</ele><time>2026-05-01T17:08:04Z</time></trkpt><trkpt lat="43.388964366169624" lon="-2.6313217214388787"><ele>88.0</ele><time>2026-05-01T17:08:05Z</time></trkpt><trkpt lat="43.38886884764178" lon="-2.6313407702105014"><ele>88.0</ele><time>2026-05-01T17:08:06Z</time></trkpt><trkpt lat="43.38877189602872" lon="-2.631358026001144"><ele>88.0</ele><time>2026-05-01T17:08:07Z</time></trkpt><trkpt lat="43.38869810346614" lon="-2.63136984607043"><ele>88.0</ele><time>2026-05-01T17:08:08Z</time></trkpt><trkpt lat="43.38863252048964" lon="-2.631364331861499"><ele>88.0</ele><time>2026-05-01T17:08:09Z</time></trkpt><trkpt lat="43.388532277674635" lon="-2.6314548522082917"><ele>86.66666666666666</ele><time>2026-05-01T17:08:11Z</time></trkpt><trkpt lat="43.38852252224988" lon="-2.6315410559330394"><ele>85.33333333333333</ele><time>2026-05-01T17:08:12Z</time></trkpt><trkpt lat="43.388565281369715" lon="-2.6316487051447512"><ele>84.0</ele><time>2026-05-01T17:08:13Z</time></trkpt><trkpt lat="43.39147976904956" lon="-2.640117593173885"><ele>83.5</ele><time>2026-05-01T17:09:14Z</time></trkpt><trkpt lat="43.391443834795595" lon="-2.640284152853669"><ele>83.0</ele><time>2026-05-01T17:09:15Z</time></trkpt><trkpt lat="43.391420057015374" lon="-2.640432324269782"><ele>82.5</ele><time>2026-05-01T17:09:16Z</time></trkpt><trkpt lat="43.39145555085466" lon="-2.640594702436917"><ele>82.0</ele><time>2026-05-01T17:09:17Z</time></trkpt><trkpt lat="43.39152643991725" lon="-2.6407622078903694"><ele>79.75</ele><time>2026-05-01T17:09:18Z</time></trkpt><trkpt lat="43.391615900991205" lon="-2.640921407859777"><ele>77.5</ele><time>2026-05-01T17:09:19Z</time></trkpt><trkpt lat="43.391709116265446" lon="-2.6409696996125622"><ele>75.25</ele><time>2026-05-01T17:09:20Z</time></trkpt><trkpt lat="43.39182545812014" lon="-2.6410038275696057"><ele>73.0</ele><time>2026-05-01T17:09:21Z</time></trkpt><trkpt lat="43.39197699829537" lon="-2.641015678239358"><ele>73.0</ele><time>2026-05-01T17:09:22Z</time></trkpt><trkpt lat="43.39210876797093" lon="-2.641006467716342"><ele>73.0</ele><time>2026-05-01T17:09:23Z</time></trkpt><trkpt lat="43.39222980130392" lon="-2.6410312797337583"><ele>73.0</ele><time>2026-05-01T17:09:24Z</time></trkpt><trkpt lat="43.39235914106717" lon="-2.641142374943296"><ele>73.0</ele><time>2026-05-01T17:09:25Z</time></trkpt><trkpt lat="43.39247609644198" lon="-2.6413027187721485"><ele>72.66666666666666</ele><time>2026-05-01T17:09:26Z</time></trkpt><trkpt lat="43.392597860917256" lon="-2.6415094955740583"><ele>72.33333333333333</ele><time>2026-05-01T17:09:27Z</time></trkpt><trkpt lat="43.39274131704488" lon="-2.6416755352264714"><ele>72.0</ele><time>2026-05-01T17:09:28Z</time></trkpt><trkpt lat="43.39289936097005" lon="-2.6417974465124177"><ele>72.0</ele><time>2026-05-01T17:09:29Z</time></trkpt><trkpt lat="43.39306873446037" lon="-2.6419307220621153"><ele>72.0</ele><time>2026-05-01T17:09:30Z</time></trkpt><trkpt lat="43.39326034288111" lon="-2.642062485915557"><ele>72.0</ele><time>2026-05-01T17:09:31Z</time></trkpt><trkpt lat="43.39345989492332" lon="-2.6421639452527113"><ele>72.0</ele><time>2026-05-01T17:09:32Z</time></trkpt><trkpt lat="43.39365203246039" lon="-2.642256101386067"><ele>72.0</ele><time>2026-05-01T17:09:33Z</time></trkpt><trkpt lat="43.39385056527404" lon="-2.6423536069911258"><ele>72.0</ele><time>2026-05-01T17:09:34Z</time></trkpt><trkpt lat="43.394048394474304" lon="-2.642465935765653"><ele>70.5</ele><time>2026-05-01T17:09:35Z</time></trkpt><trkpt lat="43.39426945409687" lon="-2.6425748467810553"><ele>69.0</ele><time>2026-05-01T17:09:36Z</time></trkpt><trkpt lat="43.39450964620479" lon="-2.6427007359618693"><ele>69.5</ele><time>2026-05-01T17:09:37Z</time></trkpt><trkpt lat="43.394735173439614" lon="-2.642819245682034"><ele>70.0</ele><time>2026-05-01T17:09:38Z</time></trkpt><trkpt lat="43.39496599471489" lon="-2.6429476567174395"><ele>70.0</ele><time>2026-05-01T17:09:39Z</time></trkpt><trkpt lat="43.39520107429329" lon="-2.6430680525600803"><ele>70.0</ele><time>2026-05-01T17:09:40Z</time></trkpt><trkpt lat="43.39545447567242" lon="-2.6431812135875776"><ele>68.5</ele><time>2026-05-01T17:09:41Z</time></trkpt><trkpt lat="43.39569102456567" lon="-2.643302475479817"><ele>67.0</ele><time>2026-05-01T17:09:42Z</time></trkpt><trkpt lat="43.395923001593935" lon="-2.6434208795400074"><ele>67.0</ele><time>2026-05-01T17:09:43Z</time></trkpt><trkpt lat="43.39611700604006" lon="-2.643535256399136"><ele>67.0</ele><time>2026-05-01T17:09:44Z</time></trkpt><trkpt lat="43.39632739732703" lon="-2.6436257359891866"><ele>67.0</ele><time>2026-05-01T17:09:45Z</time></trkpt><trkpt lat="43.39652586180047" lon="-2.643684710532896"><ele>68.0</ele><time>2026-05-01T17:09:46Z</time></trkpt><trkpt lat="43.396731602263344" lon="-2.6437062558708524"><ele>69.0</ele><time>2026-05-01T17:09:47Z</time></trkpt><trkpt lat="43.39694501040248" lon="-2.6437020988270183"><ele>70.0</ele><time>2026-05-01T17:09:48Z</time></trkpt><trkpt lat="43.397137982172985" lon="-2.6437167719325756"><ele>69.66666666666666</ele><time>2026-05-01T17:09:49Z</time></trkpt><trkpt lat="43.39732951150524" lon="-2.6437791732564198"><ele>69.33333333333333</ele><time>2026-05-01T17:09:50Z</time></trkpt><trkpt lat="43.39751005288133" lon="-2.6438601530197374"><ele>69.0</ele><time>2026-05-01T17:09:51Z</time></trkpt><trkpt lat="43.39772847242025" lon="-2.6439969940299615"><ele>69.0</ele><time>2026-05-01T17:09:52Z</time></trkpt><trkpt lat="43.39791965986727" lon="-2.644185040570326"><ele>69.0</ele><time>2026-05-01T17:09:53Z</time></trkpt><trkpt lat="43.39808066096451" lon="-2.6443600773191673"><ele>69.0</ele><time>2026-05-01T17:09:54Z</time></trkpt><trkpt lat="43.39821085332484" lon="-2.644512095854247"><ele>68.0</ele><time>2026-05-01T17:09:55Z</time></trkpt><trkpt lat="43.398276065371114" lon="-2.644649895363614"><ele>67.0</ele><time>2026-05-01T17:09:56Z</time></trkpt><trkpt lat="43.398321643587984" lon="-2.644788679882065"><ele>66.0</ele><time>2026-05-01T17:09:57Z</time></trkpt><trkpt lat="43.39835191888293" lon="-2.644962311088701"><ele>65.0</ele><time>2026-05-01T17:09:58Z</time></trkpt><trkpt lat="43.39833190014715" lon="-2.6451719590977425"><ele>66.33333333333334</ele><time>2026-05-01T17:09:59Z</time></trkpt><trkpt lat="43.3983090559032" lon="-2.645383446031488"><ele>67.66666666666667</ele><time>2026-05-01T17:10:00Z</time></trkpt><trkpt lat="43.39829988316696" lon="-2.645591671026489"><ele>69.0</ele><time>2026-05-01T17:10:01Z</time></trkpt><trkpt lat="43.39837019125712" lon="-2.645782038409843"><ele>69.0</ele><time>2026-05-01T17:10:02Z</time></trkpt><trkpt lat="43.398494553607875" lon="-2.6459317445411576"><ele>69.0</ele><time>2026-05-01T17:10:03Z</time></trkpt><trkpt lat="43.39864729195593" lon="-2.6460264453490003"><ele>69.0</ele><time>2026-05-01T17:10:04Z</time></trkpt><trkpt lat="43.3988022237326" lon="-2.6461288523649102"><ele>67.0</ele><time>2026-05-01T17:10:05Z</time></trkpt><trkpt lat="43.39890588989341" lon="-2.6462520483953553"><ele>65.0</ele><time>2026-05-01T17:10:06Z</time></trkpt><trkpt lat="43.39898416711041" lon="-2.6463907126036834"><ele>63.0</ele><time>2026-05-01T17:10:07Z</time></trkpt><trkpt lat="43.39903334236646" lon="-2.646531949639164"><ele>61.0</ele><time>2026-05-01T17:10:08Z</time></trkpt><trkpt lat="43.39910856591694" lon="-2.6466489350117213"><ele>61.0</ele><time>2026-05-01T17:10:09Z</time></trkpt><trkpt lat="43.39917627871601" lon="-2.646766085124559"><ele>60.99999999999999</ele><time>2026-05-01T17:10:10Z</time></trkpt><trkpt lat="43.399273078028244" lon="-2.6468294516730544"><ele>60.99999999999999</ele><time>2026-05-01T17:10:11Z</time></trkpt><trkpt lat="43.39938184211611" lon="-2.646846657771893"><ele>61.0</ele><time>2026-05-01T17:10:12Z</time></trkpt><trkpt lat="43.399488122213334" lon="-2.6468334854252653"><ele>61.0</ele><time>2026-05-01T17:10:13Z</time></trkpt><trkpt lat="43.40652045470597" lon="-2.6533702289277583"><ele>56.5</ele><time>2026-05-01T17:11:14Z</time></trkpt><trkpt lat="43.40666028193568" lon="-2.6534057436907834"><ele>52.0</ele><time>2026-05-01T17:11:15Z</time></trkpt><trkpt lat="43.40679836109926" lon="-2.653452566910053"><ele>47.5</ele><time>2026-05-01T17:11:16Z</time></trkpt><trkpt lat="43.406934299839136" lon="-2.653533033335285"><ele>43.0</ele><time>2026-05-01T17:11:17Z</time></trkpt><trkpt lat="43.40706841176571" lon="-2.653640068080293"><ele>36.0</ele><time>2026-05-01T17:11:18Z</time></trkpt><trkpt lat="43.40721043810618" lon="-2.65375065238923"><ele>29.0</ele><time>2026-05-01T17:11:19Z</time></trkpt><trkpt lat="43.407347216747155" lon="-2.6538493066184534"><ele>22.0</ele><time>2026-05-01T17:11:20Z</time></trkpt><trkpt lat="43.40747623358638" lon="-2.653934520457785"><ele>22.0</ele><time>2026-05-01T17:11:21Z</time></trkpt><trkpt lat="43.407591310411725" lon="-2.6540041348698526"><ele>22.0</ele><time>2026-05-01T17:11:22Z</time></trkpt><trkpt lat="43.40769027553872" lon="-2.654066356248583"><ele>22.0</ele><time>2026-05-01T17:11:23Z</time></trkpt><trkpt lat="43.407771472732385" lon="-2.6541196742631117"><ele>22.0</ele><time>2026-05-01T17:11:24Z</time></trkpt><trkpt lat="43.40784499780292" lon="-2.6541723512448243"><ele>22.0</ele><time>2026-05-01T17:11:25Z</time></trkpt><trkpt lat="43.40790428612122" lon="-2.6542290419527825"><ele>22.0</ele><time>2026-05-01T17:11:26Z</time></trkpt><trkpt lat="43.40795693155806" lon="-2.65429178208606"><ele>22.0</ele><time>2026-05-01T17:11:27Z</time></trkpt><trkpt lat="43.40801791876637" lon="-2.6543550999491923"><ele>22.0</ele><time>2026-05-01T17:11:28Z</time></trkpt><trkpt lat="43.40807453961585" lon="-2.6544096305384133"><ele>22.0</ele><time>2026-05-01T17:11:30Z</time></trkpt><trkpt lat="43.4081156464804" lon="-2.654490518725637"><ele>22.0</ele><time>2026-05-01T17:11:41Z</time></trkpt><trkpt lat="43.4089938106015" lon="-2.6622609622981575"><ele>25.333333333333332</ele><time>2026-05-01T17:16:14Z</time></trkpt><trkpt lat="43.40904389877531" lon="-2.6624410498481232"><ele>28.666666666666664</ele><time>2026-05-01T17:16:15Z</time></trkpt><trkpt lat="43.40909035732611" lon="-2.662649118349355"><ele>32.0</ele><time>2026-05-01T17:16:16Z</time></trkpt><trkpt lat="43.409155919048224" lon="-2.6628607438637877"><ele>40.0</ele><time>2026-05-01T17:16:17Z</time></trkpt><trkpt lat="43.409238525319424" lon="-2.663073041110635"><ele>48.0</ele><time>2026-05-01T17:16:18Z</time></trkpt><trkpt lat="43.40934451625463" lon="-2.6632785298717114"><ele>56.0</ele><time>2026-05-01T17:16:19Z</time></trkpt><trkpt lat="43.409462639819324" lon="-2.6634735172930473"><ele>49.66666666666667</ele><time>2026-05-01T17:16:20Z</time></trkpt><trkpt lat="43.40957914771676" lon="-2.6636391819332332"><ele>43.333333333333336</ele><time>2026-05-01T17:16:21Z</time></trkpt><trkpt lat="43.409698829211656" lon="-2.663803546222319"><ele>37.0</ele><time>2026-05-01T17:16:22Z</time></trkpt><trkpt lat="43.4098112431395" lon="-2.6639702768508173"><ele>37.0</ele><time>2026-05-01T17:16:23Z</time></trkpt><trkpt lat="43.40991424966251" lon="-2.6641289139068025"><ele>37.0</ele><time>2026-05-01T17:16:24Z</time></trkpt><trkpt lat="43.40999443763466" lon="-2.6642876978306353"><ele>37.0</ele><time>2026-05-01T17:16:25Z</time></trkpt><trkpt lat="43.41005163397561" lon="-2.6644656661729926"><ele>37.0</ele><time>2026-05-01T17:16:26Z</time></trkpt><trkpt lat="43.41010077707859" lon="-2.664666858437399"><ele>45.333333333333336</ele><time>2026-05-01T17:16:27Z</time></trkpt><trkpt lat="43.41011598310521" lon="-2.664880504368025"><ele>53.66666666666667</ele><time>2026-05-01T17:16:28Z</time></trkpt><trkpt lat="43.410112463696265" lon="-2.665108776712039"><ele>62.0</ele><time>2026-05-01T17:16:29Z</time></trkpt><trkpt lat="43.41012681999757" lon="-2.6653349965504023"><ele>66.0</ele><time>2026-05-01T17:16:30Z</time></trkpt><trkpt lat="43.41016547126577" lon="-2.6655532018053467"><ele>70.0</ele><time>2026-05-01T17:16:31Z</time></trkpt><trkpt lat="43.41024226151044" lon="-2.6657686739417463"><ele>74.0</ele><time>2026-05-01T17:16:32Z</time></trkpt><trkpt lat="43.410342834321675" lon="-2.6659723480302184"><ele>75.66666666666667</ele><time>2026-05-01T17:16:33Z</time></trkpt><trkpt lat="43.410474877487374" lon="-2.666149007830907"><ele>77.33333333333333</ele><time>2026-05-01T17:16:34Z</time></trkpt><trkpt lat="43.4106104603381" lon="-2.6663020830135835"><ele>79.0</ele><time>2026-05-01T17:16:35Z</time></trkpt><trkpt lat="43.41075043204146" lon="-2.666455245641983"><ele>74.66666666666666</ele><time>2026-05-01T17:16:36Z</time></trkpt><trkpt lat="43.41086372760117" lon="-2.6666299278214614"><ele>70.33333333333333</ele><time>2026-05-01T17:16:37Z</time></trkpt><trkpt lat="43.41094872459152" lon="-2.6668420900951024"><ele>66.0</ele><time>2026-05-01T17:16:38Z</time></trkpt><trkpt lat="43.41100245575536" lon="-2.6670790384145833"><ele>66.0</ele><time>2026-05-01T17:16:39Z</time></trkpt><trkpt lat="43.411021639767526" lon="-2.6673348086361086"><ele>66.0</ele><time>2026-05-01T17:16:40Z</time></trkpt><trkpt lat="43.41101868620959" lon="-2.6676060532489534"><ele>66.0</ele><time>2026-05-01T17:16:41Z</time></trkpt><trkpt lat="43.41102185838189" lon="-2.6678809865300095"><ele>67.66666666666667</ele><time>2026-05-01T17:16:42Z</time></trkpt><trkpt lat="43.411031145825554" lon="-2.6681418977680624"><ele>69.33333333333334</ele><time>2026-05-01T17:16:43Z</time></trkpt><trkpt lat="43.41104095109859" lon="-2.668382323509476"><ele>71.0</ele><time>2026-05-01T17:16:44Z</time></trkpt><trkpt lat="43.41103397753584" lon="-2.6686014206842605"><ele>73.75</ele><time>2026-05-01T17:16:45Z</time></trkpt><trkpt lat="43.41103711059304" lon="-2.6688061856106398"><ele>76.5</ele><time>2026-05-01T17:16:46Z</time></trkpt><trkpt lat="43.41105387859173" lon="-2.6689946436178746"><ele>79.25</ele><time>2026-05-01T17:16:47Z</time></trkpt><trkpt lat="43.41109305607303" lon="-2.6691761824762907"><ele>82.0</ele><time>2026-05-01T17:16:48Z</time></trkpt><trkpt lat="43.41116991391158" lon="-2.6693654523228454"><ele>86.66666666666666</ele><time>2026-05-01T17:16:49Z</time></trkpt><trkpt lat="43.41126142610493" lon="-2.6695332458190495"><ele>91.33333333333333</ele><time>2026-05-01T17:16:50Z</time></trkpt><trkpt lat="43.411347253422576" lon="-2.6696990017333304"><ele>96.0</ele><time>2026-05-01T17:16:51Z</time></trkpt><trkpt lat="43.41140995637272" lon="-2.669922406945445"><ele>79.0</ele><time>2026-05-01T17:16:52Z</time></trkpt><trkpt lat="43.41140088687346" lon="-2.670175931761373"><ele>62.0</ele><time>2026-05-01T17:16:53Z</time></trkpt><trkpt lat="43.41139673031135" lon="-2.670445517856414"><ele>45.0</ele><time>2026-05-01T17:16:54Z</time></trkpt><trkpt lat="43.41138322261895" lon="-2.6707174244839966"><ele>44.0</ele><time>2026-05-01T17:16:55Z</time></trkpt><trkpt lat="43.41138176710825" lon="-2.6710104482445014"><ele>43.0</ele><time>2026-05-01T17:16:56Z</time></trkpt><trkpt lat="43.41138552746243" lon="-2.6712980429252693"><ele>42.0</ele><time>2026-05-01T17:16:57Z</time></trkpt><trkpt lat="43.41137941726182" lon="-2.671575594614135"><ele>42.0</ele><time>2026-05-01T17:16:58Z</time></trkpt><trkpt lat="43.41137067078264" lon="-2.6717965871292075"><ele>42.0</ele><time>2026-05-01T17:16:59Z</time></trkpt><trkpt lat="43.411353401193665" lon="-2.6719819130489855"><ele>42.0</ele><time>2026-05-01T17:17:00Z</time></trkpt><trkpt lat="43.411302068476104" lon="-2.672148864098337"><ele>42.0</ele><time>2026-05-01T17:17:01Z</time></trkpt><trkpt lat="43.41123150630243" lon="-2.672326554779973"><ele>51.0</ele><time>2026-05-01T17:17:02Z</time></trkpt><trkpt lat="43.41112006768092" lon="-2.672467500817712"><ele>60.0</ele><time>2026-05-01T17:17:03Z</time></trkpt><trkpt lat="43.4109627487127" lon="-2.6725640943998856"><ele>69.0</ele><time>2026-05-01T17:17:04Z</time></trkpt><trkpt lat="43.410794024573455" lon="-2.6726243713102393"><ele>69.0</ele><time>2026-05-01T17:17:05Z</time></trkpt><trkpt lat="43.410642781554756" lon="-2.672679357513834"><ele>69.0</ele><time>2026-05-01T17:17:06Z</time></trkpt><trkpt lat="43.41051202542084" lon="-2.67277070228146"><ele>69.0</ele><time>2026-05-01T17:17:07Z</time></trkpt><trkpt lat="43.410390653574986" lon="-2.672891030014659"><ele>71.33333333333333</ele><time>2026-05-01T17:17:08Z</time></trkpt><trkpt lat="43.41030615302371" lon="-2.6730819002495525"><ele>73.66666666666666</ele><time>2026-05-01T17:17:09Z</time></trkpt><trkpt lat="43.41023227014808" lon="-2.673278450158562"><ele>76.0</ele><time>2026-05-01T17:17:10Z</time></trkpt><trkpt lat="43.41021276964411" lon="-2.6734953943161854"><ele>71.66666666666666</ele><time>2026-05-01T17:17:11Z</time></trkpt><trkpt lat="43.410212991312406" lon="-2.6737027128949693"><ele>67.33333333333333</ele><time>2026-05-01T17:17:12Z</time></trkpt><trkpt lat="43.410187512908024" lon="-2.6738852516300957"><ele>63.0</ele><time>2026-05-01T17:17:13Z</time></trkpt><trkpt lat="43.405805796399676" lon="-2.6812492721360597"><ele>55.333333333333336</ele><time>2026-05-01T17:18:14Z</time></trkpt><trkpt lat="43.405739058296206" lon="-2.68144601491129"><ele>47.66666666666667</ele><time>2026-05-01T17:18:15Z</time></trkpt><trkpt lat="43.40567841273334" lon="-2.6816273178128025"><ele>40.0</ele><time>2026-05-01T17:18:16Z</time></trkpt><trkpt lat="43.40562013448685" lon="-2.681820964762805"><ele>41.75</ele><time>2026-05-01T17:18:17Z</time></trkpt><trkpt lat="43.40555955562551" lon="-2.682020146090805"><ele>43.5</ele><time>2026-05-01T17:18:18Z</time></trkpt><trkpt lat="43.405499812174206" lon="-2.6821955139584817"><ele>45.25</ele><time>2026-05-01T17:18:19Z</time></trkpt><trkpt lat="43.405433549990576" lon="-2.6823512867526023"><ele>47.0</ele><time>2026-05-01T17:18:20Z</time></trkpt><trkpt lat="43.40535022958058" lon="-2.68249871876965"><ele>47.0</ele><time>2026-05-01T17:18:21Z</time></trkpt><trkpt lat="43.40523878560284" lon="-2.6826241149490477"><ele>47.0</ele><time>2026-05-01T17:18:22Z</time></trkpt><trkpt lat="43.40511558154575" lon="-2.6827420489683766"><ele>47.0</ele><time>2026-05-01T17:18:23Z</time></trkpt><trkpt lat="43.40497915310342" lon="-2.6828448503896287"><ele>45.666666666666664</ele><time>2026-05-01T17:18:24Z</time></trkpt><trkpt lat="43.404845080058664" lon="-2.6829668543374385"><ele>44.333333333333336</ele><time>2026-05-01T17:18:25Z</time></trkpt><trkpt lat="43.404715218790784" lon="-2.683089186898419"><ele>43.0</ele><time>2026-05-01T17:18:26Z</time></trkpt><trkpt lat="43.40460395362831" lon="-2.6832276841694824"><ele>43.0</ele><time>2026-05-01T17:18:27Z</time></trkpt><trkpt lat="43.40450522897245" lon="-2.6833903090275184"><ele>43.0</ele><time>2026-05-01T17:18:28Z</time></trkpt><trkpt lat="43.404416776499865" lon="-2.683566309656783"><ele>43.0</ele><time>2026-05-01T17:18:29Z</time></trkpt><trkpt lat="43.40433792164099" lon="-2.6837222209035247"><ele>43.0</ele><time>2026-05-01T17:18:30Z</time></trkpt><trkpt lat="43.404251399934154" lon="-2.6838842867156028"><ele>41.0</ele><time>2026-05-01T17:18:31Z</time></trkpt><trkpt lat="43.404152274019026" lon="-2.6840357427024113"><ele>39.0</ele><time>2026-05-01T17:18:32Z</time></trkpt><trkpt lat="43.404038671917945" lon="-2.6841624926685093"><ele>37.0</ele><time>2026-05-01T17:18:33Z</time></trkpt><trkpt lat="43.403896436884786" lon="-2.6842450424735502"><ele>35.0</ele><time>2026-05-01T17:18:34Z</time></trkpt><trkpt lat="43.40372591666519" lon="-2.684293737098429"><ele>35.0</ele><time>2026-05-01T17:18:35Z</time></trkpt><trkpt lat="43.40353600125774" lon="-2.6843016385805667"><ele>35.0</ele><time>2026-05-01T17:18:36Z</time></trkpt><trkpt lat="43.40335107571293" lon="-2.684306375344614"><ele>35.0</ele><time>2026-05-01T17:18:37Z</time></trkpt><trkpt lat="43.403174157479626" lon="-2.6843223276117567"><ele>35.0</ele><time>2026-05-01T17:18:38Z</time></trkpt><trkpt lat="43.40301012339259" lon="-2.684337118154327"><ele>35.0</ele><time>2026-05-01T17:18:39Z</time></trkpt><trkpt lat="43.40285138898796" lon="-2.684334652704841"><ele>35.0</ele><time>2026-05-01T17:18:40Z</time></trkpt><trkpt lat="43.40270336171691" lon="-2.6843506523110925"><ele>35.33333333333333</ele><time>2026-05-01T17:18:41Z</time></trkpt><trkpt lat="43.40255247887391" lon="-2.6843614094277064"><ele>35.666666666666664</ele><time>2026-05-01T17:18:42Z</time></trkpt><trkpt lat="43.4023889399212" lon="-2.684399113536714"><ele>36.0</ele><time>2026-05-01T17:18:43Z</time></trkpt><trkpt lat="43.4022216744878" lon="-2.684436465246706"><ele>27.333333333333332</ele><time>2026-05-01T17:18:44Z</time></trkpt><trkpt lat="43.4020524969926" lon="-2.6844948558242985"><ele>18.666666666666668</ele><time>2026-05-01T17:18:45Z</time></trkpt><trkpt lat="43.40188490028153" lon="-2.6845602397433717"><ele>10.0</ele><time>2026-05-01T17:18:46Z</time></trkpt><trkpt lat="43.401720531972316" lon="-2.6846098251069384"><ele>10.0</ele><time>2026-05-01T17:18:47Z</time></trkpt><trkpt lat="43.40155701213227" lon="-2.6846420634507893"><ele>10.0</ele><time>2026-05-01T17:18:48Z</time></trkpt><trkpt lat="43.40140296269853" lon="-2.6846623637292204"><ele>10.0</ele><time>2026-05-01T17:18:49Z</time></trkpt><trkpt lat="43.40125474598809" lon="-2.6846515312758727"><ele>10.0</ele><time>2026-05-01T17:18:50Z</time></trkpt><trkpt lat="43.40112899514387" lon="-2.6846544887981945"><ele>10.0</ele><time>2026-05-01T17:18:51Z</time></trkpt><trkpt lat="43.40099910988771" lon="-2.6846572990714326"><ele>10.0</ele><time>2026-05-01T17:18:52Z</time></trkpt><trkpt lat="43.40086058063761" lon="-2.6846609951743874"><ele>10.0</ele><time>2026-05-01T17:18:53Z</time></trkpt><trkpt lat="43.40071611107393" lon="-2.684639618670816"><ele>10.0</ele><time>2026-05-01T17:18:54Z</time></trkpt><trkpt lat="43.400565570840875" lon="-2.6846100117405323"><ele>10.0</ele><time>2026-05-01T17:18:55Z</time></trkpt><trkpt lat="43.40040889374794" lon="-2.684641214820611"><ele>10.0</ele><time>2026-05-01T17:18:56Z</time></trkpt><trkpt lat="43.40025849709823" lon="-2.684635636874605"><ele>8.0</ele><time>2026-05-01T17:18:57Z</time></trkpt><trkpt lat="43.40009591096" lon="-2.68463548551213"><ele>6.0</ele><time>2026-05-01T17:18:58Z</time></trkpt><trkpt lat="43.399931223889176" lon="-2.68460004787171"><ele>4.0</ele><time>2026-05-01T17:18:59Z</time></trkpt><trkpt lat="43.399774099646365" lon="-2.6846112882030484"><ele>4.5</ele><time>2026-05-01T17:19:00Z</time></trkpt><trkpt lat="43.39963200926561" lon="-2.6845896953249806"><ele>5.0</ele><time>2026-05-01T17:19:01Z</time></trkpt><trkpt lat="43.39948258763338" lon="-2.684583087729653"><ele>5.5</ele><time>2026-05-01T17:19:02Z</time></trkpt><trkpt lat="43.399347291129764" lon="-2.6845658010412543"><ele>6.0</ele><time>2026-05-01T17:19:03Z</time></trkpt><trkpt lat="43.39920856687687" lon="-2.6845534541490426"><ele>6.0</ele><time>2026-05-01T17:19:04Z</time></trkpt><trkpt lat="43.39906377137244" lon="-2.68454452723672"><ele>6.0</ele><time>2026-05-01T17:19:05.001Z</time></trkpt><trkpt lat="43.398917969319406" lon="-2.68452397512375"><ele>6.0</ele><time>2026-05-01T17:19:06.001Z</time></trkpt><trkpt lat="43.398770822314994" lon="-2.6845042672357797"><ele>6.0</ele><time>2026-05-01T17:19:07.001Z</time></trkpt><trkpt lat="43.39862201093066" lon="-2.6844821980108127"><ele>5.25</ele><time>2026-05-01T17:19:08.001Z</time></trkpt><trkpt lat="43.39847978173544" lon="-2.684518985060801"><ele>4.5</ele><time>2026-05-01T17:19:09.001Z</time></trkpt><trkpt lat="43.3983465390334" lon="-2.68450146951421"><ele>3.75</ele><time>2026-05-01T17:19:10.001Z</time></trkpt><trkpt lat="43.398230742833405" lon="-2.6844678831641207"><ele>3.0</ele><time>2026-05-01T17:19:11.001Z</time></trkpt><trkpt lat="43.39812020054122" lon="-2.684431661178097"><ele>6.5</ele><time>2026-05-01T17:19:12.001Z</time></trkpt><trkpt lat="43.397999599662946" lon="-2.684390112415465"><ele>10.0</ele><time>2026-05-01T17:19:13.001Z</time></trkpt><trkpt lat="43.394388012860226" lon="-2.6806789264739916"><ele>9.5</ele><time>2026-05-01T17:20:14Z</time></trkpt><trkpt lat="43.39432961323697" lon="-2.680824871850577"><ele>9.0</ele><time>2026-05-01T17:20:15Z</time></trkpt><trkpt lat="43.39427988375829" lon="-2.6809932325446137"><ele>8.5</ele><time>2026-05-01T17:20:16Z</time></trkpt><trkpt lat="43.39424381885687" lon="-2.681152912488809"><ele>8.0</ele><time>2026-05-01T17:20:17Z</time></trkpt><trkpt lat="43.39420362326723" lon="-2.6813031122115527"><ele>8.0</ele><time>2026-05-01T17:20:18Z</time></trkpt><trkpt lat="43.39416201616817" lon="-2.681473026980192"><ele>8.0</ele><time>2026-05-01T17:20:19Z</time></trkpt><trkpt lat="43.39412424919535" lon="-2.6816316562762115"><ele>8.0</ele><time>2026-05-01T17:20:20Z</time></trkpt><trkpt lat="43.39407693919379" lon="-2.681785093174382"><ele>8.0</ele><time>2026-05-01T17:20:21Z</time></trkpt><trkpt lat="43.39402603159491" lon="-2.6819335811942837"><ele>6.75</ele><time>2026-05-01T17:20:22Z</time></trkpt><trkpt lat="43.39396296052428" lon="-2.6820750303172893"><ele>5.5</ele><time>2026-05-01T17:20:23Z</time></trkpt><trkpt lat="43.393879897408695" lon="-2.682212034864549"><ele>4.25</ele><time>2026-05-01T17:20:24Z</time></trkpt><trkpt lat="43.39378150484366" lon="-2.6823101849761892"><ele>3.0</ele><time>2026-05-01T17:20:25Z</time></trkpt><trkpt lat="43.393679863926664" lon="-2.682434276446675"><ele>6.75</ele><time>2026-05-01T17:20:26Z</time></trkpt><trkpt lat="43.39355487609632" lon="-2.682506489594813"><ele>10.5</ele><time>2026-05-01T17:20:27Z</time></trkpt><trkpt lat="43.39344329002583" lon="-2.682587511544159"><ele>14.25</ele><time>2026-05-01T17:20:28Z</time></trkpt><trkpt lat="43.39332518129208" lon="-2.6826318938355684"><ele>18.0</ele><time>2026-05-01T17:20:29Z</time></trkpt><trkpt lat="43.3931862225448" lon="-2.6826577553573863"><ele>18.0</ele><time>2026-05-01T17:20:30Z</time></trkpt><trkpt lat="43.393044467711874" lon="-2.682657027105736"><ele>18.0</ele><time>2026-05-01T17:20:31Z</time></trkpt><trkpt lat="43.39291224510322" lon="-2.682696642142225"><ele>18.0</ele><time>2026-05-01T17:20:32Z</time></trkpt><trkpt lat="43.39276970920749" lon="-2.682689520599766"><ele>18.0</ele><time>2026-05-01T17:20:33Z</time></trkpt><trkpt lat="43.392633109773854" lon="-2.682680999763244"><ele>19.75</ele><time>2026-05-01T17:20:34Z</time></trkpt><trkpt lat="43.3924912503525" lon="-2.6826757650457465"><ele>21.5</ele><time>2026-05-01T17:20:35Z</time></trkpt><trkpt lat="43.39235242317187" lon="-2.682644058611214"><ele>23.25</ele><time>2026-05-01T17:20:36Z</time></trkpt><trkpt lat="43.3922121022431" lon="-2.682591306495474"><ele>25.0</ele><time>2026-05-01T17:20:37Z</time></trkpt><trkpt lat="43.39206580193219" lon="-2.6825154734551044"><ele>25.0</ele><time>2026-05-01T17:20:38Z</time></trkpt><trkpt lat="43.39191720202242" lon="-2.6824319739369495"><ele>25.0</ele><time>2026-05-01T17:20:39Z</time></trkpt><trkpt lat="43.391774115392025" lon="-2.682332592537991"><ele>25.0</ele><time>2026-05-01T17:20:40Z</time></trkpt><trkpt lat="43.39162725863542" lon="-2.6822265774798955"><ele>25.0</ele><time>2026-05-01T17:20:41Z</time></trkpt><trkpt lat="43.39148004060252" lon="-2.682128826928333"><ele>25.0</ele><time>2026-05-01T17:20:42Z</time></trkpt><trkpt lat="43.391331298146696" lon="-2.6820333569238546"><ele>25.0</ele><time>2026-05-01T17:20:43Z</time></trkpt><trkpt lat="43.39118012500841" lon="-2.681945864590329"><ele>30.0</ele><time>2026-05-01T17:20:44Z</time></trkpt><trkpt lat="43.391014060165986" lon="-2.681861674808391"><ele>35.0</ele><time>2026-05-01T17:20:45Z</time></trkpt><trkpt lat="43.3908338475288" lon="-2.6817700999830762"><ele>40.0</ele><time>2026-05-01T17:20:46Z</time></trkpt><trkpt lat="43.39063483926485" lon="-2.6816871675842315"><ele>36.66666666666667</ele><time>2026-05-01T17:20:47Z</time></trkpt><trkpt lat="43.390425650905456" lon="-2.6816222515050088"><ele>33.333333333333336</ele><time>2026-05-01T17:20:48Z</time></trkpt><trkpt lat="43.39021453172065" lon="-2.6815385380671724"><ele>30.0</ele><time>2026-05-01T17:20:49Z</time></trkpt><trkpt lat="43.389992824932825" lon="-2.6814417350767012"><ele>30.0</ele><time>2026-05-01T17:20:50Z</time></trkpt><trkpt lat="43.38976683854321" lon="-2.6813234189911817"><ele>30.0</ele><time>2026-05-01T17:20:51.001Z</time></trkpt><trkpt lat="43.38954505822563" lon="-2.6811667414399016"><ele>39.5</ele><time>2026-05-01T17:20:52.001Z</time></trkpt><trkpt lat="43.389313768420884" lon="-2.6810528946066956"><ele>49.0</ele><time>2026-05-01T17:20:53.001Z</time></trkpt><trkpt lat="43.389090383606835" lon="-2.6809345112656353"><ele>49.0</ele><time>2026-05-01T17:20:54.001Z</time></trkpt><trkpt lat="43.388865436521776" lon="-2.6808056130981837"><ele>49.0</ele><time>2026-05-01T17:20:55.001Z</time></trkpt><trkpt lat="43.3886575772118" lon="-2.6806603132540427"><ele>47.0</ele><time>2026-05-01T17:20:56.001Z</time></trkpt><trkpt lat="43.388452244532964" lon="-2.6805180368308514"><ele>45.0</ele><time>2026-05-01T17:20:57.001Z</time></trkpt><trkpt lat="43.3882608037866" lon="-2.680375768054185"><ele>43.0</ele><time>2026-05-01T17:20:58.001Z</time></trkpt><trkpt lat="43.3880772219462" lon="-2.6802335420332524"><ele>45.0</ele><time>2026-05-01T17:20:59.001Z</time></trkpt><trkpt lat="43.38791573963485" lon="-2.6800792355077996"><ele>47.0</ele><time>2026-05-01T17:21:00.001Z</time></trkpt><trkpt lat="43.38773934659067" lon="-2.6799439053561827"><ele>49.0</ele><time>2026-05-01T17:21:01.001Z</time></trkpt><trkpt lat="43.38756184897322" lon="-2.6798079427376904"><ele>49.0</ele><time>2026-05-01T17:21:02.001Z</time></trkpt><trkpt lat="43.38739552974752" lon="-2.6796744188705723"><ele>49.0</ele><time>2026-05-01T17:21:03.001Z</time></trkpt><trkpt lat="43.38723719252432" lon="-2.6795423274710535"><ele>49.0</ele><time>2026-05-01T17:21:04.001Z</time></trkpt><trkpt lat="43.38706746413873" lon="-2.6794108335968905"><ele>51.33333333333333</ele><time>2026-05-01T17:21:05.001Z</time></trkpt><trkpt lat="43.386904564385446" lon="-2.6792940286952223"><ele>53.66666666666667</ele><time>2026-05-01T17:21:06.001Z</time></trkpt><trkpt lat="43.38675505499787" lon="-2.679181613699269"><ele>56.0</ele><time>2026-05-01T17:21:07.001Z</time></trkpt><trkpt lat="43.38660466660256" lon="-2.679062116860755"><ele>56.0</ele><time>2026-05-01T17:21:08.001Z</time></trkpt><trkpt lat="43.38644430767078" lon="-2.6789459552386914"><ele>56.0</ele><time>2026-05-01T17:21:09.001Z</time></trkpt><trkpt lat="43.38627811996193" lon="-2.678844369764307"><ele>56.0</ele><time>2026-05-01T17:21:10.001Z</time></trkpt><trkpt lat="43.38611517924636" lon="-2.678724763350685"><ele>56.0</ele><time>2026-05-01T17:21:11.001Z</time></trkpt><trkpt lat="43.385956110036716" lon="-2.6785762868424854"><ele>56.0</ele><time>2026-05-01T17:21:12.001Z</time></trkpt><trkpt lat="43.38579116625758" lon="-2.6784573486881573"><ele>56.0</ele><time>2026-05-01T17:21:13.001Z</time></trkpt><trkpt lat="43.37590428921488" lon="-2.6719790825271543"><ele>56.0</ele><time>2026-05-01T17:22:14Z</time></trkpt><trkpt lat="43.37580167739995" lon="-2.672064437409596"><ele>56.0</ele><time>2026-05-01T17:22:15Z</time></trkpt><trkpt lat="43.375680857439015" lon="-2.672116657238405"><ele>56.0</ele><time>2026-05-01T17:22:16Z</time></trkpt><trkpt lat="43.37554537588218" lon="-2.6721246458346877"><ele>56.0</ele><time>2026-05-01T17:22:17Z</time></trkpt><trkpt lat="43.375417623283" lon="-2.6721183340928794"><ele>56.5</ele><time>2026-05-01T17:22:18Z</time></trkpt><trkpt lat="43.37530072181645" lon="-2.672083783282547"><ele>57.0</ele><time>2026-05-01T17:22:19Z</time></trkpt><trkpt lat="43.37518072090909" lon="-2.6720208806353947"><ele>57.5</ele><time>2026-05-01T17:22:20Z</time></trkpt><trkpt lat="43.37505358406161" lon="-2.671960351550293"><ele>58.0</ele><time>2026-05-01T17:22:21Z</time></trkpt><trkpt lat="43.37494923169963" lon="-2.67185742970817"><ele>59.25</ele><time>2026-05-01T17:22:22Z</time></trkpt><trkpt lat="43.37483866164591" lon="-2.6717738088348866"><ele>60.5</ele><time>2026-05-01T17:22:23Z</time></trkpt><trkpt lat="43.374720057129714" lon="-2.6716793097700724"><ele>61.75</ele><time>2026-05-01T17:22:24Z</time></trkpt><trkpt lat="43.374593680491685" lon="-2.6715838382291524"><ele>63.0</ele><time>2026-05-01T17:22:25Z</time></trkpt><trkpt lat="43.37446053703769" lon="-2.671479380887081"><ele>63.0</ele><time>2026-05-01T17:22:26Z</time></trkpt><trkpt lat="43.37431642652531" lon="-2.671356323537828"><ele>63.0</ele><time>2026-05-01T17:22:27Z</time></trkpt><trkpt lat="43.374168021973674" lon="-2.6712638547188523"><ele>63.0</ele><time>2026-05-01T17:22:28Z</time></trkpt><trkpt lat="43.374005221802605" lon="-2.6711564892532196"><ele>66.33333333333333</ele><time>2026-05-01T17:22:29Z</time></trkpt><trkpt lat="43.373829000357716" lon="-2.671072216514177"><ele>69.66666666666666</ele><time>2026-05-01T17:22:30Z</time></trkpt><trkpt lat="43.37363817032323" lon="-2.670998253082942"><ele>73.0</ele><time>2026-05-01T17:22:31Z</time></trkpt><trkpt lat="43.37342044153281" lon="-2.670914464647187"><ele>73.0</ele><time>2026-05-01T17:22:32Z</time></trkpt><trkpt lat="43.373187743635675" lon="-2.6708179740807183"><ele>73.0</ele><time>2026-05-01T17:22:33Z</time></trkpt><trkpt lat="43.37295030187565" lon="-2.67072331864462"><ele>68.0</ele><time>2026-05-01T17:22:34Z</time></trkpt><trkpt lat="43.372726257610665" lon="-2.67061790921985"><ele>63.0</ele><time>2026-05-01T17:22:35Z</time></trkpt><trkpt lat="43.37248808113349" lon="-2.670539407395247"><ele>63.0</ele><time>2026-05-01T17:22:36Z</time></trkpt><trkpt lat="43.37225481226391" lon="-2.6704401440050405"><ele>63.0</ele><time>2026-05-01T17:22:37Z</time></trkpt><trkpt lat="43.372034180431676" lon="-2.6703405506228544"><ele>74.0</ele><time>2026-05-01T17:22:38Z</time></trkpt><trkpt lat="43.371819371969245" lon="-2.6702199241070574"><ele>85.0</ele><time>2026-05-01T17:22:39Z</time></trkpt><trkpt lat="43.371603115582054" lon="-2.67009590457092"><ele>85.0</ele><time>2026-05-01T17:22:40Z</time></trkpt><trkpt lat="43.37139691487615" lon="-2.669977072110791"><ele>85.0</ele><time>2026-05-01T17:22:41Z</time></trkpt><trkpt lat="43.37119891497325" lon="-2.669871476437343"><ele>85.0</ele><time>2026-05-01T17:22:42Z</time></trkpt><trkpt lat="43.37099577619316" lon="-2.669802505557515"><ele>79.0</ele><time>2026-05-01T17:22:43Z</time></trkpt><trkpt lat="43.370797951001535" lon="-2.669762463810335"><ele>73.0</ele><time>2026-05-01T17:22:44Z</time></trkpt><trkpt lat="43.37060677029368" lon="-2.66972363784891"><ele>67.0</ele><time>2026-05-01T17:22:45Z</time></trkpt><trkpt lat="43.37042597182518" lon="-2.669664064940945"><ele>64.33333333333333</ele><time>2026-05-01T17:22:46Z</time></trkpt><trkpt lat="43.37024887288626" lon="-2.6695569822619065"><ele>61.66666666666667</ele><time>2026-05-01T17:22:47Z</time></trkpt><trkpt lat="43.37007582963309" lon="-2.6694424211205985"><ele>59.0</ele><time>2026-05-01T17:22:48Z</time></trkpt><trkpt lat="43.36991555016008" lon="-2.66937926906692"><ele>66.0</ele><time>2026-05-01T17:22:49Z</time></trkpt><trkpt lat="43.369746554479356" lon="-2.669362612919913"><ele>73.0</ele><time>2026-05-01T17:22:50Z</time></trkpt><trkpt lat="43.36957190216328" lon="-2.669365034923986"><ele>80.0</ele><time>2026-05-01T17:22:51Z</time></trkpt><trkpt lat="43.36938543119164" lon="-2.6693878576870875"><ele>80.0</ele><time>2026-05-01T17:22:52Z</time></trkpt><trkpt lat="43.369193192526886" lon="-2.669378765813995"><ele>80.0</ele><time>2026-05-01T17:22:53Z</time></trkpt><trkpt lat="43.36902060106064" lon="-2.6693229087452983"><ele>80.0</ele><time>2026-05-01T17:22:54Z</time></trkpt><trkpt lat="43.36884849540052" lon="-2.6692225611912908"><ele>75.66666666666667</ele><time>2026-05-01T17:22:55Z</time></trkpt><trkpt lat="43.3686693786441" lon="-2.6691328136432673"><ele>71.33333333333333</ele><time>2026-05-01T17:22:56Z</time></trkpt><trkpt lat="43.36849888632172" lon="-2.6690635670112233"><ele>67.0</ele><time>2026-05-01T17:22:57Z</time></trkpt><trkpt lat="43.36831666588773" lon="-2.669022869424028"><ele>67.0</ele><time>2026-05-01T17:22:58Z</time></trkpt><trkpt lat="43.36811414809507" lon="-2.669059986102355"><ele>67.0</ele><time>2026-05-01T17:22:59Z</time></trkpt><trkpt lat="43.36790984351319" lon="-2.6691129812139014"><ele>67.0</ele><time>2026-05-01T17:23:00Z</time></trkpt><trkpt lat="43.36770900903567" lon="-2.6691466808407105"><ele>66.66666666666666</ele><time>2026-05-01T17:23:01Z</time></trkpt><trkpt lat="43.367523922613984" lon="-2.669174227875839"><ele>66.33333333333333</ele><time>2026-05-01T17:23:02Z</time></trkpt><trkpt lat="43.36733770355236" lon="-2.6692023453549396"><ele>66.0</ele><time>2026-05-01T17:23:03Z</time></trkpt><trkpt lat="43.36714632759754" lon="-2.669235277087311"><ele>66.66666666666667</ele><time>2026-05-01T17:23:04Z</time></trkpt><trkpt lat="43.36696166834353" lon="-2.6692758050447787"><ele>67.33333333333334</ele><time>2026-05-01T17:23:05Z</time></trkpt><trkpt lat="43.366781697645656" lon="-2.669299663982671"><ele>68.0</ele><time>2026-05-01T17:23:06Z</time></trkpt><trkpt lat="43.36662213772064" lon="-2.669343473526166"><ele>68.0</ele><time>2026-05-01T17:23:07Z</time></trkpt><trkpt lat="43.366452317324445" lon="-2.6693857292281122"><ele>68.0</ele><time>2026-05-01T17:23:08Z</time></trkpt><trkpt lat="43.366284935548535" lon="-2.669423548553577"><ele>68.0</ele><time>2026-05-01T17:23:09Z</time></trkpt><trkpt lat="43.366104392506024" lon="-2.6694195547593678"><ele>66.33333333333334</ele><time>2026-05-01T17:23:10Z</time></trkpt><trkpt lat="43.36591632960398" lon="-2.669351093452674"><ele>64.66666666666667</ele><time>2026-05-01T17:23:11Z</time></trkpt><trkpt lat="43.36573122491225" lon="-2.669284885466432"><ele>63.0</ele><time>2026-05-01T17:23:12Z</time></trkpt><trkpt lat="43.3655750779833" lon="-2.669241579314694"><ele>15.0</ele><time>2026-05-01T17:23:13Z</time></trkpt><trkpt lat="43.35886685214731" lon="-2.6610531477343935"><ele>20.5</ele><time>2026-05-01T17:24:14Z</time></trkpt><trkpt lat="43.358964228673635" lon="-2.6609005344490164"><ele>26.0</ele><time>2026-05-01T17:24:15Z</time></trkpt><trkpt lat="43.35906345730896" lon="-2.6607520165737486"><ele>31.5</ele><time>2026-05-01T17:24:16Z</time></trkpt><trkpt lat="43.359157291589874" lon="-2.6606095610121807"><ele>37.0</ele><time>2026-05-01T17:24:17Z</time></trkpt><trkpt lat="43.35924512920613" lon="-2.6604477924184446"><ele>34.25</ele><time>2026-05-01T17:24:18Z</time></trkpt><trkpt lat="43.359308934464906" lon="-2.6602745068593636"><ele>31.5</ele><time>2026-05-01T17:24:19Z</time></trkpt><trkpt lat="43.359352740708374" lon="-2.66007684751143"><ele>28.75</ele><time>2026-05-01T17:24:20Z</time></trkpt><trkpt lat="43.35936437865943" lon="-2.6598701226108252"><ele>26.0</ele><time>2026-05-01T17:24:21Z</time></trkpt><trkpt lat="43.35931788132473" lon="-2.6596489279639983"><ele>26.666666666666664</ele><time>2026-05-01T17:24:22Z</time></trkpt><trkpt lat="43.35927238881539" lon="-2.6594360956876604"><ele>27.333333333333336</ele><time>2026-05-01T17:24:23Z</time></trkpt><trkpt lat="43.35923618469899" lon="-2.6592233701781263"><ele>28.0</ele><time>2026-05-01T17:24:24Z</time></trkpt><trkpt lat="43.35916027311665" lon="-2.6590237765835014"><ele>28.0</ele><time>2026-05-01T17:24:25Z</time></trkpt><trkpt lat="43.35912021645575" lon="-2.6588267540175083"><ele>28.0</ele><time>2026-05-01T17:24:26Z</time></trkpt><trkpt lat="43.359086520011466" lon="-2.65863191444601"><ele>28.0</ele><time>2026-05-01T17:24:27Z</time></trkpt><trkpt lat="43.35906253616026" lon="-2.6584380763486717"><ele>28.0</ele><time>2026-05-01T17:24:28Z</time></trkpt><trkpt lat="43.35906068264014" lon="-2.6582332503066315"><ele>28.0</ele><time>2026-05-01T17:24:29Z</time></trkpt><trkpt lat="43.359057634561665" lon="-2.658035136298556"><ele>28.0</ele><time>2026-05-01T17:24:30Z</time></trkpt><trkpt lat="43.35906987015167" lon="-2.6578484371565625"><ele>28.0</ele><time>2026-05-01T17:24:31Z</time></trkpt><trkpt lat="43.35907890481206" lon="-2.6576467208970507"><ele>28.0</ele><time>2026-05-01T17:24:32Z</time></trkpt><trkpt lat="43.35908567579407" lon="-2.657441066868939"><ele>28.0</ele><time>2026-05-01T17:24:33Z</time></trkpt><trkpt lat="43.35908537304777" lon="-2.657209137368262"><ele>28.0</ele><time>2026-05-01T17:24:34Z</time></trkpt><trkpt lat="43.35910882362001" lon="-2.657010292049767"><ele>28.0</ele><time>2026-05-01T17:24:35Z</time></trkpt><trkpt lat="43.359125068975544" lon="-2.6567989153787144"><ele>28.0</ele><time>2026-05-01T17:24:36Z</time></trkpt><trkpt lat="43.359130061993106" lon="-2.656585206015269"><ele>28.0</ele><time>2026-05-01T17:24:37Z</time></trkpt><trkpt lat="43.359149612474894" lon="-2.6563795138893047"><ele>28.0</ele><time>2026-05-01T17:24:38Z</time></trkpt><trkpt lat="43.3591430753242" lon="-2.6561774958882713"><ele>27.75</ele><time>2026-05-01T17:24:39Z</time></trkpt><trkpt lat="43.35915278097675" lon="-2.6559810727542734"><ele>27.5</ele><time>2026-05-01T17:24:40Z</time></trkpt><trkpt lat="43.359159981456145" lon="-2.6558019909790826"><ele>27.25</ele><time>2026-05-01T17:24:41Z</time></trkpt><trkpt lat="43.359159104882266" lon="-2.6555874372657557"><ele>27.0</ele><time>2026-05-01T17:24:42Z</time></trkpt><trkpt lat="43.35911700916342" lon="-2.655389845412532"><ele>25.25</ele><time>2026-05-01T17:24:43Z</time></trkpt><trkpt lat="43.359064879545286" lon="-2.6551961752616187"><ele>23.5</ele><time>2026-05-01T17:24:44Z</time></trkpt><trkpt lat="43.35899851337214" lon="-2.6550079976499834"><ele>21.75</ele><time>2026-05-01T17:24:45Z</time></trkpt><trkpt lat="43.35892030062081" lon="-2.6548395809683014"><ele>20.0</ele><time>2026-05-01T17:24:46Z</time></trkpt><trkpt lat="43.358834113053724" lon="-2.6546873185269653"><ele>19.333333333333336</ele><time>2026-05-01T17:24:47Z</time></trkpt><trkpt lat="43.358730183889556" lon="-2.6545464934961105"><ele>18.666666666666668</ele><time>2026-05-01T17:24:48Z</time></trkpt><trkpt lat="43.358617434395526" lon="-2.6543971426094757"><ele>18.0</ele><time>2026-05-01T17:24:49Z</time></trkpt><trkpt lat="43.35847197589908" lon="-2.6543081720478807"><ele>18.0</ele><time>2026-05-01T17:24:50Z</time></trkpt><trkpt lat="43.358326224693855" lon="-2.6542352256394004"><ele>18.0</ele><time>2026-05-01T17:24:51Z</time></trkpt><trkpt lat="43.35818636086147" lon="-2.6541669899836724"><ele>18.0</ele><time>2026-05-01T17:24:52Z</time></trkpt><trkpt lat="43.35805858484956" lon="-2.6540791364863123"><ele>18.0</ele><time>2026-05-01T17:24:53Z</time></trkpt><trkpt lat="43.357930150089764" lon="-2.653971377087855"><ele>18.0</ele><time>2026-05-01T17:24:54Z</time></trkpt><trkpt lat="43.357801383674065" lon="-2.6538310465189268"><ele>18.0</ele><time>2026-05-01T17:24:55Z</time></trkpt><trkpt lat="43.357676906193" lon="-2.6536939547681078"><ele>18.0</ele><time>2026-05-01T17:24:56Z</time></trkpt><trkpt lat="43.35755878227732" lon="-2.6535477350988725"><ele>20.0</ele><time>2026-05-01T17:24:57Z</time></trkpt><trkpt lat="43.357447661063105" lon="-2.6533908258418815"><ele>22.0</ele><time>2026-05-01T17:24:58Z</time></trkpt><trkpt lat="43.35732985426332" lon="-2.6532579184166445"><ele>24.0</ele><time>2026-05-01T17:24:59Z</time></trkpt><trkpt lat="43.35722648965119" lon="-2.6531290666418754"><ele>24.75</ele><time>2026-05-01T17:25:00Z</time></trkpt><trkpt lat="43.35712604797262" lon="-2.652994897587906"><ele>25.5</ele><time>2026-05-01T17:25:01Z</time></trkpt><trkpt lat="43.35702689322856" lon="-2.652852049217406"><ele>26.25</ele><time>2026-05-01T17:25:02Z</time></trkpt><trkpt lat="43.35692957351637" lon="-2.6526932462575306"><ele>27.0</ele><time>2026-05-01T17:25:03Z</time></trkpt><trkpt lat="43.356829607899996" lon="-2.6525386566148588"><ele>27.0</ele><time>2026-05-01T17:25:04Z</time></trkpt><trkpt lat="43.35673165708372" lon="-2.6523805753358576"><ele>27.0</ele><time>2026-05-01T17:25:05Z</time></trkpt><trkpt lat="43.35662999170675" lon="-2.6522263429369066"><ele>27.0</ele><time>2026-05-01T17:25:06Z</time></trkpt><trkpt lat="43.35652153815939" lon="-2.6520837035101055"><ele>27.0</ele><time>2026-05-01T17:25:07Z</time></trkpt><trkpt lat="43.35639240839468" lon="-2.651968799555837"><ele>27.0</ele><time>2026-05-01T17:25:08Z</time></trkpt><trkpt lat="43.35625071131321" lon="-2.6518857318811873"><ele>27.0</ele><time>2026-05-01T17:25:09Z</time></trkpt><trkpt lat="43.35609558680181" lon="-2.651847654684675"><ele>28.25</ele><time>2026-05-01T17:25:10Z</time></trkpt><trkpt lat="43.35594150671317" lon="-2.6518428735468125"><ele>29.5</ele><time>2026-05-01T17:25:11Z</time></trkpt><trkpt lat="43.35577893591371" lon="-2.6518776806825053"><ele>30.75</ele><time>2026-05-01T17:25:12Z</time></trkpt><trkpt lat="43.35564944072741" lon="-2.6519030035764826"><ele>32.0</ele><time>2026-05-01T17:25:13Z</time></trkpt><trkpt lat="43.351691584503186" lon="-2.651209380764153"><ele>31.8</ele><time>2026-05-01T17:26:14Z</time></trkpt><trkpt lat="43.35158569744635" lon="-2.6512371465391396"><ele>31.6</ele><time>2026-05-01T17:26:15Z</time></trkpt><trkpt lat="43.3514790068621" lon="-2.6512639245499887"><ele>31.400000000000002</ele><time>2026-05-01T17:26:16Z</time></trkpt><trkpt lat="43.35136883329792" lon="-2.651316172792291"><ele>31.200000000000003</ele><time>2026-05-01T17:26:17Z</time></trkpt><trkpt lat="43.351261989713635" lon="-2.651352450767803"><ele>31.0</ele><time>2026-05-01T17:26:18Z</time></trkpt><trkpt lat="43.35115734226303" lon="-2.651365971571968"><ele>31.0</ele><time>2026-05-01T17:26:19Z</time></trkpt><trkpt lat="43.35107783380197" lon="-2.6513839998094753"><ele>31.0</ele><time>2026-05-01T17:26:20Z</time></trkpt><trkpt lat="43.350996449848935" lon="-2.6514092534354385"><ele>31.0</ele><time>2026-05-01T17:26:21Z</time></trkpt><trkpt lat="43.350916940832526" lon="-2.651454292073849"><ele>31.0</ele><time>2026-05-01T17:26:22Z</time></trkpt><trkpt lat="43.35082386026201" lon="-2.6514752438891764"><ele>31.0</ele><time>2026-05-01T17:26:23Z</time></trkpt><trkpt lat="43.35071309243065" lon="-2.651493267296896"><ele>31.0</ele><time>2026-05-01T17:26:24Z</time></trkpt><trkpt lat="43.35059845801991" lon="-2.651538859461175"><ele>31.0</ele><time>2026-05-01T17:26:25Z</time></trkpt><trkpt lat="43.350485776564" lon="-2.6515809934363106"><ele>31.0</ele><time>2026-05-01T17:26:26Z</time></trkpt><trkpt lat="43.350375694497956" lon="-2.651608988486844"><ele>31.0</ele><time>2026-05-01T17:26:27Z</time></trkpt><trkpt lat="43.350265286012295" lon="-2.6516703943975144"><ele>30.200000000000003</ele><time>2026-05-01T17:26:28Z</time></trkpt><trkpt lat="43.35016300559323" lon="-2.6517012609807216"><ele>29.400000000000002</ele><time>2026-05-01T17:26:29Z</time></trkpt><trkpt lat="43.350063130723726" lon="-2.6517215332017434"><ele>28.6</ele><time>2026-05-01T17:26:30Z</time></trkpt><trkpt lat="43.34996377779969" lon="-2.651752966769202"><ele>27.8</ele><time>2026-05-01T17:26:31Z</time></trkpt><trkpt lat="43.349860549625575" lon="-2.6517751262851124"><ele>27.0</ele><time>2026-05-01T17:26:32Z</time></trkpt><trkpt lat="43.349750716695944" lon="-2.6518150058780825"><ele>25.75</ele><time>2026-05-01T17:26:33Z</time></trkpt><trkpt lat="43.34963661035408" lon="-2.6518511990632208"><ele>24.5</ele><time>2026-05-01T17:26:34Z</time></trkpt><trkpt lat="43.34951561383813" lon="-2.6518883904495234"><ele>23.25</ele><time>2026-05-01T17:26:35Z</time></trkpt><trkpt lat="43.34938015664415" lon="-2.6519434142020017"><ele>22.0</ele><time>2026-05-01T17:26:36Z</time></trkpt><trkpt lat="43.34924835141522" lon="-2.651985515881908"><ele>22.0</ele><time>2026-05-01T17:26:37Z</time></trkpt><trkpt lat="43.34913020074038" lon="-2.6520028822116655"><ele>22.0</ele><time>2026-05-01T17:26:38Z</time></trkpt><trkpt lat="43.34901083232408" lon="-2.652054492815419"><ele>22.0</ele><time>2026-05-01T17:26:39Z</time></trkpt><trkpt lat="43.34889548416077" lon="-2.6520935758575273"><ele>22.0</ele><time>2026-05-01T17:26:40Z</time></trkpt><trkpt lat="43.3487909811676" lon="-2.6521349794829585"><ele>21.8</ele><time>2026-05-01T17:26:41Z</time></trkpt><trkpt lat="43.34868558892851" lon="-2.6521664692448845"><ele>21.6</ele><time>2026-05-01T17:26:42Z</time></trkpt><trkpt lat="43.34857589905101" lon="-2.652197159297816"><ele>21.400000000000002</ele><time>2026-05-01T17:26:43Z</time></trkpt><trkpt lat="43.348474001528075" lon="-2.652237755073219"><ele>21.200000000000003</ele><time>2026-05-01T17:26:44Z</time></trkpt><trkpt lat="43.3483790575406" lon="-2.6522604667505303"><ele>21.0</ele><time>2026-05-01T17:26:45Z</time></trkpt><trkpt lat="43.34829162262281" lon="-2.652282111403841"><ele>21.0</ele><time>2026-05-01T17:26:46Z</time></trkpt><trkpt lat="43.34819692673966" lon="-2.6523079095034734"><ele>21.0</ele><time>2026-05-01T17:26:47Z</time></trkpt><trkpt lat="43.34810798164619" lon="-2.652386106420998"><ele>21.0</ele><time>2026-05-01T17:26:48Z</time></trkpt><trkpt lat="43.34798407273153" lon="-2.6524229626710225"><ele>21.0</ele><time>2026-05-01T17:26:49Z</time></trkpt><trkpt lat="43.34788053109647" lon="-2.6524584159247655"><ele>21.0</ele><time>2026-05-01T17:26:50Z</time></trkpt><trkpt lat="43.347782996011716" lon="-2.6525007236254674"><ele>20.0</ele><time>2026-05-01T17:26:51Z</time></trkpt><trkpt lat="43.34769110459533" lon="-2.652534429990132"><ele>19.0</ele><time>2026-05-01T17:26:52Z</time></trkpt><trkpt lat="43.34757532375206" lon="-2.6525589704005643"><ele>18.0</ele><time>2026-05-01T17:26:53Z</time></trkpt><trkpt lat="43.34745945199374" lon="-2.652597179881913"><ele>17.0</ele><time>2026-05-01T17:26:54Z</time></trkpt><trkpt lat="43.34733796770385" lon="-2.6526362804093417"><ele>17.0</ele><time>2026-05-01T17:26:55Z</time></trkpt><trkpt lat="43.347227984105956" lon="-2.6526833427761365"><ele>17.0</ele><time>2026-05-01T17:26:56Z</time></trkpt><trkpt lat="43.34712380491906" lon="-2.6527009398069668"><ele>17.0</ele><time>2026-05-01T17:26:57Z</time></trkpt><trkpt lat="43.34703024187436" lon="-2.6527243559164155"><ele>17.0</ele><time>2026-05-01T17:26:58Z</time></trkpt><trkpt lat="43.34693658240676" lon="-2.652751201160189"><ele>17.0</ele><time>2026-05-01T17:26:59Z</time></trkpt><trkpt lat="43.34683767569042" lon="-2.652786810117032"><ele>16.0</ele><time>2026-05-01T17:27:00Z</time></trkpt><trkpt lat="43.34674820897121" lon="-2.6528019184529357"><ele>15.0</ele><time>2026-05-01T17:27:01Z</time></trkpt><trkpt lat="43.34664852977575" lon="-2.652833873459279"><ele>14.0</ele><time>2026-05-01T17:27:02Z</time></trkpt><trkpt lat="43.346550476072295" lon="-2.65287335272094"><ele>13.0</ele><time>2026-05-01T17:27:03Z</time></trkpt><trkpt lat="43.34646486133954" lon="-2.6528980146913277"><ele>12.0</ele><time>2026-05-01T17:27:04Z</time></trkpt><trkpt lat="43.34636758963327" lon="-2.652948822517817"><ele>11.4</ele><time>2026-05-01T17:27:05Z</time></trkpt><trkpt lat="43.346262899510094" lon="-2.6530008005767156"><ele>10.799999999999999</ele><time>2026-05-01T17:27:06Z</time></trkpt><trkpt lat="43.3461612439913" lon="-2.6530689237575027"><ele>10.2</ele><time>2026-05-01T17:27:07Z</time></trkpt><trkpt lat="43.34608316311771" lon="-2.6531742013472317"><ele>9.6</ele><time>2026-05-01T17:27:08Z</time></trkpt><trkpt lat="43.346030599175194" lon="-2.6532520355872435"><ele>9.0</ele><time>2026-05-01T17:27:09Z</time></trkpt><trkpt lat="43.345910430968715" lon="-2.6533011320643367"><ele>9.0</ele><time>2026-05-01T17:27:11Z</time></trkpt><trkpt lat="43.34583182382221" lon="-2.6532553186426227"><ele>9.0</ele><time>2026-05-01T17:27:12Z</time></trkpt><trkpt lat="43.34575896515741" lon="-2.6532218679660193"><ele>9.0</ele><time>2026-05-01T17:27:13Z</time></trkpt><trkpt lat="43.33772002521654" lon="-2.6552872046130926"><ele>9.0</ele><time>2026-05-01T17:28:14Z</time></trkpt><trkpt lat="43.33758990087242" lon="-2.6552506953500585"><ele>9.0</ele><time>2026-05-01T17:28:15Z</time></trkpt><trkpt lat="43.3374508759634" lon="-2.655218003269214"><ele>9.0</ele><time>2026-05-01T17:28:16Z</time></trkpt><trkpt lat="43.33730862830606" lon="-2.6551808105275394"><ele>9.0</ele><time>2026-05-01T17:28:17Z</time></trkpt><trkpt lat="43.33716995726352" lon="-2.6551637000097124"><ele>12.666666666666668</ele><time>2026-05-01T17:28:18Z</time></trkpt><trkpt lat="43.337025504095166" lon="-2.655133416847031"><ele>16.333333333333336</ele><time>2026-05-01T17:28:19Z</time></trkpt><trkpt lat="43.336877644376884" lon="-2.6550719817061825"><ele>20.0</ele><time>2026-05-01T17:28:20Z</time></trkpt><trkpt lat="43.33672902882937" lon="-2.6549919419516543"><ele>20.0</ele><time>2026-05-01T17:28:21Z</time></trkpt><trkpt lat="43.33657838425655" lon="-2.6549296701877987"><ele>20.0</ele><time>2026-05-01T17:28:22Z</time></trkpt><trkpt lat="43.336435721996615" lon="-2.6548741335698556"><ele>20.0</ele><time>2026-05-01T17:28:23Z</time></trkpt><trkpt lat="43.33629868486307" lon="-2.6548041262548687"><ele>24.333333333333336</ele><time>2026-05-01T17:28:24Z</time></trkpt><trkpt lat="43.33615258951315" lon="-2.6547356799892703"><ele>28.666666666666668</ele><time>2026-05-01T17:28:25Z</time></trkpt><trkpt lat="43.336006327601865" lon="-2.654681358138214"><ele>33.0</ele><time>2026-05-01T17:28:26Z</time></trkpt><trkpt lat="43.33585444556162" lon="-2.654650755193523"><ele>33.0</ele><time>2026-05-01T17:28:27Z</time></trkpt><trkpt lat="43.335696456734524" lon="-2.6546519410403002"><ele>33.0</ele><time>2026-05-01T17:28:28Z</time></trkpt><trkpt lat="43.33555289404536" lon="-2.654668986580742"><ele>33.0</ele><time>2026-05-01T17:28:29Z</time></trkpt><trkpt lat="43.33541798972515" lon="-2.654708912841275"><ele>33.0</ele><time>2026-05-01T17:28:30Z</time></trkpt><trkpt lat="43.33527863783254" lon="-2.6547745779399117"><ele>33.25</ele><time>2026-05-01T17:28:31Z</time></trkpt><trkpt lat="43.335152474042715" lon="-2.654866411691916"><ele>33.5</ele><time>2026-05-01T17:28:32Z</time></trkpt><trkpt lat="43.33503517957325" lon="-2.6549619817706427"><ele>33.75</ele><time>2026-05-01T17:28:33Z</time></trkpt><trkpt lat="43.33493547002042" lon="-2.6551028604162252"><ele>34.0</ele><time>2026-05-01T17:28:34Z</time></trkpt><trkpt lat="43.33482585973567" lon="-2.6552423926070707"><ele>34.75</ele><time>2026-05-01T17:28:35Z</time></trkpt><trkpt lat="43.334716016154054" lon="-2.655386040816721"><ele>35.5</ele><time>2026-05-01T17:28:36Z</time></trkpt><trkpt lat="43.33460850114406" lon="-2.655527102230281"><ele>36.25</ele><time>2026-05-01T17:28:37Z</time></trkpt><trkpt lat="43.33450322326703" lon="-2.6556652285347666"><ele>37.0</ele><time>2026-05-01T17:28:38Z</time></trkpt><trkpt lat="43.33439783342023" lon="-2.655789076419298"><ele>37.0</ele><time>2026-05-01T17:28:39Z</time></trkpt><trkpt lat="43.33429868478956" lon="-2.655915301800562"><ele>37.0</ele><time>2026-05-01T17:28:40Z</time></trkpt><trkpt lat="43.33420293957409" lon="-2.656059205723566"><ele>37.0</ele><time>2026-05-01T17:28:41Z</time></trkpt><trkpt lat="43.33408296630786" lon="-2.6561912430674264"><ele>37.0</ele><time>2026-05-01T17:28:42Z</time></trkpt><trkpt lat="43.33398909039376" lon="-2.656326182176298"><ele>39.25</ele><time>2026-05-01T17:28:43Z</time></trkpt><trkpt lat="43.33387697068071" lon="-2.6564371274074703"><ele>41.5</ele><time>2026-05-01T17:28:44Z</time></trkpt><trkpt lat="43.333749965255805" lon="-2.6565321670196225"><ele>43.75</ele><time>2026-05-01T17:28:45Z</time></trkpt><trkpt lat="43.33362029051094" lon="-2.6566208633780533"><ele>46.0</ele><time>2026-05-01T17:28:46Z</time></trkpt><trkpt lat="43.33347578070866" lon="-2.656688280961304"><ele>46.0</ele><time>2026-05-01T17:28:47Z</time></trkpt><trkpt lat="43.333328799935884" lon="-2.6567354062712125"><ele>46.0</ele><time>2026-05-01T17:28:48Z</time></trkpt><trkpt lat="43.3332057400399" lon="-2.6567993820758176"><ele>46.0</ele><time>2026-05-01T17:28:49Z</time></trkpt><trkpt lat="43.33308904660262" lon="-2.6568292395925477"><ele>46.0</ele><time>2026-05-01T17:28:50Z</time></trkpt><trkpt lat="43.33298706526547" lon="-2.6568703494237975"><ele>47.25</ele><time>2026-05-01T17:28:51Z</time></trkpt><trkpt lat="43.332870514387764" lon="-2.656927080480606"><ele>48.5</ele><time>2026-05-01T17:28:52Z</time></trkpt><trkpt lat="43.33275791712269" lon="-2.656984426927456"><ele>49.75</ele><time>2026-05-01T17:28:53Z</time></trkpt><trkpt lat="43.3326526679024" lon="-2.6570507689382756"><ele>51.0</ele><time>2026-05-01T17:28:54Z</time></trkpt><trkpt lat="43.33255693678753" lon="-2.6571447675469937"><ele>51.25</ele><time>2026-05-01T17:28:55Z</time></trkpt><trkpt lat="43.332459400447085" lon="-2.6572277401566833"><ele>51.5</ele><time>2026-05-01T17:28:56Z</time></trkpt><trkpt lat="43.33235291438266" lon="-2.6573243991694624"><ele>51.75</ele><time>2026-05-01T17:28:57Z</time></trkpt><trkpt lat="43.33223859816504" lon="-2.657428165764183"><ele>52.0</ele><time>2026-05-01T17:28:58Z</time></trkpt><trkpt lat="43.332091924576055" lon="-2.657535629797676"><ele>50.33333333333333</ele><time>2026-05-01T17:28:59Z</time></trkpt><trkpt lat="43.33195587147576" lon="-2.657662462608031"><ele>48.666666666666664</ele><time>2026-05-01T17:29:00Z</time></trkpt><trkpt lat="43.33181795047642" lon="-2.6578042062576657"><ele>47.0</ele><time>2026-05-01T17:29:01Z</time></trkpt><trkpt lat="43.331674115348186" lon="-2.657923653211835"><ele>45.33333333333333</ele><time>2026-05-01T17:29:02Z</time></trkpt><trkpt lat="43.331547632074596" lon="-2.658067014989917"><ele>43.666666666666664</ele><time>2026-05-01T17:29:03Z</time></trkpt><trkpt lat="43.33141892230465" lon="-2.6581871741477805"><ele>42.0</ele><time>2026-05-01T17:29:04Z</time></trkpt><trkpt lat="43.331280782087156" lon="-2.6583148716834972"><ele>42.0</ele><time>2026-05-01T17:29:05Z</time></trkpt><trkpt lat="43.33114234198875" lon="-2.6584200539561738"><ele>42.0</ele><time>2026-05-01T17:29:06Z</time></trkpt><trkpt lat="43.331006842133135" lon="-2.6585508821914234"><ele>42.0</ele><time>2026-05-01T17:29:07Z</time></trkpt><trkpt lat="43.33085613912286" lon="-2.6587036814029434"><ele>41.333333333333336</ele><time>2026-05-01T17:29:08Z</time></trkpt><trkpt lat="43.3306965655459" lon="-2.658850976295"><ele>40.66666666666667</ele><time>2026-05-01T17:29:09Z</time></trkpt><trkpt lat="43.33054092435556" lon="-2.658992375253628"><ele>40.0</ele><time>2026-05-01T17:29:10Z</time></trkpt><trkpt lat="43.330379172631616" lon="-2.6591473971807744"><ele>40.0</ele><time>2026-05-01T17:29:11Z</time></trkpt><trkpt lat="43.33021292921785" lon="-2.659306128615546"><ele>40.0</ele><time>2026-05-01T17:29:12Z</time></trkpt><trkpt lat="43.330042771185944" lon="-2.6594583905958107"><ele>40.0</ele><time>2026-05-01T17:29:13Z</time></trkpt><trkpt lat="43.32365792506137" lon="-2.668229441311696"><ele>31.25</ele><time>2026-05-01T17:30:14Z</time></trkpt><trkpt lat="43.32354328491307" lon="-2.6683294388018477"><ele>22.5</ele><time>2026-05-01T17:30:15Z</time></trkpt><trkpt lat="43.323434166244105" lon="-2.6684214029276223"><ele>13.75</ele><time>2026-05-01T17:30:16Z</time></trkpt><trkpt lat="43.32332268289782" lon="-2.668508307289839"><ele>5.0</ele><time>2026-05-01T17:30:17Z</time></trkpt><trkpt lat="43.323222832466016" lon="-2.668585108041971"><ele>4.5</ele><time>2026-05-01T17:30:18Z</time></trkpt><trkpt lat="43.32311188241493" lon="-2.6686575391194682"><ele>4.0</ele><time>2026-05-01T17:30:19Z</time></trkpt><trkpt lat="43.32298735110352" lon="-2.6687580883279356"><ele>3.5</ele><time>2026-05-01T17:30:20Z</time></trkpt><trkpt lat="43.32287053887794" lon="-2.6688806361363353"><ele>3.0</ele><time>2026-05-01T17:30:21Z</time></trkpt><trkpt lat="43.322731649532486" lon="-2.6690155537571507"><ele>3.0</ele><time>2026-05-01T17:30:22Z</time></trkpt><trkpt lat="43.32261659395024" lon="-2.6692022579364223"><ele>3.0</ele><time>2026-05-01T17:30:23Z</time></trkpt><trkpt lat="43.32248990777006" lon="-2.6693701613333536"><ele>3.0</ele><time>2026-05-01T17:30:24Z</time></trkpt><trkpt lat="43.32234532106315" lon="-2.6695480389497153"><ele>3.333333333333333</ele><time>2026-05-01T17:30:25Z</time></trkpt><trkpt lat="43.32220548359402" lon="-2.669698551639492"><ele>3.6666666666666665</ele><time>2026-05-01T17:30:26Z</time></trkpt><trkpt lat="43.322065500750966" lon="-2.6698404988899536"><ele>4.0</ele><time>2026-05-01T17:30:27Z</time></trkpt><trkpt lat="43.32192428863376" lon="-2.6699813284907123"><ele>4.0</ele><time>2026-05-01T17:30:28Z</time></trkpt><trkpt lat="43.32180033287411" lon="-2.670130445996172"><ele>4.0</ele><time>2026-05-01T17:30:29Z</time></trkpt><trkpt lat="43.32166431108109" lon="-2.670262371575256"><ele>4.0</ele><time>2026-05-01T17:30:30Z</time></trkpt><trkpt lat="43.32152119356152" lon="-2.6704018513769507"><ele>4.333333333333333</ele><time>2026-05-01T17:30:31Z</time></trkpt><trkpt lat="43.32137137762937" lon="-2.6705384360586506"><ele>4.666666666666667</ele><time>2026-05-01T17:30:32Z</time></trkpt><trkpt lat="43.32123194448905" lon="-2.6706825041218285"><ele>5.0</ele><time>2026-05-01T17:30:33Z</time></trkpt><trkpt lat="43.32109230659994" lon="-2.6708106445173034"><ele>5.0</ele><time>2026-05-01T17:30:34Z</time></trkpt><trkpt lat="43.32095151840968" lon="-2.6709531643719813"><ele>5.0</ele><time>2026-05-01T17:30:35Z</time></trkpt><trkpt lat="43.3208256151999" lon="-2.671089730653872"><ele>5.0</ele><time>2026-05-01T17:30:36Z</time></trkpt><trkpt lat="43.32070159151828" lon="-2.671234682473143"><ele>5.0</ele><time>2026-05-01T17:30:37Z</time></trkpt><trkpt lat="43.32057693336785" lon="-2.6713775369159745"><ele>5.0</ele><time>2026-05-01T17:30:38Z</time></trkpt><trkpt lat="43.32045039306297" lon="-2.6715250421858756"><ele>5.0</ele><time>2026-05-01T17:30:39Z</time></trkpt><trkpt lat="43.320339035073395" lon="-2.67168475437828"><ele>5.0</ele><time>2026-05-01T17:30:40Z</time></trkpt><trkpt lat="43.32024752766853" lon="-2.671861958908128"><ele>5.0</ele><time>2026-05-01T17:30:41Z</time></trkpt><trkpt lat="43.320173465173646" lon="-2.6720312880097574"><ele>5.0</ele><time>2026-05-01T17:30:42Z</time></trkpt><trkpt lat="43.320108203387086" lon="-2.6721984013742013"><ele>5.0</ele><time>2026-05-01T17:30:43Z</time></trkpt><trkpt lat="43.32005983162361" lon="-2.6723677160489565"><ele>4.25</ele><time>2026-05-01T17:30:44Z</time></trkpt><trkpt lat="43.32001814662793" lon="-2.6725441963393544"><ele>3.5</ele><time>2026-05-01T17:30:45Z</time></trkpt><trkpt lat="43.31997519262559" lon="-2.672737711570278"><ele>2.75</ele><time>2026-05-01T17:30:46Z</time></trkpt><trkpt lat="43.319932203018595" lon="-2.672942772914814"><ele>2.0</ele><time>2026-05-01T17:30:47Z</time></trkpt><trkpt lat="43.31988867715372" lon="-2.673163924815942"><ele>2.0</ele><time>2026-05-01T17:30:48Z</time></trkpt><trkpt lat="43.31986125714273" lon="-2.673401640487518"><ele>2.0</ele><time>2026-05-01T17:30:49Z</time></trkpt><trkpt lat="43.31984628810437" lon="-2.673655922347436"><ele>2.0</ele><time>2026-05-01T17:30:50Z</time></trkpt><trkpt lat="43.31983774665079" lon="-2.6739132096297333"><ele>2.0</ele><time>2026-05-01T17:30:51Z</time></trkpt><trkpt lat="43.319849160888424" lon="-2.6741794279056994"><ele>2.0</ele><time>2026-05-01T17:30:52Z</time></trkpt><trkpt lat="43.31986392932014" lon="-2.6744461242448985"><ele>2.0</ele><time>2026-05-01T17:30:53Z</time></trkpt><trkpt lat="43.31989313193414" lon="-2.674711357049742"><ele>2.333333333333333</ele><time>2026-05-01T17:30:54Z</time></trkpt><trkpt lat="43.31992854447157" lon="-2.674982590136657"><ele>2.6666666666666665</ele><time>2026-05-01T17:30:55Z</time></trkpt><trkpt lat="43.31997843535131" lon="-2.675264716412806"><ele>3.0</ele><time>2026-05-01T17:30:56Z</time></trkpt><trkpt lat="43.3200397161671" lon="-2.6755433669895448"><ele>2.3333333333333335</ele><time>2026-05-01T17:30:57Z</time></trkpt><trkpt lat="43.32010410416347" lon="-2.6758205406080107"><ele>1.6666666666666665</ele><time>2026-05-01T17:30:58Z</time></trkpt><trkpt lat="43.320168742657835" lon="-2.6761014077384093"><ele>1.0</ele><time>2026-05-01T17:30:59Z</time></trkpt><trkpt lat="43.320229795003534" lon="-2.6763827171140466"><ele>1.0</ele><time>2026-05-01T17:31:00Z</time></trkpt><trkpt lat="43.32029186171108" lon="-2.6766397555089663"><ele>1.0</ele><time>2026-05-01T17:31:01Z</time></trkpt><trkpt lat="43.32034769669208" lon="-2.6768760782158734"><ele>1.0</ele><time>2026-05-01T17:31:02Z</time></trkpt><trkpt lat="43.32039884573838" lon="-2.6770865620141566"><ele>1.6666666666666665</ele><time>2026-05-01T17:31:03Z</time></trkpt><trkpt lat="43.320449505398294" lon="-2.677281812830908"><ele>2.3333333333333335</ele><time>2026-05-01T17:31:04Z</time></trkpt><trkpt lat="43.32050194193185" lon="-2.67747269667862"><ele>3.0</ele><time>2026-05-01T17:31:05Z</time></trkpt><trkpt lat="43.3205793430782" lon="-2.677667111182793"><ele>3.5</ele><time>2026-05-01T17:31:06Z</time></trkpt><trkpt lat="43.32067201324683" lon="-2.677848159272293"><ele>4.0</ele><time>2026-05-01T17:31:07Z</time></trkpt><trkpt lat="43.320763097745875" lon="-2.6780066943569123"><ele>4.5</ele><time>2026-05-01T17:31:08Z</time></trkpt><trkpt lat="43.32084385596243" lon="-2.678136030129035"><ele>5.0</ele><time>2026-05-01T17:31:09Z</time></trkpt><trkpt lat="43.32094150821868" lon="-2.6782468642232584"><ele>5.0</ele><time>2026-05-01T17:31:10Z</time></trkpt><trkpt lat="43.32106938426582" lon="-2.6783300729396995"><ele>5.0</ele><time>2026-05-01T17:31:11Z</time></trkpt><trkpt lat="43.32121571949601" lon="-2.6783663680425445"><ele>5.0</ele><time>2026-05-01T17:31:12Z</time></trkpt><trkpt lat="43.32137156122874" lon="-2.678354972785794"><ele>5.0</ele><time>2026-05-01T17:31:13Z</time></trkpt><trkpt lat="43.33321371636342" lon="-2.6767826083223283"><ele>7.0</ele><time>2026-05-01T17:32:14Z</time></trkpt><trkpt lat="43.333398680368774" lon="-2.676756339211081"><ele>9.0</ele><time>2026-05-01T17:32:15Z</time></trkpt><trkpt lat="43.3335884051231" lon="-2.67673853041923"><ele>11.0</ele><time>2026-05-01T17:32:16Z</time></trkpt><trkpt lat="43.33375852605842" lon="-2.676711620418131"><ele>12.5</ele><time>2026-05-01T17:32:17Z</time></trkpt><trkpt lat="43.33391921245512" lon="-2.6766908678562458"><ele>14.0</ele><time>2026-05-01T17:32:18Z</time></trkpt><trkpt lat="43.334043205067864" lon="-2.676670008898163"><ele>15.5</ele><time>2026-05-01T17:32:19Z</time></trkpt><trkpt lat="43.334150258034505" lon="-2.676644499321934"><ele>17.0</ele><time>2026-05-01T17:32:20Z</time></trkpt><trkpt lat="43.33423578146666" lon="-2.676623745780503"><ele>17.0</ele><time>2026-05-01T17:32:21Z</time></trkpt><trkpt lat="43.33430487878199" lon="-2.6766129610601745"><ele>17.0</ele><time>2026-05-01T17:32:22Z</time></trkpt><trkpt lat="43.33439936152853" lon="-2.676592621271371"><ele>17.0</ele><time>2026-05-01T17:32:24Z</time></trkpt><trkpt lat="43.33448838966092" lon="-2.6765546240506164"><ele>17.0</ele><time>2026-05-01T17:32:48Z</time></trkpt><trkpt lat="43.33459675262632" lon="-2.676538549843299"><ele>17.0</ele><time>2026-05-01T17:32:49Z</time></trkpt><trkpt lat="43.334752868959065" lon="-2.676502163793604"><ele>20.0</ele><time>2026-05-01T17:32:50Z</time></trkpt><trkpt lat="43.33491968134731" lon="-2.676475503370515"><ele>23.0</ele><time>2026-05-01T17:32:51Z</time></trkpt><trkpt lat="43.33511293200455" lon="-2.676457834489709"><ele>26.0</ele><time>2026-05-01T17:32:52Z</time></trkpt><trkpt lat="43.33530937088904" lon="-2.67645519953043"><ele>26.0</ele><time>2026-05-01T17:32:53Z</time></trkpt><trkpt lat="43.33552363416708" lon="-2.676426705065116"><ele>26.0</ele><time>2026-05-01T17:32:54Z</time></trkpt><trkpt lat="43.33577892776127" lon="-2.6763967977985015"><ele>29.0</ele><time>2026-05-01T17:32:55Z</time></trkpt><trkpt lat="43.33603140063476" lon="-2.676369620699442"><ele>32.0</ele><time>2026-05-01T17:32:56Z</time></trkpt><trkpt lat="43.336279324240635" lon="-2.6763133347221575"><ele>34.0</ele><time>2026-05-01T17:32:57Z</time></trkpt><trkpt lat="43.33653168808279" lon="-2.676281890421433"><ele>36.0</ele><time>2026-05-01T17:32:58Z</time></trkpt><trkpt lat="43.336747265656406" lon="-2.67624849404057"><ele>36.0</ele><time>2026-05-01T17:32:59Z</time></trkpt><trkpt lat="43.336955440669016" lon="-2.6762237310094177"><ele>36.0</ele><time>2026-05-01T17:33:00Z</time></trkpt><trkpt lat="43.33712642096386" lon="-2.6762099881140333"><ele>36.0</ele><time>2026-05-01T17:33:01Z</time></trkpt><trkpt lat="43.33728232388591" lon="-2.6761934953626847"><ele>37.333333333333336</ele><time>2026-05-01T17:33:02Z</time></trkpt><trkpt lat="43.337439839434104" lon="-2.6761715258145937"><ele>38.66666666666667</ele><time>2026-05-01T17:33:03Z</time></trkpt><trkpt lat="43.3376000816971" lon="-2.6761519403299108"><ele>40.0</ele><time>2026-05-01T17:33:04Z</time></trkpt><trkpt lat="43.33778903792466" lon="-2.6762005472679373"><ele>40.0</ele><time>2026-05-01T17:33:05Z</time></trkpt><trkpt lat="43.33800229161078" lon="-2.6762843509196483"><ele>40.0</ele><time>2026-05-01T17:33:06Z</time></trkpt><trkpt lat="43.33823979867677" lon="-2.6763833170760645"><ele>37.0</ele><time>2026-05-01T17:33:07Z</time></trkpt><trkpt lat="43.33848169979826" lon="-2.67648205804213"><ele>34.0</ele><time>2026-05-01T17:33:08Z</time></trkpt><trkpt lat="43.33872799773531" lon="-2.676583621889241"><ele>29.5</ele><time>2026-05-01T17:33:09Z</time></trkpt><trkpt lat="43.33897587135108" lon="-2.676669821832992"><ele>25.0</ele><time>2026-05-01T17:33:10Z</time></trkpt><trkpt lat="43.339220842452484" lon="-2.6767746345311636"><ele>25.0</ele><time>2026-05-01T17:33:11Z</time></trkpt><trkpt lat="43.339453145417515" lon="-2.6768771635607314"><ele>25.0</ele><time>2026-05-01T17:33:12Z</time></trkpt><trkpt lat="43.33969087326048" lon="-2.6769815175694114"><ele>32.0</ele><time>2026-05-01T17:33:13Z</time></trkpt><trkpt lat="43.35205090259641" lon="-2.68310828334486"><ele>32.0</ele><time>2026-05-01T17:34:14Z</time></trkpt><trkpt lat="43.3521918757775" lon="-2.6832157657142788"><ele>32.0</ele><time>2026-05-01T17:34:15Z</time></trkpt><trkpt lat="43.352325507859696" lon="-2.6833172106806065"><ele>32.0</ele><time>2026-05-01T17:34:16Z</time></trkpt><trkpt lat="43.35246597835413" lon="-2.6834281287682584"><ele>30.666666666666664</ele><time>2026-05-01T17:34:17Z</time></trkpt><trkpt lat="43.3526054514496" lon="-2.683546888338414"><ele>29.333333333333336</ele><time>2026-05-01T17:34:18Z</time></trkpt><trkpt lat="43.35273721422016" lon="-2.6836658122706862"><ele>28.0</ele><time>2026-05-01T17:34:19Z</time></trkpt><trkpt lat="43.35286609494222" lon="-2.683779446959266"><ele>28.0</ele><time>2026-05-01T17:34:20Z</time></trkpt><trkpt lat="43.35300298883333" lon="-2.6838981313982595"><ele>28.0</ele><time>2026-05-01T17:34:21Z</time></trkpt><trkpt lat="43.353137759990815" lon="-2.6840185959464895"><ele>28.0</ele><time>2026-05-01T17:34:22Z</time></trkpt><trkpt lat="43.35326844825393" lon="-2.6841405054346317"><ele>28.0</ele><time>2026-05-01T17:34:23Z</time></trkpt><trkpt lat="43.3533970182892" lon="-2.684266571063118"><ele>28.0</ele><time>2026-05-01T17:34:24Z</time></trkpt><trkpt lat="43.35352889875306" lon="-2.6843892076954776"><ele>28.0</ele><time>2026-05-01T17:34:25Z</time></trkpt><trkpt lat="43.353658513936146" lon="-2.6844927127600444"><ele>29.25</ele><time>2026-05-01T17:34:26Z</time></trkpt><trkpt lat="43.353780291541675" lon="-2.684591774567993"><ele>30.5</ele><time>2026-05-01T17:34:27Z</time></trkpt><trkpt lat="43.35389597309369" lon="-2.684692296160644"><ele>31.75</ele><time>2026-05-01T17:34:28Z</time></trkpt><trkpt lat="43.35401163547776" lon="-2.684791162909597"><ele>33.0</ele><time>2026-05-01T17:34:29Z</time></trkpt><trkpt lat="43.35411106443215" lon="-2.6848878844136235"><ele>34.0</ele><time>2026-05-01T17:34:30Z</time></trkpt><trkpt lat="43.3541853035886" lon="-2.6849687891330807"><ele>35.0</ele><time>2026-05-01T17:34:31Z</time></trkpt><trkpt lat="43.35426774292354" lon="-2.685050029462755"><ele>36.0</ele><time>2026-05-01T17:34:32Z</time></trkpt><trkpt lat="43.35436126393386" lon="-2.6851439653869167"><ele>37.0</ele><time>2026-05-01T17:34:33Z</time></trkpt><trkpt lat="43.3544717222992" lon="-2.6852408413259967"><ele>38.0</ele><time>2026-05-01T17:34:34Z</time></trkpt><trkpt lat="43.35457392961456" lon="-2.6853382348150876"><ele>38.25</ele><time>2026-05-01T17:34:35Z</time></trkpt><trkpt lat="43.35466821943768" lon="-2.6854269596151465"><ele>38.5</ele><time>2026-05-01T17:34:36Z</time></trkpt><trkpt lat="43.354755553623065" lon="-2.6855220915937537"><ele>38.75</ele><time>2026-05-01T17:34:37Z</time></trkpt><trkpt lat="43.354857321778056" lon="-2.6856142740718685"><ele>39.0</ele><time>2026-05-01T17:34:38Z</time></trkpt><trkpt lat="43.354964774342804" lon="-2.6857056704505826"><ele>39.0</ele><time>2026-05-01T17:34:39Z</time></trkpt><trkpt lat="43.35506971225168" lon="-2.685804774319333"><ele>39.0</ele><time>2026-05-01T17:34:40Z</time></trkpt><trkpt lat="43.35517593180572" lon="-2.6859073331704835"><ele>39.0</ele><time>2026-05-01T17:34:41Z</time></trkpt><trkpt lat="43.35530106665021" lon="-2.6860000990972788"><ele>39.0</ele><time>2026-05-01T17:34:42Z</time></trkpt><trkpt lat="43.355439146683324" lon="-2.6860825183449597"><ele>38.25</ele><time>2026-05-01T17:34:43Z</time></trkpt><trkpt lat="43.35556826253238" lon="-2.6861546368565796"><ele>37.5</ele><time>2026-05-01T17:34:44Z</time></trkpt><trkpt lat="43.35571334230713" lon="-2.686218467114881"><ele>36.75</ele><time>2026-05-01T17:34:45Z</time></trkpt><trkpt lat="43.3558522180332" lon="-2.6862750240374837"><ele>36.0</ele><time>2026-05-01T17:34:46Z</time></trkpt><trkpt lat="43.35600542716649" lon="-2.686342166855358"><ele>36.0</ele><time>2026-05-01T17:34:47Z</time></trkpt><trkpt lat="43.35616646950144" lon="-2.6864322240416674"><ele>36.0</ele><time>2026-05-01T17:34:48Z</time></trkpt><trkpt lat="43.35633196173769" lon="-2.686513191581141"><ele>36.0</ele><time>2026-05-01T17:34:49Z</time></trkpt><trkpt lat="43.35651465776349" lon="-2.6865766818060894"><ele>38.0</ele><time>2026-05-01T17:34:50Z</time></trkpt><trkpt lat="43.3566878047152" lon="-2.68666398076859"><ele>40.0</ele><time>2026-05-01T17:34:51Z</time></trkpt><trkpt lat="43.356862152284094" lon="-2.686748103552251"><ele>42.0</ele><time>2026-05-01T17:34:52Z</time></trkpt><trkpt lat="43.35702180635283" lon="-2.6868243113491417"><ele>42.0</ele><time>2026-05-01T17:34:53Z</time></trkpt><trkpt lat="43.357163857020474" lon="-2.6868870799282774"><ele>42.0</ele><time>2026-05-01T17:34:54Z</time></trkpt><trkpt lat="43.35731473050117" lon="-2.68695280091764"><ele>42.0</ele><time>2026-05-01T17:34:55Z</time></trkpt><trkpt lat="43.357466466850354" lon="-2.687024901599959"><ele>38.666666666666664</ele><time>2026-05-01T17:34:56Z</time></trkpt><trkpt lat="43.3576209294918" lon="-2.687111216004237"><ele>35.33333333333333</ele><time>2026-05-01T17:34:57Z</time></trkpt><trkpt lat="43.35778233446644" lon="-2.687211448523876"><ele>32.0</ele><time>2026-05-01T17:34:58Z</time></trkpt><trkpt lat="43.357944897345746" lon="-2.687324868084683"><ele>31.0</ele><time>2026-05-01T17:34:59Z</time></trkpt><trkpt lat="43.358105089362" lon="-2.687442599874961"><ele>30.0</ele><time>2026-05-01T17:35:00Z</time></trkpt><trkpt lat="43.3582710845466" lon="-2.687562188203373"><ele>29.0</ele><time>2026-05-01T17:35:01Z</time></trkpt><trkpt lat="43.358442220729025" lon="-2.687689966459942"><ele>28.666666666666664</ele><time>2026-05-01T17:35:02Z</time></trkpt><trkpt lat="43.358626615857425" lon="-2.6878213451583903"><ele>28.333333333333336</ele><time>2026-05-01T17:35:03Z</time></trkpt><trkpt lat="43.35881780629054" lon="-2.6879427681882064"><ele>28.0</ele><time>2026-05-01T17:35:04Z</time></trkpt><trkpt lat="43.35900458154948" lon="-2.688065597262702"><ele>27.333333333333336</ele><time>2026-05-01T17:35:05Z</time></trkpt><trkpt lat="43.35918155975031" lon="-2.6881849689993595"><ele>26.666666666666664</ele><time>2026-05-01T17:35:06Z</time></trkpt><trkpt lat="43.359352869853105" lon="-2.6883081929847945"><ele>26.0</ele><time>2026-05-01T17:35:07Z</time></trkpt><trkpt lat="43.35951819431493" lon="-2.688426778478802"><ele>26.0</ele><time>2026-05-01T17:35:08Z</time></trkpt><trkpt lat="43.35968136000704" lon="-2.6885393847734442"><ele>26.0</ele><time>2026-05-01T17:35:09Z</time></trkpt><trkpt lat="43.359832920701066" lon="-2.6886460380196984"><ele>26.0</ele><time>2026-05-01T17:35:10Z</time></trkpt><trkpt lat="43.3599709010812" lon="-2.6887495184025485"><ele>26.666666666666664</ele><time>2026-05-01T17:35:11Z</time></trkpt><trkpt lat="43.36011065238127" lon="-2.688845768993526"><ele>27.333333333333336</ele><time>2026-05-01T17:35:12Z</time></trkpt><trkpt lat="43.36025421059824" lon="-2.6889544910425314"><ele>28.0</ele><time>2026-05-01T17:35:13Z</time></trkpt><trkpt lat="43.36711777154168" lon="-2.6938075583372405"><ele>23.0</ele><time>2026-05-01T17:36:14Z</time></trkpt><trkpt lat="43.3672259535091" lon="-2.6938860628469072"><ele>18.0</ele><time>2026-05-01T17:36:15Z</time></trkpt><trkpt lat="43.3673459140718" lon="-2.6939658444542056"><ele>13.0</ele><time>2026-05-01T17:36:16Z</time></trkpt><trkpt lat="43.36747454064624" lon="-2.694047722819077"><ele>8.0</ele><time>2026-05-01T17:36:17Z</time></trkpt><trkpt lat="43.36759278615702" lon="-2.6941264036220547"><ele>8.0</ele><time>2026-05-01T17:36:18Z</time></trkpt><trkpt lat="43.367711040016886" lon="-2.6942052791357876"><ele>8.0</ele><time>2026-05-01T17:36:19Z</time></trkpt><trkpt lat="43.367828382166486" lon="-2.6942864647253373"><ele>8.0</ele><time>2026-05-01T17:36:20Z</time></trkpt><trkpt lat="43.36793132872749" lon="-2.6943616426735937"><ele>8.0</ele><time>2026-05-01T17:36:21Z</time></trkpt><trkpt lat="43.36802437568902" lon="-2.6944294392354564"><ele>7.4</ele><time>2026-05-01T17:36:22Z</time></trkpt><trkpt lat="43.36813120703225" lon="-2.6944926343481663"><ele>6.800000000000001</ele><time>2026-05-01T17:36:23Z</time></trkpt><trkpt lat="43.36822343883463" lon="-2.6945463853929152"><ele>6.2</ele><time>2026-05-01T17:36:24Z</time></trkpt><trkpt lat="43.368324745644415" lon="-2.694608495864393"><ele>5.6</ele><time>2026-05-01T17:36:25Z</time></trkpt><trkpt lat="43.36841692942427" lon="-2.69467111573682"><ele>5.0</ele><time>2026-05-01T17:36:26Z</time></trkpt><trkpt lat="43.36851140983333" lon="-2.694737248365524"><ele>5.0</ele><time>2026-05-01T17:36:27Z</time></trkpt><trkpt lat="43.36859668207737" lon="-2.69480338009451"><ele>5.0</ele><time>2026-05-01T17:36:28Z</time></trkpt><trkpt lat="43.36868432198283" lon="-2.6948593086022687"><ele>5.0</ele><time>2026-05-01T17:36:29Z</time></trkpt><trkpt lat="43.36875713132538" lon="-2.6949110214680267"><ele>5.0</ele><time>2026-05-01T17:36:30Z</time></trkpt><trkpt lat="43.36882860936979" lon="-2.69494225421726"><ele>5.0</ele><time>2026-05-01T17:36:31Z</time></trkpt><trkpt lat="43.36893476160249" lon="-2.694949732440657"><ele>6.2</ele><time>2026-05-01T17:36:33Z</time></trkpt><trkpt lat="43.369063239469284" lon="-2.694940245733217"><ele>7.4</ele><time>2026-05-01T17:36:35Z</time></trkpt><trkpt lat="43.36913497454535" lon="-2.69496934620518"><ele>8.600000000000001</ele><time>2026-05-01T17:36:36Z</time></trkpt><trkpt lat="43.369191012917724" lon="-2.6950363309395313"><ele>9.8</ele><time>2026-05-01T17:36:37Z</time></trkpt><trkpt lat="43.36924359515556" lon="-2.695136518803821"><ele>11.0</ele><time>2026-05-01T17:36:38Z</time></trkpt><trkpt lat="43.36930088938646" lon="-2.695232016842047"><ele>12.4</ele><time>2026-05-01T17:36:39Z</time></trkpt><trkpt lat="43.3693614743232" lon="-2.6953078710954945"><ele>13.8</ele><time>2026-05-01T17:36:40Z</time></trkpt><trkpt lat="43.36942157342047" lon="-2.695399256012376"><ele>15.200000000000001</ele><time>2026-05-01T17:36:41Z</time></trkpt><trkpt lat="43.369518881653605" lon="-2.69545069508359"><ele>16.6</ele><time>2026-05-01T17:36:42Z</time></trkpt><trkpt lat="43.36960222805339" lon="-2.6955177621885538"><ele>18.0</ele><time>2026-05-01T17:36:43Z</time></trkpt><trkpt lat="43.36969318291222" lon="-2.6955741574703627"><ele>18.0</ele><time>2026-05-01T17:36:44Z</time></trkpt><trkpt lat="43.36978332379695" lon="-2.6956325140441333"><ele>18.0</ele><time>2026-05-01T17:36:45Z</time></trkpt><trkpt lat="43.36987142473131" lon="-2.695707298974494"><ele>18.0</ele><time>2026-05-01T17:36:46Z</time></trkpt><trkpt lat="43.3699749775323" lon="-2.6957924252953362"><ele>18.0</ele><time>2026-05-01T17:36:47Z</time></trkpt><trkpt lat="43.370088566849375" lon="-2.6958790297674726"><ele>18.0</ele><time>2026-05-01T17:36:48Z</time></trkpt><trkpt lat="43.370212150087326" lon="-2.69596634442623"><ele>18.0</ele><time>2026-05-01T17:36:49Z</time></trkpt><trkpt lat="43.370339553570375" lon="-2.696049010464606"><ele>18.0</ele><time>2026-05-01T17:36:50Z</time></trkpt><trkpt lat="43.37046181577671" lon="-2.6961336375471667"><ele>18.0</ele><time>2026-05-01T17:36:51Z</time></trkpt><trkpt lat="43.370588398982875" lon="-2.696222943178399"><ele>17.75</ele><time>2026-05-01T17:36:52Z</time></trkpt><trkpt lat="43.37070103323989" lon="-2.6962849392053343"><ele>17.5</ele><time>2026-05-01T17:36:53Z</time></trkpt><trkpt lat="43.37082724033274" lon="-2.6963741472492493"><ele>17.25</ele><time>2026-05-01T17:36:54Z</time></trkpt><trkpt lat="43.37095774544397" lon="-2.6964764057277475"><ele>17.0</ele><time>2026-05-01T17:36:55Z</time></trkpt><trkpt lat="43.37109976634058" lon="-2.6965808982616424"><ele>17.0</ele><time>2026-05-01T17:36:56Z</time></trkpt><trkpt lat="43.371234362441015" lon="-2.6966864788574267"><ele>17.0</ele><time>2026-05-01T17:36:57Z</time></trkpt><trkpt lat="43.37138024726366" lon="-2.6967882583282505"><ele>17.0</ele><time>2026-05-01T17:36:58Z</time></trkpt><trkpt lat="43.371526865699295" lon="-2.6968841590308887"><ele>19.0</ele><time>2026-05-01T17:36:59Z</time></trkpt><trkpt lat="43.371671017406165" lon="-2.696983424178631"><ele>21.0</ele><time>2026-05-01T17:37:00Z</time></trkpt><trkpt lat="43.371813312462564" lon="-2.6970850604068657"><ele>23.0</ele><time>2026-05-01T17:37:01Z</time></trkpt><trkpt lat="43.371946992487544" lon="-2.6971839642302555"><ele>23.0</ele><time>2026-05-01T17:37:02Z</time></trkpt><trkpt lat="43.37207365593354" lon="-2.697280531090108"><ele>23.0</ele><time>2026-05-01T17:37:03Z</time></trkpt><trkpt lat="43.3721991336655" lon="-2.6973707447452386"><ele>23.0</ele><time>2026-05-01T17:37:04Z</time></trkpt><trkpt lat="43.37233955730557" lon="-2.6974547925378967"><ele>23.0</ele><time>2026-05-01T17:37:05Z</time></trkpt><trkpt lat="43.37247936541937" lon="-2.697544203534636"><ele>24.333333333333336</ele><time>2026-05-01T17:37:06Z</time></trkpt><trkpt lat="43.372611066209274" lon="-2.6976346936799707"><ele>25.666666666666668</ele><time>2026-05-01T17:37:07Z</time></trkpt><trkpt lat="43.37275165687751" lon="-2.6977384144537577"><ele>27.0</ele><time>2026-05-01T17:37:08Z</time></trkpt><trkpt lat="43.37290835317346" lon="-2.697836428374786"><ele>30.0</ele><time>2026-05-01T17:37:09Z</time></trkpt><trkpt lat="43.37304870502502" lon="-2.697936480474329"><ele>33.0</ele><time>2026-05-01T17:37:10Z</time></trkpt><trkpt lat="43.37319785211476" lon="-2.698028964850001"><ele>36.0</ele><time>2026-05-01T17:37:11Z</time></trkpt><trkpt lat="43.37334321571047" lon="-2.6981213552621113"><ele>36.0</ele><time>2026-05-01T17:37:12Z</time></trkpt><trkpt lat="43.37349494913284" lon="-2.6982296939479298"><ele>36.0</ele><time>2026-05-01T17:37:13Z</time></trkpt><trkpt lat="43.3801122689302" lon="-2.699428871296668"><ele>35.4</ele><time>2026-05-01T17:38:14Z</time></trkpt><trkpt lat="43.380210126255825" lon="-2.6994211127722347"><ele>34.8</ele><time>2026-05-01T17:38:15Z</time></trkpt><trkpt lat="43.380311635444265" lon="-2.6993987238784407"><ele>34.199999999999996</ele><time>2026-05-01T17:38:16Z</time></trkpt><trkpt lat="43.380411736426154" lon="-2.6993691169415484"><ele>33.6</ele><time>2026-05-01T17:38:17Z</time></trkpt><trkpt lat="43.380501944705735" lon="-2.699327585174314"><ele>33.0</ele><time>2026-05-01T17:38:18Z</time></trkpt><trkpt lat="43.38059198076994" lon="-2.699288165156326"><ele>31.833333333333332</ele><time>2026-05-01T17:38:19Z</time></trkpt><trkpt lat="43.38067867639484" lon="-2.699250230682844"><ele>30.666666666666664</ele><time>2026-05-01T17:38:20Z</time></trkpt><trkpt lat="43.380755686055764" lon="-2.699200155175204"><ele>29.5</ele><time>2026-05-01T17:38:21Z</time></trkpt><trkpt lat="43.380833319496766" lon="-2.6991641169778475"><ele>28.333333333333332</ele><time>2026-05-01T17:38:22Z</time></trkpt><trkpt lat="43.38091072373835" lon="-2.6991240305397124"><ele>27.166666666666664</ele><time>2026-05-01T17:38:23Z</time></trkpt><trkpt lat="43.38099276860818" lon="-2.699078714561232"><ele>26.0</ele><time>2026-05-01T17:38:24Z</time></trkpt><trkpt lat="43.38107914237065" lon="-2.699038165290659"><ele>26.0</ele><time>2026-05-01T17:38:25Z</time></trkpt><trkpt lat="43.381171783386975" lon="-2.698996079921867"><ele>26.0</ele><time>2026-05-01T17:38:26Z</time></trkpt><trkpt lat="43.381267399328394" lon="-2.698957201449154"><ele>26.0</ele><time>2026-05-01T17:38:27Z</time></trkpt><trkpt lat="43.381370675830965" lon="-2.698904467288433"><ele>26.0</ele><time>2026-05-01T17:38:28Z</time></trkpt><trkpt lat="43.381475616071526" lon="-2.698839257524043"><ele>26.0</ele><time>2026-05-01T17:38:29Z</time></trkpt><trkpt lat="43.381590116740256" lon="-2.6987853539919606"><ele>23.75</ele><time>2026-05-01T17:38:30Z</time></trkpt><trkpt lat="43.381706067718824" lon="-2.6987341668045217"><ele>21.5</ele><time>2026-05-01T17:38:31Z</time></trkpt><trkpt lat="43.38182671132981" lon="-2.698665979287821"><ele>19.25</ele><time>2026-05-01T17:38:32Z</time></trkpt><trkpt lat="43.38193939449032" lon="-2.6986028748663355"><ele>17.0</ele><time>2026-05-01T17:38:33Z</time></trkpt><trkpt lat="43.382032767023574" lon="-2.698559029480111"><ele>16.8</ele><time>2026-05-01T17:38:34Z</time></trkpt><trkpt lat="43.38212581163916" lon="-2.6985101739220427"><ele>16.6</ele><time>2026-05-01T17:38:35Z</time></trkpt><trkpt lat="43.3822365781045" lon="-2.69846155703138"><ele>16.400000000000002</ele><time>2026-05-01T17:38:36Z</time></trkpt><trkpt lat="43.38233733610743" lon="-2.698400516055387"><ele>16.2</ele><time>2026-05-01T17:38:37Z</time></trkpt><trkpt lat="43.38244540542028" lon="-2.6983444627623467"><ele>16.0</ele><time>2026-05-01T17:38:38Z</time></trkpt><trkpt lat="43.38255787295134" lon="-2.698291794101719"><ele>15.999999999999998</ele><time>2026-05-01T17:38:39Z</time></trkpt><trkpt lat="43.38264088422083" lon="-2.6982508604709214"><ele>16.0</ele><time>2026-05-01T17:38:40Z</time></trkpt><trkpt lat="43.382721311700045" lon="-2.698213037405618"><ele>16.0</ele><time>2026-05-01T17:38:41Z</time></trkpt><trkpt lat="43.38278513613283" lon="-2.6981801447132545"><ele>16.0</ele><time>2026-05-01T17:38:42Z</time></trkpt><trkpt lat="43.38287041772124" lon="-2.6981498334703815"><ele>15.999999999999998</ele><time>2026-05-01T17:38:43Z</time></trkpt><trkpt lat="43.382968241145846" lon="-2.698104554679693"><ele>16.0</ele><time>2026-05-01T17:38:44Z</time></trkpt><trkpt lat="43.38306522704414" lon="-2.6980703009755524"><ele>16.5</ele><time>2026-05-01T17:38:45Z</time></trkpt><trkpt lat="43.38314967342963" lon="-2.698045933940334"><ele>17.0</ele><time>2026-05-01T17:38:46Z</time></trkpt><trkpt lat="43.38322620499569" lon="-2.698019386586772"><ele>17.5</ele><time>2026-05-01T17:38:47Z</time></trkpt><trkpt lat="43.38331334258138" lon="-2.6979708958118644"><ele>18.0</ele><time>2026-05-01T17:38:48Z</time></trkpt><trkpt lat="43.38339446969782" lon="-2.697942188611824"><ele>18.5</ele><time>2026-05-01T17:38:49Z</time></trkpt><trkpt lat="43.38347519928006" lon="-2.6979231125310443"><ele>19.0</ele><time>2026-05-01T17:38:50Z</time></trkpt><trkpt lat="43.38355417978958" lon="-2.697884295334798"><ele>19.0</ele><time>2026-05-01T17:38:51Z</time></trkpt><trkpt lat="43.383626189505236" lon="-2.697838048610525"><ele>19.0</ele><time>2026-05-01T17:38:52Z</time></trkpt><trkpt lat="43.38370802119886" lon="-2.697812190183653"><ele>19.0</ele><time>2026-05-01T17:38:53Z</time></trkpt><trkpt lat="43.38379038476387" lon="-2.69778439864467"><ele>19.0</ele><time>2026-05-01T17:38:54Z</time></trkpt><trkpt lat="43.38387343614711" lon="-2.6977509219504436"><ele>19.0</ele><time>2026-05-01T17:38:55Z</time></trkpt><trkpt lat="43.38395420928866" lon="-2.6976975944031056"><ele>19.0</ele><time>2026-05-01T17:38:56Z</time></trkpt><trkpt lat="43.38404196660098" lon="-2.6976556054926575"><ele>20.2</ele><time>2026-05-01T17:38:57Z</time></trkpt><trkpt lat="43.384132458597996" lon="-2.697631641826837"><ele>21.4</ele><time>2026-05-01T17:38:58Z</time></trkpt><trkpt lat="43.38422421373666" lon="-2.6976052689857317"><ele>22.6</ele><time>2026-05-01T17:38:59Z</time></trkpt><trkpt lat="43.38431618612818" lon="-2.6975665197516485"><ele>23.8</ele><time>2026-05-01T17:39:00Z</time></trkpt><trkpt lat="43.38440582362941" lon="-2.6975018878467605"><ele>25.0</ele><time>2026-05-01T17:39:01Z</time></trkpt><trkpt lat="43.38449981663419" lon="-2.6974470912012745"><ele>25.0</ele><time>2026-05-01T17:39:02Z</time></trkpt><trkpt lat="43.3846079122062" lon="-2.69740359312788"><ele>25.0</ele><time>2026-05-01T17:39:03Z</time></trkpt><trkpt lat="43.384703721656855" lon="-2.6973632620830355"><ele>25.0</ele><time>2026-05-01T17:39:04Z</time></trkpt><trkpt lat="43.384825281593976" lon="-2.6973153679660418"><ele>25.0</ele><time>2026-05-01T17:39:05Z</time></trkpt><trkpt lat="43.38497141765925" lon="-2.697202112753846"><ele>25.75</ele><time>2026-05-01T17:39:06Z</time></trkpt><trkpt lat="43.385104004337975" lon="-2.6971418992175256"><ele>26.5</ele><time>2026-05-01T17:39:07Z</time></trkpt><trkpt lat="43.38522177201368" lon="-2.6971141840595934"><ele>27.25</ele><time>2026-05-01T17:39:08Z</time></trkpt><trkpt lat="43.38531807722328" lon="-2.697064354110286"><ele>28.0</ele><time>2026-05-01T17:39:09Z</time></trkpt><trkpt lat="43.385423947297454" lon="-2.6970234703828617"><ele>28.5</ele><time>2026-05-01T17:39:10Z</time></trkpt><trkpt lat="43.385522143949956" lon="-2.696973287135868"><ele>29.0</ele><time>2026-05-01T17:39:11Z</time></trkpt><trkpt lat="43.385626535100464" lon="-2.69693801365373"><ele>29.5</ele><time>2026-05-01T17:39:12Z</time></trkpt><trkpt lat="43.385721820452275" lon="-2.6968602073300634"><ele>30.0</ele><time>2026-05-01T17:39:13Z</time></trkpt><trkpt lat="43.39194945712407" lon="-2.694950673279978"><ele>27.5</ele><time>2026-05-01T17:40:14Z</time></trkpt><trkpt lat="43.39197142962693" lon="-2.695092140157764"><ele>25.0</ele><time>2026-05-01T17:40:15Z</time></trkpt><trkpt lat="43.39199633461412" lon="-2.6952090717431063"><ele>22.5</ele><time>2026-05-01T17:40:16Z</time></trkpt><trkpt lat="43.392008033469" lon="-2.6953144962991296"><ele>20.0</ele><time>2026-05-01T17:40:17Z</time></trkpt><trkpt lat="43.391991605002886" lon="-2.6954004957598934"><ele>17.5</ele><time>2026-05-01T17:40:18Z</time></trkpt><trkpt lat="43.391970924534434" lon="-2.6955189357158806"><ele>15.0</ele><time>2026-05-01T17:40:19Z</time></trkpt><trkpt lat="43.39192493085808" lon="-2.695634823007747"><ele>15.0</ele><time>2026-05-01T17:40:20Z</time></trkpt><trkpt lat="43.391893085970004" lon="-2.695763862753084"><ele>15.0</ele><time>2026-05-01T17:40:21Z</time></trkpt><trkpt lat="43.39189261299236" lon="-2.6958980850471104"><ele>15.0</ele><time>2026-05-01T17:40:22Z</time></trkpt><trkpt lat="43.391885038040726" lon="-2.696032451802064"><ele>15.0</ele><time>2026-05-01T17:40:23Z</time></trkpt><trkpt lat="43.39185479588434" lon="-2.696136564498163"><ele>15.0</ele><time>2026-05-01T17:40:24Z</time></trkpt><trkpt lat="43.3918070456115" lon="-2.696250613030249"><ele>14.8</ele><time>2026-05-01T17:40:25Z</time></trkpt><trkpt lat="43.391800897275" lon="-2.6963735666320314"><ele>14.6</ele><time>2026-05-01T17:40:26Z</time></trkpt><trkpt lat="43.3918326965309" lon="-2.6964923469661497"><ele>14.399999999999999</ele><time>2026-05-01T17:40:27Z</time></trkpt><trkpt lat="43.39191424475834" lon="-2.6965785647468277"><ele>14.2</ele><time>2026-05-01T17:40:28Z</time></trkpt><trkpt lat="43.391970208721396" lon="-2.696657926143516"><ele>14.0</ele><time>2026-05-01T17:40:29Z</time></trkpt><trkpt lat="43.39209045515784" lon="-2.696733080878036"><ele>12.399999999999999</ele><time>2026-05-01T17:40:30Z</time></trkpt><trkpt lat="43.39219541061391" lon="-2.696727682524171"><ele>10.799999999999999</ele><time>2026-05-01T17:40:31Z</time></trkpt><trkpt lat="43.39229864719572" lon="-2.6967575195129383"><ele>9.2</ele><time>2026-05-01T17:40:32Z</time></trkpt><trkpt lat="43.39237725095628" lon="-2.6967981004688353"><ele>7.6</ele><time>2026-05-01T17:40:33Z</time></trkpt><trkpt lat="43.39245965847119" lon="-2.6968056550899435"><ele>6.0</ele><time>2026-05-01T17:40:34Z</time></trkpt><trkpt lat="43.39255179123019" lon="-2.6968281858336196"><ele>6.0</ele><time>2026-05-01T17:40:36Z</time></trkpt><trkpt lat="43.39265202949168" lon="-2.696834731103081"><ele>6.0</ele><time>2026-05-01T17:40:38Z</time></trkpt><trkpt lat="43.392747061939545" lon="-2.6968655381516995"><ele>6.0</ele><time>2026-05-01T17:40:40Z</time></trkpt><trkpt lat="43.39287196504878" lon="-2.696898461453945"><ele>6.0</ele><time>2026-05-01T17:40:42Z</time></trkpt><trkpt lat="43.39295432206257" lon="-2.6969369537262318"><ele>6.0</ele><time>2026-05-01T17:40:43Z</time></trkpt><trkpt lat="43.393036317204356" lon="-2.6969649341079798"><ele>7.0</ele><time>2026-05-01T17:40:44Z</time></trkpt><trkpt lat="43.39312327138007" lon="-2.6969894173621975"><ele>8.0</ele><time>2026-05-01T17:40:45Z</time></trkpt><trkpt lat="43.39321819787335" lon="-2.6970168670198085"><ele>9.0</ele><time>2026-05-01T17:40:46Z</time></trkpt><trkpt lat="43.393311981009134" lon="-2.697052465975576"><ele>10.0</ele><time>2026-05-01T17:40:47Z</time></trkpt><trkpt lat="43.39341231366938" lon="-2.697079167265253"><ele>11.0</ele><time>2026-05-01T17:40:48Z</time></trkpt><trkpt lat="43.393498147688945" lon="-2.697104270638415"><ele>11.0</ele><time>2026-05-01T17:40:49Z</time></trkpt><trkpt lat="43.39358482621996" lon="-2.697131929389965"><ele>11.0</ele><time>2026-05-01T17:40:50Z</time></trkpt><trkpt lat="43.39365632543052" lon="-2.69714503047885"><ele>11.0</ele><time>2026-05-01T17:40:51Z</time></trkpt><trkpt lat="43.393734152114064" lon="-2.6971704321494117"><ele>11.0</ele><time>2026-05-01T17:40:52Z</time></trkpt><trkpt lat="43.39380946771288" lon="-2.6971909129378604"><ele>11.0</ele><time>2026-05-01T17:40:53Z</time></trkpt><trkpt lat="43.39390051725432" lon="-2.697212545378093"><ele>11.0</ele><time>2026-05-01T17:40:54Z</time></trkpt><trkpt lat="43.39399780113261" lon="-2.697238070424982"><ele>12.75</ele><time>2026-05-01T17:40:55Z</time></trkpt><trkpt lat="43.39410445636276" lon="-2.6972829100075955"><ele>14.5</ele><time>2026-05-01T17:40:56Z</time></trkpt><trkpt lat="43.394224431034836" lon="-2.697308623135922"><ele>16.25</ele><time>2026-05-01T17:40:57Z</time></trkpt><trkpt lat="43.39433660625278" lon="-2.6973345432993057"><ele>18.0</ele><time>2026-05-01T17:40:58Z</time></trkpt><trkpt lat="43.39445402453319" lon="-2.6973702934689983"><ele>18.0</ele><time>2026-05-01T17:40:59Z</time></trkpt><trkpt lat="43.39455125891298" lon="-2.6973849546849897"><ele>18.0</ele><time>2026-05-01T17:41:00Z</time></trkpt><trkpt lat="43.394638210060144" lon="-2.697417150472503"><ele>18.0</ele><time>2026-05-01T17:41:01Z</time></trkpt><trkpt lat="43.39471992038989" lon="-2.697468669468252"><ele>18.0</ele><time>2026-05-01T17:41:02Z</time></trkpt><trkpt lat="43.39482637885754" lon="-2.6974972361811647"><ele>18.0</ele><time>2026-05-01T17:41:03Z</time></trkpt><trkpt lat="43.39493861170944" lon="-2.697530659205178"><ele>20.8</ele><time>2026-05-01T17:41:04Z</time></trkpt><trkpt lat="43.39505951220852" lon="-2.6975725125806904"><ele>23.6</ele><time>2026-05-01T17:41:05Z</time></trkpt><trkpt lat="43.39516485748209" lon="-2.697608807102747"><ele>26.400000000000002</ele><time>2026-05-01T17:41:06Z</time></trkpt><trkpt lat="43.395271647022824" lon="-2.6976389453894614"><ele>29.200000000000003</ele><time>2026-05-01T17:41:07Z</time></trkpt><trkpt lat="43.39537094155574" lon="-2.697679732688505"><ele>32.0</ele><time>2026-05-01T17:41:08Z</time></trkpt><trkpt lat="43.39543115540888" lon="-2.6977150572520583"><ele>43.0</ele><time>2026-05-01T17:41:09Z</time></trkpt><trkpt lat="43.3989151000986" lon="-2.6968532524616564"><ele>43.0</ele><time>2026-05-01T17:42:14Z</time></trkpt><trkpt lat="43.398942317236454" lon="-2.6967733447494484"><ele>43.0</ele><time>2026-05-01T17:42:15Z</time></trkpt><trkpt lat="43.398973431921085" lon="-2.6966629164843683"><ele>43.0</ele><time>2026-05-01T17:42:16Z</time></trkpt><trkpt lat="43.39901836541862" lon="-2.6965756081312096"><ele>43.0</ele><time>2026-05-01T17:42:17Z</time></trkpt><trkpt lat="43.3990628243104" lon="-2.6964905318575942"><ele>43.0</ele><time>2026-05-01T17:42:18Z</time></trkpt><trkpt lat="43.39910720384488" lon="-2.6963923124212044"><ele>43.0</ele><time>2026-05-01T17:42:19Z</time></trkpt><trkpt lat="43.39916162172661" lon="-2.6963091482065304"><ele>43.0</ele><time>2026-05-01T17:42:20Z</time></trkpt><trkpt lat="43.39922339077755" lon="-2.6962216203504688"><ele>43.0</ele><time>2026-05-01T17:42:21Z</time></trkpt><trkpt lat="43.399296920657974" lon="-2.696134696886161"><ele>43.0</ele><time>2026-05-01T17:42:22Z</time></trkpt><trkpt lat="43.39937775218403" lon="-2.6960429691851933"><ele>43.0</ele><time>2026-05-01T17:42:23Z</time></trkpt><trkpt lat="43.39947256182021" lon="-2.6959677708285392"><ele>43.0</ele><time>2026-05-01T17:42:24Z</time></trkpt><trkpt lat="43.399550641773075" lon="-2.6958810292092004"><ele>41.0</ele><time>2026-05-01T17:42:25Z</time></trkpt><trkpt lat="43.399626002102984" lon="-2.6957565187804597"><ele>39.0</ele><time>2026-05-01T17:42:26Z</time></trkpt><trkpt lat="43.399725207409745" lon="-2.695649980252518"><ele>37.0</ele><time>2026-05-01T17:42:27Z</time></trkpt><trkpt lat="43.39981904352009" lon="-2.69555294298265"><ele>35.0</ele><time>2026-05-01T17:42:28Z</time></trkpt><trkpt lat="43.39992017508959" lon="-2.6954810420849946"><ele>40.25</ele><time>2026-05-01T17:42:29Z</time></trkpt><trkpt lat="43.400022569004754" lon="-2.6954237275714754"><ele>45.5</ele><time>2026-05-01T17:42:30Z</time></trkpt><trkpt lat="43.40012763457739" lon="-2.695376530251342"><ele>50.75</ele><time>2026-05-01T17:42:31Z</time></trkpt><trkpt lat="43.4002311392672" lon="-2.695328295348011"><ele>56.0</ele><time>2026-05-01T17:42:32Z</time></trkpt><trkpt lat="43.40035004906657" lon="-2.6952804724797894"><ele>56.0</ele><time>2026-05-01T17:42:33Z</time></trkpt><trkpt lat="43.40046827906563" lon="-2.695262828033799"><ele>56.0</ele><time>2026-05-01T17:42:34Z</time></trkpt><trkpt lat="43.40057918671111" lon="-2.6952667247708697"><ele>56.0</ele><time>2026-05-01T17:42:35Z</time></trkpt><trkpt lat="43.400683960594286" lon="-2.6953135766340743"><ele>56.0</ele><time>2026-05-01T17:42:36Z</time></trkpt><trkpt lat="43.40078831282989" lon="-2.695387284574415"><ele>55.5</ele><time>2026-05-01T17:42:37Z</time></trkpt><trkpt lat="43.40090838945538" lon="-2.6954940775681795"><ele>55.0</ele><time>2026-05-01T17:42:38Z</time></trkpt><trkpt lat="43.40101402596963" lon="-2.695597735113478"><ele>54.5</ele><time>2026-05-01T17:42:39Z</time></trkpt><trkpt lat="43.401143872374774" lon="-2.6956475279863485"><ele>54.0</ele><time>2026-05-01T17:42:40Z</time></trkpt><trkpt lat="43.40127260624786" lon="-2.695748055213576"><ele>52.33333333333333</ele><time>2026-05-01T17:42:41Z</time></trkpt><trkpt lat="43.40142270761975" lon="-2.695861243784099"><ele>50.666666666666664</ele><time>2026-05-01T17:42:42Z</time></trkpt><trkpt lat="43.401583395144876" lon="-2.6959837411637015"><ele>49.0</ele><time>2026-05-01T17:42:43Z</time></trkpt><trkpt lat="43.40173914344482" lon="-2.696106190386038"><ele>49.0</ele><time>2026-05-01T17:42:44Z</time></trkpt><trkpt lat="43.4019011870637" lon="-2.696244405862954"><ele>49.0</ele><time>2026-05-01T17:42:45Z</time></trkpt><trkpt lat="43.402048543080234" lon="-2.696359227434848"><ele>49.0</ele><time>2026-05-01T17:42:46Z</time></trkpt><trkpt lat="43.40219894949146" lon="-2.696478907626856"><ele>43.0</ele><time>2026-05-01T17:42:47Z</time></trkpt><trkpt lat="43.40235248305932" lon="-2.696588103655957"><ele>37.0</ele><time>2026-05-01T17:42:48Z</time></trkpt><trkpt lat="43.40249432474663" lon="-2.696681742477397"><ele>31.0</ele><time>2026-05-01T17:42:49Z</time></trkpt><trkpt lat="43.4026165391159" lon="-2.696780483167315"><ele>31.0</ele><time>2026-05-01T17:42:50Z</time></trkpt><trkpt lat="43.402750490630254" lon="-2.6968959437706483"><ele>31.0</ele><time>2026-05-01T17:42:51Z</time></trkpt><trkpt lat="43.40285192598438" lon="-2.6970394489992353"><ele>31.0</ele><time>2026-05-01T17:42:52Z</time></trkpt><trkpt lat="43.40295921507509" lon="-2.6972170748781834"><ele>27.0</ele><time>2026-05-01T17:42:53Z</time></trkpt><trkpt lat="43.40306648156145" lon="-2.697435749804729"><ele>23.0</ele><time>2026-05-01T17:42:54Z</time></trkpt><trkpt lat="43.40314656367696" lon="-2.6976340505830474"><ele>19.0</ele><time>2026-05-01T17:42:55Z</time></trkpt><trkpt lat="43.40323678806125" lon="-2.6978287845547686"><ele>18.333333333333332</ele><time>2026-05-01T17:42:56Z</time></trkpt><trkpt lat="43.40331892651976" lon="-2.6980309117577934"><ele>17.666666666666668</ele><time>2026-05-01T17:42:57Z</time></trkpt><trkpt lat="43.403402336349046" lon="-2.698239755451784"><ele>17.0</ele><time>2026-05-01T17:42:58Z</time></trkpt><trkpt lat="43.403504697261106" lon="-2.6984611610342046"><ele>18.0</ele><time>2026-05-01T17:42:59Z</time></trkpt><trkpt lat="43.40359292173059" lon="-2.698691668368517"><ele>19.0</ele><time>2026-05-01T17:43:00Z</time></trkpt><trkpt lat="43.40370056487286" lon="-2.6989215240730866"><ele>20.0</ele><time>2026-05-01T17:43:01Z</time></trkpt><trkpt lat="43.403788894618145" lon="-2.699167484844212"><ele>20.0</ele><time>2026-05-01T17:43:02Z</time></trkpt><trkpt lat="43.40387759687389" lon="-2.6994127096000198"><ele>20.0</ele><time>2026-05-01T17:43:03Z</time></trkpt><trkpt lat="43.403953699228246" lon="-2.699643331218647"><ele>20.0</ele><time>2026-05-01T17:43:04Z</time></trkpt><trkpt lat="43.404028365089104" lon="-2.6998527481727725"><ele>20.0</ele><time>2026-05-01T17:43:05Z</time></trkpt><trkpt lat="43.40412315259559" lon="-2.7000588327541926"><ele>20.0</ele><time>2026-05-01T17:43:06Z</time></trkpt><trkpt lat="43.40423409634759" lon="-2.7002761562218147"><ele>20.0</ele><time>2026-05-01T17:43:07Z</time></trkpt><trkpt lat="43.40437197366839" lon="-2.7004404553465187"><ele>19.333333333333336</ele><time>2026-05-01T17:43:08Z</time></trkpt><trkpt lat="43.404519893335085" lon="-2.7006007892577224"><ele>18.666666666666668</ele><time>2026-05-01T17:43:09Z</time></trkpt><trkpt lat="43.404679574395104" lon="-2.7006764729243646"><ele>18.0</ele><time>2026-05-01T17:43:10Z</time></trkpt><trkpt lat="43.404886457071854" lon="-2.7007213881192604"><ele>18.0</ele><time>2026-05-01T17:43:11Z</time></trkpt><trkpt lat="43.40509346277227" lon="-2.7007010546505335"><ele>18.0</ele><time>2026-05-01T17:43:12Z</time></trkpt><trkpt lat="43.4052896518574" lon="-2.7006129606421134"><ele>18.0</ele><time>2026-05-01T17:43:13Z</time></trkpt><trkpt lat="43.414021909480006" lon="-2.7040791899029863"><ele>29.666666666666668</ele><time>2026-05-01T17:44:14Z</time></trkpt><trkpt lat="43.41420059570921" lon="-2.7042665702601503"><ele>41.333333333333336</ele><time>2026-05-01T17:44:15Z</time></trkpt><trkpt lat="43.41437705819738" lon="-2.7044413141216213"><ele>53.0</ele><time>2026-05-01T17:44:16Z</time></trkpt><trkpt lat="43.414538983461796" lon="-2.704616871033385"><ele>51.66666666666667</ele><time>2026-05-01T17:44:17Z</time></trkpt><trkpt lat="43.414690836934426" lon="-2.704792080457801"><ele>50.33333333333333</ele><time>2026-05-01T17:44:18Z</time></trkpt><trkpt lat="43.414846000203575" lon="-2.704965415791817"><ele>49.0</ele><time>2026-05-01T17:44:19Z</time></trkpt><trkpt lat="43.415004616425094" lon="-2.7051370685739298"><ele>53.0</ele><time>2026-05-01T17:44:20Z</time></trkpt><trkpt lat="43.41516348557869" lon="-2.705306825356482"><ele>57.0</ele><time>2026-05-01T17:44:21Z</time></trkpt><trkpt lat="43.41532708287117" lon="-2.7054751462150475"><ele>61.0</ele><time>2026-05-01T17:44:22Z</time></trkpt><trkpt lat="43.415482620463074" lon="-2.705643043206821"><ele>60.0</ele><time>2026-05-01T17:44:23Z</time></trkpt><trkpt lat="43.41563082982728" lon="-2.7058062180684277"><ele>59.0</ele><time>2026-05-01T17:44:24Z</time></trkpt><trkpt lat="43.41576842734681" lon="-2.705967121193867"><ele>58.0</ele><time>2026-05-01T17:44:25Z</time></trkpt><trkpt lat="43.4159033842643" lon="-2.7061207671530108"><ele>58.0</ele><time>2026-05-01T17:44:26Z</time></trkpt><trkpt lat="43.41601810046306" lon="-2.706269539153892"><ele>58.0</ele><time>2026-05-01T17:44:27Z</time></trkpt><trkpt lat="43.41613335775606" lon="-2.7064227773470644"><ele>58.0</ele><time>2026-05-01T17:44:28Z</time></trkpt><trkpt lat="43.41623879011521" lon="-2.706578996652145"><ele>54.0</ele><time>2026-05-01T17:44:29Z</time></trkpt><trkpt lat="43.41634209547854" lon="-2.706743011407763"><ele>50.0</ele><time>2026-05-01T17:44:30Z</time></trkpt><trkpt lat="43.41643245008872" lon="-2.7069112788245024"><ele>46.0</ele><time>2026-05-01T17:44:31Z</time></trkpt><trkpt lat="43.41654701240766" lon="-2.7070706934800164"><ele>46.0</ele><time>2026-05-01T17:44:32Z</time></trkpt><trkpt lat="43.41665584483091" lon="-2.7072474250940397"><ele>46.0</ele><time>2026-05-01T17:44:33Z</time></trkpt><trkpt lat="43.41675723256067" lon="-2.707423233267817"><ele>46.0</ele><time>2026-05-01T17:44:34Z</time></trkpt><trkpt lat="43.41685949692081" lon="-2.7076079770876493"><ele>47.0</ele><time>2026-05-01T17:44:35Z</time></trkpt><trkpt lat="43.41694744123122" lon="-2.7078042041444084"><ele>48.0</ele><time>2026-05-01T17:44:36Z</time></trkpt><trkpt lat="43.41705421100636" lon="-2.707985697646905"><ele>49.0</ele><time>2026-05-01T17:44:37Z</time></trkpt><trkpt lat="43.41716000280984" lon="-2.708166213986176"><ele>43.0</ele><time>2026-05-01T17:44:38Z</time></trkpt><trkpt lat="43.41724583510726" lon="-2.708352734194521"><ele>37.0</ele><time>2026-05-01T17:44:39Z</time></trkpt><trkpt lat="43.4173315903252" lon="-2.7085507328795555"><ele>31.0</ele><time>2026-05-01T17:44:40Z</time></trkpt><trkpt lat="43.41739516280181" lon="-2.7087593510032417"><ele>31.0</ele><time>2026-05-01T17:44:41Z</time></trkpt><trkpt lat="43.41745974416674" lon="-2.7089684419242097"><ele>31.0</ele><time>2026-05-01T17:44:42Z</time></trkpt><trkpt lat="43.417536385149155" lon="-2.7091858063351055"><ele>31.0</ele><time>2026-05-01T17:44:43Z</time></trkpt><trkpt lat="43.41759892991024" lon="-2.7094148675766334"><ele>33.0</ele><time>2026-05-01T17:44:44Z</time></trkpt><trkpt lat="43.417633823348424" lon="-2.7096660907959675"><ele>35.0</ele><time>2026-05-01T17:44:45Z</time></trkpt><trkpt lat="43.417635949847046" lon="-2.709927173204727"><ele>37.0</ele><time>2026-05-01T17:44:46Z</time></trkpt><trkpt lat="43.417610093500535" lon="-2.710195179576261"><ele>36.0</ele><time>2026-05-01T17:44:47Z</time></trkpt><trkpt lat="43.4175583262631" lon="-2.71046009234576"><ele>35.0</ele><time>2026-05-01T17:44:48Z</time></trkpt><trkpt lat="43.41748596109256" lon="-2.7107163762657622"><ele>34.0</ele><time>2026-05-01T17:44:49Z</time></trkpt><trkpt lat="43.41741248638845" lon="-2.7109764320557406"><ele>30.666666666666668</ele><time>2026-05-01T17:44:50Z</time></trkpt><trkpt lat="43.417353922064564" lon="-2.711240306296007"><ele>27.333333333333336</ele><time>2026-05-01T17:44:51Z</time></trkpt><trkpt lat="43.41730982786549" lon="-2.7114937837010316"><ele>24.0</ele><time>2026-05-01T17:44:52Z</time></trkpt><trkpt lat="43.41728471501849" lon="-2.7117423601301547"><ele>19.666666666666668</ele><time>2026-05-01T17:44:53Z</time></trkpt><trkpt lat="43.41727716758803" lon="-2.711987975642784"><ele>15.333333333333332</ele><time>2026-05-01T17:44:54Z</time></trkpt><trkpt lat="43.41727777989287" lon="-2.7122299156716787"><ele>11.0</ele><time>2026-05-01T17:44:55Z</time></trkpt><trkpt lat="43.41727887344279" lon="-2.712458967821547"><ele>11.0</ele><time>2026-05-01T17:44:56Z</time></trkpt><trkpt lat="43.41727469449112" lon="-2.712679135405831"><ele>11.0</ele><time>2026-05-01T17:44:57Z</time></trkpt><trkpt lat="43.41726631406729" lon="-2.712888979193899"><ele>11.0</ele><time>2026-05-01T17:44:58Z</time></trkpt><trkpt lat="43.41724632747768" lon="-2.7130938356815237"><ele>9.333333333333332</ele><time>2026-05-01T17:44:59Z</time></trkpt><trkpt lat="43.41720972659169" lon="-2.7133012524303215"><ele>7.666666666666666</ele><time>2026-05-01T17:45:00Z</time></trkpt><trkpt lat="43.41716005776399" lon="-2.713497525090792"><ele>6.0</ele><time>2026-05-01T17:45:01Z</time></trkpt><trkpt lat="43.41709950817076" lon="-2.713676829774751"><ele>9.2</ele><time>2026-05-01T17:45:02Z</time></trkpt><trkpt lat="43.41705250976269" lon="-2.7138337421215564"><ele>12.4</ele><time>2026-05-01T17:45:03Z</time></trkpt><trkpt lat="43.417015059932595" lon="-2.7139761097770827"><ele>15.600000000000001</ele><time>2026-05-01T17:45:04Z</time></trkpt><trkpt lat="43.41699720159322" lon="-2.7141073549923993"><ele>18.8</ele><time>2026-05-01T17:45:05Z</time></trkpt><trkpt lat="43.41700553870952" lon="-2.7142430870992738"><ele>22.0</ele><time>2026-05-01T17:45:06Z</time></trkpt><trkpt lat="43.417035137102516" lon="-2.7143720008320855"><ele>23.0</ele><time>2026-05-01T17:45:07Z</time></trkpt><trkpt lat="43.41704805071187" lon="-2.714495273459468"><ele>24.0</ele><time>2026-05-01T17:45:08Z</time></trkpt><trkpt lat="43.41702854730987" lon="-2.714613312699527"><ele>25.000000000000004</ele><time>2026-05-01T17:45:09Z</time></trkpt><trkpt lat="43.416987250107454" lon="-2.7147619028445407"><ele>26.0</ele><time>2026-05-01T17:45:10Z</time></trkpt><trkpt lat="43.4169537917517" lon="-2.7149246335289434"><ele>27.0</ele><time>2026-05-01T17:45:11Z</time></trkpt><trkpt lat="43.41694453405217" lon="-2.715086050165262"><ele>22.0</ele><time>2026-05-01T17:45:12Z</time></trkpt><trkpt lat="43.416932876191794" lon="-2.7152483452031846"><ele>17.0</ele><time>2026-05-01T17:45:13Z</time></trkpt><trkpt lat="43.41705667720784" lon="-2.722906194151639"><ele>17.0</ele><time>2026-05-01T17:46:14Z</time></trkpt><trkpt lat="43.417147062699165" lon="-2.7229958896048845"><ele>17.0</ele><time>2026-05-01T17:46:16Z</time></trkpt><trkpt lat="43.417239661974975" lon="-2.7230610009894023"><ele>17.0</ele><time>2026-05-01T17:46:18Z</time></trkpt><trkpt lat="43.417313758206426" lon="-2.72312300112074"><ele>17.0</ele><time>2026-05-01T17:46:21Z</time></trkpt><trkpt lat="43.41737049733692" lon="-2.723161986923648"><ele>17.0</ele><time>2026-05-01T17:46:23Z</time></trkpt><trkpt lat="43.417435922626744" lon="-2.7232031017365386"><ele>17.0</ele><time>2026-05-01T17:46:25Z</time></trkpt><trkpt lat="43.417524991637215" lon="-2.723261707976167"><ele>16.0</ele><time>2026-05-01T17:46:27Z</time></trkpt><trkpt lat="43.41761653111069" lon="-2.723315726137558"><ele>15.0</ele><time>2026-05-01T17:46:29Z</time></trkpt><trkpt lat="43.41771191831119" lon="-2.7233646250516803"><ele>14.0</ele><time>2026-05-01T17:46:31Z</time></trkpt><trkpt lat="43.41779373877135" lon="-2.7234293880512523"><ele>13.0</ele><time>2026-05-01T17:46:33Z</time></trkpt><trkpt lat="43.41786955465212" lon="-2.7234764020701254"><ele>12.0</ele><time>2026-05-01T17:46:35Z</time></trkpt><trkpt lat="43.41796656454911" lon="-2.723519108815297"><ele>11.6</ele><time>2026-05-01T17:46:37Z</time></trkpt><trkpt lat="43.41805424293506" lon="-2.723597417143286"><ele>11.2</ele><time>2026-05-01T17:46:39Z</time></trkpt><trkpt lat="43.41813193816574" lon="-2.723635940444106"><ele>10.8</ele><time>2026-05-01T17:46:42Z</time></trkpt><trkpt lat="43.418227201047685" lon="-2.7236877789150484"><ele>10.4</ele><time>2026-05-01T17:46:44Z</time></trkpt><trkpt lat="43.41829255993684" lon="-2.723681461767604"><ele>10.0</ele><time>2026-05-01T17:46:45Z</time></trkpt><trkpt lat="43.41840375182647" lon="-2.7236809256245555"><ele>10.0</ele><time>2026-05-01T17:46:47Z</time></trkpt><trkpt lat="43.41846239134914" lon="-2.7237929793239597"><ele>10.0</ele><time>2026-05-01T17:46:49Z</time></trkpt><trkpt lat="43.41844248223498" lon="-2.723890501764349"><ele>10.0</ele><time>2026-05-01T17:46:52Z</time></trkpt><trkpt lat="43.41865221226424" lon="-2.724017565047994"><ele>10.0</ele><time>2026-05-01T17:47:02Z</time></trkpt><trkpt lat="43.418730666111" lon="-2.724056830015886"><ele>10.0</ele><time>2026-05-01T17:47:04Z</time></trkpt><trkpt lat="43.41878586717031" lon="-2.7241176159260947"><ele>10.0</ele><time>2026-05-01T17:47:06Z</time></trkpt><trkpt lat="43.418844121197736" lon="-2.7241665861681947"><ele>10.0</ele><time>2026-05-01T17:47:09Z</time></trkpt><trkpt lat="43.41891891859614" lon="-2.7241977457534476"><ele>10.0</ele><time>2026-05-01T17:47:13Z</time></trkpt><trkpt lat="43.41973479425365" lon="-2.7295623090461882"><ele>12.25</ele><time>2026-05-01T17:48:14Z</time></trkpt><trkpt lat="43.41974574298031" lon="-2.7297374899543163"><ele>14.5</ele><time>2026-05-01T17:48:15Z</time></trkpt><trkpt lat="43.4197448629104" lon="-2.729903128310436"><ele>16.75</ele><time>2026-05-01T17:48:16Z</time></trkpt><trkpt lat="43.41974535391858" lon="-2.7300633195703368"><ele>19.0</ele><time>2026-05-01T17:48:17Z</time></trkpt><trkpt lat="43.419752789651106" lon="-2.7302383878107537"><ele>19.25</ele><time>2026-05-01T17:48:18Z</time></trkpt><trkpt lat="43.419772788916404" lon="-2.7304097024116474"><ele>19.5</ele><time>2026-05-01T17:48:19Z</time></trkpt><trkpt lat="43.419779979874" lon="-2.7305807682805407"><ele>19.75</ele><time>2026-05-01T17:48:20Z</time></trkpt><trkpt lat="43.419789165675766" lon="-2.7307493089471584"><ele>20.0</ele><time>2026-05-01T17:48:21Z</time></trkpt><trkpt lat="43.419799855686996" lon="-2.730914215599444"><ele>20.5</ele><time>2026-05-01T17:48:22Z</time></trkpt><trkpt lat="43.419838573974204" lon="-2.7310814053882404"><ele>21.0</ele><time>2026-05-01T17:48:23Z</time></trkpt><trkpt lat="43.419839417107376" lon="-2.7312771888956204"><ele>21.5</ele><time>2026-05-01T17:48:24Z</time></trkpt><trkpt lat="43.41981916765145" lon="-2.7315007415136985"><ele>22.0</ele><time>2026-05-01T17:48:25Z</time></trkpt><trkpt lat="43.41982397292937" lon="-2.731681940918277"><ele>22.0</ele><time>2026-05-01T17:48:26Z</time></trkpt><trkpt lat="43.41982447675158" lon="-2.731867927279567"><ele>22.0</ele><time>2026-05-01T17:48:27Z</time></trkpt><trkpt lat="43.419832540331015" lon="-2.7320595188953862"><ele>22.0</ele><time>2026-05-01T17:48:28Z</time></trkpt><trkpt lat="43.419823159781785" lon="-2.732230276121817"><ele>22.0</ele><time>2026-05-01T17:48:29Z</time></trkpt><trkpt lat="43.4197960128771" lon="-2.732435335751605"><ele>22.25</ele><time>2026-05-01T17:48:30Z</time></trkpt><trkpt lat="43.41975333531543" lon="-2.7326451232358147"><ele>22.5</ele><time>2026-05-01T17:48:31Z</time></trkpt><trkpt lat="43.4197066934258" lon="-2.732837224713409"><ele>22.75</ele><time>2026-05-01T17:48:32Z</time></trkpt><trkpt lat="43.41966348145778" lon="-2.733010093496316"><ele>23.0</ele><time>2026-05-01T17:48:33Z</time></trkpt><trkpt lat="43.419631549517426" lon="-2.7331547811423063"><ele>27.0</ele><time>2026-05-01T17:48:34Z</time></trkpt><trkpt lat="43.41960329634592" lon="-2.7332996195088706"><ele>31.0</ele><time>2026-05-01T17:48:35Z</time></trkpt><trkpt lat="43.419567959426004" lon="-2.7334623492429597"><ele>35.0</ele><time>2026-05-01T17:48:36Z</time></trkpt><trkpt lat="43.41955544936148" lon="-2.733620983759828"><ele>39.0</ele><time>2026-05-01T17:48:37Z</time></trkpt><trkpt lat="43.41956639069299" lon="-2.733763657496803"><ele>39.8</ele><time>2026-05-01T17:48:38Z</time></trkpt><trkpt lat="43.4196053354047" lon="-2.7338861640172496"><ele>40.599999999999994</ele><time>2026-05-01T17:48:39Z</time></trkpt><trkpt lat="43.41965691410958" lon="-2.7339940094562025"><ele>41.4</ele><time>2026-05-01T17:48:40Z</time></trkpt><trkpt lat="43.41968387992485" lon="-2.734136848637411"><ele>42.199999999999996</ele><time>2026-05-01T17:48:41Z</time></trkpt><trkpt lat="43.41966964581379" lon="-2.7343067936350645"><ele>43.0</ele><time>2026-05-01T17:48:42Z</time></trkpt><trkpt lat="43.41961216920901" lon="-2.734476656755913"><ele>44.0</ele><time>2026-05-01T17:48:43Z</time></trkpt><trkpt lat="43.41956298536037" lon="-2.7346723018334878"><ele>45.0</ele><time>2026-05-01T17:48:44Z</time></trkpt><trkpt lat="43.41955127413464" lon="-2.7349182355924415"><ele>46.0</ele><time>2026-05-01T17:48:45Z</time></trkpt><trkpt lat="43.41955753696955" lon="-2.7352033491223344"><ele>48.66666666666667</ele><time>2026-05-01T17:48:46Z</time></trkpt><trkpt lat="43.419561228701745" lon="-2.7354972493948333"><ele>51.333333333333336</ele><time>2026-05-01T17:48:47Z</time></trkpt><trkpt lat="43.41953749480088" lon="-2.7358083960341184"><ele>54.0</ele><time>2026-05-01T17:48:48Z</time></trkpt><trkpt lat="43.41950859054718" lon="-2.736146488018529"><ele>56.0</ele><time>2026-05-01T17:48:49Z</time></trkpt><trkpt lat="43.41946766815891" lon="-2.7365037496282643"><ele>58.0</ele><time>2026-05-01T17:48:50Z</time></trkpt><trkpt lat="43.4194181396" lon="-2.7368635281349944"><ele>57.5</ele><time>2026-05-01T17:48:51Z</time></trkpt><trkpt lat="43.41936260402835" lon="-2.737233399843347"><ele>57.0</ele><time>2026-05-01T17:48:52Z</time></trkpt><trkpt lat="43.419289913197154" lon="-2.7376077949919826"><ele>57.0</ele><time>2026-05-01T17:48:53Z</time></trkpt><trkpt lat="43.419200025122315" lon="-2.7379818312322506"><ele>57.0</ele><time>2026-05-01T17:48:54Z</time></trkpt><trkpt lat="43.41911237909149" lon="-2.7383473222802417"><ele>53.5</ele><time>2026-05-01T17:48:55Z</time></trkpt><trkpt lat="43.419030962019775" lon="-2.738723774731949"><ele>50.0</ele><time>2026-05-01T17:48:56Z</time></trkpt><trkpt lat="43.41894409954973" lon="-2.73909768929871"><ele>49.5</ele><time>2026-05-01T17:48:57Z</time></trkpt><trkpt lat="43.418860428089616" lon="-2.7394720615960844"><ele>49.0</ele><time>2026-05-01T17:48:58Z</time></trkpt><trkpt lat="43.41877741464039" lon="-2.739839002024907"><ele>59.0</ele><time>2026-05-01T17:48:59Z</time></trkpt><trkpt lat="43.418693341112416" lon="-2.7401951178134287"><ele>69.0</ele><time>2026-05-01T17:49:00Z</time></trkpt><trkpt lat="43.41861388373924" lon="-2.740535625238618"><ele>69.0</ele><time>2026-05-01T17:49:01Z</time></trkpt><trkpt lat="43.41853489036507" lon="-2.7408687803426868"><ele>69.0</ele><time>2026-05-01T17:49:02Z</time></trkpt><trkpt lat="43.41845926115687" lon="-2.7411886598497794"><ele>66.5</ele><time>2026-05-01T17:49:03Z</time></trkpt><trkpt lat="43.418384903007116" lon="-2.7414983903855874"><ele>64.0</ele><time>2026-05-01T17:49:04Z</time></trkpt><trkpt lat="43.41831869421982" lon="-2.7418129844877677"><ele>63.0</ele><time>2026-05-01T17:49:05Z</time></trkpt><trkpt lat="43.4182699893288" lon="-2.742131691993841"><ele>62.0</ele><time>2026-05-01T17:49:06Z</time></trkpt><trkpt lat="43.41822122372815" lon="-2.742448339788182"><ele>62.5</ele><time>2026-05-01T17:49:07Z</time></trkpt><trkpt lat="43.41818902049678" lon="-2.7427783348190493"><ele>63.0</ele><time>2026-05-01T17:49:08Z</time></trkpt><trkpt lat="43.41815742200443" lon="-2.743110255359356"><ele>63.0</ele><time>2026-05-01T17:49:09Z</time></trkpt><trkpt lat="43.41814044142665" lon="-2.743440707084055"><ele>63.0</ele><time>2026-05-01T17:49:10Z</time></trkpt><trkpt lat="43.41812774476801" lon="-2.743781707595698"><ele>66.5</ele><time>2026-05-01T17:49:11Z</time></trkpt><trkpt lat="43.418113658087265" lon="-2.7441177705581534"><ele>70.0</ele><time>2026-05-01T17:49:12Z</time></trkpt><trkpt lat="43.41810175850735" lon="-2.744454768118265"><ele>197.0</ele><time>2026-05-01T17:49:13Z</time></trkpt><trkpt lat="43.410394686800515" lon="-2.7551094280131685"><ele>204.25</ele><time>2026-05-01T17:50:14Z</time></trkpt><trkpt lat="43.410266643287414" lon="-2.7552434603723164"><ele>211.5</ele><time>2026-05-01T17:50:15Z</time></trkpt><trkpt lat="43.410159201224204" lon="-2.755305780987393"><ele>218.75</ele><time>2026-05-01T17:50:16Z</time></trkpt><trkpt lat="43.4100377578386" lon="-2.755303070951093"><ele>226.0</ele><time>2026-05-01T17:50:17Z</time></trkpt><trkpt lat="43.40991126716982" lon="-2.755264293720934"><ele>226.0</ele><time>2026-05-01T17:50:18Z</time></trkpt><trkpt lat="43.409767896071116" lon="-2.7552204181546354"><ele>226.0</ele><time>2026-05-01T17:50:19Z</time></trkpt><trkpt lat="43.40962385628248" lon="-2.7552199394738333"><ele>226.0</ele><time>2026-05-01T17:50:20Z</time></trkpt><trkpt lat="43.40948102791403" lon="-2.7553009369386263"><ele>226.0</ele><time>2026-05-01T17:50:21Z</time></trkpt><trkpt lat="43.40933959600408" lon="-2.7554332082304445"><ele>224.66666666666666</ele><time>2026-05-01T17:50:22Z</time></trkpt><trkpt lat="43.40923079684236" lon="-2.7556096132093124"><ele>223.33333333333331</ele><time>2026-05-01T17:50:23Z</time></trkpt><trkpt lat="43.40912090536332" lon="-2.755823721644816"><ele>222.0</ele><time>2026-05-01T17:50:24Z</time></trkpt><trkpt lat="43.40898312492361" lon="-2.7559958148831694"><ele>228.66666666666669</ele><time>2026-05-01T17:50:25Z</time></trkpt><trkpt lat="43.4088508368862" lon="-2.7561525362806076"><ele>235.33333333333334</ele><time>2026-05-01T17:50:26Z</time></trkpt><trkpt lat="43.40869751376918" lon="-2.756262259914319"><ele>242.0</ele><time>2026-05-01T17:50:27Z</time></trkpt><trkpt lat="43.4085296745899" lon="-2.756335673189393"><ele>242.0</ele><time>2026-05-01T17:50:28Z</time></trkpt><trkpt lat="43.408384315683314" lon="-2.7563797855164736"><ele>242.0</ele><time>2026-05-01T17:50:29Z</time></trkpt><trkpt lat="43.408234071087534" lon="-2.7564224331805187"><ele>242.0</ele><time>2026-05-01T17:50:30Z</time></trkpt><trkpt lat="43.408108817877704" lon="-2.7564707717727357"><ele>242.0</ele><time>2026-05-01T17:50:31Z</time></trkpt><trkpt lat="43.407997664247155" lon="-2.756540803632749"><ele>242.0</ele><time>2026-05-01T17:50:32Z</time></trkpt><trkpt lat="43.40790290217795" lon="-2.756603562656937"><ele>242.0</ele><time>2026-05-01T17:50:33Z</time></trkpt><trkpt lat="43.407868411461685" lon="-2.7566989967707447"><ele>242.0</ele><time>2026-05-01T17:50:34Z</time></trkpt><trkpt lat="43.40786750865696" lon="-2.756837093082462"><ele>242.0</ele><time>2026-05-01T17:50:36Z</time></trkpt><trkpt lat="43.4079933633449" lon="-2.7568577190954136"><ele>242.0</ele><time>2026-05-01T17:50:38Z</time></trkpt><trkpt lat="43.408052039252745" lon="-2.7567361563289734"><ele>242.0</ele><time>2026-05-01T17:50:39Z</time></trkpt><trkpt lat="43.40815385776878" lon="-2.756678001285437"><ele>242.0</ele><time>2026-05-01T17:50:40Z</time></trkpt><trkpt lat="43.4082665971673" lon="-2.756604149354326"><ele>242.0</ele><time>2026-05-01T17:50:41Z</time></trkpt><trkpt lat="43.40841210030266" lon="-2.756558393929345"><ele>242.0</ele><time>2026-05-01T17:50:42Z</time></trkpt><trkpt lat="43.40857413830162" lon="-2.756551996655539"><ele>242.0</ele><time>2026-05-01T17:50:43Z</time></trkpt><trkpt lat="43.40874385874294" lon="-2.756555838685222"><ele>242.0</ele><time>2026-05-01T17:50:44Z</time></trkpt><trkpt lat="43.40890997085229" lon="-2.756528946442023"><ele>242.0</ele><time>2026-05-01T17:50:45Z</time></trkpt><trkpt lat="43.40906216632629" lon="-2.756453848055224"><ele>244.75</ele><time>2026-05-01T17:50:46Z</time></trkpt><trkpt lat="43.40918991407042" lon="-2.756375616216164"><ele>247.5</ele><time>2026-05-01T17:50:47Z</time></trkpt><trkpt lat="43.409321922269385" lon="-2.7563057341280035"><ele>250.25</ele><time>2026-05-01T17:50:48Z</time></trkpt><trkpt lat="43.40945721277445" lon="-2.7562747864790653"><ele>253.0</ele><time>2026-05-01T17:50:49Z</time></trkpt><trkpt lat="43.40957873935802" lon="-2.756288909947817"><ele>252.25</ele><time>2026-05-01T17:50:50Z</time></trkpt><trkpt lat="43.40969399012537" lon="-2.7563426790844514"><ele>251.5</ele><time>2026-05-01T17:50:51Z</time></trkpt><trkpt lat="43.40978538061476" lon="-2.7564739285748296"><ele>250.75</ele><time>2026-05-01T17:50:52Z</time></trkpt><trkpt lat="43.409860762084996" lon="-2.756653204876651"><ele>250.0</ele><time>2026-05-01T17:50:53Z</time></trkpt><trkpt lat="43.40991427740149" lon="-2.7568374702462823"><ele>250.75</ele><time>2026-05-01T17:50:54Z</time></trkpt><trkpt lat="43.409910585792446" lon="-2.757016777078205"><ele>251.5</ele><time>2026-05-01T17:50:55Z</time></trkpt><trkpt lat="43.409865234964954" lon="-2.7572142811817164"><ele>252.25</ele><time>2026-05-01T17:50:56Z</time></trkpt><trkpt lat="43.409796823049" lon="-2.7574130933059853"><ele>253.0</ele><time>2026-05-01T17:50:57Z</time></trkpt><trkpt lat="43.409732798753176" lon="-2.7576139652415668"><ele>255.33333333333331</ele><time>2026-05-01T17:50:58Z</time></trkpt><trkpt lat="43.40970198156231" lon="-2.757839605846655"><ele>257.6666666666667</ele><time>2026-05-01T17:50:59Z</time></trkpt><trkpt lat="43.40967143187224" lon="-2.758060562845707"><ele>260.0</ele><time>2026-05-01T17:51:00Z</time></trkpt><trkpt lat="43.40967935186398" lon="-2.7582398625988795"><ele>260.0</ele><time>2026-05-01T17:51:01Z</time></trkpt><trkpt lat="43.409741653992704" lon="-2.7583773980615116"><ele>260.0</ele><time>2026-05-01T17:51:02Z</time></trkpt><trkpt lat="43.40982189756298" lon="-2.758492245905851"><ele>260.0</ele><time>2026-05-01T17:51:03Z</time></trkpt><trkpt lat="43.40989039733718" lon="-2.7586380279360876"><ele>260.0</ele><time>2026-05-01T17:51:04Z</time></trkpt><trkpt lat="43.409957396382666" lon="-2.7587799753671662"><ele>258.6666666666667</ele><time>2026-05-01T17:51:05Z</time></trkpt><trkpt lat="43.409963191275956" lon="-2.758960087148063"><ele>257.3333333333333</ele><time>2026-05-01T17:51:06Z</time></trkpt><trkpt lat="43.40991671210851" lon="-2.7591583001848683"><ele>256.0</ele><time>2026-05-01T17:51:07Z</time></trkpt><trkpt lat="43.40983388523831" lon="-2.7593583063713485"><ele>252.0</ele><time>2026-05-01T17:51:08Z</time></trkpt><trkpt lat="43.409731898537835" lon="-2.7595478585079185"><ele>248.0</ele><time>2026-05-01T17:51:09Z</time></trkpt><trkpt lat="43.40961807384482" lon="-2.7597433846806645"><ele>244.0</ele><time>2026-05-01T17:51:10Z</time></trkpt><trkpt lat="43.40948398160246" lon="-2.75992341907944"><ele>259.0</ele><time>2026-05-01T17:51:11Z</time></trkpt><trkpt lat="43.40935463984393" lon="-2.7601138699289587"><ele>274.0</ele><time>2026-05-01T17:51:12Z</time></trkpt><trkpt lat="43.4092272000006" lon="-2.7603038287896293"><ele>289.0</ele><time>2026-05-01T17:51:13Z</time></trkpt><trkpt lat="43.40612972796008" lon="-2.7607752037268"><ele>317.66666666666663</ele><time>2026-05-01T17:52:14Z</time></trkpt><trkpt lat="43.405949521846345" lon="-2.760746389362598"><ele>346.3333333333333</ele><time>2026-05-01T17:52:15Z</time></trkpt><trkpt lat="43.405782328314466" lon="-2.7607018312447513"><ele>375.0</ele><time>2026-05-01T17:52:16Z</time></trkpt><trkpt lat="43.405636279723936" lon="-2.760640937966529"><ele>377.25</ele><time>2026-05-01T17:52:17Z</time></trkpt><trkpt lat="43.40547853592378" lon="-2.7606007632937604"><ele>379.5</ele><time>2026-05-01T17:52:18Z</time></trkpt><trkpt lat="43.40534629805108" lon="-2.760558540290212"><ele>381.75</ele><time>2026-05-01T17:52:19Z</time></trkpt><trkpt lat="43.40522664489763" lon="-2.7605284552945615"><ele>384.0</ele><time>2026-05-01T17:52:20Z</time></trkpt><trkpt lat="43.40511568248722" lon="-2.7604968321804644"><ele>384.0</ele><time>2026-05-01T17:52:21Z</time></trkpt><trkpt lat="43.405003816761614" lon="-2.760462687140338"><ele>384.0</ele><time>2026-05-01T17:52:22Z</time></trkpt><trkpt lat="43.404882729612495" lon="-2.760425131604057"><ele>384.0</ele><time>2026-05-01T17:52:23Z</time></trkpt><trkpt lat="43.40476030556605" lon="-2.7603730402594477"><ele>384.0</ele><time>2026-05-01T17:52:24Z</time></trkpt><trkpt lat="43.40463070871141" lon="-2.76032434765442"><ele>384.0</ele><time>2026-05-01T17:52:25Z</time></trkpt><trkpt lat="43.404496730387635" lon="-2.760279899211582"><ele>384.0</ele><time>2026-05-01T17:52:26Z</time></trkpt><trkpt lat="43.4043566858574" lon="-2.760227667131038"><ele>384.0</ele><time>2026-05-01T17:52:27Z</time></trkpt><trkpt lat="43.40419831104887" lon="-2.760205730212291"><ele>384.0</ele><time>2026-05-01T17:52:28Z</time></trkpt><trkpt lat="43.40403747363984" lon="-2.760155045936571"><ele>386.33333333333337</ele><time>2026-05-01T17:52:29Z</time></trkpt><trkpt lat="43.40386341322858" lon="-2.760100194733657"><ele>388.6666666666667</ele><time>2026-05-01T17:52:30Z</time></trkpt><trkpt lat="43.40371489669197" lon="-2.760051566209663"><ele>391.0</ele><time>2026-05-01T17:52:31Z</time></trkpt><trkpt lat="43.40355281729395" lon="-2.7599976912902275"><ele>386.0</ele><time>2026-05-01T17:52:32Z</time></trkpt><trkpt lat="43.40340059110248" lon="-2.7599470915794093"><ele>381.0</ele><time>2026-05-01T17:52:33Z</time></trkpt><trkpt lat="43.403238523350986" lon="-2.759892883991732"><ele>376.0</ele><time>2026-05-01T17:52:34Z</time></trkpt><trkpt lat="43.40306651100173" lon="-2.7598358362253133"><ele>370.0</ele><time>2026-05-01T17:52:35Z</time></trkpt><trkpt lat="43.40289208331779" lon="-2.7597785026137123"><ele>364.0</ele><time>2026-05-01T17:52:36Z</time></trkpt><trkpt lat="43.40270997260065" lon="-2.759718643620346"><ele>358.0</ele><time>2026-05-01T17:52:37Z</time></trkpt><trkpt lat="43.4025371297019" lon="-2.759661830915711"><ele>358.0</ele><time>2026-05-01T17:52:38Z</time></trkpt><trkpt lat="43.402373858527234" lon="-2.759588230255741"><ele>358.0</ele><time>2026-05-01T17:52:39Z</time></trkpt><trkpt lat="43.40221594499733" lon="-2.759540712401083"><ele>358.0</ele><time>2026-05-01T17:52:40Z</time></trkpt><trkpt lat="43.40207074432761" lon="-2.759488468061563"><ele>360.0</ele><time>2026-05-01T17:52:41Z</time></trkpt><trkpt lat="43.401921424779616" lon="-2.7594390388508216"><ele>362.0</ele><time>2026-05-01T17:52:42Z</time></trkpt><trkpt lat="43.40176822511255" lon="-2.7593905657618416"><ele>364.0</ele><time>2026-05-01T17:52:43Z</time></trkpt><trkpt lat="43.401609079218616" lon="-2.759337620161612"><ele>364.0</ele><time>2026-05-01T17:52:44Z</time></trkpt><trkpt lat="43.401453267751336" lon="-2.7593087800039053"><ele>364.0</ele><time>2026-05-01T17:52:45Z</time></trkpt><trkpt lat="43.40132007306774" lon="-2.7592421376236014"><ele>364.0</ele><time>2026-05-01T17:52:46Z</time></trkpt><trkpt lat="43.40120775606369" lon="-2.75922701799762"><ele>364.0</ele><time>2026-05-01T17:52:47Z</time></trkpt><trkpt lat="43.40109062320739" lon="-2.7591433337500586"><ele>360.0</ele><time>2026-05-01T17:52:48Z</time></trkpt><trkpt lat="43.40096938300309" lon="-2.759055434195806"><ele>356.0</ele><time>2026-05-01T17:52:49Z</time></trkpt><trkpt lat="43.40087134916694" lon="-2.758897637116605"><ele>352.0</ele><time>2026-05-01T17:52:50Z</time></trkpt><trkpt lat="43.40077737244171" lon="-2.758777494223344"><ele>348.0</ele><time>2026-05-01T17:52:51Z</time></trkpt><trkpt lat="43.40069596930132" lon="-2.758658326549069"><ele>348.0</ele><time>2026-05-01T17:52:52Z</time></trkpt><trkpt lat="43.40060082270778" lon="-2.758547437770431"><ele>348.0</ele><time>2026-05-01T17:52:53Z</time></trkpt><trkpt lat="43.400487231804" lon="-2.758497778009316"><ele>348.0</ele><time>2026-05-01T17:52:54Z</time></trkpt><trkpt lat="43.40037777431556" lon="-2.758496535416618"><ele>348.0</ele><time>2026-05-01T17:52:55Z</time></trkpt><trkpt lat="43.400261894704336" lon="-2.7585237086083834"><ele>345.75</ele><time>2026-05-01T17:52:56Z</time></trkpt><trkpt lat="43.40012858604058" lon="-2.758604834081476"><ele>343.5</ele><time>2026-05-01T17:52:57Z</time></trkpt><trkpt lat="43.399970203729424" lon="-2.7586582035012297"><ele>341.25</ele><time>2026-05-01T17:52:58Z</time></trkpt><trkpt lat="43.3998375511927" lon="-2.758715790411231"><ele>339.0</ele><time>2026-05-01T17:52:59Z</time></trkpt><trkpt lat="43.39971507519899" lon="-2.758767668272492"><ele>340.75</ele><time>2026-05-01T17:53:00Z</time></trkpt><trkpt lat="43.39958224775779" lon="-2.758791085883395"><ele>342.5</ele><time>2026-05-01T17:53:01Z</time></trkpt><trkpt lat="43.39945574332956" lon="-2.758863039305517"><ele>344.25</ele><time>2026-05-01T17:53:02Z</time></trkpt><trkpt lat="43.39933107979453" lon="-2.758952127184482"><ele>346.0</ele><time>2026-05-01T17:53:03Z</time></trkpt><trkpt lat="43.399202807064526" lon="-2.759041112578877"><ele>346.0</ele><time>2026-05-01T17:53:04Z</time></trkpt><trkpt lat="43.39907124248807" lon="-2.759155999997547"><ele>346.0</ele><time>2026-05-01T17:53:05Z</time></trkpt><trkpt lat="43.39892617766352" lon="-2.7592695879990665"><ele>346.0</ele><time>2026-05-01T17:53:06Z</time></trkpt><trkpt lat="43.39877994896751" lon="-2.7593900165188026"><ele>344.66666666666663</ele><time>2026-05-01T17:53:07Z</time></trkpt><trkpt lat="43.398627274541845" lon="-2.759514545028239"><ele>343.3333333333333</ele><time>2026-05-01T17:53:08Z</time></trkpt><trkpt lat="43.39847031338632" lon="-2.759630602579134"><ele>342.0</ele><time>2026-05-01T17:53:09Z</time></trkpt><trkpt lat="43.39831794725049" lon="-2.759733384794281"><ele>342.0</ele><time>2026-05-01T17:53:10Z</time></trkpt><trkpt lat="43.39818231504626" lon="-2.7598231614750017"><ele>342.0</ele><time>2026-05-01T17:53:11Z</time></trkpt><trkpt lat="43.39803716768083" lon="-2.759914699731859"><ele>342.0</ele><time>2026-05-01T17:53:12Z</time></trkpt><trkpt lat="43.39789292869934" lon="-2.760010191862988"><ele>336.0</ele><time>2026-05-01T17:53:13Z</time></trkpt><trkpt lat="43.39309300811214" lon="-2.7706114783119804"><ele>333.3333333333333</ele><time>2026-05-01T17:54:14Z</time></trkpt><trkpt lat="43.39290071453829" lon="-2.770503278643425"><ele>330.66666666666663</ele><time>2026-05-01T17:54:15Z</time></trkpt><trkpt lat="43.392707442714624" lon="-2.7703908945649487"><ele>328.0</ele><time>2026-05-01T17:54:16Z</time></trkpt><trkpt lat="43.39251575786855" lon="-2.770280064257335"><ele>331.66666666666663</ele><time>2026-05-01T17:54:17Z</time></trkpt><trkpt lat="43.3923346886197" lon="-2.7701843746889026"><ele>335.3333333333333</ele><time>2026-05-01T17:54:18Z</time></trkpt><trkpt lat="43.39216255387623" lon="-2.7700918973045723"><ele>339.0</ele><time>2026-05-01T17:54:19Z</time></trkpt><trkpt lat="43.39198636284319" lon="-2.7700125465203227"><ele>339.0</ele><time>2026-05-01T17:54:20Z</time></trkpt><trkpt lat="43.3918205281932" lon="-2.769951749568367"><ele>339.0</ele><time>2026-05-01T17:54:21Z</time></trkpt><trkpt lat="43.39164232332798" lon="-2.769902458756124"><ele>339.0</ele><time>2026-05-01T17:54:22Z</time></trkpt><trkpt lat="43.39146042064817" lon="-2.7698599540637385"><ele>335.25</ele><time>2026-05-01T17:54:23Z</time></trkpt><trkpt lat="43.39129952961908" lon="-2.769815242532019"><ele>331.5</ele><time>2026-05-01T17:54:24Z</time></trkpt><trkpt lat="43.39116795172477" lon="-2.769769446114408"><ele>327.75</ele><time>2026-05-01T17:54:25Z</time></trkpt><trkpt lat="43.39103413189039" lon="-2.769723894435844"><ele>324.0</ele><time>2026-05-01T17:54:26Z</time></trkpt><trkpt lat="43.390908084761215" lon="-2.769660494198703"><ele>324.0</ele><time>2026-05-01T17:54:27Z</time></trkpt><trkpt lat="43.39078550358385" lon="-2.7696037991584084"><ele>324.0</ele><time>2026-05-01T17:54:28Z</time></trkpt><trkpt lat="43.390682133849666" lon="-2.769519862138512"><ele>324.0</ele><time>2026-05-01T17:54:29Z</time></trkpt><trkpt lat="43.39057382733638" lon="-2.769431509854713"><ele>324.0</ele><time>2026-05-01T17:54:30Z</time></trkpt><trkpt lat="43.390462063640996" lon="-2.769359989787758"><ele>328.5</ele><time>2026-05-01T17:54:31Z</time></trkpt><trkpt lat="43.39035641771749" lon="-2.769305579286911"><ele>333.0</ele><time>2026-05-01T17:54:32Z</time></trkpt><trkpt lat="43.390250953783124" lon="-2.769260430688161"><ele>337.5</ele><time>2026-05-01T17:54:33Z</time></trkpt><trkpt lat="43.39014309083702" lon="-2.7692134424507864"><ele>342.0</ele><time>2026-05-01T17:54:34Z</time></trkpt><trkpt lat="43.39002755530039" lon="-2.7691770267435385"><ele>342.0</ele><time>2026-05-01T17:54:35Z</time></trkpt><trkpt lat="43.389913369945376" lon="-2.7691393894646987"><ele>342.0</ele><time>2026-05-01T17:54:36Z</time></trkpt><trkpt lat="43.389786507114" lon="-2.769102602286444"><ele>342.0</ele><time>2026-05-01T17:54:37Z</time></trkpt><trkpt lat="43.389664390717684" lon="-2.7690547747315506"><ele>342.0</ele><time>2026-05-01T17:54:38Z</time></trkpt><trkpt lat="43.38954945133507" lon="-2.768991823146378"><ele>338.40000000000003</ele><time>2026-05-01T17:54:39Z</time></trkpt><trkpt lat="43.38943706081074" lon="-2.768922463066156"><ele>334.8</ele><time>2026-05-01T17:54:40Z</time></trkpt><trkpt lat="43.3893256498927" lon="-2.7688777955899986"><ele>331.2</ele><time>2026-05-01T17:54:41Z</time></trkpt><trkpt lat="43.38922726491893" lon="-2.7688221047893844"><ele>327.6</ele><time>2026-05-01T17:54:42Z</time></trkpt><trkpt lat="43.38914023966517" lon="-2.768769776775456"><ele>324.0</ele><time>2026-05-01T17:54:43Z</time></trkpt><trkpt lat="43.389052793136095" lon="-2.768727962788445"><ele>324.0</ele><time>2026-05-01T17:54:44Z</time></trkpt><trkpt lat="43.38895739616906" lon="-2.768721472926653"><ele>324.0</ele><time>2026-05-01T17:54:45Z</time></trkpt><trkpt lat="43.38886666686178" lon="-2.7687597054346633"><ele>324.0</ele><time>2026-05-01T17:54:46Z</time></trkpt><trkpt lat="43.388778776884195" lon="-2.7688347505610285"><ele>324.0</ele><time>2026-05-01T17:54:47Z</time></trkpt><trkpt lat="43.38870403280585" lon="-2.768929640481461"><ele>324.0</ele><time>2026-05-01T17:54:48Z</time></trkpt><trkpt lat="43.38863738639478" lon="-2.769036989555259"><ele>326.6</ele><time>2026-05-01T17:54:49Z</time></trkpt><trkpt lat="43.38859293038296" lon="-2.7691647308316996"><ele>329.2</ele><time>2026-05-01T17:54:50Z</time></trkpt><trkpt lat="43.38858091407282" lon="-2.7693060260264697"><ele>331.8</ele><time>2026-05-01T17:54:51Z</time></trkpt><trkpt lat="43.38860399232644" lon="-2.7694366058764137"><ele>334.40000000000003</ele><time>2026-05-01T17:54:52Z</time></trkpt><trkpt lat="43.38862804167825" lon="-2.7695568348422737"><ele>337.0</ele><time>2026-05-01T17:54:53Z</time></trkpt><trkpt lat="43.3886567423495" lon="-2.7696523772479344"><ele>337.3333333333333</ele><time>2026-05-01T17:54:54Z</time></trkpt><trkpt lat="43.38868496782806" lon="-2.769742068016493"><ele>337.66666666666663</ele><time>2026-05-01T17:54:55Z</time></trkpt><trkpt lat="43.38871349094566" lon="-2.7698345002928755"><ele>338.0</ele><time>2026-05-01T17:54:56Z</time></trkpt><trkpt lat="43.38874861574354" lon="-2.7699305890900785"><ele>338.3333333333333</ele><time>2026-05-01T17:54:57Z</time></trkpt><trkpt lat="43.38878140782331" lon="-2.770032296109173"><ele>338.6666666666667</ele><time>2026-05-01T17:54:58Z</time></trkpt><trkpt lat="43.38881141768877" lon="-2.7701472640162192"><ele>339.0</ele><time>2026-05-01T17:54:59Z</time></trkpt><trkpt lat="43.38881071542332" lon="-2.770274223203603"><ele>337.1666666666667</ele><time>2026-05-01T17:55:00Z</time></trkpt><trkpt lat="43.38877950391297" lon="-2.770405404881966"><ele>335.3333333333333</ele><time>2026-05-01T17:55:01Z</time></trkpt><trkpt lat="43.388730158196964" lon="-2.770518540519379"><ele>333.5</ele><time>2026-05-01T17:55:02Z</time></trkpt><trkpt lat="43.38865713498353" lon="-2.7706096960594535"><ele>331.66666666666663</ele><time>2026-05-01T17:55:03Z</time></trkpt><trkpt lat="43.38862595230171" lon="-2.77070223065087"><ele>329.8333333333333</ele><time>2026-05-01T17:55:04Z</time></trkpt><trkpt lat="43.38858996831293" lon="-2.770793433326349"><ele>328.0</ele><time>2026-05-01T17:55:05Z</time></trkpt><trkpt lat="43.38854302326043" lon="-2.7708910879434767"><ele>328.0</ele><time>2026-05-01T17:55:06Z</time></trkpt><trkpt lat="43.38850168222777" lon="-2.770984170244546"><ele>328.0</ele><time>2026-05-01T17:55:07Z</time></trkpt><trkpt lat="43.38847255529288" lon="-2.7710774806926843"><ele>328.0</ele><time>2026-05-01T17:55:08Z</time></trkpt><trkpt lat="43.388436266599726" lon="-2.771154520560805"><ele>328.0</ele><time>2026-05-01T17:55:09Z</time></trkpt><trkpt lat="43.3883815924616" lon="-2.7712312430534696"><ele>328.0</ele><time>2026-05-01T17:55:10Z</time></trkpt><trkpt lat="43.38829591159931" lon="-2.7712579619647535"><ele>328.0</ele><time>2026-05-01T17:55:11Z</time></trkpt><trkpt lat="43.38818486673798" lon="-2.771235341857398"><ele>320.5</ele><time>2026-05-01T17:55:12Z</time></trkpt><trkpt lat="43.38808908804942" lon="-2.771211132267666"><ele>313.0</ele><time>2026-05-01T17:55:13Z</time></trkpt><trkpt lat="43.38321221613214" lon="-2.7735500251067107"><ele>313.0</ele><time>2026-05-01T17:56:14Z</time></trkpt><trkpt lat="43.38309368250902" lon="-2.7735763919521665"><ele>313.0</ele><time>2026-05-01T17:56:15Z</time></trkpt><trkpt lat="43.38299205674465" lon="-2.773599239337577"><ele>313.0</ele><time>2026-05-01T17:56:16Z</time></trkpt><trkpt lat="43.38288257791754" lon="-2.7736378998688607"><ele>313.0</ele><time>2026-05-01T17:56:17Z</time></trkpt><trkpt lat="43.382764636731196" lon="-2.773669823575569"><ele>313.0</ele><time>2026-05-01T17:56:18Z</time></trkpt><trkpt lat="43.382639077986646" lon="-2.773683153234274"><ele>313.0</ele><time>2026-05-01T17:56:19Z</time></trkpt><trkpt lat="43.382520320866114" lon="-2.7736909578763935"><ele>313.0</ele><time>2026-05-01T17:56:20Z</time></trkpt><trkpt lat="43.382401552891686" lon="-2.7736972838721963"><ele>313.0</ele><time>2026-05-01T17:56:21Z</time></trkpt><trkpt lat="43.38228878926705" lon="-2.7737009747249424"><ele>313.0</ele><time>2026-05-01T17:56:22Z</time></trkpt><trkpt lat="43.38219844551196" lon="-2.773706010592115"><ele>313.0</ele><time>2026-05-01T17:56:23Z</time></trkpt><trkpt lat="43.38212237689165" lon="-2.7737121488617236"><ele>313.0</ele><time>2026-05-01T17:56:24Z</time></trkpt><trkpt lat="43.382005644976644" lon="-2.7737393209246743"><ele>313.0</ele><time>2026-05-01T17:56:26Z</time></trkpt><trkpt lat="43.3819070116225" lon="-2.7738243940476446"><ele>313.0</ele><time>2026-05-01T17:56:28Z</time></trkpt><trkpt lat="43.381860409251004" lon="-2.7739050419955085"><ele>316.5</ele><time>2026-05-01T17:56:29Z</time></trkpt><trkpt lat="43.3818337060989" lon="-2.774002685656681"><ele>320.0</ele><time>2026-05-01T17:56:30Z</time></trkpt><trkpt lat="43.38180642338846" lon="-2.7740889366395676"><ele>323.5</ele><time>2026-05-01T17:56:31Z</time></trkpt><trkpt lat="43.38179187829301" lon="-2.7741865566507506"><ele>327.0</ele><time>2026-05-01T17:56:32Z</time></trkpt><trkpt lat="43.381792868166535" lon="-2.774314340017705"><ele>330.5</ele><time>2026-05-01T17:56:33Z</time></trkpt><trkpt lat="43.38181873173281" lon="-2.774448100144023"><ele>334.0</ele><time>2026-05-01T17:56:34Z</time></trkpt><trkpt lat="43.38186060914504" lon="-2.7745902097236623"><ele>338.0</ele><time>2026-05-01T17:56:35Z</time></trkpt><trkpt lat="43.38192106153626" lon="-2.7747174964681345"><ele>342.0</ele><time>2026-05-01T17:56:36Z</time></trkpt><trkpt lat="43.381976144076056" lon="-2.7748416317915936"><ele>346.0</ele><time>2026-05-01T17:56:37Z</time></trkpt><trkpt lat="43.38203515545218" lon="-2.774962340434459"><ele>350.0</ele><time>2026-05-01T17:56:38Z</time></trkpt><trkpt lat="43.38208625494698" lon="-2.775086147560211"><ele>354.0</ele><time>2026-05-01T17:56:39Z</time></trkpt><trkpt lat="43.38214485889885" lon="-2.7752206151509355"><ele>354.3333333333333</ele><time>2026-05-01T17:56:40Z</time></trkpt><trkpt lat="43.38219009097287" lon="-2.775335181969511"><ele>354.6666666666667</ele><time>2026-05-01T17:56:41Z</time></trkpt><trkpt lat="43.382242873507884" lon="-2.7754255677820554"><ele>355.0</ele><time>2026-05-01T17:56:42Z</time></trkpt><trkpt lat="43.382304838011606" lon="-2.775508564065171"><ele>355.33333333333337</ele><time>2026-05-01T17:56:43Z</time></trkpt><trkpt lat="43.38237087521996" lon="-2.7755839922056613"><ele>355.6666666666667</ele><time>2026-05-01T17:56:44Z</time></trkpt><trkpt lat="43.38245378713653" lon="-2.775629839837737"><ele>356.0</ele><time>2026-05-01T17:56:45Z</time></trkpt><trkpt lat="43.38254483546031" lon="-2.775680730573456"><ele>356.0</ele><time>2026-05-01T17:56:46Z</time></trkpt><trkpt lat="43.38263758807633" lon="-2.7757310240225634"><ele>356.0</ele><time>2026-05-01T17:56:47Z</time></trkpt><trkpt lat="43.38273231682215" lon="-2.77579020551068"><ele>356.0</ele><time>2026-05-01T17:56:48Z</time></trkpt><trkpt lat="43.38282600449794" lon="-2.7758503466430478"><ele>356.0</ele><time>2026-05-01T17:56:49Z</time></trkpt><trkpt lat="43.382911673863596" lon="-2.7759078527284786"><ele>356.0</ele><time>2026-05-01T17:56:50Z</time></trkpt><trkpt lat="43.38300302586967" lon="-2.7759609377243732"><ele>357.4</ele><time>2026-05-01T17:56:51Z</time></trkpt><trkpt lat="43.38310584630303" lon="-2.776006387885294"><ele>358.8</ele><time>2026-05-01T17:56:52Z</time></trkpt><trkpt lat="43.383216655254486" lon="-2.776042883871552"><ele>360.2</ele><time>2026-05-01T17:56:53Z</time></trkpt><trkpt lat="43.383318344475896" lon="-2.7760736921365297"><ele>361.59999999999997</ele><time>2026-05-01T17:56:54Z</time></trkpt><trkpt lat="43.383423570963835" lon="-2.7761007267229845"><ele>363.0</ele><time>2026-05-01T17:56:55Z</time></trkpt><trkpt lat="43.383519644894484" lon="-2.776130675454034"><ele>363.0</ele><time>2026-05-01T17:56:56Z</time></trkpt><trkpt lat="43.383616428706176" lon="-2.776167776349526"><ele>363.0</ele><time>2026-05-01T17:56:57Z</time></trkpt><trkpt lat="43.38370774872576" lon="-2.7762079174523273"><ele>363.0</ele><time>2026-05-01T17:56:58Z</time></trkpt><trkpt lat="43.38378751336952" lon="-2.7762460585892152"><ele>363.0</ele><time>2026-05-01T17:56:59Z</time></trkpt><trkpt lat="43.38387884167889" lon="-2.7762970446999606"><ele>363.0</ele><time>2026-05-01T17:57:00Z</time></trkpt><trkpt lat="43.38396648360705" lon="-2.7763447016437595"><ele>360.79999999999995</ele><time>2026-05-01T17:57:01Z</time></trkpt><trkpt lat="43.38404519491406" lon="-2.776400431011359"><ele>358.6</ele><time>2026-05-01T17:57:02Z</time></trkpt><trkpt lat="43.38413505157824" lon="-2.7764673020855177"><ele>356.4</ele><time>2026-05-01T17:57:03Z</time></trkpt><trkpt lat="43.38423890511816" lon="-2.7765732006007253"><ele>354.20000000000005</ele><time>2026-05-01T17:57:04Z</time></trkpt><trkpt lat="43.38432613491837" lon="-2.7766943375583444"><ele>352.0</ele><time>2026-05-01T17:57:05Z</time></trkpt><trkpt lat="43.3844028916319" lon="-2.776823167592964"><ele>351.5</ele><time>2026-05-01T17:57:06Z</time></trkpt><trkpt lat="43.38446804332403" lon="-2.776967678186073"><ele>351.0</ele><time>2026-05-01T17:57:07Z</time></trkpt><trkpt lat="43.3845295140588" lon="-2.7771117864196464"><ele>350.5</ele><time>2026-05-01T17:57:08Z</time></trkpt><trkpt lat="43.38459232309298" lon="-2.777255075271383"><ele>350.0</ele><time>2026-05-01T17:57:09Z</time></trkpt><trkpt lat="43.38465820451508" lon="-2.7774038671226458"><ele>348.25</ele><time>2026-05-01T17:57:10Z</time></trkpt><trkpt lat="43.38472663645648" lon="-2.7775482711264328"><ele>346.5</ele><time>2026-05-01T17:57:11Z</time></trkpt><trkpt lat="43.3847960639095" lon="-2.7776829578638127"><ele>344.75</ele><time>2026-05-01T17:57:12Z</time></trkpt><trkpt lat="43.38485378567509" lon="-2.777811982003333"><ele>343.0</ele><time>2026-05-01T17:57:13Z</time></trkpt><trkpt lat="43.385591013352055" lon="-2.78167151366029"><ele>329.25</ele><time>2026-05-01T17:58:14Z</time></trkpt><trkpt lat="43.38556318038403" lon="-2.78189482157142"><ele>315.5</ele><time>2026-05-01T17:58:15Z</time></trkpt><trkpt lat="43.38554313634087" lon="-2.7820839996975812"><ele>301.75</ele><time>2026-05-01T17:58:16Z</time></trkpt><trkpt lat="43.3855124458254" lon="-2.782266729295849"><ele>288.0</ele><time>2026-05-01T17:58:17Z</time></trkpt><trkpt lat="43.38549568446827" lon="-2.7824423834816194"><ele>276.6666666666667</ele><time>2026-05-01T17:58:18Z</time></trkpt><trkpt lat="43.38553150809862" lon="-2.7826340311931577"><ele>265.33333333333337</ele><time>2026-05-01T17:58:19Z</time></trkpt><trkpt lat="43.38556848312905" lon="-2.782890467069435"><ele>254.0</ele><time>2026-05-01T17:58:20Z</time></trkpt><trkpt lat="43.38560865721283" lon="-2.783199806729969"><ele>251.0</ele><time>2026-05-01T17:58:21Z</time></trkpt><trkpt lat="43.385643926053675" lon="-2.783477154321225"><ele>248.0</ele><time>2026-05-01T17:58:22Z</time></trkpt><trkpt lat="43.3856700453402" lon="-2.783672195556219"><ele>245.0</ele><time>2026-05-01T17:58:23Z</time></trkpt><trkpt lat="43.38570352652057" lon="-2.7839155146858294"><ele>243.66666666666669</ele><time>2026-05-01T17:58:24Z</time></trkpt><trkpt lat="43.38573415297842" lon="-2.7841527221093973"><ele>242.33333333333331</ele><time>2026-05-01T17:58:25Z</time></trkpt><trkpt lat="43.38576573142545" lon="-2.7844199358243102"><ele>241.0</ele><time>2026-05-01T17:58:26Z</time></trkpt><trkpt lat="43.38579339877091" lon="-2.78463667143046"><ele>240.0</ele><time>2026-05-01T17:58:27Z</time></trkpt><trkpt lat="43.385820682612696" lon="-2.784821305012078"><ele>239.0</ele><time>2026-05-01T17:58:28Z</time></trkpt><trkpt lat="43.385832693601316" lon="-2.7849993185222446"><ele>238.0</ele><time>2026-05-01T17:58:29Z</time></trkpt><trkpt lat="43.385864305168006" lon="-2.7851672324331886"><ele>237.0</ele><time>2026-05-01T17:58:30Z</time></trkpt><trkpt lat="43.38588366030032" lon="-2.785319442414019"><ele>235.5</ele><time>2026-05-01T17:58:31Z</time></trkpt><trkpt lat="43.38586547500787" lon="-2.7855104911449877"><ele>234.0</ele><time>2026-05-01T17:58:32Z</time></trkpt><trkpt lat="43.385877659557984" lon="-2.7856969689167874"><ele>232.5</ele><time>2026-05-01T17:58:33Z</time></trkpt><trkpt lat="43.385864285724594" lon="-2.785876044728387"><ele>231.0</ele><time>2026-05-01T17:58:34Z</time></trkpt><trkpt lat="43.385845960797006" lon="-2.78604616813953"><ele>229.4</ele><time>2026-05-01T17:58:35Z</time></trkpt><trkpt lat="43.385837097399545" lon="-2.786202051696569"><ele>227.8</ele><time>2026-05-01T17:58:36Z</time></trkpt><trkpt lat="43.385822228987315" lon="-2.7863344887854913"><ele>226.20000000000002</ele><time>2026-05-01T17:58:37Z</time></trkpt><trkpt lat="43.38582044496059" lon="-2.78647006239255"><ele>224.60000000000002</ele><time>2026-05-01T17:58:38Z</time></trkpt><trkpt lat="43.385797368773964" lon="-2.7865994581944924"><ele>223.0</ele><time>2026-05-01T17:58:39Z</time></trkpt><trkpt lat="43.38575082890206" lon="-2.7867408627135304"><ele>222.0</ele><time>2026-05-01T17:58:40Z</time></trkpt><trkpt lat="43.38569066339753" lon="-2.786857149095179"><ele>221.0</ele><time>2026-05-01T17:58:41Z</time></trkpt><trkpt lat="43.385634404511244" lon="-2.7869707004733506"><ele>220.0</ele><time>2026-05-01T17:58:42Z</time></trkpt><trkpt lat="43.38553234027209" lon="-2.7871001231512027"><ele>219.0</ele><time>2026-05-01T17:58:43Z</time></trkpt><trkpt lat="43.38544084974326" lon="-2.7872302715579105"><ele>219.0</ele><time>2026-05-01T17:58:44Z</time></trkpt><trkpt lat="43.38535134993524" lon="-2.787378856638298"><ele>219.0</ele><time>2026-05-01T17:58:45Z</time></trkpt><trkpt lat="43.38524155564453" lon="-2.7875074699386326"><ele>219.0</ele><time>2026-05-01T17:58:46Z</time></trkpt><trkpt lat="43.385113547518124" lon="-2.7876467793937287"><ele>219.0</ele><time>2026-05-01T17:58:47Z</time></trkpt><trkpt lat="43.38497809348386" lon="-2.7877599649382296"><ele>215.0</ele><time>2026-05-01T17:58:48Z</time></trkpt><trkpt lat="43.384841690234694" lon="-2.787860113303133"><ele>211.0</ele><time>2026-05-01T17:58:49Z</time></trkpt><trkpt lat="43.384718078488696" lon="-2.787946295640465"><ele>207.0</ele><time>2026-05-01T17:58:50Z</time></trkpt><trkpt lat="43.38459128455738" lon="-2.788069552950808"><ele>203.0</ele><time>2026-05-01T17:58:51Z</time></trkpt><trkpt lat="43.384475002617016" lon="-2.788145552522431"><ele>203.0</ele><time>2026-05-01T17:58:52Z</time></trkpt><trkpt lat="43.384357775381716" lon="-2.7882130109124854"><ele>203.0</ele><time>2026-05-01T17:58:53Z</time></trkpt><trkpt lat="43.38422497018099" lon="-2.7882752370209394"><ele>203.0</ele><time>2026-05-01T17:58:54Z</time></trkpt><trkpt lat="43.38408739659642" lon="-2.7882885146669047"><ele>203.0</ele><time>2026-05-01T17:58:55Z</time></trkpt><trkpt lat="43.38395028799361" lon="-2.7882787987038387"><ele>201.0</ele><time>2026-05-01T17:58:56Z</time></trkpt><trkpt lat="43.38382691126024" lon="-2.7882782703329503"><ele>199.0</ele><time>2026-05-01T17:58:57Z</time></trkpt><trkpt lat="43.38370756230288" lon="-2.7882787521364154"><ele>197.0</ele><time>2026-05-01T17:58:58Z</time></trkpt><trkpt lat="43.38356846950539" lon="-2.7882860373500558"><ele>195.0</ele><time>2026-05-01T17:58:59Z</time></trkpt><trkpt lat="43.38345445710105" lon="-2.7882913537530545"><ele>195.0</ele><time>2026-05-01T17:59:00Z</time></trkpt><trkpt lat="43.383340505196145" lon="-2.7882932116917876"><ele>195.0</ele><time>2026-05-01T17:59:01Z</time></trkpt><trkpt lat="43.383226511460585" lon="-2.7883220350330924"><ele>195.0</ele><time>2026-05-01T17:59:02Z</time></trkpt><trkpt lat="43.383128314454794" lon="-2.7883652380805333"><ele>195.0</ele><time>2026-05-01T17:59:03Z</time></trkpt><trkpt lat="43.38303524041715" lon="-2.788428269286074"><ele>195.0</ele><time>2026-05-01T17:59:04Z</time></trkpt><trkpt lat="43.38292717619298" lon="-2.7884789420648697"><ele>194.8</ele><time>2026-05-01T17:59:05Z</time></trkpt><trkpt lat="43.38282477818261" lon="-2.7885091492825387"><ele>194.6</ele><time>2026-05-01T17:59:06Z</time></trkpt><trkpt lat="43.38271623421166" lon="-2.7885078732642246"><ele>194.39999999999998</ele><time>2026-05-01T17:59:07Z</time></trkpt><trkpt lat="43.382601940523074" lon="-2.788485036550413"><ele>194.2</ele><time>2026-05-01T17:59:08Z</time></trkpt><trkpt lat="43.38248961322595" lon="-2.788440042427279"><ele>194.0</ele><time>2026-05-01T17:59:09Z</time></trkpt><trkpt lat="43.38240265194028" lon="-2.78839515106113"><ele>194.0</ele><time>2026-05-01T17:59:10Z</time></trkpt><trkpt lat="43.38232235442273" lon="-2.788325802908278"><ele>194.0</ele><time>2026-05-01T17:59:11Z</time></trkpt><trkpt lat="43.38224827154618" lon="-2.7882591399087078"><ele>194.0</ele><time>2026-05-01T17:59:12Z</time></trkpt><trkpt lat="43.382179115806274" lon="-2.7882017213635306"><ele>194.0</ele><time>2026-05-01T17:59:13Z</time></trkpt><trkpt lat="43.378267418195335" lon="-2.793277305223395"><ele>178.75</ele><time>2026-05-01T18:00:14Z</time></trkpt><trkpt lat="43.378159933384154" lon="-2.7933389591531643"><ele>163.5</ele><time>2026-05-01T18:00:15Z</time></trkpt><trkpt lat="43.37804672047394" lon="-2.7934084968483526"><ele>148.25</ele><time>2026-05-01T18:00:16Z</time></trkpt><trkpt lat="43.377934023479796" lon="-2.793499122854179"><ele>133.0</ele><time>2026-05-01T18:00:17Z</time></trkpt><trkpt lat="43.37781677868598" lon="-2.793553087668768"><ele>129.5</ele><time>2026-05-01T18:00:18Z</time></trkpt><trkpt lat="43.37770009868059" lon="-2.793609375418598"><ele>126.0</ele><time>2026-05-01T18:00:19Z</time></trkpt><trkpt lat="43.377587104499014" lon="-2.793675589582424"><ele>122.5</ele><time>2026-05-01T18:00:20Z</time></trkpt><trkpt lat="43.37748805765437" lon="-2.793773592462683"><ele>119.0</ele><time>2026-05-01T18:00:21Z</time></trkpt><trkpt lat="43.377393481205544" lon="-2.7939164321535777"><ele>119.0</ele><time>2026-05-01T18:00:22Z</time></trkpt><trkpt lat="43.377300710799716" lon="-2.794058243702654"><ele>119.0</ele><time>2026-05-01T18:00:23Z</time></trkpt><trkpt lat="43.37723328054678" lon="-2.7941898925094186"><ele>119.0</ele><time>2026-05-01T18:00:24Z</time></trkpt><trkpt lat="43.37715417571101" lon="-2.794316115666072"><ele>119.0</ele><time>2026-05-01T18:00:25Z</time></trkpt><trkpt lat="43.377087012448854" lon="-2.794447253304232"><ele>118.4</ele><time>2026-05-01T18:00:26Z</time></trkpt><trkpt lat="43.37702829434034" lon="-2.7945811645503364"><ele>117.80000000000001</ele><time>2026-05-01T18:00:27Z</time></trkpt><trkpt lat="43.37699555671918" lon="-2.7947140260806003"><ele>117.19999999999999</ele><time>2026-05-01T18:00:28Z</time></trkpt><trkpt lat="43.376977891854814" lon="-2.794873907578453"><ele>116.6</ele><time>2026-05-01T18:00:29Z</time></trkpt><trkpt lat="43.37697026051084" lon="-2.7950253910226976"><ele>116.0</ele><time>2026-05-01T18:00:30Z</time></trkpt><trkpt lat="43.376965509955255" lon="-2.7951890485970976"><ele>112.5</ele><time>2026-05-01T18:00:31Z</time></trkpt><trkpt lat="43.37696958800926" lon="-2.795337784523824"><ele>109.0</ele><time>2026-05-01T18:00:32Z</time></trkpt><trkpt lat="43.37696946179646" lon="-2.7954591139503493"><ele>105.5</ele><time>2026-05-01T18:00:33Z</time></trkpt><trkpt lat="43.37694253504674" lon="-2.7956218261258203"><ele>102.0</ele><time>2026-05-01T18:00:34Z</time></trkpt><trkpt lat="43.376874947415516" lon="-2.7957878660599804"><ele>102.0</ele><time>2026-05-01T18:00:35Z</time></trkpt><trkpt lat="43.37677155309947" lon="-2.795961085795522"><ele>102.0</ele><time>2026-05-01T18:00:36Z</time></trkpt><trkpt lat="43.37662513863744" lon="-2.796190630055806"><ele>102.0</ele><time>2026-05-01T18:00:37Z</time></trkpt><trkpt lat="43.37647581771065" lon="-2.796420819009482"><ele>98.5</ele><time>2026-05-01T18:00:38Z</time></trkpt><trkpt lat="43.37632738080911" lon="-2.7966586007144003"><ele>95.0</ele><time>2026-05-01T18:00:39Z</time></trkpt><trkpt lat="43.37617572934044" lon="-2.7968997317222013"><ele>91.0</ele><time>2026-05-01T18:00:40Z</time></trkpt><trkpt lat="43.37602246990784" lon="-2.797136224836079"><ele>87.0</ele><time>2026-05-01T18:00:41Z</time></trkpt><trkpt lat="43.37587051381833" lon="-2.797366085767573"><ele>87.0</ele><time>2026-05-01T18:00:42Z</time></trkpt><trkpt lat="43.37571686137396" lon="-2.797586073303398"><ele>87.0</ele><time>2026-05-01T18:00:43Z</time></trkpt><trkpt lat="43.37556994939377" lon="-2.7978101917968794"><ele>87.0</ele><time>2026-05-01T18:00:44Z</time></trkpt><trkpt lat="43.375424848166446" lon="-2.7980448527817083"><ele>85.0</ele><time>2026-05-01T18:00:45Z</time></trkpt><trkpt lat="43.37527586602755" lon="-2.798262804867704"><ele>83.0</ele><time>2026-05-01T18:00:46Z</time></trkpt><trkpt lat="43.37512533663163" lon="-2.7984850776239276"><ele>81.0</ele><time>2026-05-01T18:00:47Z</time></trkpt><trkpt lat="43.37499025199081" lon="-2.798726706474659"><ele>80.0</ele><time>2026-05-01T18:00:48Z</time></trkpt><trkpt lat="43.37482708866028" lon="-2.7989503488374257"><ele>79.0</ele><time>2026-05-01T18:00:49Z</time></trkpt><trkpt lat="43.37467524290762" lon="-2.7991855513094634"><ele>77.0</ele><time>2026-05-01T18:00:50Z</time></trkpt><trkpt lat="43.37452552126141" lon="-2.799430228825771"><ele>75.0</ele><time>2026-05-01T18:00:51Z</time></trkpt><trkpt lat="43.374373836106955" lon="-2.7996650100986296"><ele>75.0</ele><time>2026-05-01T18:00:52Z</time></trkpt><trkpt lat="43.374227664860726" lon="-2.7998860051755474"><ele>75.0</ele><time>2026-05-01T18:00:53Z</time></trkpt><trkpt lat="43.37408849127602" lon="-2.800095255198689"><ele>75.0</ele><time>2026-05-01T18:00:54Z</time></trkpt><trkpt lat="43.37395448919896" lon="-2.8002989147017043"><ele>75.0</ele><time>2026-05-01T18:00:55Z</time></trkpt><trkpt lat="43.37382635042587" lon="-2.8004859028448634"><ele>75.0</ele><time>2026-05-01T18:00:56Z</time></trkpt><trkpt lat="43.37372054459625" lon="-2.8006468527545416"><ele>75.0</ele><time>2026-05-01T18:00:57Z</time></trkpt><trkpt lat="43.37362345661439" lon="-2.8008119377763245"><ele>75.0</ele><time>2026-05-01T18:00:58Z</time></trkpt><trkpt lat="43.373539421968424" lon="-2.800942293460238"><ele>75.0</ele><time>2026-05-01T18:00:59Z</time></trkpt><trkpt lat="43.37345802588453" lon="-2.8010827116770862"><ele>75.0</ele><time>2026-05-01T18:01:00Z</time></trkpt><trkpt lat="43.37341130756295" lon="-2.801233198486544"><ele>75.0</ele><time>2026-05-01T18:01:01Z</time></trkpt><trkpt lat="43.37341195669396" lon="-2.8013703827470375"><ele>74.5</ele><time>2026-05-01T18:01:02Z</time></trkpt><trkpt lat="43.3733592004638" lon="-2.8014970569104998"><ele>74.0</ele><time>2026-05-01T18:01:03Z</time></trkpt><trkpt lat="43.37321781759573" lon="-2.8015725213473073"><ele>73.5</ele><time>2026-05-01T18:01:04Z</time></trkpt><trkpt lat="43.37308084443801" lon="-2.8016988435263275"><ele>73.0</ele><time>2026-05-01T18:01:05Z</time></trkpt><trkpt lat="43.37297009246442" lon="-2.801877356480414"><ele>73.0</ele><time>2026-05-01T18:01:06Z</time></trkpt><trkpt lat="43.3728423016564" lon="-2.802079401282307"><ele>73.0</ele><time>2026-05-01T18:01:07Z</time></trkpt><trkpt lat="43.372698932363626" lon="-2.802305837796007"><ele>73.0</ele><time>2026-05-01T18:01:08Z</time></trkpt><trkpt lat="43.372561803136094" lon="-2.802521982022997"><ele>72.66666666666666</ele><time>2026-05-01T18:01:09Z</time></trkpt><trkpt lat="43.37241982485925" lon="-2.8027455843422437"><ele>72.33333333333333</ele><time>2026-05-01T18:01:10Z</time></trkpt><trkpt lat="43.37228403910573" lon="-2.802961246599506"><ele>72.0</ele><time>2026-05-01T18:01:11Z</time></trkpt><trkpt lat="43.372145881266874" lon="-2.803178169544399"><ele>73.5</ele><time>2026-05-01T18:01:12Z</time></trkpt><trkpt lat="43.371990997316445" lon="-2.8033893326128903"><ele>75.0</ele><time>2026-05-01T18:01:13Z</time></trkpt><trkpt lat="43.36424712513585" lon="-2.8154986241367994"><ele>73.66666666666667</ele><time>2026-05-01T18:02:14Z</time></trkpt><trkpt lat="43.364122259417414" lon="-2.8156964309685395"><ele>72.33333333333334</ele><time>2026-05-01T18:02:15Z</time></trkpt><trkpt lat="43.36401797871259" lon="-2.8158906822469927"><ele>71.0</ele><time>2026-05-01T18:02:16Z</time></trkpt><trkpt lat="43.36392957709324" lon="-2.816093899752218"><ele>66.66666666666667</ele><time>2026-05-01T18:02:17Z</time></trkpt><trkpt lat="43.363860930527274" lon="-2.8163075429038242"><ele>62.33333333333333</ele><time>2026-05-01T18:02:18Z</time></trkpt><trkpt lat="43.36380941512521" lon="-2.8165389758242503"><ele>58.0</ele><time>2026-05-01T18:02:19Z</time></trkpt><trkpt lat="43.36379401693468" lon="-2.816795955876022"><ele>59.33333333333333</ele><time>2026-05-01T18:02:20Z</time></trkpt><trkpt lat="43.36380429653276" lon="-2.8170564659735837"><ele>60.66666666666667</ele><time>2026-05-01T18:02:21Z</time></trkpt><trkpt lat="43.36382860831286" lon="-2.817282696739885"><ele>62.0</ele><time>2026-05-01T18:02:22Z</time></trkpt><trkpt lat="43.36385070507723" lon="-2.8174905906682124"><ele>64.25</ele><time>2026-05-01T18:02:23Z</time></trkpt><trkpt lat="43.3638546041374" lon="-2.8176744529667337"><ele>66.5</ele><time>2026-05-01T18:02:24Z</time></trkpt><trkpt lat="43.36384366441586" lon="-2.8178467013190014"><ele>68.75</ele><time>2026-05-01T18:02:25Z</time></trkpt><trkpt lat="43.363811895346075" lon="-2.81799623738904"><ele>71.0</ele><time>2026-05-01T18:02:26Z</time></trkpt><trkpt lat="43.36378599687704" lon="-2.8181483245959633"><ele>71.0</ele><time>2026-05-01T18:02:27Z</time></trkpt><trkpt lat="43.36373736345636" lon="-2.818309061203921"><ele>71.0</ele><time>2026-05-01T18:02:28Z</time></trkpt><trkpt lat="43.36370663932041" lon="-2.8184843174469782"><ele>71.0</ele><time>2026-05-01T18:02:29Z</time></trkpt><trkpt lat="43.36364708009874" lon="-2.818618754231402"><ele>71.0</ele><time>2026-05-01T18:02:30Z</time></trkpt><trkpt lat="43.36359816194404" lon="-2.8187504121510063"><ele>75.0</ele><time>2026-05-01T18:02:31Z</time></trkpt><trkpt lat="43.36355340522253" lon="-2.818882478560623"><ele>79.0</ele><time>2026-05-01T18:02:32Z</time></trkpt><trkpt lat="43.36352491381051" lon="-2.8190318288269305"><ele>83.0</ele><time>2026-05-01T18:02:33Z</time></trkpt><trkpt lat="43.363475678730914" lon="-2.819164768592069"><ele>87.0</ele><time>2026-05-01T18:02:34Z</time></trkpt><trkpt lat="43.36343033074897" lon="-2.819343893027689"><ele>88.0</ele><time>2026-05-01T18:02:35Z</time></trkpt><trkpt lat="43.363400933341836" lon="-2.8195140989540466"><ele>89.0</ele><time>2026-05-01T18:02:36Z</time></trkpt><trkpt lat="43.363387953419284" lon="-2.819676164916941"><ele>90.0</ele><time>2026-05-01T18:02:37Z</time></trkpt><trkpt lat="43.3633888801166" lon="-2.81981972628771"><ele>91.0</ele><time>2026-05-01T18:02:38Z</time></trkpt><trkpt lat="43.363391757494966" lon="-2.819967147854524"><ele>91.0</ele><time>2026-05-01T18:02:39Z</time></trkpt><trkpt lat="43.36341093914612" lon="-2.8201182006973893"><ele>91.0</ele><time>2026-05-01T18:02:40Z</time></trkpt><trkpt lat="43.363470773275324" lon="-2.8203054690328417"><ele>91.0</ele><time>2026-05-01T18:02:41Z</time></trkpt><trkpt lat="43.363515605618325" lon="-2.8204725493654323"><ele>91.0</ele><time>2026-05-01T18:02:42Z</time></trkpt><trkpt lat="43.363588144581165" lon="-2.820632851301694"><ele>90.25</ele><time>2026-05-01T18:02:43Z</time></trkpt><trkpt lat="43.36367592702109" lon="-2.820791040587976"><ele>89.5</ele><time>2026-05-01T18:02:44Z</time></trkpt><trkpt lat="43.36374339822652" lon="-2.8209394588703893"><ele>88.75</ele><time>2026-05-01T18:02:45Z</time></trkpt><trkpt lat="43.36385519350733" lon="-2.821068160466912"><ele>88.0</ele><time>2026-05-01T18:02:46Z</time></trkpt><trkpt lat="43.36397594795423" lon="-2.821174456482746"><ele>90.5</ele><time>2026-05-01T18:02:47Z</time></trkpt><trkpt lat="43.364107759914575" lon="-2.8212553176214805"><ele>93.0</ele><time>2026-05-01T18:02:48Z</time></trkpt><trkpt lat="43.36424473823212" lon="-2.8213096594030693"><ele>95.5</ele><time>2026-05-01T18:02:49Z</time></trkpt><trkpt lat="43.36437633622567" lon="-2.8213496626702477"><ele>98.0</ele><time>2026-05-01T18:02:50Z</time></trkpt><trkpt lat="43.36451653152111" lon="-2.8213912182851466"><ele>98.0</ele><time>2026-05-01T18:02:51Z</time></trkpt><trkpt lat="43.36465222411873" lon="-2.821420456782334"><ele>98.0</ele><time>2026-05-01T18:02:52Z</time></trkpt><trkpt lat="43.36479456733529" lon="-2.821460429383297"><ele>98.0</ele><time>2026-05-01T18:02:53Z</time></trkpt><trkpt lat="43.36492517142799" lon="-2.821524422874652"><ele>98.0</ele><time>2026-05-01T18:02:54Z</time></trkpt><trkpt lat="43.36505700149952" lon="-2.821614433507827"><ele>98.33333333333333</ele><time>2026-05-01T18:02:55Z</time></trkpt><trkpt lat="43.36519353284879" lon="-2.8217265658420887"><ele>98.66666666666666</ele><time>2026-05-01T18:02:56Z</time></trkpt><trkpt lat="43.3653115660592" lon="-2.8218429005088557"><ele>99.0</ele><time>2026-05-01T18:02:57Z</time></trkpt><trkpt lat="43.365444284375315" lon="-2.8219663738613847"><ele>100.33333333333334</ele><time>2026-05-01T18:02:58Z</time></trkpt><trkpt lat="43.36556793568815" lon="-2.8221116276404232"><ele>101.66666666666667</ele><time>2026-05-01T18:02:59Z</time></trkpt><trkpt lat="43.365689277305044" lon="-2.82228071011085"><ele>103.0</ele><time>2026-05-01T18:03:00Z</time></trkpt><trkpt lat="43.36580396907876" lon="-2.822405296415016"><ele>103.0</ele><time>2026-05-01T18:03:01Z</time></trkpt><trkpt lat="43.36589744507461" lon="-2.822529322775631"><ele>103.0</ele><time>2026-05-01T18:03:02Z</time></trkpt><trkpt lat="43.36597809541552" lon="-2.822647927203451"><ele>103.0</ele><time>2026-05-01T18:03:03Z</time></trkpt><trkpt lat="43.36604521514089" lon="-2.822768893397692"><ele>103.0</ele><time>2026-05-01T18:03:04Z</time></trkpt><trkpt lat="43.36609589790235" lon="-2.8228924454083653"><ele>104.0</ele><time>2026-05-01T18:03:05Z</time></trkpt><trkpt lat="43.36613896697341" lon="-2.823034113533637"><ele>105.0</ele><time>2026-05-01T18:03:06Z</time></trkpt><trkpt lat="43.36615608608866" lon="-2.8231898812860408"><ele>106.0</ele><time>2026-05-01T18:03:07Z</time></trkpt><trkpt lat="43.366155311136175" lon="-2.823351697071939"><ele>107.0</ele><time>2026-05-01T18:03:08Z</time></trkpt><trkpt lat="43.366131675743034" lon="-2.8235174851281037"><ele>108.39999999999999</ele><time>2026-05-01T18:03:09Z</time></trkpt><trkpt lat="43.366093351092346" lon="-2.8236616916431374"><ele>109.79999999999998</ele><time>2026-05-01T18:03:10Z</time></trkpt><trkpt lat="43.36603718976349" lon="-2.823790894722155"><ele>111.2</ele><time>2026-05-01T18:03:11Z</time></trkpt><trkpt lat="43.36596974145225" lon="-2.8238993733325986"><ele>112.6</ele><time>2026-05-01T18:03:12Z</time></trkpt><trkpt lat="43.36589794329519" lon="-2.824003644831947"><ele>114.0</ele><time>2026-05-01T18:03:13Z</time></trkpt><trkpt lat="43.361514203714194" lon="-2.832116473249187"><ele>101.5</ele><time>2026-05-01T18:04:14Z</time></trkpt><trkpt lat="43.36145771586202" lon="-2.832284910863115"><ele>89.0</ele><time>2026-05-01T18:04:15Z</time></trkpt><trkpt lat="43.36139230179945" lon="-2.832476992755754"><ele>76.5</ele><time>2026-05-01T18:04:16Z</time></trkpt><trkpt lat="43.361322085035766" lon="-2.832666645121147"><ele>64.0</ele><time>2026-05-01T18:04:17Z</time></trkpt><trkpt lat="43.36125075699034" lon="-2.832857468376008"><ele>63.666666666666664</ele><time>2026-05-01T18:04:18Z</time></trkpt><trkpt lat="43.361176269241284" lon="-2.833059027518669"><ele>63.33333333333333</ele><time>2026-05-01T18:04:19Z</time></trkpt><trkpt lat="43.361099690077666" lon="-2.8332603456114778"><ele>63.0</ele><time>2026-05-01T18:04:20Z</time></trkpt><trkpt lat="43.36102528215284" lon="-2.833464025261466"><ele>61.5</ele><time>2026-05-01T18:04:21Z</time></trkpt><trkpt lat="43.36095299948613" lon="-2.8336592255170783"><ele>60.0</ele><time>2026-05-01T18:04:22Z</time></trkpt><trkpt lat="43.360887762888034" lon="-2.833838753585436"><ele>58.5</ele><time>2026-05-01T18:04:23Z</time></trkpt><trkpt lat="43.36082499873722" lon="-2.8340097810075027"><ele>57.0</ele><time>2026-05-01T18:04:24Z</time></trkpt><trkpt lat="43.36075522916543" lon="-2.834176700741695"><ele>55.5</ele><time>2026-05-01T18:04:25Z</time></trkpt><trkpt lat="43.360671128743036" lon="-2.8343289820038056"><ele>54.0</ele><time>2026-05-01T18:04:26Z</time></trkpt><trkpt lat="43.36057847863338" lon="-2.834468679265542"><ele>52.5</ele><time>2026-05-01T18:04:27Z</time></trkpt><trkpt lat="43.36047206199553" lon="-2.8345816817826037"><ele>51.0</ele><time>2026-05-01T18:04:28Z</time></trkpt><trkpt lat="43.36037139399913" lon="-2.8347179112009226"><ele>50.66666666666667</ele><time>2026-05-01T18:04:29Z</time></trkpt><trkpt lat="43.36023547349856" lon="-2.8347998330278794"><ele>50.333333333333336</ele><time>2026-05-01T18:04:30Z</time></trkpt><trkpt lat="43.36009870575384" lon="-2.834883961678744"><ele>50.0</ele><time>2026-05-01T18:04:31Z</time></trkpt><trkpt lat="43.35995326500447" lon="-2.8349580606550715"><ele>50.0</ele><time>2026-05-01T18:04:32Z</time></trkpt><trkpt lat="43.3598028580031" lon="-2.835024889540553"><ele>50.0</ele><time>2026-05-01T18:04:33Z</time></trkpt><trkpt lat="43.35965795382609" lon="-2.835078938664234"><ele>50.0</ele><time>2026-05-01T18:04:34Z</time></trkpt><trkpt lat="43.35951357162242" lon="-2.8351494737064518"><ele>46.0</ele><time>2026-05-01T18:04:35Z</time></trkpt><trkpt lat="43.35936094883898" lon="-2.8352218272018685"><ele>42.0</ele><time>2026-05-01T18:04:36Z</time></trkpt><trkpt lat="43.35920899973904" lon="-2.835275678814754"><ele>38.0</ele><time>2026-05-01T18:04:37Z</time></trkpt><trkpt lat="43.35905534850412" lon="-2.8353304891975277"><ele>38.0</ele><time>2026-05-01T18:04:38Z</time></trkpt><trkpt lat="43.35890549456056" lon="-2.8353889307477447"><ele>38.0</ele><time>2026-05-01T18:04:39Z</time></trkpt><trkpt lat="43.35876808781073" lon="-2.8354560790587002"><ele>38.0</ele><time>2026-05-01T18:04:40Z</time></trkpt><trkpt lat="43.35864439815901" lon="-2.8355205098671505"><ele>38.0</ele><time>2026-05-01T18:04:41Z</time></trkpt><trkpt lat="43.358520041638755" lon="-2.8355953615181844"><ele>37.0</ele><time>2026-05-01T18:04:42Z</time></trkpt><trkpt lat="43.358394063751916" lon="-2.8356941230699855"><ele>36.0</ele><time>2026-05-01T18:04:43Z</time></trkpt><trkpt lat="43.35827101562428" lon="-2.83582796155577"><ele>35.0</ele><time>2026-05-01T18:04:44Z</time></trkpt><trkpt lat="43.358166164144485" lon="-2.83596869056455"><ele>34.0</ele><time>2026-05-01T18:04:45Z</time></trkpt><trkpt lat="43.3580626862223" lon="-2.8361453839522386"><ele>32.333333333333336</ele><time>2026-05-01T18:04:46Z</time></trkpt><trkpt lat="43.357936311847055" lon="-2.8363276923778336"><ele>30.666666666666664</ele><time>2026-05-01T18:04:47Z</time></trkpt><trkpt lat="43.35782848197933" lon="-2.8365234528239336"><ele>29.0</ele><time>2026-05-01T18:04:48Z</time></trkpt><trkpt lat="43.357728938406666" lon="-2.8367074230442606"><ele>29.333333333333332</ele><time>2026-05-01T18:04:49Z</time></trkpt><trkpt lat="43.35762974046617" lon="-2.836892899817623"><ele>29.666666666666664</ele><time>2026-05-01T18:04:50Z</time></trkpt><trkpt lat="43.35753567850244" lon="-2.8370690037842063"><ele>30.0</ele><time>2026-05-01T18:04:51Z</time></trkpt><trkpt lat="43.35755377429529" lon="-2.837346159371601"><ele>30.0</ele><time>2026-05-01T18:04:52Z</time></trkpt><trkpt lat="43.357552003800116" lon="-2.837583490874763"><ele>30.0</ele><time>2026-05-01T18:04:53Z</time></trkpt><trkpt lat="43.35760592367851" lon="-2.8378458445340473"><ele>30.0</ele><time>2026-05-01T18:04:54Z</time></trkpt><trkpt lat="43.35768562074831" lon="-2.838071351552306"><ele>29.666666666666664</ele><time>2026-05-01T18:04:55Z</time></trkpt><trkpt lat="43.3577993164352" lon="-2.8382790538367515"><ele>29.333333333333332</ele><time>2026-05-01T18:04:56Z</time></trkpt><trkpt lat="43.357942497719584" lon="-2.8384797836484204"><ele>29.0</ele><time>2026-05-01T18:04:57Z</time></trkpt><trkpt lat="43.358073876814665" lon="-2.8387122765700323"><ele>31.0</ele><time>2026-05-01T18:04:58Z</time></trkpt><trkpt lat="43.35821139808685" lon="-2.838983269123462"><ele>33.0</ele><time>2026-05-01T18:04:59Z</time></trkpt><trkpt lat="43.35838549881692" lon="-2.839263402849812"><ele>31.0</ele><time>2026-05-01T18:05:00Z</time></trkpt><trkpt lat="43.35857943604966" lon="-2.839546812430662"><ele>29.0</ele><time>2026-05-01T18:05:01Z</time></trkpt><trkpt lat="43.35875777552697" lon="-2.8398465826019517"><ele>31.5</ele><time>2026-05-01T18:05:02Z</time></trkpt><trkpt lat="43.358936650641446" lon="-2.8401537381795356"><ele>34.0</ele><time>2026-05-01T18:05:03Z</time></trkpt><trkpt lat="43.35911981925997" lon="-2.840468733241312"><ele>34.0</ele><time>2026-05-01T18:05:04Z</time></trkpt><trkpt lat="43.35930148229995" lon="-2.8408033677691154"><ele>34.0</ele><time>2026-05-01T18:05:05Z</time></trkpt><trkpt lat="43.359474122011164" lon="-2.8411573755106483"><ele>31.5</ele><time>2026-05-01T18:05:06Z</time></trkpt><trkpt lat="43.35964402721934" lon="-2.841522185723032"><ele>29.0</ele><time>2026-05-01T18:05:07Z</time></trkpt><trkpt lat="43.359806383325264" lon="-2.841893071693666"><ele>28.0</ele><time>2026-05-01T18:05:08Z</time></trkpt><trkpt lat="43.359954740654246" lon="-2.842269906796855"><ele>27.0</ele><time>2026-05-01T18:05:09Z</time></trkpt><trkpt lat="43.36009695121429" lon="-2.8426517230199324"><ele>25.0</ele><time>2026-05-01T18:05:10Z</time></trkpt><trkpt lat="43.36022907560972" lon="-2.843051901304579"><ele>23.0</ele><time>2026-05-01T18:05:11Z</time></trkpt><trkpt lat="43.36033880145803" lon="-2.8434603778574026"><ele>20.5</ele><time>2026-05-01T18:05:12Z</time></trkpt><trkpt lat="43.36043953977363" lon="-2.8438775928166344"><ele>18.0</ele><time>2026-05-01T18:05:13Z</time></trkpt><trkpt lat="43.34672029247181" lon="-2.8607090929139702"><ele>28.5</ele><time>2026-05-01T18:06:14Z</time></trkpt><trkpt lat="43.346361183652526" lon="-2.8608718636458956"><ele>39.0</ele><time>2026-05-01T18:06:15Z</time></trkpt><trkpt lat="43.34599435957689" lon="-2.861032025108124"><ele>41.5</ele><time>2026-05-01T18:06:16Z</time></trkpt><trkpt lat="43.345685234117525" lon="-2.8611670658711152"><ele>44.0</ele><time>2026-05-01T18:06:17Z</time></trkpt><trkpt lat="43.345380359836675" lon="-2.861313750578953"><ele>44.0</ele><time>2026-05-01T18:06:18Z</time></trkpt><trkpt lat="43.34507298292395" lon="-2.8614836290943715"><ele>44.0</ele><time>2026-05-01T18:06:19Z</time></trkpt><trkpt lat="43.344747913658615" lon="-2.861667578840221"><ele>45.5</ele><time>2026-05-01T18:06:20Z</time></trkpt><trkpt lat="43.34442011924193" lon="-2.861862972561927"><ele>47.0</ele><time>2026-05-01T18:06:21Z</time></trkpt><trkpt lat="43.344090858710025" lon="-2.862064629143811"><ele>44.5</ele><time>2026-05-01T18:06:22Z</time></trkpt><trkpt lat="43.34376248312607" lon="-2.862255243758797"><ele>42.0</ele><time>2026-05-01T18:06:23Z</time></trkpt><trkpt lat="43.34343452389382" lon="-2.862426540866489"><ele>42.0</ele><time>2026-05-01T18:06:24Z</time></trkpt><trkpt lat="43.343116186583046" lon="-2.862609240347889"><ele>42.0</ele><time>2026-05-01T18:06:25Z</time></trkpt><trkpt lat="43.342782978242845" lon="-2.8628053623575678"><ele>44.0</ele><time>2026-05-01T18:06:26Z</time></trkpt><trkpt lat="43.3424512591557" lon="-2.8630077538867327"><ele>46.0</ele><time>2026-05-01T18:06:27Z</time></trkpt><trkpt lat="43.342122255186794" lon="-2.8631886730313667"><ele>47.0</ele><time>2026-05-01T18:06:28Z</time></trkpt><trkpt lat="43.34178893119256" lon="-2.8633609644761475"><ele>48.0</ele><time>2026-05-01T18:06:29Z</time></trkpt><trkpt lat="43.34145967661132" lon="-2.8635249420356943"><ele>50.5</ele><time>2026-05-01T18:06:30Z</time></trkpt><trkpt lat="43.34112423246884" lon="-2.8636662865307687"><ele>53.0</ele><time>2026-05-01T18:06:31Z</time></trkpt><trkpt lat="43.34077354389037" lon="-2.863810554088875"><ele>53.0</ele><time>2026-05-01T18:06:32Z</time></trkpt><trkpt lat="43.340428695932935" lon="-2.8639584711075403"><ele>53.0</ele><time>2026-05-01T18:06:33Z</time></trkpt><trkpt lat="43.34008176720779" lon="-2.864099903307576"><ele>53.0</ele><time>2026-05-01T18:06:34Z</time></trkpt><trkpt lat="43.33975090320215" lon="-2.86423693664752"><ele>53.0</ele><time>2026-05-01T18:06:35Z</time></trkpt><trkpt lat="43.33942802424447" lon="-2.8643728387858105"><ele>58.5</ele><time>2026-05-01T18:06:36Z</time></trkpt><trkpt lat="43.339102086020894" lon="-2.8645013431528588"><ele>64.0</ele><time>2026-05-01T18:06:37Z</time></trkpt><trkpt lat="43.33877698022789" lon="-2.864646293464865"><ele>64.0</ele><time>2026-05-01T18:06:38Z</time></trkpt><trkpt lat="43.33845177604197" lon="-2.864802210634372"><ele>64.0</ele><time>2026-05-01T18:06:39Z</time></trkpt><trkpt lat="43.33812770049791" lon="-2.864975218951577"><ele>63.5</ele><time>2026-05-01T18:06:40Z</time></trkpt><trkpt lat="43.33780321450661" lon="-2.8651750115650505"><ele>63.0</ele><time>2026-05-01T18:06:41Z</time></trkpt><trkpt lat="43.33748394635152" lon="-2.865382268604501"><ele>60.0</ele><time>2026-05-01T18:06:42Z</time></trkpt><trkpt lat="43.33717119620033" lon="-2.8656171220020896"><ele>57.0</ele><time>2026-05-01T18:06:43Z</time></trkpt><trkpt lat="43.33685819006701" lon="-2.8658748479367673"><ele>59.5</ele><time>2026-05-01T18:06:44Z</time></trkpt><trkpt lat="43.336553913229125" lon="-2.866112458384907"><ele>62.0</ele><time>2026-05-01T18:06:45Z</time></trkpt><trkpt lat="43.33624323826004" lon="-2.866368421407518"><ele>63.0</ele><time>2026-05-01T18:06:46Z</time></trkpt><trkpt lat="43.335952690980726" lon="-2.8666705179616847"><ele>64.0</ele><time>2026-05-01T18:06:47Z</time></trkpt><trkpt lat="43.335660443215744" lon="-2.8669560940607615"><ele>63.0</ele><time>2026-05-01T18:06:48Z</time></trkpt><trkpt lat="43.33536624151076" lon="-2.8672405794219573"><ele>62.0</ele><time>2026-05-01T18:06:49Z</time></trkpt><trkpt lat="43.33507077984239" lon="-2.867512282177917"><ele>65.0</ele><time>2026-05-01T18:06:50Z</time></trkpt><trkpt lat="43.33477983692467" lon="-2.867783436304548"><ele>68.0</ele><time>2026-05-01T18:06:51Z</time></trkpt><trkpt lat="43.33447871714857" lon="-2.86803170515761"><ele>68.0</ele><time>2026-05-01T18:06:52Z</time></trkpt><trkpt lat="43.33417611968337" lon="-2.8682810196096526"><ele>68.0</ele><time>2026-05-01T18:06:53Z</time></trkpt><trkpt lat="43.33388044056948" lon="-2.8685223117549663"><ele>68.5</ele><time>2026-05-01T18:06:54Z</time></trkpt><trkpt lat="43.33357891231574" lon="-2.8687576239937926"><ele>69.0</ele><time>2026-05-01T18:06:55Z</time></trkpt><trkpt lat="43.333278075888714" lon="-2.868979798139861"><ele>67.5</ele><time>2026-05-01T18:06:56Z</time></trkpt><trkpt lat="43.33295638303092" lon="-2.86918388069335"><ele>66.0</ele><time>2026-05-01T18:06:57Z</time></trkpt><trkpt lat="43.33264066961873" lon="-2.8693699292670787"><ele>66.0</ele><time>2026-05-01T18:06:58Z</time></trkpt><trkpt lat="43.33229979929002" lon="-2.869527331425945"><ele>66.0</ele><time>2026-05-01T18:06:59Z</time></trkpt><trkpt lat="43.331973308700455" lon="-2.869671739683222"><ele>66.0</ele><time>2026-05-01T18:07:00Z</time></trkpt><trkpt lat="43.33162639768648" lon="-2.8697923488165253"><ele>66.0</ele><time>2026-05-01T18:07:01Z</time></trkpt><trkpt lat="43.33129545085757" lon="-2.869936154455862"><ele>67.5</ele><time>2026-05-01T18:07:02Z</time></trkpt><trkpt lat="43.330956726302375" lon="-2.8700623958823903"><ele>69.0</ele><time>2026-05-01T18:07:03Z</time></trkpt><trkpt lat="43.33060950703714" lon="-2.870184858979924"><ele>70.5</ele><time>2026-05-01T18:07:04Z</time></trkpt><trkpt lat="43.33026068883788" lon="-2.870301258036373"><ele>72.0</ele><time>2026-05-01T18:07:05Z</time></trkpt><trkpt lat="43.32992710038769" lon="-2.8704370375286166"><ele>73.0</ele><time>2026-05-01T18:07:06Z</time></trkpt><trkpt lat="43.32959675416141" lon="-2.870564480606001"><ele>74.0</ele><time>2026-05-01T18:07:07Z</time></trkpt><trkpt lat="43.329268501805245" lon="-2.870675845132846"><ele>74.0</ele><time>2026-05-01T18:07:08Z</time></trkpt><trkpt lat="43.328943377451225" lon="-2.8707887698772208"><ele>74.0</ele><time>2026-05-01T18:07:09Z</time></trkpt><trkpt lat="43.328621628199784" lon="-2.8709012191635135"><ele>76.0</ele><time>2026-05-01T18:07:10Z</time></trkpt><trkpt lat="43.328307063319606" lon="-2.871029945070661"><ele>78.0</ele><time>2026-05-01T18:07:11Z</time></trkpt><trkpt lat="43.32800217195934" lon="-2.8711563584305746"><ele>78.5</ele><time>2026-05-01T18:07:12Z</time></trkpt><trkpt lat="43.32770757582001" lon="-2.871289004123082"><ele>79.0</ele><time>2026-05-01T18:07:13Z</time></trkpt><trkpt lat="43.309909030439094" lon="-2.879957485961933"><ele>79.0</ele><time>2026-05-01T18:08:14Z</time></trkpt><trkpt lat="43.3095952375982" lon="-2.880049814711021"><ele>79.0</ele><time>2026-05-01T18:08:15Z</time></trkpt><trkpt lat="43.30927811824453" lon="-2.8801175564170607"><ele>78.0</ele><time>2026-05-01T18:08:16Z</time></trkpt><trkpt lat="43.30895842997947" lon="-2.880150768678273"><ele>77.0</ele><time>2026-05-01T18:08:17Z</time></trkpt><trkpt lat="43.30863342184273" lon="-2.8801461476681047"><ele>72.5</ele><time>2026-05-01T18:08:18Z</time></trkpt><trkpt lat="43.30831095111725" lon="-2.880125547019405"><ele>68.0</ele><time>2026-05-01T18:08:19Z</time></trkpt><trkpt lat="43.307985619900776" lon="-2.880081231372001"><ele>68.0</ele><time>2026-05-01T18:08:20Z</time></trkpt><trkpt lat="43.30766904593465" lon="-2.88001962821097"><ele>68.0</ele><time>2026-05-01T18:08:21Z</time></trkpt><trkpt lat="43.30734239777862" lon="-2.879964821428798"><ele>66.5</ele><time>2026-05-01T18:08:22Z</time></trkpt><trkpt lat="43.30700898645346" lon="-2.879972075573411"><ele>65.0</ele><time>2026-05-01T18:08:23Z</time></trkpt><trkpt lat="43.3066898951275" lon="-2.8799467190440224"><ele>62.5</ele><time>2026-05-01T18:08:24Z</time></trkpt><trkpt lat="43.30637885033681" lon="-2.8799666825475563"><ele>60.0</ele><time>2026-05-01T18:08:25Z</time></trkpt><trkpt lat="43.30607110565706" lon="-2.880012027793156"><ele>60.0</ele><time>2026-05-01T18:08:26Z</time></trkpt><trkpt lat="43.30576424109327" lon="-2.8800852987001657"><ele>60.0</ele><time>2026-05-01T18:08:27Z</time></trkpt><trkpt lat="43.30546781625294" lon="-2.8801931787370854"><ele>57.5</ele><time>2026-05-01T18:08:28Z</time></trkpt><trkpt lat="43.30517884573384" lon="-2.880326305585682"><ele>55.0</ele><time>2026-05-01T18:08:29Z</time></trkpt><trkpt lat="43.304904664345635" lon="-2.8804916303329597"><ele>55.0</ele><time>2026-05-01T18:08:30Z</time></trkpt><trkpt lat="43.30463172661061" lon="-2.8806796403028865"><ele>55.0</ele><time>2026-05-01T18:08:31Z</time></trkpt><trkpt lat="43.30437357715674" lon="-2.8808857469159297"><ele>56.5</ele><time>2026-05-01T18:08:32Z</time></trkpt><trkpt lat="43.3041144237319" lon="-2.8811112413162814"><ele>58.0</ele><time>2026-05-01T18:08:33Z</time></trkpt><trkpt lat="43.30386581847808" lon="-2.8813327993749676"><ele>58.0</ele><time>2026-05-01T18:08:34Z</time></trkpt><trkpt lat="43.3036165111883" lon="-2.8815662413248786"><ele>58.0</ele><time>2026-05-01T18:08:35Z</time></trkpt><trkpt lat="43.30336588513142" lon="-2.8817887429842566"><ele>59.5</ele><time>2026-05-01T18:08:36Z</time></trkpt><trkpt lat="43.303107452583006" lon="-2.8819961748685756"><ele>61.0</ele><time>2026-05-01T18:08:37Z</time></trkpt><trkpt lat="43.302846790425285" lon="-2.882206562167942"><ele>58.0</ele><time>2026-05-01T18:08:38Z</time></trkpt><trkpt lat="43.302580744000686" lon="-2.8823886940084162"><ele>55.0</ele><time>2026-05-01T18:08:39Z</time></trkpt><trkpt lat="43.30231593254912" lon="-2.8825434280489795"><ele>54.0</ele><time>2026-05-01T18:08:40Z</time></trkpt><trkpt lat="43.30204232362514" lon="-2.8826761585747165"><ele>53.0</ele><time>2026-05-01T18:08:41Z</time></trkpt><trkpt lat="43.301763227301514" lon="-2.882780153768106"><ele>53.0</ele><time>2026-05-01T18:08:42Z</time></trkpt><trkpt lat="43.30147973628291" lon="-2.8828607009638447"><ele>53.0</ele><time>2026-05-01T18:08:43Z</time></trkpt><trkpt lat="43.30119071507299" lon="-2.8829280190508966"><ele>52.5</ele><time>2026-05-01T18:08:44Z</time></trkpt><trkpt lat="43.30089867601811" lon="-2.882983335902869"><ele>52.0</ele><time>2026-05-01T18:08:45Z</time></trkpt><trkpt lat="43.30060032726547" lon="-2.8830106284611947"><ele>52.0</ele><time>2026-05-01T18:08:46Z</time></trkpt><trkpt lat="43.3003062356858" lon="-2.883004747874217"><ele>52.0</ele><time>2026-05-01T18:08:47Z</time></trkpt><trkpt lat="43.30001547814601" lon="-2.882977468053072"><ele>50.0</ele><time>2026-05-01T18:08:48Z</time></trkpt><trkpt lat="43.29972474865359" lon="-2.8829060538872207"><ele>48.0</ele><time>2026-05-01T18:08:49Z</time></trkpt><trkpt lat="43.299429855087325" lon="-2.882826292271056"><ele>48.0</ele><time>2026-05-01T18:08:50Z</time></trkpt><trkpt lat="43.29913662303053" lon="-2.882713525891918"><ele>48.0</ele><time>2026-05-01T18:08:51Z</time></trkpt><trkpt lat="43.29885495675072" lon="-2.882601021997609"><ele>45.0</ele><time>2026-05-01T18:08:52Z</time></trkpt><trkpt lat="43.298587189160195" lon="-2.8825094621998337"><ele>42.0</ele><time>2026-05-01T18:08:53Z</time></trkpt><trkpt lat="43.298323045568466" lon="-2.88242843217929"><ele>41.0</ele><time>2026-05-01T18:08:54Z</time></trkpt><trkpt lat="43.29805374631422" lon="-2.8823426071975153"><ele>40.0</ele><time>2026-05-01T18:08:55Z</time></trkpt><trkpt lat="43.29777714317366" lon="-2.882254915463282"><ele>40.0</ele><time>2026-05-01T18:08:56Z</time></trkpt><trkpt lat="43.2974967109983" lon="-2.882176686382711"><ele>40.0</ele><time>2026-05-01T18:08:57Z</time></trkpt><trkpt lat="43.297211810723184" lon="-2.882110042400262"><ele>40.0</ele><time>2026-05-01T18:08:58Z</time></trkpt><trkpt lat="43.296930210186545" lon="-2.882048242311105"><ele>40.0</ele><time>2026-05-01T18:08:59Z</time></trkpt><trkpt lat="43.296651375642185" lon="-2.8819979137954874"><ele>40.5</ele><time>2026-05-01T18:09:00Z</time></trkpt><trkpt lat="43.29637033497937" lon="-2.8819636352985603"><ele>41.0</ele><time>2026-05-01T18:09:01Z</time></trkpt><trkpt lat="43.29608922744674" lon="-2.8819328795554164"><ele>41.0</ele><time>2026-05-01T18:09:02Z</time></trkpt><trkpt lat="43.29579809132613" lon="-2.8819088098690124"><ele>41.0</ele><time>2026-05-01T18:09:03Z</time></trkpt><trkpt lat="43.29551212225778" lon="-2.8818964438167662"><ele>42.0</ele><time>2026-05-01T18:09:04Z</time></trkpt><trkpt lat="43.29522474853674" lon="-2.8818971182382818"><ele>43.0</ele><time>2026-05-01T18:09:05Z</time></trkpt><trkpt lat="43.29494528532406" lon="-2.8819006250387336"><ele>44.0</ele><time>2026-05-01T18:09:06Z</time></trkpt><trkpt lat="43.29466740496023" lon="-2.8819087157456744"><ele>45.0</ele><time>2026-05-01T18:09:07Z</time></trkpt><trkpt lat="43.294388101676276" lon="-2.8819125415128948"><ele>45.0</ele><time>2026-05-01T18:09:08Z</time></trkpt><trkpt lat="43.29411196935524" lon="-2.881899722110074"><ele>45.0</ele><time>2026-05-01T18:09:09Z</time></trkpt><trkpt lat="43.293837563230646" lon="-2.8818716916534832"><ele>44.5</ele><time>2026-05-01T18:09:10Z</time></trkpt><trkpt lat="43.293568520379374" lon="-2.881841816102899"><ele>44.0</ele><time>2026-05-01T18:09:11Z</time></trkpt><trkpt lat="43.29331434182928" lon="-2.8817889357982986"><ele>40.0</ele><time>2026-05-01T18:09:12Z</time></trkpt><trkpt lat="43.293061996648866" lon="-2.881719749937583"><ele>36.0</ele><time>2026-05-01T18:09:13Z</time></trkpt><trkpt lat="43.28204065403063" lon="-2.892478528793945"><ele>63.5</ele><time>2026-05-01T18:10:14Z</time></trkpt><trkpt lat="43.281816834939455" lon="-2.8927277829727007"><ele>91.0</ele><time>2026-05-01T18:10:15Z</time></trkpt><trkpt lat="43.281619656709154" lon="-2.892990482392123"><ele>91.0</ele><time>2026-05-01T18:10:16Z</time></trkpt><trkpt lat="43.28144943569981" lon="-2.893292099062172"><ele>91.0</ele><time>2026-05-01T18:10:17Z</time></trkpt><trkpt lat="43.281320347345755" lon="-2.893621118240224"><ele>97.0</ele><time>2026-05-01T18:10:18Z</time></trkpt><trkpt lat="43.281221850977545" lon="-2.8939834026587614"><ele>103.0</ele><time>2026-05-01T18:10:19Z</time></trkpt><trkpt lat="43.281165652343276" lon="-2.894377799678335"><ele>110.5</ele><time>2026-05-01T18:10:20Z</time></trkpt><trkpt lat="43.281130746532405" lon="-2.894762983847011"><ele>118.0</ele><time>2026-05-01T18:10:21Z</time></trkpt><trkpt lat="43.28114121766488" lon="-2.895146042399069"><ele>126.0</ele><time>2026-05-01T18:10:22Z</time></trkpt><trkpt lat="43.281175411074386" lon="-2.89553296330904"><ele>134.0</ele><time>2026-05-01T18:10:23Z</time></trkpt><trkpt lat="43.28120510720058" lon="-2.89592668755074"><ele>136.0</ele><time>2026-05-01T18:10:24Z</time></trkpt><trkpt lat="43.28122009014889" lon="-2.89630903000248"><ele>138.0</ele><time>2026-05-01T18:10:25Z</time></trkpt><trkpt lat="43.281219772289106" lon="-2.8966911701101945"><ele>137.5</ele><time>2026-05-01T18:10:26Z</time></trkpt><trkpt lat="43.28119708019176" lon="-2.8970667554221032"><ele>137.0</ele><time>2026-05-01T18:10:27Z</time></trkpt><trkpt lat="43.28114614467106" lon="-2.897425643176418"><ele>138.0</ele><time>2026-05-01T18:10:28Z</time></trkpt><trkpt lat="43.28105364202434" lon="-2.8977608677948417"><ele>139.0</ele><time>2026-05-01T18:10:29Z</time></trkpt><trkpt lat="43.28093728237114" lon="-2.8980797544486805"><ele>139.0</ele><time>2026-05-01T18:10:30Z</time></trkpt><trkpt lat="43.28079786163415" lon="-2.898377744580024"><ele>139.0</ele><time>2026-05-01T18:10:31Z</time></trkpt><trkpt lat="43.280647292418145" lon="-2.898635908297553"><ele>140.0</ele><time>2026-05-01T18:10:32Z</time></trkpt><trkpt lat="43.280495142882685" lon="-2.8988926183075083"><ele>141.0</ele><time>2026-05-01T18:10:33Z</time></trkpt><trkpt lat="43.28034818501286" lon="-2.899136471847036"><ele>138.0</ele><time>2026-05-01T18:10:34Z</time></trkpt><trkpt lat="43.28018986302983" lon="-2.899354480667683"><ele>135.0</ele><time>2026-05-01T18:10:35Z</time></trkpt><trkpt lat="43.28001901333091" lon="-2.899538409901944"><ele>132.0</ele><time>2026-05-01T18:10:36Z</time></trkpt><trkpt lat="43.27984410290109" lon="-2.8996890462392724"><ele>139.66666666666666</ele><time>2026-05-01T18:10:37Z</time></trkpt><trkpt lat="43.279648897828174" lon="-2.8997835972733643"><ele>147.33333333333331</ele><time>2026-05-01T18:10:38Z</time></trkpt><trkpt lat="43.279459860587146" lon="-2.8998790196805855"><ele>155.0</ele><time>2026-05-01T18:10:39Z</time></trkpt><trkpt lat="43.27926428272192" lon="-2.899953368973172"><ele>155.0</ele><time>2026-05-01T18:10:40Z</time></trkpt><trkpt lat="43.279076968859535" lon="-2.900022131586011"><ele>155.0</ele><time>2026-05-01T18:10:41Z</time></trkpt><trkpt lat="43.27888662010866" lon="-2.9001018168358077"><ele>155.0</ele><time>2026-05-01T18:10:42Z</time></trkpt><trkpt lat="43.278684838160636" lon="-2.9001930509716605"><ele>158.0</ele><time>2026-05-01T18:10:43Z</time></trkpt><trkpt lat="43.27847457611384" lon="-2.900332339337155"><ele>161.0</ele><time>2026-05-01T18:10:44Z</time></trkpt><trkpt lat="43.27827405367936" lon="-2.9005145427078856"><ele>169.5</ele><time>2026-05-01T18:10:45Z</time></trkpt><trkpt lat="43.278086667652474" lon="-2.9007336259659025"><ele>178.0</ele><time>2026-05-01T18:10:46Z</time></trkpt><trkpt lat="43.277893762074655" lon="-2.900956962902347"><ele>178.0</ele><time>2026-05-01T18:10:47Z</time></trkpt><trkpt lat="43.2777042504362" lon="-2.9011765205899005"><ele>178.0</ele><time>2026-05-01T18:10:48Z</time></trkpt><trkpt lat="43.277503062581395" lon="-2.901358721955417"><ele>178.0</ele><time>2026-05-01T18:10:49Z</time></trkpt><trkpt lat="43.27730446535197" lon="-2.901520620350225"><ele>178.0</ele><time>2026-05-01T18:10:50Z</time></trkpt><trkpt lat="43.277097423359606" lon="-2.9016701026742373"><ele>178.5</ele><time>2026-05-01T18:10:51Z</time></trkpt><trkpt lat="43.276890234343135" lon="-2.9018443442921744"><ele>179.0</ele><time>2026-05-01T18:10:52Z</time></trkpt><trkpt lat="43.27668450858712" lon="-2.9020387411759465"><ele>179.0</ele><time>2026-05-01T18:10:53Z</time></trkpt><trkpt lat="43.27649629550291" lon="-2.902231476380188"><ele>179.0</ele><time>2026-05-01T18:10:54Z</time></trkpt><trkpt lat="43.27630862145049" lon="-2.902409228166224"><ele>179.0</ele><time>2026-05-01T18:10:55Z</time></trkpt><trkpt lat="43.27612529141594" lon="-2.9025730547738515"><ele>179.0</ele><time>2026-05-01T18:10:56Z</time></trkpt><trkpt lat="43.275943411307516" lon="-2.9027140840582315"><ele>179.0</ele><time>2026-05-01T18:10:57Z</time></trkpt><trkpt lat="43.27575994616676" lon="-2.9028350739030686"><ele>184.66666666666666</ele><time>2026-05-01T18:10:58Z</time></trkpt><trkpt lat="43.275565279834595" lon="-2.902942060337514"><ele>190.33333333333331</ele><time>2026-05-01T18:10:59Z</time></trkpt><trkpt lat="43.27533487689166" lon="-2.903018905170194"><ele>196.0</ele><time>2026-05-01T18:11:00Z</time></trkpt><trkpt lat="43.275086783291805" lon="-2.9030971690353184"><ele>196.0</ele><time>2026-05-01T18:11:01Z</time></trkpt><trkpt lat="43.27482822943014" lon="-2.9031662662031614"><ele>196.0</ele><time>2026-05-01T18:11:02Z</time></trkpt><trkpt lat="43.274559245373815" lon="-2.9032340851514293"><ele>200.5</ele><time>2026-05-01T18:11:03Z</time></trkpt><trkpt lat="43.274285643387294" lon="-2.9033060882719934"><ele>205.0</ele><time>2026-05-01T18:11:04Z</time></trkpt><trkpt lat="43.27401288313205" lon="-2.9033833228760306"><ele>205.5</ele><time>2026-05-01T18:11:05Z</time></trkpt><trkpt lat="43.273742997679555" lon="-2.903457163993674"><ele>206.0</ele><time>2026-05-01T18:11:06Z</time></trkpt><trkpt lat="43.27347999743478" lon="-2.903527735442972"><ele>206.0</ele><time>2026-05-01T18:11:07Z</time></trkpt><trkpt lat="43.27321804292455" lon="-2.903596570226733"><ele>206.0</ele><time>2026-05-01T18:11:08Z</time></trkpt><trkpt lat="43.27296916875262" lon="-2.9036343523966996"><ele>207.0</ele><time>2026-05-01T18:11:09Z</time></trkpt><trkpt lat="43.2727302333305" lon="-2.9036203223077033"><ele>208.0</ele><time>2026-05-01T18:11:10Z</time></trkpt><trkpt lat="43.27249359216541" lon="-2.903547681989147"><ele>210.0</ele><time>2026-05-01T18:11:11Z</time></trkpt><trkpt lat="43.27226823420021" lon="-2.9034278943039546"><ele>212.0</ele><time>2026-05-01T18:11:12Z</time></trkpt><trkpt lat="43.27204314171021" lon="-2.903297643672261"><ele>178.0</ele><time>2026-05-01T18:11:13Z</time></trkpt><trkpt lat="43.265294246271075" lon="-2.9047547491258183"><ele>178.0</ele><time>2026-05-01T18:12:14Z</time></trkpt><trkpt lat="43.26520831455495" lon="-2.9046240266172942"><ele>178.0</ele><time>2026-05-01T18:12:15Z</time></trkpt><trkpt lat="43.26512460245347" lon="-2.9044969860018486"><ele>178.0</ele><time>2026-05-01T18:12:16Z</time></trkpt><trkpt lat="43.26504890335556" lon="-2.90436867009959"><ele>178.0</ele><time>2026-05-01T18:12:17Z</time></trkpt><trkpt lat="43.26497931212989" lon="-2.9042340757100846"><ele>178.25</ele><time>2026-05-01T18:12:18Z</time></trkpt><trkpt lat="43.26490617939207" lon="-2.9040888196148424"><ele>178.5</ele><time>2026-05-01T18:12:19Z</time></trkpt><trkpt lat="43.26484241469022" lon="-2.903930965417872"><ele>178.75</ele><time>2026-05-01T18:12:20Z</time></trkpt><trkpt lat="43.26479060155068" lon="-2.903767560805844"><ele>179.0</ele><time>2026-05-01T18:12:21Z</time></trkpt><trkpt lat="43.26475695050118" lon="-2.903596275009776"><ele>179.75</ele><time>2026-05-01T18:12:22Z</time></trkpt><trkpt lat="43.26473315353421" lon="-2.903409308723197"><ele>180.5</ele><time>2026-05-01T18:12:23Z</time></trkpt><trkpt lat="43.264718918574175" lon="-2.9032128440602247"><ele>181.25</ele><time>2026-05-01T18:12:24Z</time></trkpt><trkpt lat="43.26471234875981" lon="-2.903015520789266"><ele>182.0</ele><time>2026-05-01T18:12:25Z</time></trkpt><trkpt lat="43.264699370786104" lon="-2.902821820896674"><ele>182.0</ele><time>2026-05-01T18:12:26Z</time></trkpt><trkpt lat="43.26467261808793" lon="-2.902640526615045"><ele>182.0</ele><time>2026-05-01T18:12:27Z</time></trkpt><trkpt lat="43.26463916197956" lon="-2.9024715886106938"><ele>182.0</ele><time>2026-05-01T18:12:28Z</time></trkpt><trkpt lat="43.264600970231434" lon="-2.9022902986014665"><ele>182.0</ele><time>2026-05-01T18:12:29Z</time></trkpt><trkpt lat="43.26454368350097" lon="-2.902100999002865"><ele>178.66666666666666</ele><time>2026-05-01T18:12:30Z</time></trkpt><trkpt lat="43.26447266781382" lon="-2.9019181050175007"><ele>175.33333333333334</ele><time>2026-05-01T18:12:31Z</time></trkpt><trkpt lat="43.264390370803355" lon="-2.9017582577828946"><ele>172.0</ele><time>2026-05-01T18:12:32Z</time></trkpt><trkpt lat="43.26429097745642" lon="-2.901587478578097"><ele>171.66666666666669</ele><time>2026-05-01T18:12:33Z</time></trkpt><trkpt lat="43.26415691068451" lon="-2.9013683065234694"><ele>171.33333333333334</ele><time>2026-05-01T18:12:34Z</time></trkpt><trkpt lat="43.264003619086914" lon="-2.9011515019279583"><ele>171.0</ele><time>2026-05-01T18:12:35Z</time></trkpt><trkpt lat="43.26385212809238" lon="-2.9009429376898823"><ele>162.5</ele><time>2026-05-01T18:12:36Z</time></trkpt><trkpt lat="43.26370991744177" lon="-2.900699240294154"><ele>154.0</ele><time>2026-05-01T18:12:37Z</time></trkpt><trkpt lat="43.263583248332495" lon="-2.900419108054851"><ele>154.0</ele><time>2026-05-01T18:12:38Z</time></trkpt><trkpt lat="43.263484251360886" lon="-2.9000880828086464"><ele>154.0</ele><time>2026-05-01T18:12:39Z</time></trkpt><trkpt lat="43.26340862896926" lon="-2.899734912566095"><ele>156.0</ele><time>2026-05-01T18:12:40Z</time></trkpt><trkpt lat="43.263334283623934" lon="-2.899368582405265"><ele>158.0</ele><time>2026-05-01T18:12:41Z</time></trkpt><trkpt lat="43.263254515655035" lon="-2.8990163076292403"><ele>158.0</ele><time>2026-05-01T18:12:42Z</time></trkpt><trkpt lat="43.263149280152476" lon="-2.898673658719097"><ele>158.0</ele><time>2026-05-01T18:12:43Z</time></trkpt><trkpt lat="43.26301754345681" lon="-2.898329691475842"><ele>148.5</ele><time>2026-05-01T18:12:44Z</time></trkpt><trkpt lat="43.26282439989327" lon="-2.8980296223825404"><ele>139.0</ele><time>2026-05-01T18:12:45Z</time></trkpt><trkpt lat="43.26259948311353" lon="-2.8977650364187366"><ele>136.0</ele><time>2026-05-01T18:12:46Z</time></trkpt><trkpt lat="43.26235868202751" lon="-2.897537812133416"><ele>133.0</ele><time>2026-05-01T18:12:47Z</time></trkpt><trkpt lat="43.26209492320919" lon="-2.8973524587710426"><ele>133.0</ele><time>2026-05-01T18:12:48Z</time></trkpt><trkpt lat="43.26187793538536" lon="-2.897098187287167"><ele>133.0</ele><time>2026-05-01T18:12:49Z</time></trkpt><trkpt lat="43.26170373535662" lon="-2.896864078182401"><ele>132.33333333333334</ele><time>2026-05-01T18:12:50Z</time></trkpt><trkpt lat="43.26154553709602" lon="-2.8966669651581842"><ele>131.66666666666666</ele><time>2026-05-01T18:12:51Z</time></trkpt><trkpt lat="43.26141257810826" lon="-2.89644750073168"><ele>131.0</ele><time>2026-05-01T18:12:52Z</time></trkpt><trkpt lat="43.26126367956036" lon="-2.8962664462517056"><ele>131.0</ele><time>2026-05-01T18:12:53Z</time></trkpt><trkpt lat="43.26112868939405" lon="-2.89609059617487"><ele>131.0</ele><time>2026-05-01T18:12:54Z</time></trkpt><trkpt lat="43.26101298265071" lon="-2.895931014660847"><ele>131.0</ele><time>2026-05-01T18:12:55Z</time></trkpt><trkpt lat="43.26088909578684" lon="-2.8957703981365905"><ele>131.66666666666666</ele><time>2026-05-01T18:12:56Z</time></trkpt><trkpt lat="43.26078213432374" lon="-2.89561268275065"><ele>132.33333333333334</ele><time>2026-05-01T18:12:57Z</time></trkpt><trkpt lat="43.260683713840535" lon="-2.8954564764414954"><ele>133.0</ele><time>2026-05-01T18:12:58Z</time></trkpt><trkpt lat="43.26058123721075" lon="-2.895300172525613"><ele>131.33333333333334</ele><time>2026-05-01T18:12:59Z</time></trkpt><trkpt lat="43.26047816719364" lon="-2.8951357799660427"><ele>129.66666666666666</ele><time>2026-05-01T18:13:00Z</time></trkpt><trkpt lat="43.26035439139137" lon="-2.8949493452525554"><ele>128.0</ele><time>2026-05-01T18:13:01Z</time></trkpt><trkpt lat="43.26021681699551" lon="-2.8947423980220504"><ele>125.33333333333333</ele><time>2026-05-01T18:13:02Z</time></trkpt><trkpt lat="43.26007272101089" lon="-2.894513318648186"><ele>122.66666666666666</ele><time>2026-05-01T18:13:03Z</time></trkpt><trkpt lat="43.2599243405336" lon="-2.894285164668474"><ele>120.0</ele><time>2026-05-01T18:13:04Z</time></trkpt><trkpt lat="43.25977073434301" lon="-2.894057676625707"><ele>112.0</ele><time>2026-05-01T18:13:05Z</time></trkpt><trkpt lat="43.25958509304729" lon="-2.893854047948396"><ele>104.0</ele><time>2026-05-01T18:13:06Z</time></trkpt><trkpt lat="43.25939093567189" lon="-2.893688150303823"><ele>104.0</ele><time>2026-05-01T18:13:07Z</time></trkpt><trkpt lat="43.259146937653405" lon="-2.893568721093661"><ele>104.0</ele><time>2026-05-01T18:13:08Z</time></trkpt><trkpt lat="43.25889668961589" lon="-2.8935096271491294"><ele>97.5</ele><time>2026-05-01T18:13:09Z</time></trkpt><trkpt lat="43.25861316241885" lon="-2.8935014123150697"><ele>91.0</ele><time>2026-05-01T18:13:10Z</time></trkpt><trkpt lat="43.25833550085496" lon="-2.8935480499483552"><ele>93.5</ele><time>2026-05-01T18:13:11Z</time></trkpt><trkpt lat="43.25804815261752" lon="-2.8936440988052112"><ele>96.0</ele><time>2026-05-01T18:13:12Z</time></trkpt><trkpt lat="43.257750251663445" lon="-2.893788022035493"><ele>55.0</ele><time>2026-05-01T18:13:13Z</time></trkpt><trkpt lat="43.2532890151443" lon="-2.8967649299766696"><ele>50.5</ele><time>2026-05-01T18:14:14Z</time></trkpt><trkpt lat="43.253415972658665" lon="-2.8963747198171523"><ele>46.0</ele><time>2026-05-01T18:14:15Z</time></trkpt><trkpt lat="43.253540378361855" lon="-2.895973473371819"><ele>40.0</ele><time>2026-05-01T18:14:16Z</time></trkpt><trkpt lat="43.25366657773979" lon="-2.895591399833247"><ele>34.0</ele><time>2026-05-01T18:14:17Z</time></trkpt><trkpt lat="43.25379523693669" lon="-2.895208918904838"><ele>32.0</ele><time>2026-05-01T18:14:18Z</time></trkpt><trkpt lat="43.25391965776561" lon="-2.894831793690043"><ele>30.0</ele><time>2026-05-01T18:14:19Z</time></trkpt><trkpt lat="43.25404338964146" lon="-2.894464081111188"><ele>38.0</ele><time>2026-05-01T18:14:20Z</time></trkpt><trkpt lat="43.25416628403232" lon="-2.8941077069200247"><ele>46.0</ele><time>2026-05-01T18:14:21Z</time></trkpt><trkpt lat="43.254277925869715" lon="-2.8937661099512857"><ele>46.0</ele><time>2026-05-01T18:14:22Z</time></trkpt><trkpt lat="43.254372976121076" lon="-2.8934259845803516"><ele>46.0</ele><time>2026-05-01T18:14:23Z</time></trkpt><trkpt lat="43.25443854194349" lon="-2.893079096115733"><ele>40.0</ele><time>2026-05-01T18:14:24Z</time></trkpt><trkpt lat="43.254454623278825" lon="-2.8927179804882646"><ele>34.0</ele><time>2026-05-01T18:14:25Z</time></trkpt><trkpt lat="43.25443701329112" lon="-2.8923516675201504"><ele>33.5</ele><time>2026-05-01T18:14:26Z</time></trkpt><trkpt lat="43.25438222559062" lon="-2.891974505961453"><ele>33.0</ele><time>2026-05-01T18:14:27Z</time></trkpt><trkpt lat="43.25430058950962" lon="-2.891598837083315"><ele>37.5</ele><time>2026-05-01T18:14:28Z</time></trkpt><trkpt lat="43.2541785759201" lon="-2.8912244940511944"><ele>42.0</ele><time>2026-05-01T18:14:29Z</time></trkpt><trkpt lat="43.25404522448823" lon="-2.89085816828418"><ele>34.0</ele><time>2026-05-01T18:14:30Z</time></trkpt><trkpt lat="43.25390342142516" lon="-2.890513117069609"><ele>26.0</ele><time>2026-05-01T18:14:31Z</time></trkpt><trkpt lat="43.2537419341979" lon="-2.890207222246371"><ele>30.5</ele><time>2026-05-01T18:14:32Z</time></trkpt><trkpt lat="43.253552125108534" lon="-2.8899342856797907"><ele>35.0</ele><time>2026-05-01T18:14:33Z</time></trkpt><trkpt lat="43.253338867803464" lon="-2.8896930335994493"><ele>32.5</ele><time>2026-05-01T18:14:34Z</time></trkpt><trkpt lat="43.25310430931642" lon="-2.889493476080105"><ele>30.0</ele><time>2026-05-01T18:14:35Z</time></trkpt><trkpt lat="43.25285770646572" lon="-2.889334704826111"><ele>39.0</ele><time>2026-05-01T18:14:36Z</time></trkpt><trkpt lat="43.25260259423915" lon="-2.8892217401296936"><ele>48.0</ele><time>2026-05-01T18:14:37Z</time></trkpt><trkpt lat="43.252331751371194" lon="-2.8891470171213967"><ele>44.0</ele><time>2026-05-01T18:14:38Z</time></trkpt><trkpt lat="43.2520692685085" lon="-2.8890979542612687"><ele>40.0</ele><time>2026-05-01T18:14:39Z</time></trkpt><trkpt lat="43.25180162169195" lon="-2.8890595517531366"><ele>40.0</ele><time>2026-05-01T18:14:40Z</time></trkpt><trkpt lat="43.25153688683589" lon="-2.8890100231619127"><ele>40.0</ele><time>2026-05-01T18:14:41Z</time></trkpt><trkpt lat="43.25128928843671" lon="-2.8889346796914284"><ele>38.0</ele><time>2026-05-01T18:14:42Z</time></trkpt><trkpt lat="43.25105268376139" lon="-2.8888338398211126"><ele>36.0</ele><time>2026-05-01T18:14:43Z</time></trkpt><trkpt lat="43.25083388521132" lon="-2.888738321861004"><ele>36.0</ele><time>2026-05-01T18:14:44Z</time></trkpt><trkpt lat="43.250625343840404" lon="-2.888647870040263"><ele>36.0</ele><time>2026-05-01T18:14:45Z</time></trkpt><trkpt lat="43.2504096282386" lon="-2.888571786985854"><ele>36.0</ele><time>2026-05-01T18:14:46Z</time></trkpt><trkpt lat="43.25018874793316" lon="-2.8884997733106026"><ele>39.0</ele><time>2026-05-01T18:14:47Z</time></trkpt><trkpt lat="43.24995365356121" lon="-2.8884301391430958"><ele>42.0</ele><time>2026-05-01T18:14:48Z</time></trkpt><trkpt lat="43.24969780909767" lon="-2.888403293113521"><ele>38.5</ele><time>2026-05-01T18:14:49Z</time></trkpt><trkpt lat="43.24944908468441" lon="-2.888441830221118"><ele>35.0</ele><time>2026-05-01T18:14:50Z</time></trkpt><trkpt lat="43.2491912139502" lon="-2.8885458058643287"><ele>40.5</ele><time>2026-05-01T18:14:51Z</time></trkpt><trkpt lat="43.2489386924978" lon="-2.888693305385317"><ele>46.0</ele><time>2026-05-01T18:14:52Z</time></trkpt><trkpt lat="43.248700815843655" lon="-2.8888633765142004"><ele>46.0</ele><time>2026-05-01T18:14:53Z</time></trkpt><trkpt lat="43.248474235073765" lon="-2.8890132699450404"><ele>46.0</ele><time>2026-05-01T18:14:54Z</time></trkpt><trkpt lat="43.248259926100744" lon="-2.88913062736024"><ele>43.0</ele><time>2026-05-01T18:14:55Z</time></trkpt><trkpt lat="43.248037877856305" lon="-2.889201543802555"><ele>40.0</ele><time>2026-05-01T18:14:56Z</time></trkpt><trkpt lat="43.24780859634943" lon="-2.889242652553502"><ele>40.0</ele><time>2026-05-01T18:14:57Z</time></trkpt><trkpt lat="43.24757951560691" lon="-2.8892274805770732"><ele>40.0</ele><time>2026-05-01T18:14:58Z</time></trkpt><trkpt lat="43.247364147278255" lon="-2.8891523379650788"><ele>40.5</ele><time>2026-05-01T18:14:59Z</time></trkpt><trkpt lat="43.247148502161664" lon="-2.8890348885363166"><ele>41.0</ele><time>2026-05-01T18:15:00Z</time></trkpt><trkpt lat="43.24694619450033" lon="-2.8888867667027087"><ele>41.0</ele><time>2026-05-01T18:15:01Z</time></trkpt><trkpt lat="43.246779761364834" lon="-2.8887040540362574"><ele>41.0</ele><time>2026-05-01T18:15:02Z</time></trkpt><trkpt lat="43.24663826047345" lon="-2.8884784474342458"><ele>41.0</ele><time>2026-05-01T18:15:03Z</time></trkpt><trkpt lat="43.246514515156875" lon="-2.8881899190187688"><ele>41.0</ele><time>2026-05-01T18:15:04Z</time></trkpt><trkpt lat="43.24641620780758" lon="-2.887868292212976"><ele>41.0</ele><time>2026-05-01T18:15:05Z</time></trkpt><trkpt lat="43.24634794861018" lon="-2.887528581004758"><ele>39.5</ele><time>2026-05-01T18:15:06Z</time></trkpt><trkpt lat="43.24629652464298" lon="-2.8871566212561874"><ele>38.0</ele><time>2026-05-01T18:15:07Z</time></trkpt><trkpt lat="43.24624601865835" lon="-2.886787038810003"><ele>37.5</ele><time>2026-05-01T18:15:08Z</time></trkpt><trkpt lat="43.24619060665538" lon="-2.8864548660971545"><ele>37.0</ele><time>2026-05-01T18:15:09Z</time></trkpt><trkpt lat="43.24613321543219" lon="-2.886135266099216"><ele>36.66666666666667</ele><time>2026-05-01T18:15:10Z</time></trkpt><trkpt lat="43.24608100187999" lon="-2.8858447984404227"><ele>36.333333333333336</ele><time>2026-05-01T18:15:11Z</time></trkpt><trkpt lat="43.24603285338378" lon="-2.8855872124591806"><ele>36.0</ele><time>2026-05-01T18:15:12Z</time></trkpt><trkpt lat="43.24598804749999" lon="-2.8853519797364995"><ele>32.0</ele><time>2026-05-01T18:15:13Z</time></trkpt><trkpt lat="43.24528558572207" lon="-2.881331629340456"><ele>32.0</ele><time>2026-05-01T18:16:14Z</time></trkpt><trkpt lat="43.24521942866771" lon="-2.880973781911003"><ele>32.0</ele><time>2026-05-01T18:16:15Z</time></trkpt><trkpt lat="43.24513187108052" lon="-2.8806185579946333"><ele>35.5</ele><time>2026-05-01T18:16:16Z</time></trkpt><trkpt lat="43.245021064749935" lon="-2.8802786262794258"><ele>39.0</ele><time>2026-05-01T18:16:17Z</time></trkpt><trkpt lat="43.2448839092197" lon="-2.879960145654137"><ele>41.5</ele><time>2026-05-01T18:16:18Z</time></trkpt><trkpt lat="43.24472565575236" lon="-2.8796506133424233"><ele>44.0</ele><time>2026-05-01T18:16:19Z</time></trkpt><trkpt lat="43.24455076928853" lon="-2.8793673374731323"><ele>42.5</ele><time>2026-05-01T18:16:20Z</time></trkpt><trkpt lat="43.24436211037907" lon="-2.879070612013363"><ele>41.0</ele><time>2026-05-01T18:16:21Z</time></trkpt><trkpt lat="43.244185454234554" lon="-2.8787658713986124"><ele>41.0</ele><time>2026-05-01T18:16:22Z</time></trkpt><trkpt lat="43.24401844411421" lon="-2.8784738359814726"><ele>41.0</ele><time>2026-05-01T18:16:23Z</time></trkpt><trkpt lat="43.243843361038465" lon="-2.8781864485695796"><ele>37.0</ele><time>2026-05-01T18:16:24Z</time></trkpt><trkpt lat="43.24366914427417" lon="-2.8779064341325995"><ele>33.0</ele><time>2026-05-01T18:16:25Z</time></trkpt><trkpt lat="43.243498803198634" lon="-2.8776274250843894"><ele>35.0</ele><time>2026-05-01T18:16:26Z</time></trkpt><trkpt lat="43.24332691644041" lon="-2.8773397696690997"><ele>37.0</ele><time>2026-05-01T18:16:27Z</time></trkpt><trkpt lat="43.24315646548718" lon="-2.8770574560758027"><ele>37.0</ele><time>2026-05-01T18:16:28Z</time></trkpt><trkpt lat="43.242985634486615" lon="-2.876780475021533"><ele>37.0</ele><time>2026-05-01T18:16:29Z</time></trkpt><trkpt lat="43.24280986976902" lon="-2.8765079696092397"><ele>37.0</ele><time>2026-05-01T18:16:30Z</time></trkpt><trkpt lat="43.24261997016275" lon="-2.876248169362562"><ele>37.0</ele><time>2026-05-01T18:16:31Z</time></trkpt><trkpt lat="43.24241226350126" lon="-2.876014741011964"><ele>35.5</ele><time>2026-05-01T18:16:32Z</time></trkpt><trkpt lat="43.242206478215174" lon="-2.875817960955112"><ele>34.0</ele><time>2026-05-01T18:16:33Z</time></trkpt><trkpt lat="43.24200433852392" lon="-2.8756289761147253"><ele>34.0</ele><time>2026-05-01T18:16:34Z</time></trkpt><trkpt lat="43.24180523126891" lon="-2.8754363002255197"><ele>34.0</ele><time>2026-05-01T18:16:35Z</time></trkpt><trkpt lat="43.241624289910206" lon="-2.8752573215228487"><ele>34.0</ele><time>2026-05-01T18:16:36Z</time></trkpt><trkpt lat="43.24145230632064" lon="-2.8751172337024937"><ele>34.0</ele><time>2026-05-01T18:16:37Z</time></trkpt><trkpt lat="43.241305325170536" lon="-2.8749902271436896"><ele>34.0</ele><time>2026-05-01T18:16:38Z</time></trkpt><trkpt lat="43.24118050647956" lon="-2.8748490536876448"><ele>35.0</ele><time>2026-05-01T18:16:39Z</time></trkpt><trkpt lat="43.24108004149381" lon="-2.874752769441527"><ele>36.0</ele><time>2026-05-01T18:16:40Z</time></trkpt><trkpt lat="43.24098647377547" lon="-2.8746627675687675"><ele>37.0</ele><time>2026-05-01T18:16:41Z</time></trkpt><trkpt lat="43.240914223851696" lon="-2.87459326526876"><ele>38.0</ele><time>2026-05-01T18:16:42Z</time></trkpt><trkpt lat="43.240751402587854" lon="-2.8747073348765424"><ele>38.0</ele><time>2026-05-01T18:16:43Z</time></trkpt><trkpt lat="43.24068225518563" lon="-2.874659110742531"><ele>38.0</ele><time>2026-05-01T18:16:44Z</time></trkpt><trkpt lat="43.24063971899903" lon="-2.874588238889667"><ele>38.0</ele><time>2026-05-01T18:16:45Z</time></trkpt><trkpt lat="43.24064580928296" lon="-2.8744232096259448"><ele>38.0</ele><time>2026-05-01T18:16:47Z</time></trkpt><trkpt lat="43.24068383778071" lon="-2.8743525477104472"><ele>38.0</ele><time>2026-05-01T18:16:48Z</time></trkpt><trkpt lat="43.240796383884906" lon="-2.874278728333377"><ele>38.0</ele><time>2026-05-01T18:16:50Z</time></trkpt><trkpt lat="43.24086328633753" lon="-2.8742767135032006"><ele>38.0</ele><time>2026-05-01T18:16:51Z</time></trkpt><trkpt lat="43.24098848104088" lon="-2.874276528497129"><ele>38.0</ele><time>2026-05-01T18:16:53Z</time></trkpt><trkpt lat="43.24109802832305" lon="-2.874240189020741"><ele>38.0</ele><time>2026-05-01T18:16:55Z</time></trkpt><trkpt lat="43.24117540851672" lon="-2.874156167933405"><ele>38.0</ele><time>2026-05-01T18:16:57Z</time></trkpt><trkpt lat="43.24123973994129" lon="-2.874044405616958"><ele>38.199999999999996</ele><time>2026-05-01T18:17:00Z</time></trkpt><trkpt lat="43.24129203391594" lon="-2.8739537518942524"><ele>38.4</ele><time>2026-05-01T18:17:02Z</time></trkpt><trkpt lat="43.24135618637305" lon="-2.8738392814937823"><ele>38.599999999999994</ele><time>2026-05-01T18:17:08Z</time></trkpt><trkpt lat="43.241385236995015" lon="-2.873748545269002"><ele>38.8</ele><time>2026-05-01T18:17:11Z</time></trkpt><trkpt lat="43.24137506395687" lon="-2.873641239294092"><ele>39.0</ele><time>2026-05-01T18:17:13Z</time></trkpt><trkpt lat="43.24225557536504" lon="-2.874627704584707"><ele>35.0</ele><time>2026-05-01T18:18:39.428Z</time></trkpt></trkseg></trk></gpx>